<?xml version="1.0" encoding="UTF-8" standalone="no" ?>
<gpx xmlns="http://www.topografix.com/GPX/1/1" xmlns:xsi="http://www.w3.org/2001/XMLSchema-instance" xsi:schemaLocation="http://www.topografix.com/GPX/1/1 http://www.topografix.com/GPX/1/1/gpx.xsd" version="1.1" creator="VisuGPX - https://www.visugpx.com">
  <metadata>
    <name>Lot boucle 1 jour 4</name>
    <desc><![CDATA[Au départ du gîte de la Loge : chambre ça allait et par contre repas chez l'hôte à 500m. Table moyenne...
Pour les chevaux en paddocks avec foin mais pour l'aliment confonde cheval et poule : blé ? heureusement on a été sauvé par un groupe de cavaliers avec voiture suiveuse qui nous on dépanné.
Pour la rando : pas osé prendre le chemin de halage : trop de monde et vu l'étroitesse et dalles au sol, entre mon borgne et jeune cheval on a pris la route.
Arrivée au centre équestre Pech Merle ]]></desc>
  </metadata>
  <trk>
    <name><![CDATA[SityTrail - Lot boucle 1 jour 4]]></name>
    <trkseg>
      <trkpt lat="44.38826" lon="1.66698">
        <ele>265</ele>
        <time>2019-08-08T07:54:18.128Z</time>
      </trkpt>
      <trkpt lat="44.38828" lon="1.66717">
        <ele>265</ele>
        <time>2019-08-08T07:58:19.684Z</time>
      </trkpt>
      <trkpt lat="44.38829" lon="1.66717">
        <ele>265</ele>
        <time>2019-08-08T07:58:24.719Z</time>
      </trkpt>
      <trkpt lat="44.3883" lon="1.66718">
        <ele>265</ele>
        <time>2019-08-08T07:58:29.700Z</time>
      </trkpt>
      <trkpt lat="44.3883" lon="1.66718">
        <ele>265</ele>
        <time>2019-08-08T07:58:34.682Z</time>
      </trkpt>
      <trkpt lat="44.38831" lon="1.66719">
        <ele>265</ele>
        <time>2019-08-08T07:58:39.710Z</time>
      </trkpt>
      <trkpt lat="44.38826" lon="1.66714">
        <ele>265</ele>
        <time>2019-08-08T08:00:34.693Z</time>
      </trkpt>
      <trkpt lat="44.38826" lon="1.66714">
        <ele>265</ele>
        <time>2019-08-08T08:00:39.702Z</time>
      </trkpt>
      <trkpt lat="44.38828" lon="1.66711">
        <ele>265</ele>
        <time>2019-08-08T08:00:44.722Z</time>
      </trkpt>
      <trkpt lat="44.3883" lon="1.66706">
        <ele>265</ele>
        <time>2019-08-08T08:00:49.710Z</time>
      </trkpt>
      <trkpt lat="44.38835" lon="1.66704">
        <ele>265</ele>
        <time>2019-08-08T08:00:54.715Z</time>
      </trkpt>
      <trkpt lat="44.38836" lon="1.66704">
        <ele>265</ele>
        <time>2019-08-08T08:00:58.734Z</time>
      </trkpt>
      <trkpt lat="44.3884" lon="1.66704">
        <ele>265</ele>
        <time>2019-08-08T08:01:02.755Z</time>
      </trkpt>
      <trkpt lat="44.38847" lon="1.66704">
        <ele>263</ele>
        <time>2019-08-08T08:01:07.723Z</time>
      </trkpt>
      <trkpt lat="44.3885" lon="1.66705">
        <ele>263</ele>
        <time>2019-08-08T08:01:12.732Z</time>
      </trkpt>
      <trkpt lat="44.3885" lon="1.66705">
        <ele>263</ele>
        <time>2019-08-08T08:01:17.739Z</time>
      </trkpt>
      <trkpt lat="44.38849" lon="1.66705">
        <ele>263</ele>
        <time>2019-08-08T08:01:21.750Z</time>
      </trkpt>
      <trkpt lat="44.38846" lon="1.66702">
        <ele>265</ele>
        <time>2019-08-08T08:01:26.716Z</time>
      </trkpt>
      <trkpt lat="44.38842" lon="1.66701">
        <ele>265</ele>
        <time>2019-08-08T08:01:31.734Z</time>
      </trkpt>
      <trkpt lat="44.38841" lon="1.66701">
        <ele>265</ele>
        <time>2019-08-08T08:01:35.748Z</time>
      </trkpt>
      <trkpt lat="44.38843" lon="1.66703">
        <ele>265</ele>
        <time>2019-08-08T08:01:40.725Z</time>
      </trkpt>
      <trkpt lat="44.38849" lon="1.66699">
        <ele>263</ele>
        <time>2019-08-08T08:01:45.742Z</time>
      </trkpt>
      <trkpt lat="44.38853" lon="1.6669">
        <ele>263</ele>
        <time>2019-08-08T08:01:50.725Z</time>
      </trkpt>
      <trkpt lat="44.38859" lon="1.66682">
        <ele>263</ele>
        <time>2019-08-08T08:01:55.717Z</time>
      </trkpt>
      <trkpt lat="44.38863" lon="1.66676">
        <ele>263</ele>
        <time>2019-08-08T08:01:59.743Z</time>
      </trkpt>
      <trkpt lat="44.38867" lon="1.66668">
        <ele>263</ele>
        <time>2019-08-08T08:02:04.722Z</time>
      </trkpt>
      <trkpt lat="44.38869" lon="1.6666">
        <ele>263</ele>
        <time>2019-08-08T08:02:09.737Z</time>
      </trkpt>
      <trkpt lat="44.38871" lon="1.66653">
        <ele>263</ele>
        <time>2019-08-08T08:02:14.734Z</time>
      </trkpt>
      <trkpt lat="44.38872" lon="1.66647">
        <ele>264</ele>
        <time>2019-08-08T08:02:18.747Z</time>
      </trkpt>
      <trkpt lat="44.38874" lon="1.6664">
        <ele>264</ele>
        <time>2019-08-08T08:02:23.734Z</time>
      </trkpt>
      <trkpt lat="44.38878" lon="1.66633">
        <ele>262</ele>
        <time>2019-08-08T08:02:28.711Z</time>
      </trkpt>
      <trkpt lat="44.38882" lon="1.66627">
        <ele>262</ele>
        <time>2019-08-08T08:02:33.718Z</time>
      </trkpt>
      <trkpt lat="44.38885" lon="1.66625">
        <ele>262</ele>
        <time>2019-08-08T08:02:38.716Z</time>
      </trkpt>
      <trkpt lat="44.38886" lon="1.66622">
        <ele>262</ele>
        <time>2019-08-08T08:02:43.720Z</time>
      </trkpt>
      <trkpt lat="44.38889" lon="1.66613">
        <ele>262</ele>
        <time>2019-08-08T08:02:48.727Z</time>
      </trkpt>
      <trkpt lat="44.38888" lon="1.66607">
        <ele>262</ele>
        <time>2019-08-08T08:02:53.735Z</time>
      </trkpt>
      <trkpt lat="44.38884" lon="1.666">
        <ele>262</ele>
        <time>2019-08-08T08:02:58.711Z</time>
      </trkpt>
      <trkpt lat="44.38878" lon="1.66596">
        <ele>261</ele>
        <time>2019-08-08T08:03:03.699Z</time>
      </trkpt>
      <trkpt lat="44.38876" lon="1.66592">
        <ele>261</ele>
        <time>2019-08-08T08:03:07.745Z</time>
      </trkpt>
      <trkpt lat="44.38872" lon="1.66587">
        <ele>263</ele>
        <time>2019-08-08T08:03:12.717Z</time>
      </trkpt>
      <trkpt lat="44.38869" lon="1.6658">
        <ele>263</ele>
        <time>2019-08-08T08:03:17.712Z</time>
      </trkpt>
      <trkpt lat="44.38867" lon="1.66576">
        <ele>263</ele>
        <time>2019-08-08T08:03:22.737Z</time>
      </trkpt>
      <trkpt lat="44.38863" lon="1.66569">
        <ele>261</ele>
        <time>2019-08-08T08:03:27.738Z</time>
      </trkpt>
      <trkpt lat="44.38861" lon="1.66564">
        <ele>261</ele>
        <time>2019-08-08T08:03:32.704Z</time>
      </trkpt>
      <trkpt lat="44.38859" lon="1.6656">
        <ele>261</ele>
        <time>2019-08-08T08:03:36.730Z</time>
      </trkpt>
      <trkpt lat="44.38855" lon="1.66552">
        <ele>261</ele>
        <time>2019-08-08T08:03:40.753Z</time>
      </trkpt>
      <trkpt lat="44.3885" lon="1.66544">
        <ele>261</ele>
        <time>2019-08-08T08:03:45.727Z</time>
      </trkpt>
      <trkpt lat="44.38847" lon="1.66537">
        <ele>261</ele>
        <time>2019-08-08T08:03:49.755Z</time>
      </trkpt>
      <trkpt lat="44.38841" lon="1.66528">
        <ele>261</ele>
        <time>2019-08-08T08:03:54.740Z</time>
      </trkpt>
      <trkpt lat="44.38836" lon="1.6652">
        <ele>261</ele>
        <time>2019-08-08T08:03:59.710Z</time>
      </trkpt>
      <trkpt lat="44.38832" lon="1.66515">
        <ele>261</ele>
        <time>2019-08-08T08:04:04.731Z</time>
      </trkpt>
      <trkpt lat="44.38828" lon="1.66508">
        <ele>261</ele>
        <time>2019-08-08T08:04:09.721Z</time>
      </trkpt>
      <trkpt lat="44.38823" lon="1.66501">
        <ele>261</ele>
        <time>2019-08-08T08:04:14.751Z</time>
      </trkpt>
      <trkpt lat="44.38819" lon="1.66497">
        <ele>261</ele>
        <time>2019-08-08T08:04:19.734Z</time>
      </trkpt>
      <trkpt lat="44.38816" lon="1.66491">
        <ele>263</ele>
        <time>2019-08-08T08:04:24.712Z</time>
      </trkpt>
      <trkpt lat="44.38811" lon="1.66481">
        <ele>263</ele>
        <time>2019-08-08T08:04:29.723Z</time>
      </trkpt>
      <trkpt lat="44.38806" lon="1.66476">
        <ele>263</ele>
        <time>2019-08-08T08:04:34.725Z</time>
      </trkpt>
      <trkpt lat="44.38802" lon="1.66469">
        <ele>263</ele>
        <time>2019-08-08T08:04:39.709Z</time>
      </trkpt>
      <trkpt lat="44.38797" lon="1.66462">
        <ele>263</ele>
        <time>2019-08-08T08:04:44.722Z</time>
      </trkpt>
      <trkpt lat="44.38793" lon="1.66458">
        <ele>263</ele>
        <time>2019-08-08T08:04:49.739Z</time>
      </trkpt>
      <trkpt lat="44.38789" lon="1.66453">
        <ele>264</ele>
        <time>2019-08-08T08:04:54.720Z</time>
      </trkpt>
      <trkpt lat="44.38784" lon="1.66448">
        <ele>264</ele>
        <time>2019-08-08T08:04:59.730Z</time>
      </trkpt>
      <trkpt lat="44.38779" lon="1.66445">
        <ele>264</ele>
        <time>2019-08-08T08:05:04.711Z</time>
      </trkpt>
      <trkpt lat="44.38774" lon="1.66442">
        <ele>264</ele>
        <time>2019-08-08T08:05:09.720Z</time>
      </trkpt>
      <trkpt lat="44.3877" lon="1.66438">
        <ele>264</ele>
        <time>2019-08-08T08:05:14.725Z</time>
      </trkpt>
      <trkpt lat="44.38764" lon="1.66433">
        <ele>264</ele>
        <time>2019-08-08T08:05:19.741Z</time>
      </trkpt>
      <trkpt lat="44.38758" lon="1.66429">
        <ele>265</ele>
        <time>2019-08-08T08:05:23.761Z</time>
      </trkpt>
      <trkpt lat="44.38752" lon="1.66425">
        <ele>265</ele>
        <time>2019-08-08T08:05:28.739Z</time>
      </trkpt>
      <trkpt lat="44.38746" lon="1.66421">
        <ele>265</ele>
        <time>2019-08-08T08:05:33.714Z</time>
      </trkpt>
      <trkpt lat="44.38743" lon="1.66419">
        <ele>265</ele>
        <time>2019-08-08T08:05:37.748Z</time>
      </trkpt>
      <trkpt lat="44.38739" lon="1.66416">
        <ele>265</ele>
        <time>2019-08-08T08:05:42.714Z</time>
      </trkpt>
      <trkpt lat="44.38734" lon="1.66413">
        <ele>265</ele>
        <time>2019-08-08T08:05:46.749Z</time>
      </trkpt>
      <trkpt lat="44.38729" lon="1.66409">
        <ele>265</ele>
        <time>2019-08-08T08:05:51.720Z</time>
      </trkpt>
      <trkpt lat="44.38722" lon="1.66403">
        <ele>265</ele>
        <time>2019-08-08T08:05:56.727Z</time>
      </trkpt>
      <trkpt lat="44.38716" lon="1.66399">
        <ele>264</ele>
        <time>2019-08-08T08:06:01.704Z</time>
      </trkpt>
      <trkpt lat="44.38711" lon="1.66396">
        <ele>264</ele>
        <time>2019-08-08T08:06:06.744Z</time>
      </trkpt>
      <trkpt lat="44.38707" lon="1.66394">
        <ele>265</ele>
        <time>2019-08-08T08:06:11.722Z</time>
      </trkpt>
      <trkpt lat="44.38701" lon="1.6639">
        <ele>265</ele>
        <time>2019-08-08T08:06:16.746Z</time>
      </trkpt>
      <trkpt lat="44.38697" lon="1.66387">
        <ele>265</ele>
        <time>2019-08-08T08:06:21.712Z</time>
      </trkpt>
      <trkpt lat="44.38692" lon="1.66384">
        <ele>265</ele>
        <time>2019-08-08T08:06:26.713Z</time>
      </trkpt>
      <trkpt lat="44.38684" lon="1.66378">
        <ele>265</ele>
        <time>2019-08-08T08:08:33.679Z</time>
      </trkpt>
      <trkpt lat="44.38684" lon="1.66377">
        <ele>265</ele>
        <time>2019-08-08T08:08:37.689Z</time>
      </trkpt>
      <trkpt lat="44.38682" lon="1.66376">
        <ele>265</ele>
        <time>2019-08-08T08:08:42.697Z</time>
      </trkpt>
      <trkpt lat="44.3868" lon="1.66373">
        <ele>265</ele>
        <time>2019-08-08T08:08:47.681Z</time>
      </trkpt>
      <trkpt lat="44.38679" lon="1.66372">
        <ele>265</ele>
        <time>2019-08-08T08:08:52.709Z</time>
      </trkpt>
      <trkpt lat="44.38677" lon="1.66372">
        <ele>265</ele>
        <time>2019-08-08T08:08:57.710Z</time>
      </trkpt>
      <trkpt lat="44.38669" lon="1.66366">
        <ele>265</ele>
        <time>2019-08-08T08:09:02.681Z</time>
      </trkpt>
      <trkpt lat="44.38665" lon="1.66365">
        <ele>265</ele>
        <time>2019-08-08T08:09:06.705Z</time>
      </trkpt>
      <trkpt lat="44.38664" lon="1.66363">
        <ele>265</ele>
        <time>2019-08-08T08:09:10.727Z</time>
      </trkpt>
      <trkpt lat="44.38662" lon="1.66363">
        <ele>265</ele>
        <time>2019-08-08T08:09:35.722Z</time>
      </trkpt>
      <trkpt lat="44.38663" lon="1.66357">
        <ele>265</ele>
        <time>2019-08-08T08:09:39.742Z</time>
      </trkpt>
      <trkpt lat="44.38665" lon="1.66351">
        <ele>265</ele>
        <time>2019-08-08T08:09:44.741Z</time>
      </trkpt>
      <trkpt lat="44.38668" lon="1.66345">
        <ele>263</ele>
        <time>2019-08-08T08:09:49.725Z</time>
      </trkpt>
      <trkpt lat="44.3867" lon="1.66343">
        <ele>263</ele>
        <time>2019-08-08T08:09:54.729Z</time>
      </trkpt>
      <trkpt lat="44.38673" lon="1.66339">
        <ele>263</ele>
        <time>2019-08-08T08:09:59.710Z</time>
      </trkpt>
      <trkpt lat="44.38677" lon="1.66335">
        <ele>263</ele>
        <time>2019-08-08T08:10:04.722Z</time>
      </trkpt>
      <trkpt lat="44.38682" lon="1.66331">
        <ele>262</ele>
        <time>2019-08-08T08:10:09.716Z</time>
      </trkpt>
      <trkpt lat="44.38688" lon="1.66327">
        <ele>262</ele>
        <time>2019-08-08T08:10:13.742Z</time>
      </trkpt>
      <trkpt lat="44.38696" lon="1.66318">
        <ele>261</ele>
        <time>2019-08-08T08:10:18.744Z</time>
      </trkpt>
      <trkpt lat="44.38704" lon="1.66306">
        <ele>261</ele>
        <time>2019-08-08T08:10:23.712Z</time>
      </trkpt>
      <trkpt lat="44.38708" lon="1.66298">
        <ele>261</ele>
        <time>2019-08-08T08:10:28.723Z</time>
      </trkpt>
      <trkpt lat="44.38712" lon="1.66294">
        <ele>262</ele>
        <time>2019-08-08T08:10:33.760Z</time>
      </trkpt>
      <trkpt lat="44.38715" lon="1.66288">
        <ele>263</ele>
        <time>2019-08-08T08:10:38.733Z</time>
      </trkpt>
      <trkpt lat="44.3872" lon="1.66279">
        <ele>263</ele>
        <time>2019-08-08T08:10:43.708Z</time>
      </trkpt>
      <trkpt lat="44.38723" lon="1.66273">
        <ele>263</ele>
        <time>2019-08-08T08:10:47.739Z</time>
      </trkpt>
      <trkpt lat="44.38728" lon="1.66264">
        <ele>263</ele>
        <time>2019-08-08T08:10:52.710Z</time>
      </trkpt>
      <trkpt lat="44.38732" lon="1.66258">
        <ele>265</ele>
        <time>2019-08-08T08:10:57.736Z</time>
      </trkpt>
      <trkpt lat="44.38735" lon="1.66253">
        <ele>265</ele>
        <time>2019-08-08T08:11:02.710Z</time>
      </trkpt>
      <trkpt lat="44.3874" lon="1.66249">
        <ele>267</ele>
        <time>2019-08-08T08:11:07.715Z</time>
      </trkpt>
      <trkpt lat="44.38744" lon="1.66243">
        <ele>267</ele>
        <time>2019-08-08T08:11:12.715Z</time>
      </trkpt>
      <trkpt lat="44.38749" lon="1.66238">
        <ele>267</ele>
        <time>2019-08-08T08:11:17.705Z</time>
      </trkpt>
      <trkpt lat="44.38753" lon="1.66234">
        <ele>267</ele>
        <time>2019-08-08T08:11:21.737Z</time>
      </trkpt>
      <trkpt lat="44.38757" lon="1.66228">
        <ele>267</ele>
        <time>2019-08-08T08:11:26.721Z</time>
      </trkpt>
      <trkpt lat="44.3876" lon="1.66225">
        <ele>267</ele>
        <time>2019-08-08T08:11:30.741Z</time>
      </trkpt>
      <trkpt lat="44.38765" lon="1.66218">
        <ele>269</ele>
        <time>2019-08-08T08:11:35.747Z</time>
      </trkpt>
      <trkpt lat="44.38774" lon="1.66212">
        <ele>269</ele>
        <time>2019-08-08T08:11:40.742Z</time>
      </trkpt>
      <trkpt lat="44.38779" lon="1.66208">
        <ele>269</ele>
        <time>2019-08-08T08:11:45.734Z</time>
      </trkpt>
      <trkpt lat="44.38784" lon="1.66203">
        <ele>269</ele>
        <time>2019-08-08T08:11:50.711Z</time>
      </trkpt>
      <trkpt lat="44.38788" lon="1.66199">
        <ele>269</ele>
        <time>2019-08-08T08:11:55.729Z</time>
      </trkpt>
      <trkpt lat="44.38792" lon="1.66195">
        <ele>270</ele>
        <time>2019-08-08T08:12:00.718Z</time>
      </trkpt>
      <trkpt lat="44.38796" lon="1.66191">
        <ele>270</ele>
        <time>2019-08-08T08:12:05.710Z</time>
      </trkpt>
      <trkpt lat="44.38799" lon="1.66187">
        <ele>270</ele>
        <time>2019-08-08T08:12:10.741Z</time>
      </trkpt>
      <trkpt lat="44.38809" lon="1.66183">
        <ele>270</ele>
        <time>2019-08-08T08:12:15.703Z</time>
      </trkpt>
      <trkpt lat="44.38817" lon="1.66181">
        <ele>270</ele>
        <time>2019-08-08T08:12:20.713Z</time>
      </trkpt>
      <trkpt lat="44.38823" lon="1.66176">
        <ele>270</ele>
        <time>2019-08-08T08:12:24.739Z</time>
      </trkpt>
      <trkpt lat="44.38828" lon="1.66173">
        <ele>270</ele>
        <time>2019-08-08T08:12:29.740Z</time>
      </trkpt>
      <trkpt lat="44.38833" lon="1.66169">
        <ele>270</ele>
        <time>2019-08-08T08:12:34.737Z</time>
      </trkpt>
      <trkpt lat="44.38838" lon="1.66166">
        <ele>270</ele>
        <time>2019-08-08T08:12:39.730Z</time>
      </trkpt>
      <trkpt lat="44.38843" lon="1.66161">
        <ele>270</ele>
        <time>2019-08-08T08:12:44.701Z</time>
      </trkpt>
      <trkpt lat="44.3885" lon="1.66155">
        <ele>270</ele>
        <time>2019-08-08T08:12:48.736Z</time>
      </trkpt>
      <trkpt lat="44.38854" lon="1.6615">
        <ele>271</ele>
        <time>2019-08-08T08:12:53.714Z</time>
      </trkpt>
      <trkpt lat="44.38864" lon="1.66142">
        <ele>271</ele>
        <time>2019-08-08T08:12:58.709Z</time>
      </trkpt>
      <trkpt lat="44.38872" lon="1.66136">
        <ele>271</ele>
        <time>2019-08-08T08:13:03.733Z</time>
      </trkpt>
      <trkpt lat="44.38877" lon="1.6613">
        <ele>271</ele>
        <time>2019-08-08T08:13:08.747Z</time>
      </trkpt>
      <trkpt lat="44.3888" lon="1.66125">
        <ele>271</ele>
        <time>2019-08-08T08:13:13.704Z</time>
      </trkpt>
      <trkpt lat="44.38882" lon="1.66121">
        <ele>271</ele>
        <time>2019-08-08T08:13:18.731Z</time>
      </trkpt>
      <trkpt lat="44.38887" lon="1.66116">
        <ele>271</ele>
        <time>2019-08-08T08:13:23.715Z</time>
      </trkpt>
      <trkpt lat="44.3889" lon="1.66113">
        <ele>271</ele>
        <time>2019-08-08T08:13:28.717Z</time>
      </trkpt>
      <trkpt lat="44.38897" lon="1.66106">
        <ele>271</ele>
        <time>2019-08-08T08:13:32.738Z</time>
      </trkpt>
      <trkpt lat="44.38902" lon="1.66103">
        <ele>271</ele>
        <time>2019-08-08T08:13:36.752Z</time>
      </trkpt>
      <trkpt lat="44.38907" lon="1.66099">
        <ele>272</ele>
        <time>2019-08-08T08:13:41.733Z</time>
      </trkpt>
      <trkpt lat="44.38912" lon="1.66096">
        <ele>271</ele>
        <time>2019-08-08T08:13:46.746Z</time>
      </trkpt>
      <trkpt lat="44.38918" lon="1.66091">
        <ele>271</ele>
        <time>2019-08-08T08:13:51.709Z</time>
      </trkpt>
      <trkpt lat="44.38923" lon="1.66087">
        <ele>271</ele>
        <time>2019-08-08T08:13:56.710Z</time>
      </trkpt>
      <trkpt lat="44.3893" lon="1.66081">
        <ele>271</ele>
        <time>2019-08-08T08:14:00.753Z</time>
      </trkpt>
      <trkpt lat="44.38932" lon="1.66077">
        <ele>271</ele>
        <time>2019-08-08T08:14:05.719Z</time>
      </trkpt>
      <trkpt lat="44.38934" lon="1.66073">
        <ele>271</ele>
        <time>2019-08-08T08:14:09.733Z</time>
      </trkpt>
      <trkpt lat="44.38939" lon="1.66066">
        <ele>271</ele>
        <time>2019-08-08T08:14:14.722Z</time>
      </trkpt>
      <trkpt lat="44.38942" lon="1.66061">
        <ele>271</ele>
        <time>2019-08-08T08:14:19.729Z</time>
      </trkpt>
      <trkpt lat="44.38946" lon="1.66055">
        <ele>271</ele>
        <time>2019-08-08T08:14:24.708Z</time>
      </trkpt>
      <trkpt lat="44.3895" lon="1.6605">
        <ele>271</ele>
        <time>2019-08-08T08:14:28.739Z</time>
      </trkpt>
      <trkpt lat="44.38955" lon="1.66042">
        <ele>271</ele>
        <time>2019-08-08T08:14:33.730Z</time>
      </trkpt>
      <trkpt lat="44.3896" lon="1.66036">
        <ele>270</ele>
        <time>2019-08-08T08:14:38.707Z</time>
      </trkpt>
      <trkpt lat="44.38962" lon="1.6603">
        <ele>270</ele>
        <time>2019-08-08T08:14:42.739Z</time>
      </trkpt>
      <trkpt lat="44.38969" lon="1.66022">
        <ele>270</ele>
        <time>2019-08-08T08:14:47.709Z</time>
      </trkpt>
      <trkpt lat="44.38974" lon="1.66017">
        <ele>270</ele>
        <time>2019-08-08T08:14:52.709Z</time>
      </trkpt>
      <trkpt lat="44.38978" lon="1.66012">
        <ele>269</ele>
        <time>2019-08-08T08:14:56.711Z</time>
      </trkpt>
      <trkpt lat="44.38981" lon="1.66001">
        <ele>269</ele>
        <time>2019-08-08T08:15:01.720Z</time>
      </trkpt>
      <trkpt lat="44.38982" lon="1.65993">
        <ele>269</ele>
        <time>2019-08-08T08:15:05.703Z</time>
      </trkpt>
      <trkpt lat="44.38984" lon="1.65982">
        <ele>269</ele>
        <time>2019-08-08T08:15:10.701Z</time>
      </trkpt>
      <trkpt lat="44.38986" lon="1.65976">
        <ele>267</ele>
        <time>2019-08-08T08:15:14.714Z</time>
      </trkpt>
      <trkpt lat="44.3899" lon="1.65971">
        <ele>267</ele>
        <time>2019-08-08T08:15:18.755Z</time>
      </trkpt>
      <trkpt lat="44.38994" lon="1.65967">
        <ele>267</ele>
        <time>2019-08-08T08:15:22.701Z</time>
      </trkpt>
      <trkpt lat="44.38999" lon="1.65963">
        <ele>267</ele>
        <time>2019-08-08T08:15:27.717Z</time>
      </trkpt>
      <trkpt lat="44.39003" lon="1.65959">
        <ele>267</ele>
        <time>2019-08-08T08:15:32.717Z</time>
      </trkpt>
      <trkpt lat="44.3901" lon="1.65952">
        <ele>267</ele>
        <time>2019-08-08T08:15:37.710Z</time>
      </trkpt>
      <trkpt lat="44.39014" lon="1.65947">
        <ele>266</ele>
        <time>2019-08-08T08:15:41.766Z</time>
      </trkpt>
      <trkpt lat="44.39017" lon="1.6594">
        <ele>266</ele>
        <time>2019-08-08T08:15:46.740Z</time>
      </trkpt>
      <trkpt lat="44.39021" lon="1.65933">
        <ele>266</ele>
        <time>2019-08-08T08:15:51.727Z</time>
      </trkpt>
      <trkpt lat="44.39032" lon="1.65922">
        <ele>266</ele>
        <time>2019-08-08T08:15:56.748Z</time>
      </trkpt>
      <trkpt lat="44.39038" lon="1.65913">
        <ele>266</ele>
        <time>2019-08-08T08:16:01.715Z</time>
      </trkpt>
      <trkpt lat="44.39043" lon="1.65902">
        <ele>264</ele>
        <time>2019-08-08T08:16:06.725Z</time>
      </trkpt>
      <trkpt lat="44.39058" lon="1.65884">
        <ele>264</ele>
        <time>2019-08-08T08:16:11.699Z</time>
      </trkpt>
      <trkpt lat="44.39071" lon="1.65864">
        <ele>263</ele>
        <time>2019-08-08T08:16:15.749Z</time>
      </trkpt>
      <trkpt lat="44.39086" lon="1.65836">
        <ele>263</ele>
        <time>2019-08-08T08:16:20.748Z</time>
      </trkpt>
      <trkpt lat="44.391" lon="1.65813">
        <ele>264</ele>
        <time>2019-08-08T08:16:25.714Z</time>
      </trkpt>
      <trkpt lat="44.39111" lon="1.65794">
        <ele>264</ele>
        <time>2019-08-08T08:16:29.755Z</time>
      </trkpt>
      <trkpt lat="44.39124" lon="1.65772">
        <ele>266</ele>
        <time>2019-08-08T08:16:34.732Z</time>
      </trkpt>
      <trkpt lat="44.39133" lon="1.6576">
        <ele>266</ele>
        <time>2019-08-08T08:16:39.729Z</time>
      </trkpt>
      <trkpt lat="44.39138" lon="1.65754">
        <ele>266</ele>
        <time>2019-08-08T08:16:44.714Z</time>
      </trkpt>
      <trkpt lat="44.39143" lon="1.65745">
        <ele>266</ele>
        <time>2019-08-08T08:16:49.708Z</time>
      </trkpt>
      <trkpt lat="44.39148" lon="1.65735">
        <ele>267</ele>
        <time>2019-08-08T08:16:54.716Z</time>
      </trkpt>
      <trkpt lat="44.39152" lon="1.65729">
        <ele>267</ele>
        <time>2019-08-08T08:16:59.713Z</time>
      </trkpt>
      <trkpt lat="44.39156" lon="1.65723">
        <ele>266</ele>
        <time>2019-08-08T08:17:04.710Z</time>
      </trkpt>
      <trkpt lat="44.39159" lon="1.65719">
        <ele>266</ele>
        <time>2019-08-08T08:17:09.733Z</time>
      </trkpt>
      <trkpt lat="44.3916" lon="1.65713">
        <ele>266</ele>
        <time>2019-08-08T08:17:14.704Z</time>
      </trkpt>
      <trkpt lat="44.39164" lon="1.65709">
        <ele>266</ele>
        <time>2019-08-08T08:17:18.721Z</time>
      </trkpt>
      <trkpt lat="44.39168" lon="1.65701">
        <ele>268</ele>
        <time>2019-08-08T08:17:23.717Z</time>
      </trkpt>
      <trkpt lat="44.39171" lon="1.65697">
        <ele>268</ele>
        <time>2019-08-08T08:17:27.750Z</time>
      </trkpt>
      <trkpt lat="44.39176" lon="1.65691">
        <ele>268</ele>
        <time>2019-08-08T08:17:32.711Z</time>
      </trkpt>
      <trkpt lat="44.3918" lon="1.65685">
        <ele>268</ele>
        <time>2019-08-08T08:17:36.738Z</time>
      </trkpt>
      <trkpt lat="44.39185" lon="1.65678">
        <ele>269</ele>
        <time>2019-08-08T08:17:41.712Z</time>
      </trkpt>
      <trkpt lat="44.39189" lon="1.6567">
        <ele>269</ele>
        <time>2019-08-08T08:17:46.743Z</time>
      </trkpt>
      <trkpt lat="44.39194" lon="1.65662">
        <ele>269</ele>
        <time>2019-08-08T08:17:51.712Z</time>
      </trkpt>
      <trkpt lat="44.392" lon="1.65656">
        <ele>269</ele>
        <time>2019-08-08T08:17:56.718Z</time>
      </trkpt>
      <trkpt lat="44.39204" lon="1.65651">
        <ele>270</ele>
        <time>2019-08-08T08:18:01.707Z</time>
      </trkpt>
      <trkpt lat="44.39208" lon="1.65646">
        <ele>270</ele>
        <time>2019-08-08T08:18:05.721Z</time>
      </trkpt>
      <trkpt lat="44.39211" lon="1.65634">
        <ele>269</ele>
        <time>2019-08-08T08:18:10.698Z</time>
      </trkpt>
      <trkpt lat="44.39214" lon="1.65628">
        <ele>269</ele>
        <time>2019-08-08T08:18:14.718Z</time>
      </trkpt>
      <trkpt lat="44.39219" lon="1.65622">
        <ele>270</ele>
        <time>2019-08-08T08:18:19.738Z</time>
      </trkpt>
      <trkpt lat="44.39224" lon="1.65616">
        <ele>270</ele>
        <time>2019-08-08T08:18:24.707Z</time>
      </trkpt>
      <trkpt lat="44.3923" lon="1.65606">
        <ele>270</ele>
        <time>2019-08-08T08:18:29.735Z</time>
      </trkpt>
      <trkpt lat="44.39236" lon="1.65598">
        <ele>268</ele>
        <time>2019-08-08T08:18:34.736Z</time>
      </trkpt>
      <trkpt lat="44.39242" lon="1.65591">
        <ele>269</ele>
        <time>2019-08-08T08:18:39.706Z</time>
      </trkpt>
      <trkpt lat="44.39249" lon="1.65583">
        <ele>269</ele>
        <time>2019-08-08T08:18:44.733Z</time>
      </trkpt>
      <trkpt lat="44.39254" lon="1.65576">
        <ele>269</ele>
        <time>2019-08-08T08:18:49.722Z</time>
      </trkpt>
      <trkpt lat="44.39259" lon="1.65568">
        <ele>269</ele>
        <time>2019-08-08T08:18:54.711Z</time>
      </trkpt>
      <trkpt lat="44.39265" lon="1.65562">
        <ele>267</ele>
        <time>2019-08-08T08:18:59.717Z</time>
      </trkpt>
      <trkpt lat="44.39268" lon="1.65556">
        <ele>267</ele>
        <time>2019-08-08T08:19:03.738Z</time>
      </trkpt>
      <trkpt lat="44.39272" lon="1.6555">
        <ele>267</ele>
        <time>2019-08-08T08:19:08.705Z</time>
      </trkpt>
      <trkpt lat="44.39276" lon="1.65546">
        <ele>267</ele>
        <time>2019-08-08T08:19:12.726Z</time>
      </trkpt>
      <trkpt lat="44.39281" lon="1.65541">
        <ele>268</ele>
        <time>2019-08-08T08:19:17.732Z</time>
      </trkpt>
      <trkpt lat="44.39288" lon="1.65536">
        <ele>268</ele>
        <time>2019-08-08T08:19:22.704Z</time>
      </trkpt>
      <trkpt lat="44.39293" lon="1.65534">
        <ele>269</ele>
        <time>2019-08-08T08:19:26.754Z</time>
      </trkpt>
      <trkpt lat="44.39298" lon="1.65532">
        <ele>269</ele>
        <time>2019-08-08T08:19:31.703Z</time>
      </trkpt>
      <trkpt lat="44.39303" lon="1.65532">
        <ele>269</ele>
        <time>2019-08-08T08:19:36.708Z</time>
      </trkpt>
      <trkpt lat="44.39312" lon="1.65531">
        <ele>269</ele>
        <time>2019-08-08T08:19:41.712Z</time>
      </trkpt>
      <trkpt lat="44.39319" lon="1.6553">
        <ele>269</ele>
        <time>2019-08-08T08:19:45.723Z</time>
      </trkpt>
      <trkpt lat="44.39326" lon="1.6553">
        <ele>269</ele>
        <time>2019-08-08T08:19:50.721Z</time>
      </trkpt>
      <trkpt lat="44.39333" lon="1.65529">
        <ele>269</ele>
        <time>2019-08-08T08:19:55.705Z</time>
      </trkpt>
      <trkpt lat="44.39341" lon="1.65525">
        <ele>269</ele>
        <time>2019-08-08T08:20:00.739Z</time>
      </trkpt>
      <trkpt lat="44.39347" lon="1.65521">
        <ele>269</ele>
        <time>2019-08-08T08:20:05.708Z</time>
      </trkpt>
      <trkpt lat="44.39353" lon="1.65515">
        <ele>270</ele>
        <time>2019-08-08T08:20:10.700Z</time>
      </trkpt>
      <trkpt lat="44.39358" lon="1.65511">
        <ele>270</ele>
        <time>2019-08-08T08:20:14.742Z</time>
      </trkpt>
      <trkpt lat="44.39363" lon="1.65506">
        <ele>270</ele>
        <time>2019-08-08T08:20:19.705Z</time>
      </trkpt>
      <trkpt lat="44.39369" lon="1.655">
        <ele>270</ele>
        <time>2019-08-08T08:20:24.728Z</time>
      </trkpt>
      <trkpt lat="44.39374" lon="1.65495">
        <ele>270</ele>
        <time>2019-08-08T08:20:29.704Z</time>
      </trkpt>
      <trkpt lat="44.39378" lon="1.65491">
        <ele>271</ele>
        <time>2019-08-08T08:20:33.724Z</time>
      </trkpt>
      <trkpt lat="44.39383" lon="1.65484">
        <ele>271</ele>
        <time>2019-08-08T08:20:38.723Z</time>
      </trkpt>
      <trkpt lat="44.39387" lon="1.65479">
        <ele>271</ele>
        <time>2019-08-08T08:20:42.739Z</time>
      </trkpt>
      <trkpt lat="44.39393" lon="1.65472">
        <ele>271</ele>
        <time>2019-08-08T08:20:47.717Z</time>
      </trkpt>
      <trkpt lat="44.39397" lon="1.65467">
        <ele>271</ele>
        <time>2019-08-08T08:20:51.744Z</time>
      </trkpt>
      <trkpt lat="44.39403" lon="1.65464">
        <ele>272</ele>
        <time>2019-08-08T08:20:56.743Z</time>
      </trkpt>
      <trkpt lat="44.39409" lon="1.65459">
        <ele>272</ele>
        <time>2019-08-08T08:21:01.702Z</time>
      </trkpt>
      <trkpt lat="44.39414" lon="1.65454">
        <ele>272</ele>
        <time>2019-08-08T08:21:06.711Z</time>
      </trkpt>
      <trkpt lat="44.39419" lon="1.65448">
        <ele>272</ele>
        <time>2019-08-08T08:21:11.713Z</time>
      </trkpt>
      <trkpt lat="44.39423" lon="1.65443">
        <ele>272</ele>
        <time>2019-08-08T08:21:16.721Z</time>
      </trkpt>
      <trkpt lat="44.39428" lon="1.65438">
        <ele>272</ele>
        <time>2019-08-08T08:21:21.717Z</time>
      </trkpt>
      <trkpt lat="44.39432" lon="1.65435">
        <ele>273</ele>
        <time>2019-08-08T08:21:25.752Z</time>
      </trkpt>
      <trkpt lat="44.39437" lon="1.65431">
        <ele>273</ele>
        <time>2019-08-08T08:21:30.738Z</time>
      </trkpt>
      <trkpt lat="44.39445" lon="1.65424">
        <ele>271</ele>
        <time>2019-08-08T08:21:35.725Z</time>
      </trkpt>
      <trkpt lat="44.39449" lon="1.65417">
        <ele>271</ele>
        <time>2019-08-08T08:21:40.705Z</time>
      </trkpt>
      <trkpt lat="44.39454" lon="1.6541">
        <ele>271</ele>
        <time>2019-08-08T08:21:45.735Z</time>
      </trkpt>
      <trkpt lat="44.3946" lon="1.65402">
        <ele>271</ele>
        <time>2019-08-08T08:21:50.743Z</time>
      </trkpt>
      <trkpt lat="44.39464" lon="1.65395">
        <ele>271</ele>
        <time>2019-08-08T08:21:55.721Z</time>
      </trkpt>
      <trkpt lat="44.39469" lon="1.65389">
        <ele>271</ele>
        <time>2019-08-08T08:22:00.712Z</time>
      </trkpt>
      <trkpt lat="44.39473" lon="1.65383">
        <ele>271</ele>
        <time>2019-08-08T08:22:05.733Z</time>
      </trkpt>
      <trkpt lat="44.39478" lon="1.65378">
        <ele>271</ele>
        <time>2019-08-08T08:22:10.735Z</time>
      </trkpt>
      <trkpt lat="44.39484" lon="1.65372">
        <ele>270</ele>
        <time>2019-08-08T08:22:15.707Z</time>
      </trkpt>
      <trkpt lat="44.39491" lon="1.65367">
        <ele>271</ele>
        <time>2019-08-08T08:22:20.738Z</time>
      </trkpt>
      <trkpt lat="44.39497" lon="1.6536">
        <ele>271</ele>
        <time>2019-08-08T08:22:25.716Z</time>
      </trkpt>
      <trkpt lat="44.39502" lon="1.65355">
        <ele>271</ele>
        <time>2019-08-08T08:22:30.709Z</time>
      </trkpt>
      <trkpt lat="44.39506" lon="1.65352">
        <ele>271</ele>
        <time>2019-08-08T08:22:35.716Z</time>
      </trkpt>
      <trkpt lat="44.39512" lon="1.65346">
        <ele>270</ele>
        <time>2019-08-08T08:22:40.712Z</time>
      </trkpt>
      <trkpt lat="44.39517" lon="1.65342">
        <ele>270</ele>
        <time>2019-08-08T08:22:45.715Z</time>
      </trkpt>
      <trkpt lat="44.3952" lon="1.65336">
        <ele>270</ele>
        <time>2019-08-08T08:22:49.741Z</time>
      </trkpt>
      <trkpt lat="44.39524" lon="1.65322">
        <ele>270</ele>
        <time>2019-08-08T08:22:54.700Z</time>
      </trkpt>
      <trkpt lat="44.39526" lon="1.65317">
        <ele>269</ele>
        <time>2019-08-08T08:22:58.716Z</time>
      </trkpt>
      <trkpt lat="44.39529" lon="1.65312">
        <ele>269</ele>
        <time>2019-08-08T08:23:03.713Z</time>
      </trkpt>
      <trkpt lat="44.39533" lon="1.65309">
        <ele>269</ele>
        <time>2019-08-08T08:23:07.741Z</time>
      </trkpt>
      <trkpt lat="44.39542" lon="1.653">
        <ele>268</ele>
        <time>2019-08-08T08:23:12.706Z</time>
      </trkpt>
      <trkpt lat="44.39547" lon="1.65298">
        <ele>268</ele>
        <time>2019-08-08T08:23:17.702Z</time>
      </trkpt>
      <trkpt lat="44.3955" lon="1.65292">
        <ele>266</ele>
        <time>2019-08-08T08:23:21.724Z</time>
      </trkpt>
      <trkpt lat="44.39553" lon="1.65285">
        <ele>266</ele>
        <time>2019-08-08T08:23:26.705Z</time>
      </trkpt>
      <trkpt lat="44.39558" lon="1.65279">
        <ele>266</ele>
        <time>2019-08-08T08:23:31.730Z</time>
      </trkpt>
      <trkpt lat="44.39562" lon="1.65271">
        <ele>266</ele>
        <time>2019-08-08T08:23:36.744Z</time>
      </trkpt>
      <trkpt lat="44.39571" lon="1.6527">
        <ele>266</ele>
        <time>2019-08-08T08:23:41.711Z</time>
      </trkpt>
      <trkpt lat="44.39579" lon="1.65265">
        <ele>266</ele>
        <time>2019-08-08T08:23:46.711Z</time>
      </trkpt>
      <trkpt lat="44.39595" lon="1.65244">
        <ele>264</ele>
        <time>2019-08-08T08:23:51.718Z</time>
      </trkpt>
      <trkpt lat="44.39617" lon="1.65214">
        <ele>263</ele>
        <time>2019-08-08T08:23:56.708Z</time>
      </trkpt>
      <trkpt lat="44.39639" lon="1.65178">
        <ele>265</ele>
        <time>2019-08-08T08:24:01.729Z</time>
      </trkpt>
      <trkpt lat="44.39661" lon="1.65144">
        <ele>265</ele>
        <time>2019-08-08T08:24:06.769Z</time>
      </trkpt>
      <trkpt lat="44.39687" lon="1.65118">
        <ele>266</ele>
        <time>2019-08-08T08:24:11.696Z</time>
      </trkpt>
      <trkpt lat="44.3971" lon="1.65102">
        <ele>268</ele>
        <time>2019-08-08T08:24:15.727Z</time>
      </trkpt>
      <trkpt lat="44.39736" lon="1.65079">
        <ele>269</ele>
        <time>2019-08-08T08:24:20.713Z</time>
      </trkpt>
      <trkpt lat="44.39753" lon="1.65063">
        <ele>271</ele>
        <time>2019-08-08T08:24:24.746Z</time>
      </trkpt>
      <trkpt lat="44.39769" lon="1.65046">
        <ele>271</ele>
        <time>2019-08-08T08:24:29.716Z</time>
      </trkpt>
      <trkpt lat="44.39775" lon="1.65036">
        <ele>273</ele>
        <time>2019-08-08T08:24:34.713Z</time>
      </trkpt>
      <trkpt lat="44.39781" lon="1.65029">
        <ele>273</ele>
        <time>2019-08-08T08:24:39.706Z</time>
      </trkpt>
      <trkpt lat="44.39787" lon="1.65022">
        <ele>273</ele>
        <time>2019-08-08T08:24:44.706Z</time>
      </trkpt>
      <trkpt lat="44.39791" lon="1.65017">
        <ele>273</ele>
        <time>2019-08-08T08:24:48.724Z</time>
      </trkpt>
      <trkpt lat="44.39798" lon="1.65011">
        <ele>275</ele>
        <time>2019-08-08T08:24:53.709Z</time>
      </trkpt>
      <trkpt lat="44.39803" lon="1.65006">
        <ele>275</ele>
        <time>2019-08-08T08:24:57.751Z</time>
      </trkpt>
      <trkpt lat="44.39809" lon="1.64999">
        <ele>275</ele>
        <time>2019-08-08T08:25:02.753Z</time>
      </trkpt>
      <trkpt lat="44.39814" lon="1.64993">
        <ele>275</ele>
        <time>2019-08-08T08:25:07.712Z</time>
      </trkpt>
      <trkpt lat="44.39818" lon="1.64988">
        <ele>275</ele>
        <time>2019-08-08T08:25:11.757Z</time>
      </trkpt>
      <trkpt lat="44.39822" lon="1.6498">
        <ele>276</ele>
        <time>2019-08-08T08:25:16.739Z</time>
      </trkpt>
      <trkpt lat="44.39827" lon="1.64974">
        <ele>276</ele>
        <time>2019-08-08T08:25:21.746Z</time>
      </trkpt>
      <trkpt lat="44.39831" lon="1.64965">
        <ele>276</ele>
        <time>2019-08-08T08:25:26.711Z</time>
      </trkpt>
      <trkpt lat="44.39837" lon="1.64959">
        <ele>276</ele>
        <time>2019-08-08T08:25:31.711Z</time>
      </trkpt>
      <trkpt lat="44.39841" lon="1.64955">
        <ele>275</ele>
        <time>2019-08-08T08:25:35.735Z</time>
      </trkpt>
      <trkpt lat="44.39848" lon="1.64951">
        <ele>276</ele>
        <time>2019-08-08T08:25:40.716Z</time>
      </trkpt>
      <trkpt lat="44.39853" lon="1.64948">
        <ele>276</ele>
        <time>2019-08-08T08:25:45.712Z</time>
      </trkpt>
      <trkpt lat="44.39859" lon="1.64943">
        <ele>276</ele>
        <time>2019-08-08T08:25:50.712Z</time>
      </trkpt>
      <trkpt lat="44.39866" lon="1.64938">
        <ele>276</ele>
        <time>2019-08-08T08:25:55.709Z</time>
      </trkpt>
      <trkpt lat="44.39872" lon="1.64934">
        <ele>276</ele>
        <time>2019-08-08T08:26:00.731Z</time>
      </trkpt>
      <trkpt lat="44.39879" lon="1.64932">
        <ele>277</ele>
        <time>2019-08-08T08:26:05.736Z</time>
      </trkpt>
      <trkpt lat="44.39887" lon="1.64931">
        <ele>277</ele>
        <time>2019-08-08T08:26:10.720Z</time>
      </trkpt>
      <trkpt lat="44.39895" lon="1.64929">
        <ele>277</ele>
        <time>2019-08-08T08:26:15.732Z</time>
      </trkpt>
      <trkpt lat="44.39901" lon="1.64926">
        <ele>277</ele>
        <time>2019-08-08T08:26:20.721Z</time>
      </trkpt>
      <trkpt lat="44.39907" lon="1.64924">
        <ele>279</ele>
        <time>2019-08-08T08:26:25.750Z</time>
      </trkpt>
      <trkpt lat="44.39916" lon="1.64919">
        <ele>279</ele>
        <time>2019-08-08T08:26:30.718Z</time>
      </trkpt>
      <trkpt lat="44.3992" lon="1.64915">
        <ele>279</ele>
        <time>2019-08-08T08:26:34.735Z</time>
      </trkpt>
      <trkpt lat="44.39926" lon="1.6491">
        <ele>279</ele>
        <time>2019-08-08T08:26:39.736Z</time>
      </trkpt>
      <trkpt lat="44.3993" lon="1.64906">
        <ele>279</ele>
        <time>2019-08-08T08:26:43.762Z</time>
      </trkpt>
      <trkpt lat="44.39934" lon="1.64901">
        <ele>280</ele>
        <time>2019-08-08T08:26:48.741Z</time>
      </trkpt>
      <trkpt lat="44.39937" lon="1.64893">
        <ele>280</ele>
        <time>2019-08-08T08:26:53.706Z</time>
      </trkpt>
      <trkpt lat="44.39942" lon="1.64886">
        <ele>280</ele>
        <time>2019-08-08T08:26:58.708Z</time>
      </trkpt>
      <trkpt lat="44.39949" lon="1.64881">
        <ele>280</ele>
        <time>2019-08-08T08:27:02.728Z</time>
      </trkpt>
      <trkpt lat="44.39956" lon="1.64876">
        <ele>280</ele>
        <time>2019-08-08T08:27:07.722Z</time>
      </trkpt>
      <trkpt lat="44.3996" lon="1.6487">
        <ele>279</ele>
        <time>2019-08-08T08:27:12.696Z</time>
      </trkpt>
      <trkpt lat="44.39963" lon="1.64864">
        <ele>279</ele>
        <time>2019-08-08T08:27:17.706Z</time>
      </trkpt>
      <trkpt lat="44.39965" lon="1.64859">
        <ele>279</ele>
        <time>2019-08-08T08:27:21.715Z</time>
      </trkpt>
      <trkpt lat="44.39969" lon="1.6485">
        <ele>279</ele>
        <time>2019-08-08T08:27:26.708Z</time>
      </trkpt>
      <trkpt lat="44.39971" lon="1.6484">
        <ele>279</ele>
        <time>2019-08-08T08:27:31.705Z</time>
      </trkpt>
      <trkpt lat="44.39974" lon="1.64831">
        <ele>279</ele>
        <time>2019-08-08T08:27:36.710Z</time>
      </trkpt>
      <trkpt lat="44.39977" lon="1.64825">
        <ele>279</ele>
        <time>2019-08-08T08:27:40.732Z</time>
      </trkpt>
      <trkpt lat="44.3998" lon="1.64818">
        <ele>279</ele>
        <time>2019-08-08T08:27:45.739Z</time>
      </trkpt>
      <trkpt lat="44.39983" lon="1.6481">
        <ele>279</ele>
        <time>2019-08-08T08:27:50.723Z</time>
      </trkpt>
      <trkpt lat="44.39987" lon="1.64801">
        <ele>280</ele>
        <time>2019-08-08T08:27:55.711Z</time>
      </trkpt>
      <trkpt lat="44.3999" lon="1.64792">
        <ele>280</ele>
        <time>2019-08-08T08:28:00.713Z</time>
      </trkpt>
      <trkpt lat="44.39992" lon="1.64787">
        <ele>281</ele>
        <time>2019-08-08T08:28:04.727Z</time>
      </trkpt>
      <trkpt lat="44.4" lon="1.64776">
        <ele>281</ele>
        <time>2019-08-08T08:28:09.704Z</time>
      </trkpt>
      <trkpt lat="44.40007" lon="1.64769">
        <ele>281</ele>
        <time>2019-08-08T08:28:13.724Z</time>
      </trkpt>
      <trkpt lat="44.40012" lon="1.6476">
        <ele>281</ele>
        <time>2019-08-08T08:28:17.750Z</time>
      </trkpt>
      <trkpt lat="44.40016" lon="1.64752">
        <ele>281</ele>
        <time>2019-08-08T08:28:22.729Z</time>
      </trkpt>
      <trkpt lat="44.40019" lon="1.64747">
        <ele>281</ele>
        <time>2019-08-08T08:28:27.719Z</time>
      </trkpt>
      <trkpt lat="44.40025" lon="1.64741">
        <ele>281</ele>
        <time>2019-08-08T08:28:32.753Z</time>
      </trkpt>
      <trkpt lat="44.40028" lon="1.64735">
        <ele>281</ele>
        <time>2019-08-08T08:28:37.742Z</time>
      </trkpt>
      <trkpt lat="44.4003" lon="1.64729">
        <ele>281</ele>
        <time>2019-08-08T08:28:42.713Z</time>
      </trkpt>
      <trkpt lat="44.40032" lon="1.64723">
        <ele>281</ele>
        <time>2019-08-08T08:28:46.753Z</time>
      </trkpt>
      <trkpt lat="44.40035" lon="1.64713">
        <ele>281</ele>
        <time>2019-08-08T08:28:51.712Z</time>
      </trkpt>
      <trkpt lat="44.40037" lon="1.64705">
        <ele>282</ele>
        <time>2019-08-08T08:28:56.708Z</time>
      </trkpt>
      <trkpt lat="44.4004" lon="1.64697">
        <ele>282</ele>
        <time>2019-08-08T08:29:01.701Z</time>
      </trkpt>
      <trkpt lat="44.40043" lon="1.6469">
        <ele>282</ele>
        <time>2019-08-08T08:29:05.760Z</time>
      </trkpt>
      <trkpt lat="44.40047" lon="1.64682">
        <ele>282</ele>
        <time>2019-08-08T08:29:10.743Z</time>
      </trkpt>
      <trkpt lat="44.40049" lon="1.64675">
        <ele>282</ele>
        <time>2019-08-08T08:29:15.714Z</time>
      </trkpt>
      <trkpt lat="44.40051" lon="1.64665">
        <ele>282</ele>
        <time>2019-08-08T08:29:20.741Z</time>
      </trkpt>
      <trkpt lat="44.40053" lon="1.64657">
        <ele>282</ele>
        <time>2019-08-08T08:29:25.709Z</time>
      </trkpt>
      <trkpt lat="44.40055" lon="1.64647">
        <ele>281</ele>
        <time>2019-08-08T08:29:30.733Z</time>
      </trkpt>
      <trkpt lat="44.40058" lon="1.64639">
        <ele>281</ele>
        <time>2019-08-08T08:29:35.711Z</time>
      </trkpt>
      <trkpt lat="44.40061" lon="1.64629">
        <ele>281</ele>
        <time>2019-08-08T08:29:40.705Z</time>
      </trkpt>
      <trkpt lat="44.40064" lon="1.64621">
        <ele>281</ele>
        <time>2019-08-08T08:29:44.733Z</time>
      </trkpt>
      <trkpt lat="44.40067" lon="1.6461">
        <ele>281</ele>
        <time>2019-08-08T08:29:49.717Z</time>
      </trkpt>
      <trkpt lat="44.40073" lon="1.64609">
        <ele>281</ele>
        <time>2019-08-08T08:29:54.708Z</time>
      </trkpt>
      <trkpt lat="44.40078" lon="1.64609">
        <ele>281</ele>
        <time>2019-08-08T08:29:58.738Z</time>
      </trkpt>
      <trkpt lat="44.40084" lon="1.64612">
        <ele>281</ele>
        <time>2019-08-08T08:30:03.726Z</time>
      </trkpt>
      <trkpt lat="44.4009" lon="1.64613">
        <ele>281</ele>
        <time>2019-08-08T08:30:08.734Z</time>
      </trkpt>
      <trkpt lat="44.40095" lon="1.64617">
        <ele>281</ele>
        <time>2019-08-08T08:30:12.750Z</time>
      </trkpt>
      <trkpt lat="44.40098" lon="1.64618">
        <ele>281</ele>
        <time>2019-08-08T08:30:17.702Z</time>
      </trkpt>
      <trkpt lat="44.40098" lon="1.64619">
        <ele>281</ele>
        <time>2019-08-08T08:30:51.714Z</time>
      </trkpt>
      <trkpt lat="44.40097" lon="1.64619">
        <ele>281</ele>
        <time>2019-08-08T08:30:55.731Z</time>
      </trkpt>
      <trkpt lat="44.40094" lon="1.64615">
        <ele>281</ele>
        <time>2019-08-08T08:31:00.708Z</time>
      </trkpt>
      <trkpt lat="44.40091" lon="1.6461">
        <ele>281</ele>
        <time>2019-08-08T08:31:04.722Z</time>
      </trkpt>
      <trkpt lat="44.40089" lon="1.64604">
        <ele>281</ele>
        <time>2019-08-08T08:31:08.756Z</time>
      </trkpt>
      <trkpt lat="44.40087" lon="1.64598">
        <ele>281</ele>
        <time>2019-08-08T08:31:13.738Z</time>
      </trkpt>
      <trkpt lat="44.40082" lon="1.64592">
        <ele>281</ele>
        <time>2019-08-08T08:31:18.714Z</time>
      </trkpt>
      <trkpt lat="44.40078" lon="1.64584">
        <ele>281</ele>
        <time>2019-08-08T08:31:23.740Z</time>
      </trkpt>
      <trkpt lat="44.40073" lon="1.64576">
        <ele>281</ele>
        <time>2019-08-08T08:31:28.710Z</time>
      </trkpt>
      <trkpt lat="44.40068" lon="1.64565">
        <ele>280</ele>
        <time>2019-08-08T08:33:55.726Z</time>
      </trkpt>
      <trkpt lat="44.40068" lon="1.64565">
        <ele>280</ele>
        <time>2019-08-08T08:34:00.711Z</time>
      </trkpt>
      <trkpt lat="44.40067" lon="1.64565">
        <ele>280</ele>
        <time>2019-08-08T08:34:05.712Z</time>
      </trkpt>
      <trkpt lat="44.40066" lon="1.64565">
        <ele>280</ele>
        <time>2019-08-08T08:34:10.706Z</time>
      </trkpt>
      <trkpt lat="44.40065" lon="1.64565">
        <ele>280</ele>
        <time>2019-08-08T08:34:15.720Z</time>
      </trkpt>
      <trkpt lat="44.40064" lon="1.64571">
        <ele>281</ele>
        <time>2019-08-08T08:35:25.701Z</time>
      </trkpt>
      <trkpt lat="44.40067" lon="1.64578">
        <ele>281</ele>
        <time>2019-08-08T08:35:30.715Z</time>
      </trkpt>
      <trkpt lat="44.40072" lon="1.64582">
        <ele>281</ele>
        <time>2019-08-08T08:35:34.753Z</time>
      </trkpt>
      <trkpt lat="44.40077" lon="1.64587">
        <ele>281</ele>
        <time>2019-08-08T08:35:39.721Z</time>
      </trkpt>
      <trkpt lat="44.40081" lon="1.64594">
        <ele>281</ele>
        <time>2019-08-08T08:35:44.733Z</time>
      </trkpt>
      <trkpt lat="44.40084" lon="1.64599">
        <ele>281</ele>
        <time>2019-08-08T08:35:48.757Z</time>
      </trkpt>
      <trkpt lat="44.40088" lon="1.64604">
        <ele>281</ele>
        <time>2019-08-08T08:35:53.706Z</time>
      </trkpt>
      <trkpt lat="44.40093" lon="1.64607">
        <ele>281</ele>
        <time>2019-08-08T08:35:57.732Z</time>
      </trkpt>
      <trkpt lat="44.40094" lon="1.64607">
        <ele>281</ele>
        <time>2019-08-08T08:36:02.735Z</time>
      </trkpt>
      <trkpt lat="44.40094" lon="1.64605">
        <ele>281</ele>
        <time>2019-08-08T08:43:33.739Z</time>
      </trkpt>
      <trkpt lat="44.40094" lon="1.64599">
        <ele>281</ele>
        <time>2019-08-08T08:43:38.707Z</time>
      </trkpt>
      <trkpt lat="44.40094" lon="1.64593">
        <ele>281</ele>
        <time>2019-08-08T08:43:42.744Z</time>
      </trkpt>
      <trkpt lat="44.40094" lon="1.64585">
        <ele>281</ele>
        <time>2019-08-08T08:43:47.715Z</time>
      </trkpt>
      <trkpt lat="44.40093" lon="1.64582">
        <ele>281</ele>
        <time>2019-08-08T08:43:52.714Z</time>
      </trkpt>
      <trkpt lat="44.40095" lon="1.64582">
        <ele>281</ele>
        <time>2019-08-08T08:43:56.728Z</time>
      </trkpt>
      <trkpt lat="44.40096" lon="1.64582">
        <ele>281</ele>
        <time>2019-08-08T08:44:01.736Z</time>
      </trkpt>
      <trkpt lat="44.40098" lon="1.64588">
        <ele>281</ele>
        <time>2019-08-08T08:44:06.719Z</time>
      </trkpt>
      <trkpt lat="44.401" lon="1.64595">
        <ele>281</ele>
        <time>2019-08-08T08:44:11.715Z</time>
      </trkpt>
      <trkpt lat="44.40096" lon="1.64612">
        <ele>281</ele>
        <time>2019-08-08T08:44:30.716Z</time>
      </trkpt>
      <trkpt lat="44.40096" lon="1.64612">
        <ele>281</ele>
        <time>2019-08-08T08:44:35.721Z</time>
      </trkpt>
      <trkpt lat="44.40096" lon="1.64613">
        <ele>281</ele>
        <time>2019-08-08T08:44:40.754Z</time>
      </trkpt>
      <trkpt lat="44.40096" lon="1.64614">
        <ele>281</ele>
        <time>2019-08-08T08:44:45.735Z</time>
      </trkpt>
      <trkpt lat="44.40093" lon="1.64613">
        <ele>281</ele>
        <time>2019-08-08T08:44:50.727Z</time>
      </trkpt>
      <trkpt lat="44.40088" lon="1.64606">
        <ele>281</ele>
        <time>2019-08-08T08:44:55.724Z</time>
      </trkpt>
      <trkpt lat="44.40089" lon="1.64598">
        <ele>281</ele>
        <time>2019-08-08T08:45:00.728Z</time>
      </trkpt>
      <trkpt lat="44.4009" lon="1.64592">
        <ele>281</ele>
        <time>2019-08-08T08:45:04.744Z</time>
      </trkpt>
      <trkpt lat="44.40089" lon="1.64586">
        <ele>281</ele>
        <time>2019-08-08T08:45:09.737Z</time>
      </trkpt>
      <trkpt lat="44.40087" lon="1.6458">
        <ele>281</ele>
        <time>2019-08-08T08:45:14.714Z</time>
      </trkpt>
      <trkpt lat="44.40087" lon="1.64574">
        <ele>281</ele>
        <time>2019-08-08T08:45:18.737Z</time>
      </trkpt>
      <trkpt lat="44.40087" lon="1.64566">
        <ele>281</ele>
        <time>2019-08-08T08:45:23.738Z</time>
      </trkpt>
      <trkpt lat="44.40092" lon="1.64559">
        <ele>281</ele>
        <time>2019-08-08T08:45:28.722Z</time>
      </trkpt>
      <trkpt lat="44.40096" lon="1.64553">
        <ele>281</ele>
        <time>2019-08-08T08:45:33.729Z</time>
      </trkpt>
      <trkpt lat="44.40099" lon="1.64548">
        <ele>281</ele>
        <time>2019-08-08T08:45:37.755Z</time>
      </trkpt>
      <trkpt lat="44.40104" lon="1.6454">
        <ele>282</ele>
        <time>2019-08-08T08:45:42.713Z</time>
      </trkpt>
      <trkpt lat="44.40107" lon="1.64533">
        <ele>282</ele>
        <time>2019-08-08T08:45:46.746Z</time>
      </trkpt>
      <trkpt lat="44.40115" lon="1.64523">
        <ele>282</ele>
        <time>2019-08-08T08:45:51.748Z</time>
      </trkpt>
      <trkpt lat="44.4012" lon="1.6451">
        <ele>282</ele>
        <time>2019-08-08T08:45:56.734Z</time>
      </trkpt>
      <trkpt lat="44.40124" lon="1.64505">
        <ele>282</ele>
        <time>2019-08-08T08:46:01.729Z</time>
      </trkpt>
      <trkpt lat="44.40129" lon="1.64501">
        <ele>282</ele>
        <time>2019-08-08T08:46:06.739Z</time>
      </trkpt>
      <trkpt lat="44.40134" lon="1.64495">
        <ele>282</ele>
        <time>2019-08-08T08:46:11.724Z</time>
      </trkpt>
      <trkpt lat="44.4014" lon="1.6449">
        <ele>282</ele>
        <time>2019-08-08T08:46:16.726Z</time>
      </trkpt>
      <trkpt lat="44.40144" lon="1.64484">
        <ele>283</ele>
        <time>2019-08-08T08:46:20.754Z</time>
      </trkpt>
      <trkpt lat="44.4015" lon="1.64479">
        <ele>283</ele>
        <time>2019-08-08T08:46:25.713Z</time>
      </trkpt>
      <trkpt lat="44.40155" lon="1.64474">
        <ele>281</ele>
        <time>2019-08-08T08:46:30.758Z</time>
      </trkpt>
      <trkpt lat="44.40159" lon="1.64472">
        <ele>281</ele>
        <time>2019-08-08T08:46:35.718Z</time>
      </trkpt>
      <trkpt lat="44.40169" lon="1.64471">
        <ele>281</ele>
        <time>2019-08-08T08:46:40.742Z</time>
      </trkpt>
      <trkpt lat="44.40171" lon="1.64468">
        <ele>281</ele>
        <time>2019-08-08T08:46:45.719Z</time>
      </trkpt>
      <trkpt lat="44.40178" lon="1.64464">
        <ele>281</ele>
        <time>2019-08-08T08:46:50.712Z</time>
      </trkpt>
      <trkpt lat="44.40187" lon="1.64462">
        <ele>277</ele>
        <time>2019-08-08T08:46:54.726Z</time>
      </trkpt>
      <trkpt lat="44.40196" lon="1.64456">
        <ele>279</ele>
        <time>2019-08-08T08:46:59.743Z</time>
      </trkpt>
      <trkpt lat="44.40209" lon="1.64443">
        <ele>275</ele>
        <time>2019-08-08T08:47:04.716Z</time>
      </trkpt>
      <trkpt lat="44.40212" lon="1.64439">
        <ele>275</ele>
        <time>2019-08-08T08:47:09.711Z</time>
      </trkpt>
      <trkpt lat="44.40214" lon="1.64435">
        <ele>275</ele>
        <time>2019-08-08T08:47:14.711Z</time>
      </trkpt>
      <trkpt lat="44.40218" lon="1.64436">
        <ele>275</ele>
        <time>2019-08-08T08:47:19.709Z</time>
      </trkpt>
      <trkpt lat="44.40223" lon="1.64438">
        <ele>275</ele>
        <time>2019-08-08T08:47:24.732Z</time>
      </trkpt>
      <trkpt lat="44.40228" lon="1.64437">
        <ele>275</ele>
        <time>2019-08-08T08:47:28.740Z</time>
      </trkpt>
      <trkpt lat="44.40237" lon="1.64436">
        <ele>272</ele>
        <time>2019-08-08T08:47:33.711Z</time>
      </trkpt>
      <trkpt lat="44.40244" lon="1.64435">
        <ele>272</ele>
        <time>2019-08-08T08:47:38.702Z</time>
      </trkpt>
      <trkpt lat="44.40251" lon="1.64434">
        <ele>272</ele>
        <time>2019-08-08T08:47:42.727Z</time>
      </trkpt>
      <trkpt lat="44.40259" lon="1.64434">
        <ele>272</ele>
        <time>2019-08-08T08:47:47.715Z</time>
      </trkpt>
      <trkpt lat="44.40265" lon="1.64439">
        <ele>269</ele>
        <time>2019-08-08T08:47:51.740Z</time>
      </trkpt>
      <trkpt lat="44.40274" lon="1.64443">
        <ele>269</ele>
        <time>2019-08-08T08:47:56.720Z</time>
      </trkpt>
      <trkpt lat="44.40282" lon="1.64446">
        <ele>269</ele>
        <time>2019-08-08T08:48:01.700Z</time>
      </trkpt>
      <trkpt lat="44.40293" lon="1.64451">
        <ele>270</ele>
        <time>2019-08-08T08:48:06.734Z</time>
      </trkpt>
      <trkpt lat="44.403" lon="1.64455">
        <ele>270</ele>
        <time>2019-08-08T08:48:11.732Z</time>
      </trkpt>
      <trkpt lat="44.40306" lon="1.64457">
        <ele>270</ele>
        <time>2019-08-08T08:48:16.713Z</time>
      </trkpt>
      <trkpt lat="44.40311" lon="1.64458">
        <ele>270</ele>
        <time>2019-08-08T08:48:20.738Z</time>
      </trkpt>
      <trkpt lat="44.40317" lon="1.64457">
        <ele>270</ele>
        <time>2019-08-08T08:48:25.727Z</time>
      </trkpt>
      <trkpt lat="44.40324" lon="1.64457">
        <ele>272</ele>
        <time>2019-08-08T08:48:30.719Z</time>
      </trkpt>
      <trkpt lat="44.4033" lon="1.64455">
        <ele>272</ele>
        <time>2019-08-08T08:48:35.720Z</time>
      </trkpt>
      <trkpt lat="44.40336" lon="1.64454">
        <ele>272</ele>
        <time>2019-08-08T08:48:40.734Z</time>
      </trkpt>
      <trkpt lat="44.40341" lon="1.64454">
        <ele>272</ele>
        <time>2019-08-08T08:48:45.716Z</time>
      </trkpt>
      <trkpt lat="44.40348" lon="1.64453">
        <ele>274</ele>
        <time>2019-08-08T08:48:50.738Z</time>
      </trkpt>
      <trkpt lat="44.40355" lon="1.64453">
        <ele>274</ele>
        <time>2019-08-08T08:48:55.753Z</time>
      </trkpt>
      <trkpt lat="44.4036" lon="1.64451">
        <ele>274</ele>
        <time>2019-08-08T08:49:00.754Z</time>
      </trkpt>
      <trkpt lat="44.40364" lon="1.64448">
        <ele>274</ele>
        <time>2019-08-08T08:49:05.706Z</time>
      </trkpt>
      <trkpt lat="44.40368" lon="1.64448">
        <ele>274</ele>
        <time>2019-08-08T08:49:09.727Z</time>
      </trkpt>
      <trkpt lat="44.40373" lon="1.64447">
        <ele>274</ele>
        <time>2019-08-08T08:49:14.743Z</time>
      </trkpt>
      <trkpt lat="44.40379" lon="1.64443">
        <ele>277</ele>
        <time>2019-08-08T08:49:19.718Z</time>
      </trkpt>
      <trkpt lat="44.40384" lon="1.64435">
        <ele>277</ele>
        <time>2019-08-08T08:49:24.731Z</time>
      </trkpt>
      <trkpt lat="44.40387" lon="1.64426">
        <ele>275</ele>
        <time>2019-08-08T08:49:29.710Z</time>
      </trkpt>
      <trkpt lat="44.4039" lon="1.64419">
        <ele>275</ele>
        <time>2019-08-08T08:49:34.719Z</time>
      </trkpt>
      <trkpt lat="44.40393" lon="1.64411">
        <ele>275</ele>
        <time>2019-08-08T08:49:39.703Z</time>
      </trkpt>
      <trkpt lat="44.40398" lon="1.64405">
        <ele>275</ele>
        <time>2019-08-08T08:49:44.711Z</time>
      </trkpt>
      <trkpt lat="44.40408" lon="1.64398">
        <ele>278</ele>
        <time>2019-08-08T08:49:49.746Z</time>
      </trkpt>
      <trkpt lat="44.40412" lon="1.64396">
        <ele>278</ele>
        <time>2019-08-08T08:49:53.761Z</time>
      </trkpt>
      <trkpt lat="44.40417" lon="1.64392">
        <ele>278</ele>
        <time>2019-08-08T08:49:58.722Z</time>
      </trkpt>
      <trkpt lat="44.40423" lon="1.64389">
        <ele>278</ele>
        <time>2019-08-08T08:50:03.746Z</time>
      </trkpt>
      <trkpt lat="44.40429" lon="1.64383">
        <ele>278</ele>
        <time>2019-08-08T08:50:08.709Z</time>
      </trkpt>
      <trkpt lat="44.40434" lon="1.64376">
        <ele>278</ele>
        <time>2019-08-08T08:50:13.756Z</time>
      </trkpt>
      <trkpt lat="44.40439" lon="1.64367">
        <ele>278</ele>
        <time>2019-08-08T08:50:18.723Z</time>
      </trkpt>
      <trkpt lat="44.40443" lon="1.64358">
        <ele>278</ele>
        <time>2019-08-08T08:50:23.716Z</time>
      </trkpt>
      <trkpt lat="44.40443" lon="1.6435">
        <ele>278</ele>
        <time>2019-08-08T08:50:28.711Z</time>
      </trkpt>
      <trkpt lat="44.40442" lon="1.6434">
        <ele>277</ele>
        <time>2019-08-08T08:50:33.728Z</time>
      </trkpt>
      <trkpt lat="44.40441" lon="1.6433">
        <ele>277</ele>
        <time>2019-08-08T08:50:38.753Z</time>
      </trkpt>
      <trkpt lat="44.4044" lon="1.64322">
        <ele>277</ele>
        <time>2019-08-08T08:50:43.752Z</time>
      </trkpt>
      <trkpt lat="44.40439" lon="1.64313">
        <ele>275</ele>
        <time>2019-08-08T08:50:48.729Z</time>
      </trkpt>
      <trkpt lat="44.4044" lon="1.64302">
        <ele>275</ele>
        <time>2019-08-08T08:50:53.715Z</time>
      </trkpt>
      <trkpt lat="44.40447" lon="1.6429">
        <ele>273</ele>
        <time>2019-08-08T08:50:57.732Z</time>
      </trkpt>
      <trkpt lat="44.40457" lon="1.64275">
        <ele>273</ele>
        <time>2019-08-08T08:51:02.709Z</time>
      </trkpt>
      <trkpt lat="44.40464" lon="1.64266">
        <ele>274</ele>
        <time>2019-08-08T08:51:07.734Z</time>
      </trkpt>
      <trkpt lat="44.40468" lon="1.64258">
        <ele>273</ele>
        <time>2019-08-08T08:51:12.736Z</time>
      </trkpt>
      <trkpt lat="44.40472" lon="1.64249">
        <ele>273</ele>
        <time>2019-08-08T08:51:17.713Z</time>
      </trkpt>
      <trkpt lat="44.40475" lon="1.64242">
        <ele>273</ele>
        <time>2019-08-08T08:51:21.753Z</time>
      </trkpt>
      <trkpt lat="44.40477" lon="1.64235">
        <ele>272</ele>
        <time>2019-08-08T08:51:26.755Z</time>
      </trkpt>
      <trkpt lat="44.40479" lon="1.64226">
        <ele>272</ele>
        <time>2019-08-08T08:51:31.713Z</time>
      </trkpt>
      <trkpt lat="44.4048" lon="1.64218">
        <ele>272</ele>
        <time>2019-08-08T08:51:35.738Z</time>
      </trkpt>
      <trkpt lat="44.40483" lon="1.64211">
        <ele>272</ele>
        <time>2019-08-08T08:51:40.729Z</time>
      </trkpt>
      <trkpt lat="44.40485" lon="1.64203">
        <ele>272</ele>
        <time>2019-08-08T08:51:45.728Z</time>
      </trkpt>
      <trkpt lat="44.40487" lon="1.64194">
        <ele>275</ele>
        <time>2019-08-08T08:51:50.728Z</time>
      </trkpt>
      <trkpt lat="44.40491" lon="1.64177">
        <ele>274</ele>
        <time>2019-08-08T08:51:55.724Z</time>
      </trkpt>
      <trkpt lat="44.40497" lon="1.64166">
        <ele>274</ele>
        <time>2019-08-08T08:52:00.719Z</time>
      </trkpt>
      <trkpt lat="44.40501" lon="1.64157">
        <ele>274</ele>
        <time>2019-08-08T08:52:05.714Z</time>
      </trkpt>
      <trkpt lat="44.40506" lon="1.64151">
        <ele>273</ele>
        <time>2019-08-08T08:52:10.712Z</time>
      </trkpt>
      <trkpt lat="44.40509" lon="1.64145">
        <ele>273</ele>
        <time>2019-08-08T08:52:14.725Z</time>
      </trkpt>
      <trkpt lat="44.40514" lon="1.64138">
        <ele>275</ele>
        <time>2019-08-08T08:52:19.724Z</time>
      </trkpt>
      <trkpt lat="44.40519" lon="1.64131">
        <ele>275</ele>
        <time>2019-08-08T08:52:24.737Z</time>
      </trkpt>
      <trkpt lat="44.40524" lon="1.64124">
        <ele>274</ele>
        <time>2019-08-08T08:52:29.731Z</time>
      </trkpt>
      <trkpt lat="44.40527" lon="1.64119">
        <ele>274</ele>
        <time>2019-08-08T08:52:33.769Z</time>
      </trkpt>
      <trkpt lat="44.40532" lon="1.64113">
        <ele>274</ele>
        <time>2019-08-08T08:52:38.724Z</time>
      </trkpt>
      <trkpt lat="44.40537" lon="1.64107">
        <ele>274</ele>
        <time>2019-08-08T08:52:43.744Z</time>
      </trkpt>
      <trkpt lat="44.40544" lon="1.64103">
        <ele>274</ele>
        <time>2019-08-08T08:52:48.732Z</time>
      </trkpt>
      <trkpt lat="44.40558" lon="1.64103">
        <ele>274</ele>
        <time>2019-08-08T08:52:53.736Z</time>
      </trkpt>
      <trkpt lat="44.40566" lon="1.64106">
        <ele>274</ele>
        <time>2019-08-08T08:52:58.710Z</time>
      </trkpt>
      <trkpt lat="44.40572" lon="1.64109">
        <ele>275</ele>
        <time>2019-08-08T08:53:03.705Z</time>
      </trkpt>
      <trkpt lat="44.4058" lon="1.64112">
        <ele>275</ele>
        <time>2019-08-08T08:53:07.721Z</time>
      </trkpt>
      <trkpt lat="44.40588" lon="1.64115">
        <ele>275</ele>
        <time>2019-08-08T08:53:11.745Z</time>
      </trkpt>
      <trkpt lat="44.40599" lon="1.6412">
        <ele>274</ele>
        <time>2019-08-08T08:53:16.709Z</time>
      </trkpt>
      <trkpt lat="44.40606" lon="1.64123">
        <ele>274</ele>
        <time>2019-08-08T08:53:20.764Z</time>
      </trkpt>
      <trkpt lat="44.40613" lon="1.64127">
        <ele>277</ele>
        <time>2019-08-08T08:53:25.720Z</time>
      </trkpt>
      <trkpt lat="44.40618" lon="1.64131">
        <ele>277</ele>
        <time>2019-08-08T08:53:30.716Z</time>
      </trkpt>
      <trkpt lat="44.40622" lon="1.64135">
        <ele>277</ele>
        <time>2019-08-08T08:53:34.727Z</time>
      </trkpt>
      <trkpt lat="44.40629" lon="1.64142">
        <ele>278</ele>
        <time>2019-08-08T08:53:39.749Z</time>
      </trkpt>
      <trkpt lat="44.40635" lon="1.64147">
        <ele>278</ele>
        <time>2019-08-08T08:53:44.706Z</time>
      </trkpt>
      <trkpt lat="44.40637" lon="1.6415">
        <ele>278</ele>
        <time>2019-08-08T08:53:48.731Z</time>
      </trkpt>
      <trkpt lat="44.40643" lon="1.64155">
        <ele>282</ele>
        <time>2019-08-08T08:53:53.725Z</time>
      </trkpt>
      <trkpt lat="44.40647" lon="1.64159">
        <ele>282</ele>
        <time>2019-08-08T08:53:57.768Z</time>
      </trkpt>
      <trkpt lat="44.40651" lon="1.64163">
        <ele>282</ele>
        <time>2019-08-08T08:54:02.699Z</time>
      </trkpt>
      <trkpt lat="44.40655" lon="1.64168">
        <ele>282</ele>
        <time>2019-08-08T08:54:06.735Z</time>
      </trkpt>
      <trkpt lat="44.40658" lon="1.64173">
        <ele>282</ele>
        <time>2019-08-08T08:54:11.713Z</time>
      </trkpt>
      <trkpt lat="44.40663" lon="1.6418">
        <ele>282</ele>
        <time>2019-08-08T08:54:16.731Z</time>
      </trkpt>
      <trkpt lat="44.40667" lon="1.64188">
        <ele>283</ele>
        <time>2019-08-08T08:54:21.727Z</time>
      </trkpt>
      <trkpt lat="44.40673" lon="1.64195">
        <ele>283</ele>
        <time>2019-08-08T08:54:26.707Z</time>
      </trkpt>
      <trkpt lat="44.40679" lon="1.64201">
        <ele>283</ele>
        <time>2019-08-08T08:54:30.751Z</time>
      </trkpt>
      <trkpt lat="44.40689" lon="1.64211">
        <ele>283</ele>
        <time>2019-08-08T08:54:35.720Z</time>
      </trkpt>
      <trkpt lat="44.40693" lon="1.64217">
        <ele>283</ele>
        <time>2019-08-08T08:54:40.709Z</time>
      </trkpt>
      <trkpt lat="44.40699" lon="1.64224">
        <ele>283</ele>
        <time>2019-08-08T08:54:45.751Z</time>
      </trkpt>
      <trkpt lat="44.40704" lon="1.64231">
        <ele>283</ele>
        <time>2019-08-08T08:54:50.710Z</time>
      </trkpt>
      <trkpt lat="44.40707" lon="1.64236">
        <ele>286</ele>
        <time>2019-08-08T08:54:54.725Z</time>
      </trkpt>
      <trkpt lat="44.4071" lon="1.64241">
        <ele>285</ele>
        <time>2019-08-08T08:54:59.740Z</time>
      </trkpt>
      <trkpt lat="44.40716" lon="1.64249">
        <ele>285</ele>
        <time>2019-08-08T08:55:04.724Z</time>
      </trkpt>
      <trkpt lat="44.40722" lon="1.64259">
        <ele>285</ele>
        <time>2019-08-08T08:55:09.709Z</time>
      </trkpt>
      <trkpt lat="44.40727" lon="1.64265">
        <ele>287</ele>
        <time>2019-08-08T08:55:14.732Z</time>
      </trkpt>
      <trkpt lat="44.40731" lon="1.64269">
        <ele>287</ele>
        <time>2019-08-08T08:55:19.722Z</time>
      </trkpt>
      <trkpt lat="44.40737" lon="1.64272">
        <ele>286</ele>
        <time>2019-08-08T08:55:24.759Z</time>
      </trkpt>
      <trkpt lat="44.40744" lon="1.64276">
        <ele>286</ele>
        <time>2019-08-08T08:55:29.715Z</time>
      </trkpt>
      <trkpt lat="44.40748" lon="1.64278">
        <ele>286</ele>
        <time>2019-08-08T08:55:34.742Z</time>
      </trkpt>
      <trkpt lat="44.40753" lon="1.64282">
        <ele>286</ele>
        <time>2019-08-08T08:55:39.711Z</time>
      </trkpt>
      <trkpt lat="44.4076" lon="1.64288">
        <ele>286</ele>
        <time>2019-08-08T08:55:43.734Z</time>
      </trkpt>
      <trkpt lat="44.40769" lon="1.64293">
        <ele>285</ele>
        <time>2019-08-08T08:55:48.735Z</time>
      </trkpt>
      <trkpt lat="44.40779" lon="1.64296">
        <ele>285</ele>
        <time>2019-08-08T08:55:53.752Z</time>
      </trkpt>
      <trkpt lat="44.40785" lon="1.643">
        <ele>285</ele>
        <time>2019-08-08T08:55:58.727Z</time>
      </trkpt>
      <trkpt lat="44.40792" lon="1.64306">
        <ele>284</ele>
        <time>2019-08-08T08:56:03.723Z</time>
      </trkpt>
      <trkpt lat="44.40798" lon="1.64311">
        <ele>284</ele>
        <time>2019-08-08T08:56:08.756Z</time>
      </trkpt>
      <trkpt lat="44.40804" lon="1.64316">
        <ele>284</ele>
        <time>2019-08-08T08:56:13.738Z</time>
      </trkpt>
      <trkpt lat="44.40808" lon="1.6432">
        <ele>283</ele>
        <time>2019-08-08T08:56:18.748Z</time>
      </trkpt>
      <trkpt lat="44.40814" lon="1.64324">
        <ele>283</ele>
        <time>2019-08-08T08:56:23.725Z</time>
      </trkpt>
      <trkpt lat="44.40818" lon="1.64326">
        <ele>283</ele>
        <time>2019-08-08T08:56:28.723Z</time>
      </trkpt>
      <trkpt lat="44.40824" lon="1.64328">
        <ele>280</ele>
        <time>2019-08-08T08:56:33.724Z</time>
      </trkpt>
      <trkpt lat="44.4083" lon="1.64332">
        <ele>280</ele>
        <time>2019-08-08T08:56:38.703Z</time>
      </trkpt>
      <trkpt lat="44.40834" lon="1.64334">
        <ele>280</ele>
        <time>2019-08-08T08:56:42.715Z</time>
      </trkpt>
      <trkpt lat="44.4084" lon="1.64337">
        <ele>280</ele>
        <time>2019-08-08T08:56:47.719Z</time>
      </trkpt>
      <trkpt lat="44.40844" lon="1.6434">
        <ele>280</ele>
        <time>2019-08-08T08:56:51.749Z</time>
      </trkpt>
      <trkpt lat="44.4085" lon="1.64343">
        <ele>278</ele>
        <time>2019-08-08T08:56:56.717Z</time>
      </trkpt>
      <trkpt lat="44.40862" lon="1.64347">
        <ele>277</ele>
        <time>2019-08-08T08:57:01.712Z</time>
      </trkpt>
      <trkpt lat="44.40884" lon="1.64348">
        <ele>278</ele>
        <time>2019-08-08T08:57:06.702Z</time>
      </trkpt>
      <trkpt lat="44.40901" lon="1.64344">
        <ele>278</ele>
        <time>2019-08-08T08:57:10.742Z</time>
      </trkpt>
      <trkpt lat="44.40922" lon="1.64341">
        <ele>279</ele>
        <time>2019-08-08T08:57:15.734Z</time>
      </trkpt>
      <trkpt lat="44.40945" lon="1.6434">
        <ele>279</ele>
        <time>2019-08-08T08:57:20.727Z</time>
      </trkpt>
      <trkpt lat="44.40963" lon="1.64342">
        <ele>280</ele>
        <time>2019-08-08T08:57:25.734Z</time>
      </trkpt>
      <trkpt lat="44.4098" lon="1.64345">
        <ele>280</ele>
        <time>2019-08-08T08:57:30.721Z</time>
      </trkpt>
      <trkpt lat="44.40997" lon="1.6435">
        <ele>282</ele>
        <time>2019-08-08T08:57:35.740Z</time>
      </trkpt>
      <trkpt lat="44.41009" lon="1.64353">
        <ele>282</ele>
        <time>2019-08-08T08:57:40.736Z</time>
      </trkpt>
      <trkpt lat="44.41016" lon="1.64354">
        <ele>282</ele>
        <time>2019-08-08T08:57:45.723Z</time>
      </trkpt>
      <trkpt lat="44.4102" lon="1.64355">
        <ele>282</ele>
        <time>2019-08-08T08:57:50.724Z</time>
      </trkpt>
      <trkpt lat="44.41026" lon="1.64356">
        <ele>282</ele>
        <time>2019-08-08T08:57:55.723Z</time>
      </trkpt>
      <trkpt lat="44.4103" lon="1.64357">
        <ele>282</ele>
        <time>2019-08-08T08:58:00.717Z</time>
      </trkpt>
      <trkpt lat="44.41034" lon="1.64358">
        <ele>282</ele>
        <time>2019-08-08T08:58:04.727Z</time>
      </trkpt>
      <trkpt lat="44.41039" lon="1.64361">
        <ele>282</ele>
        <time>2019-08-08T08:58:09.703Z</time>
      </trkpt>
      <trkpt lat="44.41045" lon="1.64362">
        <ele>283</ele>
        <time>2019-08-08T08:58:13.735Z</time>
      </trkpt>
      <trkpt lat="44.41054" lon="1.64362">
        <ele>283</ele>
        <time>2019-08-08T08:58:18.747Z</time>
      </trkpt>
      <trkpt lat="44.41061" lon="1.64363">
        <ele>283</ele>
        <time>2019-08-08T08:58:23.740Z</time>
      </trkpt>
      <trkpt lat="44.41067" lon="1.64364">
        <ele>283</ele>
        <time>2019-08-08T08:58:28.726Z</time>
      </trkpt>
      <trkpt lat="44.41072" lon="1.64364">
        <ele>283</ele>
        <time>2019-08-08T08:58:32.737Z</time>
      </trkpt>
      <trkpt lat="44.41077" lon="1.64364">
        <ele>283</ele>
        <time>2019-08-08T08:58:37.728Z</time>
      </trkpt>
      <trkpt lat="44.41083" lon="1.64365">
        <ele>283</ele>
        <time>2019-08-08T08:58:42.708Z</time>
      </trkpt>
      <trkpt lat="44.41091" lon="1.64367">
        <ele>283</ele>
        <time>2019-08-08T08:58:47.726Z</time>
      </trkpt>
      <trkpt lat="44.41099" lon="1.64367">
        <ele>281</ele>
        <time>2019-08-08T08:58:52.732Z</time>
      </trkpt>
      <trkpt lat="44.41106" lon="1.64368">
        <ele>281</ele>
        <time>2019-08-08T08:58:57.722Z</time>
      </trkpt>
      <trkpt lat="44.41111" lon="1.64367">
        <ele>281</ele>
        <time>2019-08-08T08:59:01.744Z</time>
      </trkpt>
      <trkpt lat="44.41116" lon="1.64367">
        <ele>281</ele>
        <time>2019-08-08T08:59:06.707Z</time>
      </trkpt>
      <trkpt lat="44.41119" lon="1.64366">
        <ele>281</ele>
        <time>2019-08-08T08:59:10.740Z</time>
      </trkpt>
      <trkpt lat="44.41124" lon="1.64367">
        <ele>281</ele>
        <time>2019-08-08T08:59:15.711Z</time>
      </trkpt>
      <trkpt lat="44.41128" lon="1.64368">
        <ele>278</ele>
        <time>2019-08-08T08:59:19.747Z</time>
      </trkpt>
      <trkpt lat="44.41134" lon="1.6437">
        <ele>278</ele>
        <time>2019-08-08T08:59:24.729Z</time>
      </trkpt>
      <trkpt lat="44.4114" lon="1.64372">
        <ele>278</ele>
        <time>2019-08-08T08:59:29.710Z</time>
      </trkpt>
      <trkpt lat="44.41146" lon="1.64373">
        <ele>278</ele>
        <time>2019-08-08T08:59:33.756Z</time>
      </trkpt>
      <trkpt lat="44.41157" lon="1.64374">
        <ele>276</ele>
        <time>2019-08-08T08:59:38.730Z</time>
      </trkpt>
      <trkpt lat="44.41173" lon="1.64379">
        <ele>277</ele>
        <time>2019-08-08T08:59:43.725Z</time>
      </trkpt>
      <trkpt lat="44.41184" lon="1.6438">
        <ele>278</ele>
        <time>2019-08-08T08:59:48.718Z</time>
      </trkpt>
      <trkpt lat="44.41192" lon="1.64378">
        <ele>278</ele>
        <time>2019-08-08T08:59:53.715Z</time>
      </trkpt>
      <trkpt lat="44.412" lon="1.64377">
        <ele>278</ele>
        <time>2019-08-08T08:59:57.734Z</time>
      </trkpt>
      <trkpt lat="44.41204" lon="1.64375">
        <ele>278</ele>
        <time>2019-08-08T09:00:02.733Z</time>
      </trkpt>
      <trkpt lat="44.4121" lon="1.64372">
        <ele>278</ele>
        <time>2019-08-08T09:00:07.710Z</time>
      </trkpt>
      <trkpt lat="44.41216" lon="1.6437">
        <ele>278</ele>
        <time>2019-08-08T09:00:12.734Z</time>
      </trkpt>
      <trkpt lat="44.41224" lon="1.64368">
        <ele>278</ele>
        <time>2019-08-08T09:00:17.718Z</time>
      </trkpt>
      <trkpt lat="44.41229" lon="1.64368">
        <ele>278</ele>
        <time>2019-08-08T09:00:22.726Z</time>
      </trkpt>
      <trkpt lat="44.41235" lon="1.6437">
        <ele>278</ele>
        <time>2019-08-08T09:00:27.729Z</time>
      </trkpt>
      <trkpt lat="44.41244" lon="1.64371">
        <ele>279</ele>
        <time>2019-08-08T09:00:32.759Z</time>
      </trkpt>
      <trkpt lat="44.4125" lon="1.64372">
        <ele>279</ele>
        <time>2019-08-08T09:00:37.751Z</time>
      </trkpt>
      <trkpt lat="44.41258" lon="1.64372">
        <ele>279</ele>
        <time>2019-08-08T09:00:42.761Z</time>
      </trkpt>
      <trkpt lat="44.41263" lon="1.64373">
        <ele>279</ele>
        <time>2019-08-08T09:00:47.715Z</time>
      </trkpt>
      <trkpt lat="44.41269" lon="1.64372">
        <ele>281</ele>
        <time>2019-08-08T09:00:52.741Z</time>
      </trkpt>
      <trkpt lat="44.41276" lon="1.64371">
        <ele>281</ele>
        <time>2019-08-08T09:00:57.717Z</time>
      </trkpt>
      <trkpt lat="44.41285" lon="1.64372">
        <ele>281</ele>
        <time>2019-08-08T09:01:01.754Z</time>
      </trkpt>
      <trkpt lat="44.41292" lon="1.64372">
        <ele>281</ele>
        <time>2019-08-08T09:01:06.716Z</time>
      </trkpt>
      <trkpt lat="44.41296" lon="1.64372">
        <ele>284</ele>
        <time>2019-08-08T09:01:10.739Z</time>
      </trkpt>
      <trkpt lat="44.41303" lon="1.6437">
        <ele>284</ele>
        <time>2019-08-08T09:01:15.719Z</time>
      </trkpt>
      <trkpt lat="44.41311" lon="1.6437">
        <ele>284</ele>
        <time>2019-08-08T09:01:20.715Z</time>
      </trkpt>
      <trkpt lat="44.41315" lon="1.6437">
        <ele>284</ele>
        <time>2019-08-08T09:01:24.738Z</time>
      </trkpt>
      <trkpt lat="44.41321" lon="1.64371">
        <ele>285</ele>
        <time>2019-08-08T09:01:29.729Z</time>
      </trkpt>
      <trkpt lat="44.41329" lon="1.64374">
        <ele>285</ele>
        <time>2019-08-08T09:01:34.739Z</time>
      </trkpt>
      <trkpt lat="44.41333" lon="1.64377">
        <ele>287</ele>
        <time>2019-08-08T09:01:39.710Z</time>
      </trkpt>
      <trkpt lat="44.41341" lon="1.6438">
        <ele>287</ele>
        <time>2019-08-08T09:01:44.708Z</time>
      </trkpt>
      <trkpt lat="44.41345" lon="1.64381">
        <ele>287</ele>
        <time>2019-08-08T09:01:49.709Z</time>
      </trkpt>
      <trkpt lat="44.41353" lon="1.64384">
        <ele>287</ele>
        <time>2019-08-08T09:01:54.730Z</time>
      </trkpt>
      <trkpt lat="44.41359" lon="1.64384">
        <ele>287</ele>
        <time>2019-08-08T09:01:59.733Z</time>
      </trkpt>
      <trkpt lat="44.41366" lon="1.64386">
        <ele>287</ele>
        <time>2019-08-08T09:02:04.749Z</time>
      </trkpt>
      <trkpt lat="44.41373" lon="1.64387">
        <ele>287</ele>
        <time>2019-08-08T09:02:09.700Z</time>
      </trkpt>
      <trkpt lat="44.41381" lon="1.64387">
        <ele>289</ele>
        <time>2019-08-08T09:02:14.724Z</time>
      </trkpt>
      <trkpt lat="44.41387" lon="1.64386">
        <ele>289</ele>
        <time>2019-08-08T09:02:19.719Z</time>
      </trkpt>
      <trkpt lat="44.41393" lon="1.64386">
        <ele>289</ele>
        <time>2019-08-08T09:02:24.715Z</time>
      </trkpt>
      <trkpt lat="44.41402" lon="1.64387">
        <ele>289</ele>
        <time>2019-08-08T09:02:29.721Z</time>
      </trkpt>
      <trkpt lat="44.41407" lon="1.64386">
        <ele>291</ele>
        <time>2019-08-08T09:02:33.756Z</time>
      </trkpt>
      <trkpt lat="44.41415" lon="1.64381">
        <ele>291</ele>
        <time>2019-08-08T09:02:38.709Z</time>
      </trkpt>
      <trkpt lat="44.41428" lon="1.64375">
        <ele>289</ele>
        <time>2019-08-08T09:02:43.718Z</time>
      </trkpt>
      <trkpt lat="44.41436" lon="1.6437">
        <ele>291</ele>
        <time>2019-08-08T09:02:48.714Z</time>
      </trkpt>
      <trkpt lat="44.4144" lon="1.64367">
        <ele>291</ele>
        <time>2019-08-08T09:02:52.730Z</time>
      </trkpt>
      <trkpt lat="44.41448" lon="1.64363">
        <ele>291</ele>
        <time>2019-08-08T09:02:57.747Z</time>
      </trkpt>
      <trkpt lat="44.41452" lon="1.6436">
        <ele>291</ele>
        <time>2019-08-08T09:03:02.708Z</time>
      </trkpt>
      <trkpt lat="44.41455" lon="1.64358">
        <ele>291</ele>
        <time>2019-08-08T09:03:06.721Z</time>
      </trkpt>
      <trkpt lat="44.41458" lon="1.64357">
        <ele>291</ele>
        <time>2019-08-08T09:03:11.706Z</time>
      </trkpt>
      <trkpt lat="44.41462" lon="1.64353">
        <ele>291</ele>
        <time>2019-08-08T09:03:15.749Z</time>
      </trkpt>
      <trkpt lat="44.41471" lon="1.64356">
        <ele>291</ele>
        <time>2019-08-08T09:03:20.714Z</time>
      </trkpt>
      <trkpt lat="44.41484" lon="1.64356">
        <ele>291</ele>
        <time>2019-08-08T09:03:24.729Z</time>
      </trkpt>
      <trkpt lat="44.41486" lon="1.64352">
        <ele>291</ele>
        <time>2019-08-08T09:03:29.719Z</time>
      </trkpt>
      <trkpt lat="44.41494" lon="1.6435">
        <ele>291</ele>
        <time>2019-08-08T09:03:34.729Z</time>
      </trkpt>
      <trkpt lat="44.41497" lon="1.6435">
        <ele>291</ele>
        <time>2019-08-08T09:03:39.716Z</time>
      </trkpt>
      <trkpt lat="44.41506" lon="1.64344">
        <ele>288</ele>
        <time>2019-08-08T09:03:44.698Z</time>
      </trkpt>
      <trkpt lat="44.41514" lon="1.64341">
        <ele>288</ele>
        <time>2019-08-08T09:03:49.724Z</time>
      </trkpt>
      <trkpt lat="44.4152" lon="1.64336">
        <ele>288</ele>
        <time>2019-08-08T09:03:54.713Z</time>
      </trkpt>
      <trkpt lat="44.41527" lon="1.64331">
        <ele>288</ele>
        <time>2019-08-08T09:03:59.738Z</time>
      </trkpt>
      <trkpt lat="44.41533" lon="1.64329">
        <ele>288</ele>
        <time>2019-08-08T09:04:04.717Z</time>
      </trkpt>
      <trkpt lat="44.4154" lon="1.64325">
        <ele>288</ele>
        <time>2019-08-08T09:04:09.704Z</time>
      </trkpt>
      <trkpt lat="44.41547" lon="1.64323">
        <ele>287</ele>
        <time>2019-08-08T09:04:13.722Z</time>
      </trkpt>
      <trkpt lat="44.41551" lon="1.6432">
        <ele>287</ele>
        <time>2019-08-08T09:04:17.754Z</time>
      </trkpt>
      <trkpt lat="44.41556" lon="1.64318">
        <ele>284</ele>
        <time>2019-08-08T09:04:22.712Z</time>
      </trkpt>
      <trkpt lat="44.41561" lon="1.64314">
        <ele>284</ele>
        <time>2019-08-08T09:04:27.719Z</time>
      </trkpt>
      <trkpt lat="44.41566" lon="1.6431">
        <ele>284</ele>
        <time>2019-08-08T09:04:32.769Z</time>
      </trkpt>
      <trkpt lat="44.41575" lon="1.64309">
        <ele>282</ele>
        <time>2019-08-08T09:04:37.714Z</time>
      </trkpt>
      <trkpt lat="44.41579" lon="1.64308">
        <ele>282</ele>
        <time>2019-08-08T09:04:41.747Z</time>
      </trkpt>
      <trkpt lat="44.41583" lon="1.64308">
        <ele>282</ele>
        <time>2019-08-08T09:04:46.716Z</time>
      </trkpt>
      <trkpt lat="44.41587" lon="1.64308">
        <ele>282</ele>
        <time>2019-08-08T09:04:50.749Z</time>
      </trkpt>
      <trkpt lat="44.41593" lon="1.64305">
        <ele>282</ele>
        <time>2019-08-08T09:04:55.761Z</time>
      </trkpt>
      <trkpt lat="44.41601" lon="1.64304">
        <ele>281</ele>
        <time>2019-08-08T09:05:00.752Z</time>
      </trkpt>
      <trkpt lat="44.41614" lon="1.64304">
        <ele>281</ele>
        <time>2019-08-08T09:05:05.731Z</time>
      </trkpt>
      <trkpt lat="44.4162" lon="1.64302">
        <ele>281</ele>
        <time>2019-08-08T09:05:09.768Z</time>
      </trkpt>
      <trkpt lat="44.41627" lon="1.64299">
        <ele>281</ele>
        <time>2019-08-08T09:05:14.744Z</time>
      </trkpt>
      <trkpt lat="44.41634" lon="1.64298">
        <ele>281</ele>
        <time>2019-08-08T09:05:19.717Z</time>
      </trkpt>
      <trkpt lat="44.41639" lon="1.64297">
        <ele>281</ele>
        <time>2019-08-08T09:05:23.731Z</time>
      </trkpt>
      <trkpt lat="44.41646" lon="1.64297">
        <ele>281</ele>
        <time>2019-08-08T09:05:28.715Z</time>
      </trkpt>
      <trkpt lat="44.41652" lon="1.64296">
        <ele>281</ele>
        <time>2019-08-08T09:05:33.711Z</time>
      </trkpt>
      <trkpt lat="44.41657" lon="1.64297">
        <ele>280</ele>
        <time>2019-08-08T09:05:37.744Z</time>
      </trkpt>
      <trkpt lat="44.41664" lon="1.64297">
        <ele>280</ele>
        <time>2019-08-08T09:05:42.706Z</time>
      </trkpt>
      <trkpt lat="44.41671" lon="1.64296">
        <ele>280</ele>
        <time>2019-08-08T09:05:46.734Z</time>
      </trkpt>
      <trkpt lat="44.41676" lon="1.64294">
        <ele>280</ele>
        <time>2019-08-08T09:05:51.731Z</time>
      </trkpt>
      <trkpt lat="44.41683" lon="1.64293">
        <ele>279</ele>
        <time>2019-08-08T09:05:56.764Z</time>
      </trkpt>
      <trkpt lat="44.4169" lon="1.64293">
        <ele>279</ele>
        <time>2019-08-08T09:06:01.747Z</time>
      </trkpt>
      <trkpt lat="44.41697" lon="1.64295">
        <ele>279</ele>
        <time>2019-08-08T09:06:06.722Z</time>
      </trkpt>
      <trkpt lat="44.41708" lon="1.64295">
        <ele>279</ele>
        <time>2019-08-08T09:06:11.701Z</time>
      </trkpt>
      <trkpt lat="44.41715" lon="1.64294">
        <ele>280</ele>
        <time>2019-08-08T09:06:15.740Z</time>
      </trkpt>
      <trkpt lat="44.41725" lon="1.64295">
        <ele>280</ele>
        <time>2019-08-08T09:06:20.727Z</time>
      </trkpt>
      <trkpt lat="44.41736" lon="1.64294">
        <ele>282</ele>
        <time>2019-08-08T09:06:25.725Z</time>
      </trkpt>
      <trkpt lat="44.41744" lon="1.64294">
        <ele>282</ele>
        <time>2019-08-08T09:06:30.714Z</time>
      </trkpt>
      <trkpt lat="44.41751" lon="1.64292">
        <ele>282</ele>
        <time>2019-08-08T09:06:35.715Z</time>
      </trkpt>
      <trkpt lat="44.41759" lon="1.64293">
        <ele>282</ele>
        <time>2019-08-08T09:06:40.720Z</time>
      </trkpt>
      <trkpt lat="44.41765" lon="1.64294">
        <ele>282</ele>
        <time>2019-08-08T09:06:45.708Z</time>
      </trkpt>
      <trkpt lat="44.41772" lon="1.64297">
        <ele>282</ele>
        <time>2019-08-08T09:06:49.731Z</time>
      </trkpt>
      <trkpt lat="44.4178" lon="1.64301">
        <ele>282</ele>
        <time>2019-08-08T09:06:54.716Z</time>
      </trkpt>
      <trkpt lat="44.41784" lon="1.64304">
        <ele>282</ele>
        <time>2019-08-08T09:06:58.735Z</time>
      </trkpt>
      <trkpt lat="44.41789" lon="1.64307">
        <ele>282</ele>
        <time>2019-08-08T09:07:03.741Z</time>
      </trkpt>
      <trkpt lat="44.41794" lon="1.64308">
        <ele>284</ele>
        <time>2019-08-08T09:07:08.725Z</time>
      </trkpt>
      <trkpt lat="44.41799" lon="1.64309">
        <ele>284</ele>
        <time>2019-08-08T09:07:13.715Z</time>
      </trkpt>
      <trkpt lat="44.41805" lon="1.64311">
        <ele>284</ele>
        <time>2019-08-08T09:07:18.722Z</time>
      </trkpt>
      <trkpt lat="44.41811" lon="1.64313">
        <ele>284</ele>
        <time>2019-08-08T09:07:23.706Z</time>
      </trkpt>
      <trkpt lat="44.4182" lon="1.64318">
        <ele>287</ele>
        <time>2019-08-08T09:07:28.725Z</time>
      </trkpt>
      <trkpt lat="44.41823" lon="1.6432">
        <ele>285</ele>
        <time>2019-08-08T09:07:33.730Z</time>
      </trkpt>
      <trkpt lat="44.41828" lon="1.64322">
        <ele>285</ele>
        <time>2019-08-08T09:07:38.721Z</time>
      </trkpt>
      <trkpt lat="44.41838" lon="1.64327">
        <ele>285</ele>
        <time>2019-08-08T09:07:43.716Z</time>
      </trkpt>
      <trkpt lat="44.41843" lon="1.64335">
        <ele>285</ele>
        <time>2019-08-08T09:07:48.700Z</time>
      </trkpt>
      <trkpt lat="44.41849" lon="1.64339">
        <ele>287</ele>
        <time>2019-08-08T09:07:52.724Z</time>
      </trkpt>
      <trkpt lat="44.41857" lon="1.64343">
        <ele>287</ele>
        <time>2019-08-08T09:07:57.731Z</time>
      </trkpt>
      <trkpt lat="44.41864" lon="1.64344">
        <ele>287</ele>
        <time>2019-08-08T09:08:02.712Z</time>
      </trkpt>
      <trkpt lat="44.41868" lon="1.64344">
        <ele>287</ele>
        <time>2019-08-08T09:08:07.748Z</time>
      </trkpt>
      <trkpt lat="44.41872" lon="1.64344">
        <ele>287</ele>
        <time>2019-08-08T09:08:12.720Z</time>
      </trkpt>
      <trkpt lat="44.41879" lon="1.64343">
        <ele>287</ele>
        <time>2019-08-08T09:08:17.723Z</time>
      </trkpt>
      <trkpt lat="44.41884" lon="1.64341">
        <ele>287</ele>
        <time>2019-08-08T09:08:21.735Z</time>
      </trkpt>
      <trkpt lat="44.41888" lon="1.64342">
        <ele>287</ele>
        <time>2019-08-08T09:08:26.739Z</time>
      </trkpt>
      <trkpt lat="44.41896" lon="1.64341">
        <ele>287</ele>
        <time>2019-08-08T09:08:31.719Z</time>
      </trkpt>
      <trkpt lat="44.41899" lon="1.6434">
        <ele>287</ele>
        <time>2019-08-08T09:08:35.730Z</time>
      </trkpt>
      <trkpt lat="44.41905" lon="1.64339">
        <ele>288</ele>
        <time>2019-08-08T09:08:40.713Z</time>
      </trkpt>
      <trkpt lat="44.41914" lon="1.64334">
        <ele>288</ele>
        <time>2019-08-08T09:08:45.704Z</time>
      </trkpt>
      <trkpt lat="44.4192" lon="1.64332">
        <ele>288</ele>
        <time>2019-08-08T09:08:49.727Z</time>
      </trkpt>
      <trkpt lat="44.41928" lon="1.64329">
        <ele>288</ele>
        <time>2019-08-08T09:08:54.744Z</time>
      </trkpt>
      <trkpt lat="44.41932" lon="1.64329">
        <ele>290</ele>
        <time>2019-08-08T09:08:59.705Z</time>
      </trkpt>
      <trkpt lat="44.41932" lon="1.64329">
        <ele>290</ele>
        <time>2019-08-08T09:09:04.710Z</time>
      </trkpt>
      <trkpt lat="44.41934" lon="1.6433">
        <ele>290</ele>
        <time>2019-08-08T09:09:08.737Z</time>
      </trkpt>
      <trkpt lat="44.4194" lon="1.64327">
        <ele>290</ele>
        <time>2019-08-08T09:09:13.717Z</time>
      </trkpt>
      <trkpt lat="44.41951" lon="1.64322">
        <ele>290</ele>
        <time>2019-08-08T09:09:18.717Z</time>
      </trkpt>
      <trkpt lat="44.41956" lon="1.64321">
        <ele>290</ele>
        <time>2019-08-08T09:09:23.725Z</time>
      </trkpt>
      <trkpt lat="44.41962" lon="1.6432">
        <ele>292</ele>
        <time>2019-08-08T09:09:28.716Z</time>
      </trkpt>
      <trkpt lat="44.41967" lon="1.64319">
        <ele>294</ele>
        <time>2019-08-08T09:09:33.724Z</time>
      </trkpt>
      <trkpt lat="44.41979" lon="1.64321">
        <ele>292</ele>
        <time>2019-08-08T09:09:38.716Z</time>
      </trkpt>
      <trkpt lat="44.41987" lon="1.64322">
        <ele>293</ele>
        <time>2019-08-08T09:09:42.736Z</time>
      </trkpt>
      <trkpt lat="44.41995" lon="1.64323">
        <ele>293</ele>
        <time>2019-08-08T09:09:47.708Z</time>
      </trkpt>
      <trkpt lat="44.42001" lon="1.64326">
        <ele>293</ele>
        <time>2019-08-08T09:09:51.728Z</time>
      </trkpt>
      <trkpt lat="44.42008" lon="1.64327">
        <ele>293</ele>
        <time>2019-08-08T09:09:55.739Z</time>
      </trkpt>
      <trkpt lat="44.42015" lon="1.64328">
        <ele>295</ele>
        <time>2019-08-08T09:10:00.727Z</time>
      </trkpt>
      <trkpt lat="44.4202" lon="1.64329">
        <ele>295</ele>
        <time>2019-08-08T09:10:05.722Z</time>
      </trkpt>
      <trkpt lat="44.42028" lon="1.64332">
        <ele>295</ele>
        <time>2019-08-08T09:10:10.755Z</time>
      </trkpt>
      <trkpt lat="44.42035" lon="1.64334">
        <ele>295</ele>
        <time>2019-08-08T09:10:15.731Z</time>
      </trkpt>
      <trkpt lat="44.42042" lon="1.64336">
        <ele>298</ele>
        <time>2019-08-08T09:10:20.718Z</time>
      </trkpt>
      <trkpt lat="44.42048" lon="1.64336">
        <ele>298</ele>
        <time>2019-08-08T09:10:25.724Z</time>
      </trkpt>
      <trkpt lat="44.42054" lon="1.64338">
        <ele>298</ele>
        <time>2019-08-08T09:10:30.717Z</time>
      </trkpt>
      <trkpt lat="44.4206" lon="1.64338">
        <ele>298</ele>
        <time>2019-08-08T09:10:35.712Z</time>
      </trkpt>
      <trkpt lat="44.42062" lon="1.6434">
        <ele>298</ele>
        <time>2019-08-08T09:10:40.717Z</time>
      </trkpt>
      <trkpt lat="44.42069" lon="1.64343">
        <ele>298</ele>
        <time>2019-08-08T09:10:44.729Z</time>
      </trkpt>
      <trkpt lat="44.42075" lon="1.64343">
        <ele>299</ele>
        <time>2019-08-08T09:10:49.709Z</time>
      </trkpt>
      <trkpt lat="44.42082" lon="1.64344">
        <ele>299</ele>
        <time>2019-08-08T09:10:53.726Z</time>
      </trkpt>
      <trkpt lat="44.42091" lon="1.6434">
        <ele>299</ele>
        <time>2019-08-08T09:10:58.725Z</time>
      </trkpt>
      <trkpt lat="44.42096" lon="1.64338">
        <ele>299</ele>
        <time>2019-08-08T09:11:03.717Z</time>
      </trkpt>
      <trkpt lat="44.42105" lon="1.64338">
        <ele>301</ele>
        <time>2019-08-08T09:11:08.735Z</time>
      </trkpt>
      <trkpt lat="44.42111" lon="1.64344">
        <ele>301</ele>
        <time>2019-08-08T09:11:13.703Z</time>
      </trkpt>
      <trkpt lat="44.42119" lon="1.64342">
        <ele>301</ele>
        <time>2019-08-08T09:11:17.748Z</time>
      </trkpt>
      <trkpt lat="44.42127" lon="1.64344">
        <ele>301</ele>
        <time>2019-08-08T09:11:22.749Z</time>
      </trkpt>
      <trkpt lat="44.42132" lon="1.64343">
        <ele>301</ele>
        <time>2019-08-08T09:11:27.740Z</time>
      </trkpt>
      <trkpt lat="44.42139" lon="1.64342">
        <ele>301</ele>
        <time>2019-08-08T09:11:32.717Z</time>
      </trkpt>
      <trkpt lat="44.42142" lon="1.64343">
        <ele>301</ele>
        <time>2019-08-08T09:11:36.748Z</time>
      </trkpt>
      <trkpt lat="44.4215" lon="1.64344">
        <ele>301</ele>
        <time>2019-08-08T09:11:41.725Z</time>
      </trkpt>
      <trkpt lat="44.42156" lon="1.64344">
        <ele>303</ele>
        <time>2019-08-08T09:11:46.730Z</time>
      </trkpt>
      <trkpt lat="44.42163" lon="1.64345">
        <ele>303</ele>
        <time>2019-08-08T09:11:50.743Z</time>
      </trkpt>
      <trkpt lat="44.42178" lon="1.64349">
        <ele>301</ele>
        <time>2019-08-08T09:11:55.749Z</time>
      </trkpt>
      <trkpt lat="44.42185" lon="1.64348">
        <ele>302</ele>
        <time>2019-08-08T09:12:00.731Z</time>
      </trkpt>
      <trkpt lat="44.42188" lon="1.64347">
        <ele>304</ele>
        <time>2019-08-08T09:12:05.708Z</time>
      </trkpt>
      <trkpt lat="44.42192" lon="1.64347">
        <ele>304</ele>
        <time>2019-08-08T09:12:10.706Z</time>
      </trkpt>
      <trkpt lat="44.42195" lon="1.64347">
        <ele>304</ele>
        <time>2019-08-08T09:12:15.702Z</time>
      </trkpt>
      <trkpt lat="44.42203" lon="1.64348">
        <ele>302</ele>
        <time>2019-08-08T09:12:19.720Z</time>
      </trkpt>
      <trkpt lat="44.42208" lon="1.64349">
        <ele>302</ele>
        <time>2019-08-08T09:12:24.725Z</time>
      </trkpt>
      <trkpt lat="44.42217" lon="1.64343">
        <ele>306</ele>
        <time>2019-08-08T09:12:29.716Z</time>
      </trkpt>
      <trkpt lat="44.42223" lon="1.64344">
        <ele>306</ele>
        <time>2019-08-08T09:12:33.749Z</time>
      </trkpt>
      <trkpt lat="44.42231" lon="1.64344">
        <ele>306</ele>
        <time>2019-08-08T09:12:38.728Z</time>
      </trkpt>
      <trkpt lat="44.42238" lon="1.64342">
        <ele>308</ele>
        <time>2019-08-08T09:12:43.704Z</time>
      </trkpt>
      <trkpt lat="44.42242" lon="1.64342">
        <ele>308</ele>
        <time>2019-08-08T09:12:47.718Z</time>
      </trkpt>
      <trkpt lat="44.42248" lon="1.64342">
        <ele>308</ele>
        <time>2019-08-08T09:12:51.739Z</time>
      </trkpt>
      <trkpt lat="44.42258" lon="1.64341">
        <ele>308</ele>
        <time>2019-08-08T09:12:56.749Z</time>
      </trkpt>
      <trkpt lat="44.42261" lon="1.64339">
        <ele>308</ele>
        <time>2019-08-08T09:13:01.708Z</time>
      </trkpt>
      <trkpt lat="44.42267" lon="1.64338">
        <ele>310</ele>
        <time>2019-08-08T09:13:06.720Z</time>
      </trkpt>
      <trkpt lat="44.42273" lon="1.64335">
        <ele>310</ele>
        <time>2019-08-08T09:13:11.720Z</time>
      </trkpt>
      <trkpt lat="44.42278" lon="1.64333">
        <ele>310</ele>
        <time>2019-08-08T09:13:16.734Z</time>
      </trkpt>
      <trkpt lat="44.42284" lon="1.64331">
        <ele>310</ele>
        <time>2019-08-08T09:13:21.730Z</time>
      </trkpt>
      <trkpt lat="44.42286" lon="1.64331">
        <ele>310</ele>
        <time>2019-08-08T09:13:26.741Z</time>
      </trkpt>
      <trkpt lat="44.42293" lon="1.64329">
        <ele>313</ele>
        <time>2019-08-08T09:13:31.739Z</time>
      </trkpt>
      <trkpt lat="44.42303" lon="1.64328">
        <ele>313</ele>
        <time>2019-08-08T09:13:36.722Z</time>
      </trkpt>
      <trkpt lat="44.42307" lon="1.64327">
        <ele>313</ele>
        <time>2019-08-08T09:13:40.732Z</time>
      </trkpt>
      <trkpt lat="44.42308" lon="1.64327">
        <ele>313</ele>
        <time>2019-08-08T09:13:45.712Z</time>
      </trkpt>
      <trkpt lat="44.42308" lon="1.64327">
        <ele>313</ele>
        <time>2019-08-08T09:13:49.738Z</time>
      </trkpt>
      <trkpt lat="44.42312" lon="1.64323">
        <ele>313</ele>
        <time>2019-08-08T09:13:54.715Z</time>
      </trkpt>
      <trkpt lat="44.42318" lon="1.64315">
        <ele>315</ele>
        <time>2019-08-08T09:13:59.741Z</time>
      </trkpt>
      <trkpt lat="44.42325" lon="1.64308">
        <ele>317</ele>
        <time>2019-08-08T09:14:04.728Z</time>
      </trkpt>
      <trkpt lat="44.42329" lon="1.64308">
        <ele>317</ele>
        <time>2019-08-08T09:14:09.718Z</time>
      </trkpt>
      <trkpt lat="44.42336" lon="1.64307">
        <ele>317</ele>
        <time>2019-08-08T09:14:14.728Z</time>
      </trkpt>
      <trkpt lat="44.42346" lon="1.64303">
        <ele>317</ele>
        <time>2019-08-08T09:14:19.718Z</time>
      </trkpt>
      <trkpt lat="44.42353" lon="1.64299">
        <ele>319</ele>
        <time>2019-08-08T09:14:23.732Z</time>
      </trkpt>
      <trkpt lat="44.42357" lon="1.643">
        <ele>319</ele>
        <time>2019-08-08T09:14:28.738Z</time>
      </trkpt>
      <trkpt lat="44.42363" lon="1.64297">
        <ele>319</ele>
        <time>2019-08-08T09:14:33.716Z</time>
      </trkpt>
      <trkpt lat="44.42366" lon="1.64296">
        <ele>319</ele>
        <time>2019-08-08T09:14:37.743Z</time>
      </trkpt>
      <trkpt lat="44.42374" lon="1.64291">
        <ele>322</ele>
        <time>2019-08-08T09:14:42.713Z</time>
      </trkpt>
      <trkpt lat="44.42379" lon="1.64286">
        <ele>324</ele>
        <time>2019-08-08T09:14:46.735Z</time>
      </trkpt>
      <trkpt lat="44.4238" lon="1.64282">
        <ele>324</ele>
        <time>2019-08-08T09:14:51.714Z</time>
      </trkpt>
      <trkpt lat="44.42386" lon="1.64278">
        <ele>324</ele>
        <time>2019-08-08T09:14:56.722Z</time>
      </trkpt>
      <trkpt lat="44.42393" lon="1.64273">
        <ele>324</ele>
        <time>2019-08-08T09:15:01.731Z</time>
      </trkpt>
      <trkpt lat="44.42399" lon="1.64268">
        <ele>324</ele>
        <time>2019-08-08T09:15:06.723Z</time>
      </trkpt>
      <trkpt lat="44.42406" lon="1.64262">
        <ele>327</ele>
        <time>2019-08-08T09:15:11.698Z</time>
      </trkpt>
      <trkpt lat="44.4241" lon="1.64257">
        <ele>327</ele>
        <time>2019-08-08T09:15:16.692Z</time>
      </trkpt>
      <trkpt lat="44.42412" lon="1.64254">
        <ele>327</ele>
        <time>2019-08-08T09:15:20.708Z</time>
      </trkpt>
      <trkpt lat="44.42415" lon="1.64251">
        <ele>327</ele>
        <time>2019-08-08T09:15:24.690Z</time>
      </trkpt>
      <trkpt lat="44.42419" lon="1.64246">
        <ele>327</ele>
        <time>2019-08-08T09:15:29.698Z</time>
      </trkpt>
      <trkpt lat="44.42424" lon="1.64242">
        <ele>327</ele>
        <time>2019-08-08T09:15:34.703Z</time>
      </trkpt>
      <trkpt lat="44.42428" lon="1.64238">
        <ele>327</ele>
        <time>2019-08-08T09:15:39.707Z</time>
      </trkpt>
      <trkpt lat="44.42435" lon="1.64231">
        <ele>333</ele>
        <time>2019-08-08T09:15:44.699Z</time>
      </trkpt>
      <trkpt lat="44.42441" lon="1.64225">
        <ele>333</ele>
        <time>2019-08-08T09:15:49.684Z</time>
      </trkpt>
      <trkpt lat="44.42444" lon="1.64222">
        <ele>333</ele>
        <time>2019-08-08T09:15:53.702Z</time>
      </trkpt>
      <trkpt lat="44.42447" lon="1.64217">
        <ele>333</ele>
        <time>2019-08-08T09:15:57.711Z</time>
      </trkpt>
      <trkpt lat="44.42453" lon="1.64211">
        <ele>333</ele>
        <time>2019-08-08T09:16:02.708Z</time>
      </trkpt>
      <trkpt lat="44.42458" lon="1.64207">
        <ele>337</ele>
        <time>2019-08-08T09:16:07.709Z</time>
      </trkpt>
      <trkpt lat="44.42464" lon="1.64204">
        <ele>337</ele>
        <time>2019-08-08T09:16:11.746Z</time>
      </trkpt>
      <trkpt lat="44.42468" lon="1.64202">
        <ele>337</ele>
        <time>2019-08-08T09:16:16.702Z</time>
      </trkpt>
      <trkpt lat="44.42473" lon="1.64198">
        <ele>337</ele>
        <time>2019-08-08T09:16:20.708Z</time>
      </trkpt>
      <trkpt lat="44.42477" lon="1.64195">
        <ele>337</ele>
        <time>2019-08-08T09:16:24.731Z</time>
      </trkpt>
      <trkpt lat="44.42481" lon="1.64195">
        <ele>337</ele>
        <time>2019-08-08T09:16:29.706Z</time>
      </trkpt>
      <trkpt lat="44.42487" lon="1.64193">
        <ele>337</ele>
        <time>2019-08-08T09:16:34.720Z</time>
      </trkpt>
      <trkpt lat="44.42491" lon="1.64188">
        <ele>337</ele>
        <time>2019-08-08T09:16:38.733Z</time>
      </trkpt>
      <trkpt lat="44.42496" lon="1.6418">
        <ele>340</ele>
        <time>2019-08-08T09:16:43.722Z</time>
      </trkpt>
      <trkpt lat="44.425" lon="1.64175">
        <ele>340</ele>
        <time>2019-08-08T09:16:47.754Z</time>
      </trkpt>
      <trkpt lat="44.42505" lon="1.64171">
        <ele>340</ele>
        <time>2019-08-08T09:17:23.699Z</time>
      </trkpt>
      <trkpt lat="44.42505" lon="1.64175">
        <ele>340</ele>
        <time>2019-08-08T09:17:28.702Z</time>
      </trkpt>
      <trkpt lat="44.42502" lon="1.64177">
        <ele>340</ele>
        <time>2019-08-08T09:17:32.729Z</time>
      </trkpt>
      <trkpt lat="44.42499" lon="1.64181">
        <ele>337</ele>
        <time>2019-08-08T09:17:37.726Z</time>
      </trkpt>
      <trkpt lat="44.42495" lon="1.64185">
        <ele>337</ele>
        <time>2019-08-08T09:17:42.732Z</time>
      </trkpt>
      <trkpt lat="44.42491" lon="1.64188">
        <ele>337</ele>
        <time>2019-08-08T09:17:46.759Z</time>
      </trkpt>
      <trkpt lat="44.42486" lon="1.64193">
        <ele>337</ele>
        <time>2019-08-08T09:17:51.714Z</time>
      </trkpt>
      <trkpt lat="44.42481" lon="1.64196">
        <ele>337</ele>
        <time>2019-08-08T09:17:55.747Z</time>
      </trkpt>
      <trkpt lat="44.42476" lon="1.64199">
        <ele>337</ele>
        <time>2019-08-08T09:18:00.747Z</time>
      </trkpt>
      <trkpt lat="44.42472" lon="1.64202">
        <ele>337</ele>
        <time>2019-08-08T09:18:05.707Z</time>
      </trkpt>
      <trkpt lat="44.42467" lon="1.64208">
        <ele>337</ele>
        <time>2019-08-08T09:18:10.737Z</time>
      </trkpt>
      <trkpt lat="44.42461" lon="1.64214">
        <ele>334</ele>
        <time>2019-08-08T09:18:15.721Z</time>
      </trkpt>
      <trkpt lat="44.42456" lon="1.6422">
        <ele>333</ele>
        <time>2019-08-08T09:18:20.715Z</time>
      </trkpt>
      <trkpt lat="44.42449" lon="1.64225">
        <ele>333</ele>
        <time>2019-08-08T09:18:25.711Z</time>
      </trkpt>
      <trkpt lat="44.42443" lon="1.6423">
        <ele>333</ele>
        <time>2019-08-08T09:18:30.734Z</time>
      </trkpt>
      <trkpt lat="44.42439" lon="1.64234">
        <ele>333</ele>
        <time>2019-08-08T09:18:35.725Z</time>
      </trkpt>
      <trkpt lat="44.42433" lon="1.64239">
        <ele>329</ele>
        <time>2019-08-08T09:18:40.707Z</time>
      </trkpt>
      <trkpt lat="44.42429" lon="1.64243">
        <ele>327</ele>
        <time>2019-08-08T09:18:44.720Z</time>
      </trkpt>
      <trkpt lat="44.42425" lon="1.64246">
        <ele>327</ele>
        <time>2019-08-08T09:18:48.741Z</time>
      </trkpt>
      <trkpt lat="44.42419" lon="1.64251">
        <ele>327</ele>
        <time>2019-08-08T09:18:53.759Z</time>
      </trkpt>
      <trkpt lat="44.42414" lon="1.64254">
        <ele>327</ele>
        <time>2019-08-08T09:18:58.733Z</time>
      </trkpt>
      <trkpt lat="44.42408" lon="1.64257">
        <ele>327</ele>
        <time>2019-08-08T09:19:03.721Z</time>
      </trkpt>
      <trkpt lat="44.42403" lon="1.64261">
        <ele>327</ele>
        <time>2019-08-08T09:19:08.736Z</time>
      </trkpt>
      <trkpt lat="44.42398" lon="1.64265">
        <ele>324</ele>
        <time>2019-08-08T09:19:13.715Z</time>
      </trkpt>
      <trkpt lat="44.42392" lon="1.64271">
        <ele>324</ele>
        <time>2019-08-08T09:19:18.731Z</time>
      </trkpt>
      <trkpt lat="44.42388" lon="1.64278">
        <ele>324</ele>
        <time>2019-08-08T09:19:23.712Z</time>
      </trkpt>
      <trkpt lat="44.42383" lon="1.64283">
        <ele>324</ele>
        <time>2019-08-08T09:19:28.711Z</time>
      </trkpt>
      <trkpt lat="44.42376" lon="1.64286">
        <ele>324</ele>
        <time>2019-08-08T09:19:33.709Z</time>
      </trkpt>
      <trkpt lat="44.42371" lon="1.64287">
        <ele>322</ele>
        <time>2019-08-08T09:19:38.710Z</time>
      </trkpt>
      <trkpt lat="44.42366" lon="1.64289">
        <ele>322</ele>
        <time>2019-08-08T09:19:42.740Z</time>
      </trkpt>
      <trkpt lat="44.42359" lon="1.6429">
        <ele>322</ele>
        <time>2019-08-08T09:19:47.731Z</time>
      </trkpt>
      <trkpt lat="44.42352" lon="1.64292">
        <ele>319</ele>
        <time>2019-08-08T09:19:52.754Z</time>
      </trkpt>
      <trkpt lat="44.42345" lon="1.64296">
        <ele>317</ele>
        <time>2019-08-08T09:19:57.730Z</time>
      </trkpt>
      <trkpt lat="44.42338" lon="1.64298">
        <ele>317</ele>
        <time>2019-08-08T09:20:02.751Z</time>
      </trkpt>
      <trkpt lat="44.42332" lon="1.643">
        <ele>317</ele>
        <time>2019-08-08T09:20:07.736Z</time>
      </trkpt>
      <trkpt lat="44.42326" lon="1.64302">
        <ele>317</ele>
        <time>2019-08-08T09:20:12.717Z</time>
      </trkpt>
      <trkpt lat="44.42321" lon="1.64307">
        <ele>317</ele>
        <time>2019-08-08T09:20:16.738Z</time>
      </trkpt>
      <trkpt lat="44.42321" lon="1.64318">
        <ele>317</ele>
        <time>2019-08-08T09:20:21.735Z</time>
      </trkpt>
      <trkpt lat="44.42325" lon="1.6433">
        <ele>316</ele>
        <time>2019-08-08T09:20:26.698Z</time>
      </trkpt>
      <trkpt lat="44.42325" lon="1.64339">
        <ele>316</ele>
        <time>2019-08-08T09:20:30.727Z</time>
      </trkpt>
      <trkpt lat="44.42325" lon="1.64353">
        <ele>316</ele>
        <time>2019-08-08T09:20:35.736Z</time>
      </trkpt>
      <trkpt lat="44.42325" lon="1.64363">
        <ele>316</ele>
        <time>2019-08-08T09:20:40.727Z</time>
      </trkpt>
      <trkpt lat="44.42329" lon="1.6437">
        <ele>316</ele>
        <time>2019-08-08T09:20:45.713Z</time>
      </trkpt>
      <trkpt lat="44.42335" lon="1.64368">
        <ele>316</ele>
        <time>2019-08-08T09:20:49.744Z</time>
      </trkpt>
      <trkpt lat="44.42342" lon="1.64363">
        <ele>316</ele>
        <time>2019-08-08T09:20:54.735Z</time>
      </trkpt>
      <trkpt lat="44.42348" lon="1.64357">
        <ele>321</ele>
        <time>2019-08-08T09:20:59.728Z</time>
      </trkpt>
      <trkpt lat="44.42353" lon="1.64352">
        <ele>321</ele>
        <time>2019-08-08T09:21:04.731Z</time>
      </trkpt>
      <trkpt lat="44.42357" lon="1.6435">
        <ele>321</ele>
        <time>2019-08-08T09:21:09.739Z</time>
      </trkpt>
      <trkpt lat="44.42364" lon="1.64347">
        <ele>319</ele>
        <time>2019-08-08T09:21:14.725Z</time>
      </trkpt>
      <trkpt lat="44.42372" lon="1.64346">
        <ele>319</ele>
        <time>2019-08-08T09:21:19.711Z</time>
      </trkpt>
      <trkpt lat="44.42379" lon="1.64344">
        <ele>323</ele>
        <time>2019-08-08T09:21:23.738Z</time>
      </trkpt>
      <trkpt lat="44.42387" lon="1.64342">
        <ele>323</ele>
        <time>2019-08-08T09:21:28.730Z</time>
      </trkpt>
      <trkpt lat="44.42393" lon="1.64337">
        <ele>323</ele>
        <time>2019-08-08T09:21:33.719Z</time>
      </trkpt>
      <trkpt lat="44.42401" lon="1.64334">
        <ele>323</ele>
        <time>2019-08-08T09:21:38.721Z</time>
      </trkpt>
      <trkpt lat="44.42407" lon="1.64333">
        <ele>326</ele>
        <time>2019-08-08T09:21:43.741Z</time>
      </trkpt>
      <trkpt lat="44.42412" lon="1.64332">
        <ele>326</ele>
        <time>2019-08-08T09:21:48.716Z</time>
      </trkpt>
      <trkpt lat="44.42417" lon="1.64331">
        <ele>326</ele>
        <time>2019-08-08T09:21:53.706Z</time>
      </trkpt>
      <trkpt lat="44.42422" lon="1.6433">
        <ele>326</ele>
        <time>2019-08-08T09:21:57.724Z</time>
      </trkpt>
      <trkpt lat="44.42428" lon="1.64325">
        <ele>326</ele>
        <time>2019-08-08T09:22:02.711Z</time>
      </trkpt>
      <trkpt lat="44.42433" lon="1.64321">
        <ele>330</ele>
        <time>2019-08-08T09:22:06.731Z</time>
      </trkpt>
      <trkpt lat="44.42439" lon="1.64319">
        <ele>327</ele>
        <time>2019-08-08T09:22:11.733Z</time>
      </trkpt>
      <trkpt lat="44.42444" lon="1.64317">
        <ele>327</ele>
        <time>2019-08-08T09:22:15.743Z</time>
      </trkpt>
      <trkpt lat="44.4245" lon="1.64314">
        <ele>327</ele>
        <time>2019-08-08T09:22:20.711Z</time>
      </trkpt>
      <trkpt lat="44.42457" lon="1.64313">
        <ele>327</ele>
        <time>2019-08-08T09:22:25.730Z</time>
      </trkpt>
      <trkpt lat="44.42464" lon="1.64312">
        <ele>331</ele>
        <time>2019-08-08T09:22:30.716Z</time>
      </trkpt>
      <trkpt lat="44.42469" lon="1.64312">
        <ele>331</ele>
        <time>2019-08-08T09:22:34.751Z</time>
      </trkpt>
      <trkpt lat="44.42475" lon="1.64311">
        <ele>331</ele>
        <time>2019-08-08T09:22:39.702Z</time>
      </trkpt>
      <trkpt lat="44.42479" lon="1.64308">
        <ele>331</ele>
        <time>2019-08-08T09:22:43.736Z</time>
      </trkpt>
      <trkpt lat="44.42485" lon="1.64304">
        <ele>331</ele>
        <time>2019-08-08T09:22:48.713Z</time>
      </trkpt>
      <trkpt lat="44.42489" lon="1.64303">
        <ele>334</ele>
        <time>2019-08-08T09:22:52.737Z</time>
      </trkpt>
      <trkpt lat="44.42496" lon="1.64301">
        <ele>334</ele>
        <time>2019-08-08T09:22:57.722Z</time>
      </trkpt>
      <trkpt lat="44.42503" lon="1.64298">
        <ele>334</ele>
        <time>2019-08-08T09:23:02.744Z</time>
      </trkpt>
      <trkpt lat="44.42508" lon="1.64296">
        <ele>334</ele>
        <time>2019-08-08T09:23:07.709Z</time>
      </trkpt>
      <trkpt lat="44.42521" lon="1.64287">
        <ele>334</ele>
        <time>2019-08-08T09:23:25.696Z</time>
      </trkpt>
      <trkpt lat="44.42527" lon="1.64289">
        <ele>334</ele>
        <time>2019-08-08T09:23:30.730Z</time>
      </trkpt>
      <trkpt lat="44.42537" lon="1.64285">
        <ele>334</ele>
        <time>2019-08-08T09:23:35.712Z</time>
      </trkpt>
      <trkpt lat="44.42546" lon="1.64283">
        <ele>338</ele>
        <time>2019-08-08T09:23:40.707Z</time>
      </trkpt>
      <trkpt lat="44.42552" lon="1.64279">
        <ele>338</ele>
        <time>2019-08-08T09:23:45.698Z</time>
      </trkpt>
      <trkpt lat="44.42557" lon="1.64276">
        <ele>338</ele>
        <time>2019-08-08T09:23:49.720Z</time>
      </trkpt>
      <trkpt lat="44.42567" lon="1.64273">
        <ele>338</ele>
        <time>2019-08-08T09:23:54.724Z</time>
      </trkpt>
      <trkpt lat="44.42573" lon="1.64272">
        <ele>341</ele>
        <time>2019-08-08T09:23:59.724Z</time>
      </trkpt>
      <trkpt lat="44.4258" lon="1.6427">
        <ele>341</ele>
        <time>2019-08-08T09:24:04.755Z</time>
      </trkpt>
      <trkpt lat="44.42587" lon="1.64269">
        <ele>341</ele>
        <time>2019-08-08T09:24:09.718Z</time>
      </trkpt>
      <trkpt lat="44.42596" lon="1.64269">
        <ele>341</ele>
        <time>2019-08-08T09:24:14.723Z</time>
      </trkpt>
      <trkpt lat="44.42604" lon="1.64268">
        <ele>344</ele>
        <time>2019-08-08T09:24:19.753Z</time>
      </trkpt>
      <trkpt lat="44.4261" lon="1.64265">
        <ele>344</ele>
        <time>2019-08-08T09:24:24.708Z</time>
      </trkpt>
      <trkpt lat="44.42614" lon="1.64264">
        <ele>344</ele>
        <time>2019-08-08T09:24:29.702Z</time>
      </trkpt>
      <trkpt lat="44.42623" lon="1.64265">
        <ele>344</ele>
        <time>2019-08-08T09:24:34.709Z</time>
      </trkpt>
      <trkpt lat="44.42628" lon="1.64269">
        <ele>347</ele>
        <time>2019-08-08T09:24:39.704Z</time>
      </trkpt>
      <trkpt lat="44.42627" lon="1.64277">
        <ele>347</ele>
        <time>2019-08-08T09:24:44.702Z</time>
      </trkpt>
      <trkpt lat="44.42625" lon="1.64285">
        <ele>344</ele>
        <time>2019-08-08T09:24:49.740Z</time>
      </trkpt>
      <trkpt lat="44.42622" lon="1.64293">
        <ele>348</ele>
        <time>2019-08-08T09:24:53.753Z</time>
      </trkpt>
      <trkpt lat="44.42618" lon="1.64301">
        <ele>348</ele>
        <time>2019-08-08T09:24:58.711Z</time>
      </trkpt>
      <trkpt lat="44.42616" lon="1.64307">
        <ele>348</ele>
        <time>2019-08-08T09:25:02.723Z</time>
      </trkpt>
      <trkpt lat="44.42613" lon="1.64313">
        <ele>348</ele>
        <time>2019-08-08T09:25:07.707Z</time>
      </trkpt>
      <trkpt lat="44.42611" lon="1.6432">
        <ele>352</ele>
        <time>2019-08-08T09:25:11.747Z</time>
      </trkpt>
      <trkpt lat="44.42608" lon="1.64329">
        <ele>352</ele>
        <time>2019-08-08T09:25:16.736Z</time>
      </trkpt>
      <trkpt lat="44.42605" lon="1.64337">
        <ele>352</ele>
        <time>2019-08-08T09:25:20.759Z</time>
      </trkpt>
      <trkpt lat="44.42602" lon="1.64345">
        <ele>352</ele>
        <time>2019-08-08T09:25:25.741Z</time>
      </trkpt>
      <trkpt lat="44.42599" lon="1.64355">
        <ele>353</ele>
        <time>2019-08-08T09:25:30.732Z</time>
      </trkpt>
      <trkpt lat="44.42599" lon="1.64364">
        <ele>353</ele>
        <time>2019-08-08T09:25:35.742Z</time>
      </trkpt>
      <trkpt lat="44.42598" lon="1.64371">
        <ele>353</ele>
        <time>2019-08-08T09:25:40.704Z</time>
      </trkpt>
      <trkpt lat="44.42598" lon="1.64378">
        <ele>354</ele>
        <time>2019-08-08T09:25:44.747Z</time>
      </trkpt>
      <trkpt lat="44.42602" lon="1.64387">
        <ele>354</ele>
        <time>2019-08-08T09:25:49.704Z</time>
      </trkpt>
      <trkpt lat="44.4261" lon="1.64393">
        <ele>354</ele>
        <time>2019-08-08T09:25:54.717Z</time>
      </trkpt>
      <trkpt lat="44.42614" lon="1.64397">
        <ele>354</ele>
        <time>2019-08-08T09:25:58.710Z</time>
      </trkpt>
      <trkpt lat="44.42622" lon="1.64401">
        <ele>354</ele>
        <time>2019-08-08T09:26:03.714Z</time>
      </trkpt>
      <trkpt lat="44.42627" lon="1.64404">
        <ele>357</ele>
        <time>2019-08-08T09:26:08.708Z</time>
      </trkpt>
      <trkpt lat="44.42632" lon="1.64406">
        <ele>357</ele>
        <time>2019-08-08T09:26:12.730Z</time>
      </trkpt>
      <trkpt lat="44.42639" lon="1.64407">
        <ele>357</ele>
        <time>2019-08-08T09:26:17.749Z</time>
      </trkpt>
      <trkpt lat="44.42646" lon="1.64408">
        <ele>357</ele>
        <time>2019-08-08T09:26:22.739Z</time>
      </trkpt>
      <trkpt lat="44.42652" lon="1.64406">
        <ele>357</ele>
        <time>2019-08-08T09:26:27.734Z</time>
      </trkpt>
      <trkpt lat="44.42657" lon="1.64405">
        <ele>360</ele>
        <time>2019-08-08T09:26:32.703Z</time>
      </trkpt>
      <trkpt lat="44.42663" lon="1.64406">
        <ele>360</ele>
        <time>2019-08-08T09:26:37.714Z</time>
      </trkpt>
      <trkpt lat="44.4267" lon="1.64409">
        <ele>360</ele>
        <time>2019-08-08T09:26:42.704Z</time>
      </trkpt>
      <trkpt lat="44.42674" lon="1.64411">
        <ele>360</ele>
        <time>2019-08-08T09:26:47.735Z</time>
      </trkpt>
      <trkpt lat="44.42679" lon="1.64413">
        <ele>360</ele>
        <time>2019-08-08T09:26:51.751Z</time>
      </trkpt>
      <trkpt lat="44.42689" lon="1.64414">
        <ele>362</ele>
        <time>2019-08-08T09:26:56.721Z</time>
      </trkpt>
      <trkpt lat="44.42695" lon="1.64416">
        <ele>362</ele>
        <time>2019-08-08T09:27:01.709Z</time>
      </trkpt>
      <trkpt lat="44.42699" lon="1.64417">
        <ele>362</ele>
        <time>2019-08-08T09:27:05.726Z</time>
      </trkpt>
      <trkpt lat="44.42704" lon="1.6442">
        <ele>362</ele>
        <time>2019-08-08T09:27:10.707Z</time>
      </trkpt>
      <trkpt lat="44.42709" lon="1.64423">
        <ele>363</ele>
        <time>2019-08-08T09:27:15.741Z</time>
      </trkpt>
      <trkpt lat="44.42717" lon="1.64425">
        <ele>363</ele>
        <time>2019-08-08T09:27:20.721Z</time>
      </trkpt>
      <trkpt lat="44.42725" lon="1.64428">
        <ele>363</ele>
        <time>2019-08-08T09:27:25.710Z</time>
      </trkpt>
      <trkpt lat="44.42732" lon="1.64428">
        <ele>363</ele>
        <time>2019-08-08T09:27:30.735Z</time>
      </trkpt>
      <trkpt lat="44.42736" lon="1.6443">
        <ele>363</ele>
        <time>2019-08-08T09:27:35.730Z</time>
      </trkpt>
      <trkpt lat="44.4274" lon="1.64432">
        <ele>363</ele>
        <time>2019-08-08T09:27:40.733Z</time>
      </trkpt>
      <trkpt lat="44.42747" lon="1.64434">
        <ele>363</ele>
        <time>2019-08-08T09:27:45.710Z</time>
      </trkpt>
      <trkpt lat="44.42753" lon="1.64435">
        <ele>363</ele>
        <time>2019-08-08T09:27:50.705Z</time>
      </trkpt>
      <trkpt lat="44.4276" lon="1.64436">
        <ele>363</ele>
        <time>2019-08-08T09:27:55.712Z</time>
      </trkpt>
      <trkpt lat="44.42766" lon="1.64436">
        <ele>364</ele>
        <time>2019-08-08T09:27:59.728Z</time>
      </trkpt>
      <trkpt lat="44.42773" lon="1.64437">
        <ele>364</ele>
        <time>2019-08-08T09:28:04.727Z</time>
      </trkpt>
      <trkpt lat="44.4278" lon="1.64439">
        <ele>364</ele>
        <time>2019-08-08T09:28:09.725Z</time>
      </trkpt>
      <trkpt lat="44.42786" lon="1.64441">
        <ele>364</ele>
        <time>2019-08-08T09:28:14.738Z</time>
      </trkpt>
      <trkpt lat="44.42793" lon="1.64443">
        <ele>365</ele>
        <time>2019-08-08T09:28:19.708Z</time>
      </trkpt>
      <trkpt lat="44.42801" lon="1.64443">
        <ele>365</ele>
        <time>2019-08-08T09:28:24.725Z</time>
      </trkpt>
      <trkpt lat="44.42807" lon="1.64443">
        <ele>365</ele>
        <time>2019-08-08T09:28:29.751Z</time>
      </trkpt>
      <trkpt lat="44.42814" lon="1.64443">
        <ele>365</ele>
        <time>2019-08-08T09:28:34.769Z</time>
      </trkpt>
      <trkpt lat="44.42817" lon="1.64445">
        <ele>365</ele>
        <time>2019-08-08T09:28:39.724Z</time>
      </trkpt>
      <trkpt lat="44.4282" lon="1.64446">
        <ele>364</ele>
        <time>2019-08-08T09:28:43.751Z</time>
      </trkpt>
      <trkpt lat="44.42823" lon="1.64446">
        <ele>364</ele>
        <time>2019-08-08T09:28:48.731Z</time>
      </trkpt>
      <trkpt lat="44.42832" lon="1.64453">
        <ele>364</ele>
        <time>2019-08-08T09:28:53.724Z</time>
      </trkpt>
      <trkpt lat="44.42839" lon="1.64457">
        <ele>364</ele>
        <time>2019-08-08T09:28:58.737Z</time>
      </trkpt>
      <trkpt lat="44.42846" lon="1.64461">
        <ele>361</ele>
        <time>2019-08-08T09:29:03.726Z</time>
      </trkpt>
      <trkpt lat="44.42852" lon="1.64468">
        <ele>361</ele>
        <time>2019-08-08T09:29:08.717Z</time>
      </trkpt>
      <trkpt lat="44.42863" lon="1.64479">
        <ele>361</ele>
        <time>2019-08-08T09:29:13.723Z</time>
      </trkpt>
      <trkpt lat="44.4287" lon="1.64485">
        <ele>361</ele>
        <time>2019-08-08T09:29:18.720Z</time>
      </trkpt>
      <trkpt lat="44.42875" lon="1.6449">
        <ele>360</ele>
        <time>2019-08-08T09:29:23.712Z</time>
      </trkpt>
      <trkpt lat="44.4288" lon="1.64493">
        <ele>359</ele>
        <time>2019-08-08T09:29:28.713Z</time>
      </trkpt>
      <trkpt lat="44.42886" lon="1.64497">
        <ele>359</ele>
        <time>2019-08-08T09:29:33.701Z</time>
      </trkpt>
      <trkpt lat="44.42891" lon="1.64501">
        <ele>359</ele>
        <time>2019-08-08T09:29:38.750Z</time>
      </trkpt>
      <trkpt lat="44.42897" lon="1.64504">
        <ele>359</ele>
        <time>2019-08-08T09:29:43.714Z</time>
      </trkpt>
      <trkpt lat="44.42902" lon="1.64507">
        <ele>359</ele>
        <time>2019-08-08T09:29:48.716Z</time>
      </trkpt>
      <trkpt lat="44.42908" lon="1.64509">
        <ele>357</ele>
        <time>2019-08-08T09:29:52.737Z</time>
      </trkpt>
      <trkpt lat="44.42913" lon="1.64512">
        <ele>357</ele>
        <time>2019-08-08T09:29:57.721Z</time>
      </trkpt>
      <trkpt lat="44.42919" lon="1.64514">
        <ele>357</ele>
        <time>2019-08-08T09:30:02.718Z</time>
      </trkpt>
      <trkpt lat="44.42924" lon="1.64514">
        <ele>357</ele>
        <time>2019-08-08T09:30:07.744Z</time>
      </trkpt>
      <trkpt lat="44.4293" lon="1.64513">
        <ele>357</ele>
        <time>2019-08-08T09:30:12.723Z</time>
      </trkpt>
      <trkpt lat="44.42937" lon="1.64514">
        <ele>354</ele>
        <time>2019-08-08T09:30:17.708Z</time>
      </trkpt>
      <trkpt lat="44.42944" lon="1.64515">
        <ele>354</ele>
        <time>2019-08-08T09:30:22.738Z</time>
      </trkpt>
      <trkpt lat="44.4295" lon="1.64516">
        <ele>354</ele>
        <time>2019-08-08T09:30:27.747Z</time>
      </trkpt>
      <trkpt lat="44.42955" lon="1.64515">
        <ele>354</ele>
        <time>2019-08-08T09:30:32.719Z</time>
      </trkpt>
      <trkpt lat="44.42962" lon="1.64518">
        <ele>352</ele>
        <time>2019-08-08T09:30:37.714Z</time>
      </trkpt>
      <trkpt lat="44.42968" lon="1.64518">
        <ele>352</ele>
        <time>2019-08-08T09:30:42.731Z</time>
      </trkpt>
      <trkpt lat="44.42975" lon="1.64519">
        <ele>352</ele>
        <time>2019-08-08T09:30:47.721Z</time>
      </trkpt>
      <trkpt lat="44.42981" lon="1.6452">
        <ele>352</ele>
        <time>2019-08-08T09:30:52.748Z</time>
      </trkpt>
      <trkpt lat="44.42989" lon="1.64521">
        <ele>351</ele>
        <time>2019-08-08T09:30:57.703Z</time>
      </trkpt>
      <trkpt lat="44.42996" lon="1.6452">
        <ele>351</ele>
        <time>2019-08-08T09:31:01.729Z</time>
      </trkpt>
      <trkpt lat="44.43003" lon="1.6452">
        <ele>351</ele>
        <time>2019-08-08T09:31:06.740Z</time>
      </trkpt>
      <trkpt lat="44.43009" lon="1.6452">
        <ele>351</ele>
        <time>2019-08-08T09:31:11.709Z</time>
      </trkpt>
      <trkpt lat="44.43016" lon="1.64522">
        <ele>349</ele>
        <time>2019-08-08T09:31:16.710Z</time>
      </trkpt>
      <trkpt lat="44.43022" lon="1.64524">
        <ele>349</ele>
        <time>2019-08-08T09:31:21.716Z</time>
      </trkpt>
      <trkpt lat="44.43028" lon="1.64525">
        <ele>349</ele>
        <time>2019-08-08T09:31:26.747Z</time>
      </trkpt>
      <trkpt lat="44.43034" lon="1.64525">
        <ele>349</ele>
        <time>2019-08-08T09:31:31.708Z</time>
      </trkpt>
      <trkpt lat="44.43039" lon="1.64525">
        <ele>349</ele>
        <time>2019-08-08T09:31:35.745Z</time>
      </trkpt>
      <trkpt lat="44.43045" lon="1.64526">
        <ele>347</ele>
        <time>2019-08-08T09:31:40.705Z</time>
      </trkpt>
      <trkpt lat="44.43051" lon="1.64527">
        <ele>347</ele>
        <time>2019-08-08T09:31:44.727Z</time>
      </trkpt>
      <trkpt lat="44.43056" lon="1.64526">
        <ele>347</ele>
        <time>2019-08-08T09:31:49.736Z</time>
      </trkpt>
      <trkpt lat="44.43063" lon="1.64528">
        <ele>347</ele>
        <time>2019-08-08T09:31:54.730Z</time>
      </trkpt>
      <trkpt lat="44.43069" lon="1.64527">
        <ele>347</ele>
        <time>2019-08-08T09:31:59.736Z</time>
      </trkpt>
      <trkpt lat="44.43075" lon="1.64527">
        <ele>342</ele>
        <time>2019-08-08T09:32:04.767Z</time>
      </trkpt>
      <trkpt lat="44.43079" lon="1.64528">
        <ele>342</ele>
        <time>2019-08-08T09:32:09.716Z</time>
      </trkpt>
      <trkpt lat="44.43079" lon="1.64528">
        <ele>342</ele>
        <time>2019-08-08T09:32:34.697Z</time>
      </trkpt>
      <trkpt lat="44.43086" lon="1.64529">
        <ele>342</ele>
        <time>2019-08-08T09:32:39.697Z</time>
      </trkpt>
      <trkpt lat="44.43092" lon="1.6453">
        <ele>342</ele>
        <time>2019-08-08T09:32:43.744Z</time>
      </trkpt>
      <trkpt lat="44.43098" lon="1.64533">
        <ele>337</ele>
        <time>2019-08-08T09:32:48.729Z</time>
      </trkpt>
      <trkpt lat="44.43105" lon="1.64535">
        <ele>337</ele>
        <time>2019-08-08T09:32:53.737Z</time>
      </trkpt>
      <trkpt lat="44.43108" lon="1.64536">
        <ele>337</ele>
        <time>2019-08-08T09:32:58.710Z</time>
      </trkpt>
      <trkpt lat="44.43112" lon="1.64538">
        <ele>337</ele>
        <time>2019-08-08T09:33:03.732Z</time>
      </trkpt>
      <trkpt lat="44.43118" lon="1.64541">
        <ele>337</ele>
        <time>2019-08-08T09:33:08.722Z</time>
      </trkpt>
      <trkpt lat="44.43123" lon="1.64545">
        <ele>337</ele>
        <time>2019-08-08T09:33:13.738Z</time>
      </trkpt>
      <trkpt lat="44.4313" lon="1.64548">
        <ele>334</ele>
        <time>2019-08-08T09:33:18.719Z</time>
      </trkpt>
      <trkpt lat="44.43137" lon="1.64551">
        <ele>334</ele>
        <time>2019-08-08T09:33:23.708Z</time>
      </trkpt>
      <trkpt lat="44.43143" lon="1.64555">
        <ele>334</ele>
        <time>2019-08-08T09:33:27.727Z</time>
      </trkpt>
      <trkpt lat="44.43149" lon="1.64558">
        <ele>334</ele>
        <time>2019-08-08T09:33:32.720Z</time>
      </trkpt>
      <trkpt lat="44.43155" lon="1.64559">
        <ele>331</ele>
        <time>2019-08-08T09:33:37.743Z</time>
      </trkpt>
      <trkpt lat="44.4316" lon="1.6456">
        <ele>331</ele>
        <time>2019-08-08T09:33:42.746Z</time>
      </trkpt>
      <trkpt lat="44.43164" lon="1.64565">
        <ele>331</ele>
        <time>2019-08-08T09:33:47.722Z</time>
      </trkpt>
      <trkpt lat="44.43171" lon="1.64571">
        <ele>330</ele>
        <time>2019-08-08T09:33:52.733Z</time>
      </trkpt>
      <trkpt lat="44.43177" lon="1.64574">
        <ele>330</ele>
        <time>2019-08-08T09:33:56.748Z</time>
      </trkpt>
      <trkpt lat="44.43187" lon="1.64576">
        <ele>326</ele>
        <time>2019-08-08T09:34:01.718Z</time>
      </trkpt>
      <trkpt lat="44.43195" lon="1.64575">
        <ele>326</ele>
        <time>2019-08-08T09:34:06.710Z</time>
      </trkpt>
      <trkpt lat="44.43203" lon="1.64573">
        <ele>326</ele>
        <time>2019-08-08T09:34:11.733Z</time>
      </trkpt>
      <trkpt lat="44.43209" lon="1.6457">
        <ele>322</ele>
        <time>2019-08-08T09:34:16.714Z</time>
      </trkpt>
      <trkpt lat="44.43217" lon="1.64573">
        <ele>322</ele>
        <time>2019-08-08T09:34:20.736Z</time>
      </trkpt>
      <trkpt lat="44.43241" lon="1.64579">
        <ele>322</ele>
        <time>2019-08-08T09:34:25.732Z</time>
      </trkpt>
      <trkpt lat="44.43252" lon="1.64581">
        <ele>322</ele>
        <time>2019-08-08T09:34:30.726Z</time>
      </trkpt>
      <trkpt lat="44.43258" lon="1.64581">
        <ele>322</ele>
        <time>2019-08-08T09:34:35.707Z</time>
      </trkpt>
      <trkpt lat="44.43265" lon="1.64584">
        <ele>325</ele>
        <time>2019-08-08T09:34:39.739Z</time>
      </trkpt>
      <trkpt lat="44.43271" lon="1.64587">
        <ele>325</ele>
        <time>2019-08-08T09:34:44.715Z</time>
      </trkpt>
      <trkpt lat="44.43278" lon="1.6459">
        <ele>325</ele>
        <time>2019-08-08T09:34:49.731Z</time>
      </trkpt>
      <trkpt lat="44.43281" lon="1.64591">
        <ele>325</ele>
        <time>2019-08-08T09:34:53.749Z</time>
      </trkpt>
      <trkpt lat="44.43289" lon="1.64592">
        <ele>325</ele>
        <time>2019-08-08T09:34:58.752Z</time>
      </trkpt>
      <trkpt lat="44.43297" lon="1.64591">
        <ele>325</ele>
        <time>2019-08-08T09:35:03.739Z</time>
      </trkpt>
      <trkpt lat="44.43304" lon="1.64589">
        <ele>325</ele>
        <time>2019-08-08T09:35:08.734Z</time>
      </trkpt>
      <trkpt lat="44.4331" lon="1.64583">
        <ele>325</ele>
        <time>2019-08-08T09:35:13.708Z</time>
      </trkpt>
      <trkpt lat="44.43316" lon="1.64581">
        <ele>325</ele>
        <time>2019-08-08T09:35:17.755Z</time>
      </trkpt>
      <trkpt lat="44.43325" lon="1.64578">
        <ele>323</ele>
        <time>2019-08-08T09:35:22.712Z</time>
      </trkpt>
      <trkpt lat="44.4333" lon="1.64574">
        <ele>323</ele>
        <time>2019-08-08T09:35:27.722Z</time>
      </trkpt>
      <trkpt lat="44.43338" lon="1.64571">
        <ele>323</ele>
        <time>2019-08-08T09:35:32.732Z</time>
      </trkpt>
      <trkpt lat="44.43345" lon="1.6457">
        <ele>323</ele>
        <time>2019-08-08T09:35:37.707Z</time>
      </trkpt>
      <trkpt lat="44.43349" lon="1.6457">
        <ele>323</ele>
        <time>2019-08-08T09:35:41.750Z</time>
      </trkpt>
      <trkpt lat="44.43356" lon="1.64571">
        <ele>323</ele>
        <time>2019-08-08T09:35:46.718Z</time>
      </trkpt>
      <trkpt lat="44.4336" lon="1.6457">
        <ele>323</ele>
        <time>2019-08-08T09:35:50.748Z</time>
      </trkpt>
      <trkpt lat="44.43365" lon="1.64569">
        <ele>325</ele>
        <time>2019-08-08T09:35:55.707Z</time>
      </trkpt>
      <trkpt lat="44.43371" lon="1.64569">
        <ele>325</ele>
        <time>2019-08-08T09:35:59.736Z</time>
      </trkpt>
      <trkpt lat="44.43376" lon="1.6457">
        <ele>322</ele>
        <time>2019-08-08T09:36:04.712Z</time>
      </trkpt>
      <trkpt lat="44.43382" lon="1.64572">
        <ele>322</ele>
        <time>2019-08-08T09:36:09.727Z</time>
      </trkpt>
      <trkpt lat="44.43398" lon="1.64578">
        <ele>322</ele>
        <time>2019-08-08T09:36:14.745Z</time>
      </trkpt>
      <trkpt lat="44.43407" lon="1.64578">
        <ele>323</ele>
        <time>2019-08-08T09:36:19.712Z</time>
      </trkpt>
      <trkpt lat="44.43412" lon="1.64578">
        <ele>323</ele>
        <time>2019-08-08T09:36:23.747Z</time>
      </trkpt>
      <trkpt lat="44.43416" lon="1.6458">
        <ele>323</ele>
        <time>2019-08-08T09:36:28.749Z</time>
      </trkpt>
      <trkpt lat="44.43421" lon="1.64581">
        <ele>323</ele>
        <time>2019-08-08T09:36:33.732Z</time>
      </trkpt>
      <trkpt lat="44.43427" lon="1.64583">
        <ele>323</ele>
        <time>2019-08-08T09:36:38.720Z</time>
      </trkpt>
      <trkpt lat="44.43432" lon="1.64587">
        <ele>323</ele>
        <time>2019-08-08T09:36:42.734Z</time>
      </trkpt>
      <trkpt lat="44.4344" lon="1.64594">
        <ele>323</ele>
        <time>2019-08-08T09:36:47.731Z</time>
      </trkpt>
      <trkpt lat="44.43446" lon="1.64607">
        <ele>320</ele>
        <time>2019-08-08T09:36:52.721Z</time>
      </trkpt>
      <trkpt lat="44.43446" lon="1.64613">
        <ele>320</ele>
        <time>2019-08-08T09:36:57.713Z</time>
      </trkpt>
      <trkpt lat="44.43447" lon="1.64625">
        <ele>320</ele>
        <time>2019-08-08T09:37:02.707Z</time>
      </trkpt>
      <trkpt lat="44.4345" lon="1.64638">
        <ele>317</ele>
        <time>2019-08-08T09:37:06.722Z</time>
      </trkpt>
      <trkpt lat="44.43465" lon="1.64661">
        <ele>313</ele>
        <time>2019-08-08T09:37:11.724Z</time>
      </trkpt>
      <trkpt lat="44.43485" lon="1.64685">
        <ele>313</ele>
        <time>2019-08-08T09:37:16.717Z</time>
      </trkpt>
      <trkpt lat="44.43493" lon="1.64688">
        <ele>313</ele>
        <time>2019-08-08T09:37:21.723Z</time>
      </trkpt>
      <trkpt lat="44.43498" lon="1.64692">
        <ele>313</ele>
        <time>2019-08-08T09:37:25.746Z</time>
      </trkpt>
      <trkpt lat="44.43504" lon="1.64699">
        <ele>313</ele>
        <time>2019-08-08T09:37:30.740Z</time>
      </trkpt>
      <trkpt lat="44.4351" lon="1.64704">
        <ele>313</ele>
        <time>2019-08-08T09:37:35.719Z</time>
      </trkpt>
      <trkpt lat="44.43516" lon="1.6471">
        <ele>316</ele>
        <time>2019-08-08T09:37:40.706Z</time>
      </trkpt>
      <trkpt lat="44.43522" lon="1.64715">
        <ele>316</ele>
        <time>2019-08-08T09:37:45.743Z</time>
      </trkpt>
      <trkpt lat="44.43529" lon="1.6472">
        <ele>316</ele>
        <time>2019-08-08T09:37:50.727Z</time>
      </trkpt>
      <trkpt lat="44.43536" lon="1.64729">
        <ele>316</ele>
        <time>2019-08-08T09:37:55.721Z</time>
      </trkpt>
      <trkpt lat="44.43541" lon="1.64735">
        <ele>316</ele>
        <time>2019-08-08T09:37:59.737Z</time>
      </trkpt>
      <trkpt lat="44.43545" lon="1.64742">
        <ele>318</ele>
        <time>2019-08-08T09:38:04.747Z</time>
      </trkpt>
      <trkpt lat="44.43547" lon="1.64749">
        <ele>318</ele>
        <time>2019-08-08T09:38:09.722Z</time>
      </trkpt>
      <trkpt lat="44.43549" lon="1.64753">
        <ele>318</ele>
        <time>2019-08-08T09:38:13.745Z</time>
      </trkpt>
      <trkpt lat="44.43549" lon="1.64758">
        <ele>318</ele>
        <time>2019-08-08T09:38:18.752Z</time>
      </trkpt>
      <trkpt lat="44.43551" lon="1.64767">
        <ele>323</ele>
        <time>2019-08-08T09:38:23.714Z</time>
      </trkpt>
      <trkpt lat="44.43553" lon="1.64774">
        <ele>323</ele>
        <time>2019-08-08T09:38:27.735Z</time>
      </trkpt>
      <trkpt lat="44.43556" lon="1.64783">
        <ele>323</ele>
        <time>2019-08-08T09:38:32.738Z</time>
      </trkpt>
      <trkpt lat="44.43559" lon="1.64793">
        <ele>326</ele>
        <time>2019-08-08T09:38:37.705Z</time>
      </trkpt>
      <trkpt lat="44.43562" lon="1.64799">
        <ele>326</ele>
        <time>2019-08-08T09:38:42.705Z</time>
      </trkpt>
      <trkpt lat="44.43565" lon="1.64804">
        <ele>326</ele>
        <time>2019-08-08T09:38:47.741Z</time>
      </trkpt>
      <trkpt lat="44.43569" lon="1.6481">
        <ele>326</ele>
        <time>2019-08-08T09:38:52.720Z</time>
      </trkpt>
      <trkpt lat="44.43573" lon="1.64813">
        <ele>323</ele>
        <time>2019-08-08T09:38:57.720Z</time>
      </trkpt>
      <trkpt lat="44.43576" lon="1.64817">
        <ele>323</ele>
        <time>2019-08-08T09:39:02.755Z</time>
      </trkpt>
      <trkpt lat="44.43578" lon="1.64819">
        <ele>323</ele>
        <time>2019-08-08T09:39:07.727Z</time>
      </trkpt>
      <trkpt lat="44.43579" lon="1.64819">
        <ele>323</ele>
        <time>2019-08-08T09:39:11.746Z</time>
      </trkpt>
      <trkpt lat="44.43579" lon="1.64819">
        <ele>323</ele>
        <time>2019-08-08T09:39:16.711Z</time>
      </trkpt>
      <trkpt lat="44.43583" lon="1.64825">
        <ele>325</ele>
        <time>2019-08-08T09:39:21.719Z</time>
      </trkpt>
      <trkpt lat="44.43588" lon="1.64834">
        <ele>325</ele>
        <time>2019-08-08T09:39:26.714Z</time>
      </trkpt>
      <trkpt lat="44.43589" lon="1.64845">
        <ele>325</ele>
        <time>2019-08-08T09:39:31.727Z</time>
      </trkpt>
      <trkpt lat="44.43592" lon="1.64852">
        <ele>325</ele>
        <time>2019-08-08T09:39:36.714Z</time>
      </trkpt>
      <trkpt lat="44.43599" lon="1.64857">
        <ele>324</ele>
        <time>2019-08-08T09:39:41.730Z</time>
      </trkpt>
      <trkpt lat="44.43603" lon="1.64862">
        <ele>324</ele>
        <time>2019-08-08T09:39:46.715Z</time>
      </trkpt>
      <trkpt lat="44.43608" lon="1.64869">
        <ele>324</ele>
        <time>2019-08-08T09:39:51.751Z</time>
      </trkpt>
      <trkpt lat="44.43612" lon="1.64875">
        <ele>324</ele>
        <time>2019-08-08T09:39:56.751Z</time>
      </trkpt>
      <trkpt lat="44.43617" lon="1.64882">
        <ele>323</ele>
        <time>2019-08-08T09:40:01.723Z</time>
      </trkpt>
      <trkpt lat="44.43621" lon="1.64888">
        <ele>323</ele>
        <time>2019-08-08T09:40:05.738Z</time>
      </trkpt>
      <trkpt lat="44.43625" lon="1.64894">
        <ele>322</ele>
        <time>2019-08-08T09:40:10.715Z</time>
      </trkpt>
      <trkpt lat="44.43629" lon="1.649">
        <ele>322</ele>
        <time>2019-08-08T09:40:15.736Z</time>
      </trkpt>
      <trkpt lat="44.43628" lon="1.64907">
        <ele>321</ele>
        <time>2019-08-08T09:40:20.715Z</time>
      </trkpt>
      <trkpt lat="44.43628" lon="1.64916">
        <ele>321</ele>
        <time>2019-08-08T09:40:25.733Z</time>
      </trkpt>
      <trkpt lat="44.43627" lon="1.64925">
        <ele>321</ele>
        <time>2019-08-08T09:40:30.722Z</time>
      </trkpt>
      <trkpt lat="44.43627" lon="1.64934">
        <ele>319</ele>
        <time>2019-08-08T09:40:35.759Z</time>
      </trkpt>
      <trkpt lat="44.43625" lon="1.64944">
        <ele>319</ele>
        <time>2019-08-08T09:40:40.739Z</time>
      </trkpt>
      <trkpt lat="44.43624" lon="1.64954">
        <ele>319</ele>
        <time>2019-08-08T09:40:45.730Z</time>
      </trkpt>
      <trkpt lat="44.43622" lon="1.64962">
        <ele>318</ele>
        <time>2019-08-08T09:40:50.727Z</time>
      </trkpt>
      <trkpt lat="44.43621" lon="1.64967">
        <ele>318</ele>
        <time>2019-08-08T09:40:54.741Z</time>
      </trkpt>
      <trkpt lat="44.4362" lon="1.64976">
        <ele>318</ele>
        <time>2019-08-08T09:40:59.710Z</time>
      </trkpt>
      <trkpt lat="44.4362" lon="1.64985">
        <ele>318</ele>
        <time>2019-08-08T09:41:04.732Z</time>
      </trkpt>
      <trkpt lat="44.43618" lon="1.65">
        <ele>317</ele>
        <time>2019-08-08T09:41:09.739Z</time>
      </trkpt>
      <trkpt lat="44.43619" lon="1.65014">
        <ele>317</ele>
        <time>2019-08-08T09:41:14.703Z</time>
      </trkpt>
      <trkpt lat="44.4362" lon="1.65022">
        <ele>317</ele>
        <time>2019-08-08T09:41:18.731Z</time>
      </trkpt>
      <trkpt lat="44.43625" lon="1.65029">
        <ele>317</ele>
        <time>2019-08-08T09:41:23.705Z</time>
      </trkpt>
      <trkpt lat="44.43631" lon="1.65037">
        <ele>317</ele>
        <time>2019-08-08T09:41:28.703Z</time>
      </trkpt>
      <trkpt lat="44.43635" lon="1.65042">
        <ele>319</ele>
        <time>2019-08-08T09:41:32.725Z</time>
      </trkpt>
      <trkpt lat="44.4364" lon="1.65047">
        <ele>319</ele>
        <time>2019-08-08T09:41:36.750Z</time>
      </trkpt>
      <trkpt lat="44.43645" lon="1.65053">
        <ele>319</ele>
        <time>2019-08-08T09:41:41.697Z</time>
      </trkpt>
      <trkpt lat="44.43649" lon="1.65059">
        <ele>319</ele>
        <time>2019-08-08T09:41:45.725Z</time>
      </trkpt>
      <trkpt lat="44.43651" lon="1.65066">
        <ele>319</ele>
        <time>2019-08-08T09:41:49.750Z</time>
      </trkpt>
      <trkpt lat="44.43654" lon="1.65073">
        <ele>324</ele>
        <time>2019-08-08T09:41:54.724Z</time>
      </trkpt>
      <trkpt lat="44.43658" lon="1.6508">
        <ele>324</ele>
        <time>2019-08-08T09:41:59.734Z</time>
      </trkpt>
      <trkpt lat="44.43662" lon="1.65084">
        <ele>324</ele>
        <time>2019-08-08T09:42:04.725Z</time>
      </trkpt>
      <trkpt lat="44.43666" lon="1.65087">
        <ele>324</ele>
        <time>2019-08-08T09:42:09.725Z</time>
      </trkpt>
      <trkpt lat="44.43669" lon="1.65092">
        <ele>324</ele>
        <time>2019-08-08T09:42:14.731Z</time>
      </trkpt>
      <trkpt lat="44.43671" lon="1.65099">
        <ele>327</ele>
        <time>2019-08-08T09:42:19.747Z</time>
      </trkpt>
      <trkpt lat="44.43667" lon="1.65106">
        <ele>327</ele>
        <time>2019-08-08T09:42:24.737Z</time>
      </trkpt>
      <trkpt lat="44.43664" lon="1.65112">
        <ele>327</ele>
        <time>2019-08-08T09:42:29.738Z</time>
      </trkpt>
      <trkpt lat="44.43661" lon="1.65115">
        <ele>327</ele>
        <time>2019-08-08T09:42:34.718Z</time>
      </trkpt>
      <trkpt lat="44.43657" lon="1.6512">
        <ele>327</ele>
        <time>2019-08-08T09:42:39.708Z</time>
      </trkpt>
      <trkpt lat="44.43652" lon="1.65127">
        <ele>329</ele>
        <time>2019-08-08T09:42:44.723Z</time>
      </trkpt>
      <trkpt lat="44.43646" lon="1.6514">
        <ele>329</ele>
        <time>2019-08-08T09:42:49.726Z</time>
      </trkpt>
      <trkpt lat="44.4364" lon="1.65148">
        <ele>329</ele>
        <time>2019-08-08T09:42:53.736Z</time>
      </trkpt>
      <trkpt lat="44.43637" lon="1.65153">
        <ele>332</ele>
        <time>2019-08-08T09:42:58.719Z</time>
      </trkpt>
      <trkpt lat="44.43634" lon="1.65159">
        <ele>332</ele>
        <time>2019-08-08T09:43:03.727Z</time>
      </trkpt>
      <trkpt lat="44.4363" lon="1.65164">
        <ele>332</ele>
        <time>2019-08-08T09:43:08.733Z</time>
      </trkpt>
      <trkpt lat="44.43626" lon="1.65169">
        <ele>332</ele>
        <time>2019-08-08T09:43:13.725Z</time>
      </trkpt>
      <trkpt lat="44.43623" lon="1.65176">
        <ele>331</ele>
        <time>2019-08-08T09:43:18.727Z</time>
      </trkpt>
      <trkpt lat="44.43619" lon="1.65182">
        <ele>334</ele>
        <time>2019-08-08T09:43:23.725Z</time>
      </trkpt>
      <trkpt lat="44.43615" lon="1.65185">
        <ele>334</ele>
        <time>2019-08-08T09:43:28.717Z</time>
      </trkpt>
      <trkpt lat="44.43612" lon="1.65196">
        <ele>334</ele>
        <time>2019-08-08T09:43:33.712Z</time>
      </trkpt>
      <trkpt lat="44.43609" lon="1.652">
        <ele>334</ele>
        <time>2019-08-08T09:43:37.724Z</time>
      </trkpt>
      <trkpt lat="44.43605" lon="1.65205">
        <ele>334</ele>
        <time>2019-08-08T09:43:42.710Z</time>
      </trkpt>
      <trkpt lat="44.43604" lon="1.65216">
        <ele>336</ele>
        <time>2019-08-08T09:43:46.754Z</time>
      </trkpt>
      <trkpt lat="44.436" lon="1.65225">
        <ele>336</ele>
        <time>2019-08-08T09:43:51.717Z</time>
      </trkpt>
      <trkpt lat="44.43596" lon="1.65235">
        <ele>336</ele>
        <time>2019-08-08T09:43:56.702Z</time>
      </trkpt>
      <trkpt lat="44.43591" lon="1.65246">
        <ele>338</ele>
        <time>2019-08-08T09:44:01.731Z</time>
      </trkpt>
      <trkpt lat="44.43588" lon="1.65252">
        <ele>338</ele>
        <time>2019-08-08T09:44:06.709Z</time>
      </trkpt>
      <trkpt lat="44.43585" lon="1.65258">
        <ele>338</ele>
        <time>2019-08-08T09:44:10.742Z</time>
      </trkpt>
      <trkpt lat="44.43585" lon="1.65261">
        <ele>338</ele>
        <time>2019-08-08T09:44:15.727Z</time>
      </trkpt>
      <trkpt lat="44.43585" lon="1.65264">
        <ele>339</ele>
        <time>2019-08-08T09:44:20.731Z</time>
      </trkpt>
      <trkpt lat="44.43582" lon="1.65271">
        <ele>339</ele>
        <time>2019-08-08T09:44:25.711Z</time>
      </trkpt>
      <trkpt lat="44.4358" lon="1.65277">
        <ele>339</ele>
        <time>2019-08-08T09:44:30.715Z</time>
      </trkpt>
      <trkpt lat="44.43576" lon="1.65281">
        <ele>339</ele>
        <time>2019-08-08T09:44:35.714Z</time>
      </trkpt>
      <trkpt lat="44.43573" lon="1.6529">
        <ele>339</ele>
        <time>2019-08-08T09:44:40.722Z</time>
      </trkpt>
      <trkpt lat="44.4357" lon="1.65298">
        <ele>339</ele>
        <time>2019-08-08T09:44:45.714Z</time>
      </trkpt>
      <trkpt lat="44.43567" lon="1.65307">
        <ele>341</ele>
        <time>2019-08-08T09:44:49.735Z</time>
      </trkpt>
      <trkpt lat="44.43562" lon="1.65312">
        <ele>341</ele>
        <time>2019-08-08T09:44:54.718Z</time>
      </trkpt>
      <trkpt lat="44.43556" lon="1.65328">
        <ele>341</ele>
        <time>2019-08-08T09:44:59.755Z</time>
      </trkpt>
      <trkpt lat="44.43552" lon="1.6534">
        <ele>341</ele>
        <time>2019-08-08T09:45:04.739Z</time>
      </trkpt>
      <trkpt lat="44.4355" lon="1.6535">
        <ele>342</ele>
        <time>2019-08-08T09:45:09.753Z</time>
      </trkpt>
      <trkpt lat="44.43551" lon="1.6536">
        <ele>342</ele>
        <time>2019-08-08T09:45:14.706Z</time>
      </trkpt>
      <trkpt lat="44.43551" lon="1.65365">
        <ele>342</ele>
        <time>2019-08-08T09:45:18.720Z</time>
      </trkpt>
      <trkpt lat="44.43554" lon="1.65376">
        <ele>345</ele>
        <time>2019-08-08T09:45:23.717Z</time>
      </trkpt>
      <trkpt lat="44.43557" lon="1.65386">
        <ele>345</ele>
        <time>2019-08-08T09:45:28.725Z</time>
      </trkpt>
      <trkpt lat="44.4356" lon="1.65395">
        <ele>345</ele>
        <time>2019-08-08T09:45:33.707Z</time>
      </trkpt>
      <trkpt lat="44.43563" lon="1.65407">
        <ele>348</ele>
        <time>2019-08-08T09:45:38.719Z</time>
      </trkpt>
      <trkpt lat="44.43566" lon="1.65418">
        <ele>348</ele>
        <time>2019-08-08T09:45:43.698Z</time>
      </trkpt>
      <trkpt lat="44.43566" lon="1.65425">
        <ele>348</ele>
        <time>2019-08-08T09:45:47.728Z</time>
      </trkpt>
      <trkpt lat="44.43567" lon="1.65433">
        <ele>350</ele>
        <time>2019-08-08T09:45:52.736Z</time>
      </trkpt>
      <trkpt lat="44.43567" lon="1.65442">
        <ele>350</ele>
        <time>2019-08-08T09:45:57.720Z</time>
      </trkpt>
      <trkpt lat="44.43568" lon="1.65452">
        <ele>350</ele>
        <time>2019-08-08T09:46:02.722Z</time>
      </trkpt>
      <trkpt lat="44.43571" lon="1.65461">
        <ele>352</ele>
        <time>2019-08-08T09:46:07.701Z</time>
      </trkpt>
      <trkpt lat="44.43575" lon="1.65468">
        <ele>352</ele>
        <time>2019-08-08T09:46:11.743Z</time>
      </trkpt>
      <trkpt lat="44.43577" lon="1.65476">
        <ele>352</ele>
        <time>2019-08-08T09:46:16.721Z</time>
      </trkpt>
      <trkpt lat="44.43579" lon="1.65483">
        <ele>352</ele>
        <time>2019-08-08T09:46:21.745Z</time>
      </trkpt>
      <trkpt lat="44.4358" lon="1.65492">
        <ele>354</ele>
        <time>2019-08-08T09:46:26.742Z</time>
      </trkpt>
      <trkpt lat="44.43583" lon="1.65501">
        <ele>354</ele>
        <time>2019-08-08T09:46:31.745Z</time>
      </trkpt>
      <trkpt lat="44.43585" lon="1.65508">
        <ele>354</ele>
        <time>2019-08-08T09:46:36.728Z</time>
      </trkpt>
      <trkpt lat="44.43584" lon="1.65514">
        <ele>356</ele>
        <time>2019-08-08T09:46:41.705Z</time>
      </trkpt>
      <trkpt lat="44.43585" lon="1.65517">
        <ele>356</ele>
        <time>2019-08-08T09:46:45.740Z</time>
      </trkpt>
      <trkpt lat="44.4359" lon="1.65522">
        <ele>356</ele>
        <time>2019-08-08T09:46:50.724Z</time>
      </trkpt>
      <trkpt lat="44.43599" lon="1.65525">
        <ele>357</ele>
        <time>2019-08-08T09:46:55.744Z</time>
      </trkpt>
      <trkpt lat="44.43607" lon="1.65525">
        <ele>357</ele>
        <time>2019-08-08T09:47:00.705Z</time>
      </trkpt>
      <trkpt lat="44.43612" lon="1.65526">
        <ele>357</ele>
        <time>2019-08-08T09:47:04.731Z</time>
      </trkpt>
      <trkpt lat="44.43617" lon="1.65529">
        <ele>357</ele>
        <time>2019-08-08T09:47:09.723Z</time>
      </trkpt>
      <trkpt lat="44.43623" lon="1.65533">
        <ele>357</ele>
        <time>2019-08-08T09:47:14.723Z</time>
      </trkpt>
      <trkpt lat="44.43631" lon="1.65534">
        <ele>358</ele>
        <time>2019-08-08T09:47:19.720Z</time>
      </trkpt>
      <trkpt lat="44.43641" lon="1.65534">
        <ele>358</ele>
        <time>2019-08-08T09:47:24.761Z</time>
      </trkpt>
      <trkpt lat="44.43646" lon="1.65533">
        <ele>358</ele>
        <time>2019-08-08T09:47:29.699Z</time>
      </trkpt>
      <trkpt lat="44.43652" lon="1.65535">
        <ele>358</ele>
        <time>2019-08-08T09:47:34.716Z</time>
      </trkpt>
      <trkpt lat="44.43656" lon="1.65536">
        <ele>357</ele>
        <time>2019-08-08T09:47:39.720Z</time>
      </trkpt>
      <trkpt lat="44.4366" lon="1.65533">
        <ele>357</ele>
        <time>2019-08-08T09:47:44.703Z</time>
      </trkpt>
      <trkpt lat="44.4366" lon="1.65531">
        <ele>357</ele>
        <time>2019-08-08T09:47:48.721Z</time>
      </trkpt>
      <trkpt lat="44.43665" lon="1.6553">
        <ele>357</ele>
        <time>2019-08-08T09:47:53.720Z</time>
      </trkpt>
      <trkpt lat="44.43672" lon="1.65533">
        <ele>357</ele>
        <time>2019-08-08T09:47:57.738Z</time>
      </trkpt>
      <trkpt lat="44.4368" lon="1.65537">
        <ele>357</ele>
        <time>2019-08-08T09:48:02.730Z</time>
      </trkpt>
      <trkpt lat="44.43689" lon="1.65542">
        <ele>358</ele>
        <time>2019-08-08T09:48:07.714Z</time>
      </trkpt>
      <trkpt lat="44.43698" lon="1.65547">
        <ele>357</ele>
        <time>2019-08-08T09:48:12.727Z</time>
      </trkpt>
      <trkpt lat="44.43704" lon="1.6555">
        <ele>357</ele>
        <time>2019-08-08T09:48:16.741Z</time>
      </trkpt>
      <trkpt lat="44.43708" lon="1.65553">
        <ele>357</ele>
        <time>2019-08-08T09:48:21.733Z</time>
      </trkpt>
      <trkpt lat="44.43712" lon="1.65557">
        <ele>359</ele>
        <time>2019-08-08T09:48:26.711Z</time>
      </trkpt>
      <trkpt lat="44.4372" lon="1.65563">
        <ele>359</ele>
        <time>2019-08-08T09:48:31.721Z</time>
      </trkpt>
      <trkpt lat="44.43724" lon="1.65564">
        <ele>359</ele>
        <time>2019-08-08T09:48:36.708Z</time>
      </trkpt>
      <trkpt lat="44.43729" lon="1.65566">
        <ele>359</ele>
        <time>2019-08-08T09:48:40.732Z</time>
      </trkpt>
      <trkpt lat="44.43734" lon="1.65569">
        <ele>359</ele>
        <time>2019-08-08T09:48:45.713Z</time>
      </trkpt>
      <trkpt lat="44.43742" lon="1.65571">
        <ele>357</ele>
        <time>2019-08-08T09:48:50.727Z</time>
      </trkpt>
      <trkpt lat="44.43751" lon="1.65574">
        <ele>357</ele>
        <time>2019-08-08T09:48:55.703Z</time>
      </trkpt>
      <trkpt lat="44.43758" lon="1.65577">
        <ele>357</ele>
        <time>2019-08-08T09:48:59.735Z</time>
      </trkpt>
      <trkpt lat="44.43765" lon="1.65579">
        <ele>360</ele>
        <time>2019-08-08T09:49:04.744Z</time>
      </trkpt>
      <trkpt lat="44.4377" lon="1.65583">
        <ele>360</ele>
        <time>2019-08-08T09:49:09.709Z</time>
      </trkpt>
      <trkpt lat="44.43777" lon="1.65587">
        <ele>360</ele>
        <time>2019-08-08T09:49:14.720Z</time>
      </trkpt>
      <trkpt lat="44.43782" lon="1.6559">
        <ele>360</ele>
        <time>2019-08-08T09:49:18.738Z</time>
      </trkpt>
      <trkpt lat="44.43791" lon="1.65592">
        <ele>360</ele>
        <time>2019-08-08T09:49:23.716Z</time>
      </trkpt>
      <trkpt lat="44.43801" lon="1.65595">
        <ele>365</ele>
        <time>2019-08-08T09:49:28.724Z</time>
      </trkpt>
      <trkpt lat="44.43806" lon="1.65597">
        <ele>362</ele>
        <time>2019-08-08T09:49:33.738Z</time>
      </trkpt>
      <trkpt lat="44.43811" lon="1.656">
        <ele>362</ele>
        <time>2019-08-08T09:49:38.720Z</time>
      </trkpt>
      <trkpt lat="44.43813" lon="1.65601">
        <ele>362</ele>
        <time>2019-08-08T09:49:43.739Z</time>
      </trkpt>
      <trkpt lat="44.43816" lon="1.65604">
        <ele>362</ele>
        <time>2019-08-08T09:49:48.707Z</time>
      </trkpt>
      <trkpt lat="44.4382" lon="1.65606">
        <ele>367</ele>
        <time>2019-08-08T09:49:52.732Z</time>
      </trkpt>
      <trkpt lat="44.43828" lon="1.65609">
        <ele>367</ele>
        <time>2019-08-08T09:49:57.726Z</time>
      </trkpt>
      <trkpt lat="44.43833" lon="1.65612">
        <ele>367</ele>
        <time>2019-08-08T09:50:02.724Z</time>
      </trkpt>
      <trkpt lat="44.43837" lon="1.65613">
        <ele>367</ele>
        <time>2019-08-08T09:50:07.715Z</time>
      </trkpt>
      <trkpt lat="44.43844" lon="1.65617">
        <ele>367</ele>
        <time>2019-08-08T09:50:12.717Z</time>
      </trkpt>
      <trkpt lat="44.43847" lon="1.65616">
        <ele>367</ele>
        <time>2019-08-08T09:50:17.753Z</time>
      </trkpt>
      <trkpt lat="44.43856" lon="1.6562">
        <ele>370</ele>
        <time>2019-08-08T09:50:22.714Z</time>
      </trkpt>
      <trkpt lat="44.43861" lon="1.65625">
        <ele>370</ele>
        <time>2019-08-08T09:50:27.706Z</time>
      </trkpt>
      <trkpt lat="44.43867" lon="1.6563">
        <ele>368</ele>
        <time>2019-08-08T09:50:31.732Z</time>
      </trkpt>
      <trkpt lat="44.43873" lon="1.65637">
        <ele>368</ele>
        <time>2019-08-08T09:50:36.723Z</time>
      </trkpt>
      <trkpt lat="44.4388" lon="1.65644">
        <ele>371</ele>
        <time>2019-08-08T09:50:41.710Z</time>
      </trkpt>
      <trkpt lat="44.43886" lon="1.65651">
        <ele>371</ele>
        <time>2019-08-08T09:50:45.724Z</time>
      </trkpt>
      <trkpt lat="44.43887" lon="1.65654">
        <ele>368</ele>
        <time>2019-08-08T09:50:50.704Z</time>
      </trkpt>
      <trkpt lat="44.43891" lon="1.65658">
        <ele>368</ele>
        <time>2019-08-08T09:50:55.698Z</time>
      </trkpt>
      <trkpt lat="44.43894" lon="1.65663">
        <ele>368</ele>
        <time>2019-08-08T09:50:59.721Z</time>
      </trkpt>
      <trkpt lat="44.43899" lon="1.65667">
        <ele>368</ele>
        <time>2019-08-08T09:51:03.746Z</time>
      </trkpt>
      <trkpt lat="44.43903" lon="1.65673">
        <ele>373</ele>
        <time>2019-08-08T09:51:08.755Z</time>
      </trkpt>
      <trkpt lat="44.43908" lon="1.65682">
        <ele>372</ele>
        <time>2019-08-08T09:51:13.708Z</time>
      </trkpt>
      <trkpt lat="44.43912" lon="1.65689">
        <ele>372</ele>
        <time>2019-08-08T09:51:18.750Z</time>
      </trkpt>
      <trkpt lat="44.43916" lon="1.65698">
        <ele>372</ele>
        <time>2019-08-08T09:51:23.721Z</time>
      </trkpt>
      <trkpt lat="44.4392" lon="1.65706">
        <ele>372</ele>
        <time>2019-08-08T09:51:28.718Z</time>
      </trkpt>
      <trkpt lat="44.43925" lon="1.65714">
        <ele>371</ele>
        <time>2019-08-08T09:51:33.738Z</time>
      </trkpt>
      <trkpt lat="44.4393" lon="1.65725">
        <ele>371</ele>
        <time>2019-08-08T09:51:38.733Z</time>
      </trkpt>
      <trkpt lat="44.43932" lon="1.65735">
        <ele>377</ele>
        <time>2019-08-08T09:51:43.720Z</time>
      </trkpt>
      <trkpt lat="44.43933" lon="1.65742">
        <ele>378</ele>
        <time>2019-08-08T09:51:48.727Z</time>
      </trkpt>
      <trkpt lat="44.43934" lon="1.65747">
        <ele>378</ele>
        <time>2019-08-08T09:51:53.749Z</time>
      </trkpt>
      <trkpt lat="44.43936" lon="1.65754">
        <ele>378</ele>
        <time>2019-08-08T09:51:58.722Z</time>
      </trkpt>
      <trkpt lat="44.4394" lon="1.65761">
        <ele>378</ele>
        <time>2019-08-08T09:52:03.734Z</time>
      </trkpt>
      <trkpt lat="44.43942" lon="1.65768">
        <ele>378</ele>
        <time>2019-08-08T09:52:08.723Z</time>
      </trkpt>
      <trkpt lat="44.43949" lon="1.65776">
        <ele>378</ele>
        <time>2019-08-08T09:52:13.725Z</time>
      </trkpt>
      <trkpt lat="44.43952" lon="1.6578">
        <ele>378</ele>
        <time>2019-08-08T09:52:17.738Z</time>
      </trkpt>
      <trkpt lat="44.43957" lon="1.65788">
        <ele>378</ele>
        <time>2019-08-08T09:52:22.738Z</time>
      </trkpt>
      <trkpt lat="44.43959" lon="1.65794">
        <ele>379</ele>
        <time>2019-08-08T09:52:27.712Z</time>
      </trkpt>
      <trkpt lat="44.43962" lon="1.65801">
        <ele>379</ele>
        <time>2019-08-08T09:52:32.758Z</time>
      </trkpt>
      <trkpt lat="44.43966" lon="1.65809">
        <ele>379</ele>
        <time>2019-08-08T09:52:37.747Z</time>
      </trkpt>
      <trkpt lat="44.43967" lon="1.65814">
        <ele>379</ele>
        <time>2019-08-08T09:52:42.711Z</time>
      </trkpt>
      <trkpt lat="44.43968" lon="1.65818">
        <ele>379</ele>
        <time>2019-08-08T09:52:47.729Z</time>
      </trkpt>
      <trkpt lat="44.4397" lon="1.65823">
        <ele>377</ele>
        <time>2019-08-08T09:52:52.724Z</time>
      </trkpt>
      <trkpt lat="44.43974" lon="1.6583">
        <ele>377</ele>
        <time>2019-08-08T09:52:57.723Z</time>
      </trkpt>
      <trkpt lat="44.43978" lon="1.65834">
        <ele>377</ele>
        <time>2019-08-08T09:53:02.748Z</time>
      </trkpt>
      <trkpt lat="44.43983" lon="1.65839">
        <ele>377</ele>
        <time>2019-08-08T09:53:07.738Z</time>
      </trkpt>
      <trkpt lat="44.43986" lon="1.65842">
        <ele>375</ele>
        <time>2019-08-08T09:53:11.753Z</time>
      </trkpt>
      <trkpt lat="44.43991" lon="1.65844">
        <ele>375</ele>
        <time>2019-08-08T09:53:16.724Z</time>
      </trkpt>
      <trkpt lat="44.43999" lon="1.65847">
        <ele>375</ele>
        <time>2019-08-08T09:53:21.721Z</time>
      </trkpt>
      <trkpt lat="44.44005" lon="1.65848">
        <ele>372</ele>
        <time>2019-08-08T09:53:25.717Z</time>
      </trkpt>
      <trkpt lat="44.44009" lon="1.65851">
        <ele>372</ele>
        <time>2019-08-08T09:53:29.748Z</time>
      </trkpt>
      <trkpt lat="44.44014" lon="1.65855">
        <ele>373</ele>
        <time>2019-08-08T09:53:34.724Z</time>
      </trkpt>
      <trkpt lat="44.44025" lon="1.65864">
        <ele>373</ele>
        <time>2019-08-08T09:53:39.706Z</time>
      </trkpt>
      <trkpt lat="44.44035" lon="1.65869">
        <ele>373</ele>
        <time>2019-08-08T09:53:44.708Z</time>
      </trkpt>
      <trkpt lat="44.44041" lon="1.65875">
        <ele>373</ele>
        <time>2019-08-08T09:53:49.712Z</time>
      </trkpt>
      <trkpt lat="44.44045" lon="1.6588">
        <ele>372</ele>
        <time>2019-08-08T09:53:54.737Z</time>
      </trkpt>
      <trkpt lat="44.4405" lon="1.65886">
        <ele>372</ele>
        <time>2019-08-08T09:53:59.723Z</time>
      </trkpt>
      <trkpt lat="44.44052" lon="1.65891">
        <ele>372</ele>
        <time>2019-08-08T09:54:03.740Z</time>
      </trkpt>
      <trkpt lat="44.44055" lon="1.65897">
        <ele>372</ele>
        <time>2019-08-08T09:54:08.731Z</time>
      </trkpt>
      <trkpt lat="44.44058" lon="1.65904">
        <ele>371</ele>
        <time>2019-08-08T09:54:13.727Z</time>
      </trkpt>
      <trkpt lat="44.44062" lon="1.65912">
        <ele>371</ele>
        <time>2019-08-08T09:54:18.740Z</time>
      </trkpt>
      <trkpt lat="44.44064" lon="1.6592">
        <ele>371</ele>
        <time>2019-08-08T09:54:23.742Z</time>
      </trkpt>
      <trkpt lat="44.44068" lon="1.65935">
        <ele>370</ele>
        <time>2019-08-08T09:54:28.739Z</time>
      </trkpt>
      <trkpt lat="44.4407" lon="1.65957">
        <ele>373</ele>
        <time>2019-08-08T09:54:33.715Z</time>
      </trkpt>
      <trkpt lat="44.44072" lon="1.65983">
        <ele>372</ele>
        <time>2019-08-08T09:54:38.742Z</time>
      </trkpt>
      <trkpt lat="44.44074" lon="1.66008">
        <ele>372</ele>
        <time>2019-08-08T09:54:43.728Z</time>
      </trkpt>
      <trkpt lat="44.44079" lon="1.66033">
        <ele>372</ele>
        <time>2019-08-08T09:54:48.733Z</time>
      </trkpt>
      <trkpt lat="44.44086" lon="1.66055">
        <ele>371</ele>
        <time>2019-08-08T09:54:53.743Z</time>
      </trkpt>
      <trkpt lat="44.44089" lon="1.66063">
        <ele>371</ele>
        <time>2019-08-08T09:54:58.726Z</time>
      </trkpt>
      <trkpt lat="44.44092" lon="1.66073">
        <ele>369</ele>
        <time>2019-08-08T09:55:03.708Z</time>
      </trkpt>
      <trkpt lat="44.44096" lon="1.66083">
        <ele>369</ele>
        <time>2019-08-08T09:55:08.701Z</time>
      </trkpt>
      <trkpt lat="44.44099" lon="1.66089">
        <ele>375</ele>
        <time>2019-08-08T09:55:12.740Z</time>
      </trkpt>
      <trkpt lat="44.44101" lon="1.66097">
        <ele>375</ele>
        <time>2019-08-08T09:55:17.713Z</time>
      </trkpt>
      <trkpt lat="44.44103" lon="1.66103">
        <ele>372</ele>
        <time>2019-08-08T09:55:21.746Z</time>
      </trkpt>
      <trkpt lat="44.44105" lon="1.66109">
        <ele>372</ele>
        <time>2019-08-08T09:55:26.711Z</time>
      </trkpt>
      <trkpt lat="44.44108" lon="1.66113">
        <ele>372</ele>
        <time>2019-08-08T09:55:31.746Z</time>
      </trkpt>
      <trkpt lat="44.44113" lon="1.66119">
        <ele>372</ele>
        <time>2019-08-08T09:55:36.718Z</time>
      </trkpt>
      <trkpt lat="44.44118" lon="1.66125">
        <ele>370</ele>
        <time>2019-08-08T09:55:41.706Z</time>
      </trkpt>
      <trkpt lat="44.44119" lon="1.66128">
        <ele>370</ele>
        <time>2019-08-08T09:55:45.721Z</time>
      </trkpt>
      <trkpt lat="44.44121" lon="1.66131">
        <ele>370</ele>
        <time>2019-08-08T09:55:50.708Z</time>
      </trkpt>
      <trkpt lat="44.44126" lon="1.66136">
        <ele>373</ele>
        <time>2019-08-08T09:55:55.707Z</time>
      </trkpt>
      <trkpt lat="44.44129" lon="1.66139">
        <ele>373</ele>
        <time>2019-08-08T09:55:59.720Z</time>
      </trkpt>
      <trkpt lat="44.44134" lon="1.66144">
        <ele>373</ele>
        <time>2019-08-08T09:56:04.704Z</time>
      </trkpt>
      <trkpt lat="44.44139" lon="1.66151">
        <ele>373</ele>
        <time>2019-08-08T09:56:09.724Z</time>
      </trkpt>
      <trkpt lat="44.44144" lon="1.66158">
        <ele>368</ele>
        <time>2019-08-08T09:56:14.713Z</time>
      </trkpt>
      <trkpt lat="44.4415" lon="1.66162">
        <ele>368</ele>
        <time>2019-08-08T09:56:19.732Z</time>
      </trkpt>
      <trkpt lat="44.44158" lon="1.66168">
        <ele>370</ele>
        <time>2019-08-08T09:56:24.739Z</time>
      </trkpt>
      <trkpt lat="44.44163" lon="1.66172">
        <ele>370</ele>
        <time>2019-08-08T09:56:28.756Z</time>
      </trkpt>
      <trkpt lat="44.44165" lon="1.66176">
        <ele>370</ele>
        <time>2019-08-08T09:56:33.736Z</time>
      </trkpt>
      <trkpt lat="44.4417" lon="1.66182">
        <ele>367</ele>
        <time>2019-08-08T09:56:38.725Z</time>
      </trkpt>
      <trkpt lat="44.44177" lon="1.66192">
        <ele>367</ele>
        <time>2019-08-08T09:56:43.732Z</time>
      </trkpt>
      <trkpt lat="44.44181" lon="1.66198">
        <ele>369</ele>
        <time>2019-08-08T09:56:48.709Z</time>
      </trkpt>
      <trkpt lat="44.44182" lon="1.66199">
        <ele>369</ele>
        <time>2019-08-08T09:56:52.731Z</time>
      </trkpt>
      <trkpt lat="44.44186" lon="1.66205">
        <ele>369</ele>
        <time>2019-08-08T09:56:57.741Z</time>
      </trkpt>
      <trkpt lat="44.44191" lon="1.66211">
        <ele>366</ele>
        <time>2019-08-08T09:57:02.723Z</time>
      </trkpt>
      <trkpt lat="44.44196" lon="1.66216">
        <ele>366</ele>
        <time>2019-08-08T09:57:07.698Z</time>
      </trkpt>
      <trkpt lat="44.44201" lon="1.66221">
        <ele>366</ele>
        <time>2019-08-08T09:57:12.727Z</time>
      </trkpt>
      <trkpt lat="44.44207" lon="1.66224">
        <ele>366</ele>
        <time>2019-08-08T09:57:17.714Z</time>
      </trkpt>
      <trkpt lat="44.44213" lon="1.6623">
        <ele>368</ele>
        <time>2019-08-08T09:57:22.715Z</time>
      </trkpt>
      <trkpt lat="44.4422" lon="1.66239">
        <ele>365</ele>
        <time>2019-08-08T09:57:27.740Z</time>
      </trkpt>
      <trkpt lat="44.44226" lon="1.66243">
        <ele>365</ele>
        <time>2019-08-08T09:57:32.714Z</time>
      </trkpt>
      <trkpt lat="44.44231" lon="1.66249">
        <ele>365</ele>
        <time>2019-08-08T09:57:37.735Z</time>
      </trkpt>
      <trkpt lat="44.44235" lon="1.66253">
        <ele>365</ele>
        <time>2019-08-08T09:57:41.747Z</time>
      </trkpt>
      <trkpt lat="44.44238" lon="1.66258">
        <ele>365</ele>
        <time>2019-08-08T09:57:46.750Z</time>
      </trkpt>
      <trkpt lat="44.44242" lon="1.66262">
        <ele>365</ele>
        <time>2019-08-08T09:57:51.726Z</time>
      </trkpt>
      <trkpt lat="44.4425" lon="1.66267">
        <ele>362</ele>
        <time>2019-08-08T09:57:56.712Z</time>
      </trkpt>
      <trkpt lat="44.44252" lon="1.66273">
        <ele>362</ele>
        <time>2019-08-08T09:58:01.713Z</time>
      </trkpt>
      <trkpt lat="44.44253" lon="1.66277">
        <ele>362</ele>
        <time>2019-08-08T09:58:05.729Z</time>
      </trkpt>
      <trkpt lat="44.44255" lon="1.66283">
        <ele>362</ele>
        <time>2019-08-08T09:58:10.703Z</time>
      </trkpt>
      <trkpt lat="44.44259" lon="1.66287">
        <ele>362</ele>
        <time>2019-08-08T09:58:15.745Z</time>
      </trkpt>
      <trkpt lat="44.44263" lon="1.66293">
        <ele>359</ele>
        <time>2019-08-08T09:58:20.712Z</time>
      </trkpt>
      <trkpt lat="44.44266" lon="1.66297">
        <ele>357</ele>
        <time>2019-08-08T09:58:24.729Z</time>
      </trkpt>
      <trkpt lat="44.44272" lon="1.66302">
        <ele>357</ele>
        <time>2019-08-08T09:58:29.711Z</time>
      </trkpt>
      <trkpt lat="44.44275" lon="1.66307">
        <ele>357</ele>
        <time>2019-08-08T09:58:33.745Z</time>
      </trkpt>
      <trkpt lat="44.4428" lon="1.66312">
        <ele>357</ele>
        <time>2019-08-08T09:58:38.720Z</time>
      </trkpt>
      <trkpt lat="44.44284" lon="1.66318">
        <ele>357</ele>
        <time>2019-08-08T09:58:43.711Z</time>
      </trkpt>
      <trkpt lat="44.44287" lon="1.66324">
        <ele>357</ele>
        <time>2019-08-08T09:58:48.742Z</time>
      </trkpt>
      <trkpt lat="44.44294" lon="1.66333">
        <ele>353</ele>
        <time>2019-08-08T09:58:53.753Z</time>
      </trkpt>
      <trkpt lat="44.44308" lon="1.66351">
        <ele>355</ele>
        <time>2019-08-08T09:58:58.735Z</time>
      </trkpt>
      <trkpt lat="44.44326" lon="1.66368">
        <ele>352</ele>
        <time>2019-08-08T09:59:03.710Z</time>
      </trkpt>
      <trkpt lat="44.44344" lon="1.66383">
        <ele>354</ele>
        <time>2019-08-08T09:59:08.751Z</time>
      </trkpt>
      <trkpt lat="44.44351" lon="1.66397">
        <ele>354</ele>
        <time>2019-08-08T09:59:13.707Z</time>
      </trkpt>
      <trkpt lat="44.44357" lon="1.66408">
        <ele>355</ele>
        <time>2019-08-08T09:59:18.722Z</time>
      </trkpt>
      <trkpt lat="44.44363" lon="1.66418">
        <ele>355</ele>
        <time>2019-08-08T09:59:23.730Z</time>
      </trkpt>
      <trkpt lat="44.44366" lon="1.66425">
        <ele>355</ele>
        <time>2019-08-08T09:59:28.731Z</time>
      </trkpt>
      <trkpt lat="44.44374" lon="1.66433">
        <ele>354</ele>
        <time>2019-08-08T09:59:33.713Z</time>
      </trkpt>
      <trkpt lat="44.4438" lon="1.6645">
        <ele>355</ele>
        <time>2019-08-08T09:59:37.749Z</time>
      </trkpt>
      <trkpt lat="44.44388" lon="1.66472">
        <ele>355</ele>
        <time>2019-08-08T09:59:42.711Z</time>
      </trkpt>
      <trkpt lat="44.44393" lon="1.6648">
        <ele>355</ele>
        <time>2019-08-08T09:59:46.731Z</time>
      </trkpt>
      <trkpt lat="44.44398" lon="1.66483">
        <ele>355</ele>
        <time>2019-08-08T09:59:51.716Z</time>
      </trkpt>
      <trkpt lat="44.44405" lon="1.66484">
        <ele>353</ele>
        <time>2019-08-08T09:59:55.727Z</time>
      </trkpt>
      <trkpt lat="44.44416" lon="1.66486">
        <ele>353</ele>
        <time>2019-08-08T10:00:00.705Z</time>
      </trkpt>
      <trkpt lat="44.44424" lon="1.66489">
        <ele>353</ele>
        <time>2019-08-08T10:00:05.719Z</time>
      </trkpt>
      <trkpt lat="44.4443" lon="1.66492">
        <ele>353</ele>
        <time>2019-08-08T10:00:10.706Z</time>
      </trkpt>
      <trkpt lat="44.44448" lon="1.66488">
        <ele>351</ele>
        <time>2019-08-08T10:00:15.737Z</time>
      </trkpt>
      <trkpt lat="44.44455" lon="1.66491">
        <ele>351</ele>
        <time>2019-08-08T10:00:19.757Z</time>
      </trkpt>
      <trkpt lat="44.44461" lon="1.66493">
        <ele>348</ele>
        <time>2019-08-08T10:00:24.729Z</time>
      </trkpt>
      <trkpt lat="44.44466" lon="1.66497">
        <ele>348</ele>
        <time>2019-08-08T10:00:29.713Z</time>
      </trkpt>
      <trkpt lat="44.4447" lon="1.66499">
        <ele>348</ele>
        <time>2019-08-08T10:00:33.760Z</time>
      </trkpt>
      <trkpt lat="44.44481" lon="1.665">
        <ele>348</ele>
        <time>2019-08-08T10:00:38.735Z</time>
      </trkpt>
      <trkpt lat="44.44486" lon="1.66502">
        <ele>348</ele>
        <time>2019-08-08T10:00:43.715Z</time>
      </trkpt>
      <trkpt lat="44.44492" lon="1.66505">
        <ele>343</ele>
        <time>2019-08-08T10:00:48.761Z</time>
      </trkpt>
      <trkpt lat="44.44497" lon="1.66506">
        <ele>343</ele>
        <time>2019-08-08T10:00:53.751Z</time>
      </trkpt>
      <trkpt lat="44.44504" lon="1.66507">
        <ele>343</ele>
        <time>2019-08-08T10:00:58.730Z</time>
      </trkpt>
      <trkpt lat="44.4451" lon="1.66504">
        <ele>343</ele>
        <time>2019-08-08T10:01:03.759Z</time>
      </trkpt>
      <trkpt lat="44.44514" lon="1.66505">
        <ele>340</ele>
        <time>2019-08-08T10:01:08.739Z</time>
      </trkpt>
      <trkpt lat="44.44521" lon="1.66504">
        <ele>340</ele>
        <time>2019-08-08T10:01:13.738Z</time>
      </trkpt>
      <trkpt lat="44.44537" lon="1.66502">
        <ele>340</ele>
        <time>2019-08-08T10:01:18.707Z</time>
      </trkpt>
      <trkpt lat="44.44544" lon="1.66502">
        <ele>341</ele>
        <time>2019-08-08T10:01:22.739Z</time>
      </trkpt>
      <trkpt lat="44.44554" lon="1.66496">
        <ele>341</ele>
        <time>2019-08-08T10:01:27.772Z</time>
      </trkpt>
      <trkpt lat="44.44562" lon="1.66495">
        <ele>341</ele>
        <time>2019-08-08T10:01:32.722Z</time>
      </trkpt>
      <trkpt lat="44.44568" lon="1.66491">
        <ele>341</ele>
        <time>2019-08-08T10:01:37.705Z</time>
      </trkpt>
      <trkpt lat="44.44573" lon="1.66488">
        <ele>341</ele>
        <time>2019-08-08T10:01:41.729Z</time>
      </trkpt>
      <trkpt lat="44.4458" lon="1.66483">
        <ele>340</ele>
        <time>2019-08-08T10:01:46.728Z</time>
      </trkpt>
      <trkpt lat="44.44584" lon="1.6648">
        <ele>340</ele>
        <time>2019-08-08T10:01:51.730Z</time>
      </trkpt>
      <trkpt lat="44.44591" lon="1.66475">
        <ele>340</ele>
        <time>2019-08-08T10:01:56.714Z</time>
      </trkpt>
      <trkpt lat="44.44597" lon="1.66471">
        <ele>340</ele>
        <time>2019-08-08T10:02:01.747Z</time>
      </trkpt>
      <trkpt lat="44.44602" lon="1.66467">
        <ele>340</ele>
        <time>2019-08-08T10:02:06.716Z</time>
      </trkpt>
      <trkpt lat="44.44606" lon="1.66463">
        <ele>340</ele>
        <time>2019-08-08T10:02:11.743Z</time>
      </trkpt>
      <trkpt lat="44.44613" lon="1.66456">
        <ele>341</ele>
        <time>2019-08-08T10:02:16.751Z</time>
      </trkpt>
      <trkpt lat="44.4462" lon="1.66451">
        <ele>341</ele>
        <time>2019-08-08T10:02:21.752Z</time>
      </trkpt>
      <trkpt lat="44.44625" lon="1.66446">
        <ele>341</ele>
        <time>2019-08-08T10:02:26.727Z</time>
      </trkpt>
      <trkpt lat="44.44629" lon="1.6644">
        <ele>340</ele>
        <time>2019-08-08T10:02:31.735Z</time>
      </trkpt>
      <trkpt lat="44.44633" lon="1.66437">
        <ele>340</ele>
        <time>2019-08-08T10:02:36.720Z</time>
      </trkpt>
      <trkpt lat="44.44636" lon="1.66432">
        <ele>340</ele>
        <time>2019-08-08T10:02:41.724Z</time>
      </trkpt>
      <trkpt lat="44.44639" lon="1.66428">
        <ele>340</ele>
        <time>2019-08-08T10:02:46.734Z</time>
      </trkpt>
      <trkpt lat="44.44644" lon="1.66426">
        <ele>340</ele>
        <time>2019-08-08T10:02:51.737Z</time>
      </trkpt>
      <trkpt lat="44.44649" lon="1.66426">
        <ele>340</ele>
        <time>2019-08-08T10:02:56.716Z</time>
      </trkpt>
      <trkpt lat="44.44656" lon="1.66426">
        <ele>336</ele>
        <time>2019-08-08T10:03:01.726Z</time>
      </trkpt>
      <trkpt lat="44.44661" lon="1.66429">
        <ele>336</ele>
        <time>2019-08-08T10:03:06.705Z</time>
      </trkpt>
      <trkpt lat="44.44664" lon="1.66433">
        <ele>334</ele>
        <time>2019-08-08T10:03:11.696Z</time>
      </trkpt>
      <trkpt lat="44.44668" lon="1.66434">
        <ele>334</ele>
        <time>2019-08-08T10:03:15.746Z</time>
      </trkpt>
      <trkpt lat="44.44679" lon="1.66439">
        <ele>334</ele>
        <time>2019-08-08T10:03:20.712Z</time>
      </trkpt>
      <trkpt lat="44.44694" lon="1.66446">
        <ele>327</ele>
        <time>2019-08-08T10:03:24.727Z</time>
      </trkpt>
      <trkpt lat="44.44734" lon="1.66468">
        <ele>325</ele>
        <time>2019-08-08T10:03:29.728Z</time>
      </trkpt>
      <trkpt lat="44.44767" lon="1.66486">
        <ele>325</ele>
        <time>2019-08-08T10:03:34.747Z</time>
      </trkpt>
      <trkpt lat="44.44796" lon="1.66486">
        <ele>327</ele>
        <time>2019-08-08T10:03:39.749Z</time>
      </trkpt>
      <trkpt lat="44.44816" lon="1.66483">
        <ele>327</ele>
        <time>2019-08-08T10:03:44.706Z</time>
      </trkpt>
      <trkpt lat="44.44825" lon="1.66485">
        <ele>331</ele>
        <time>2019-08-08T10:03:49.722Z</time>
      </trkpt>
      <trkpt lat="44.44833" lon="1.66483">
        <ele>331</ele>
        <time>2019-08-08T10:03:53.735Z</time>
      </trkpt>
      <trkpt lat="44.44835" lon="1.66486">
        <ele>331</ele>
        <time>2019-08-08T10:03:58.702Z</time>
      </trkpt>
      <trkpt lat="44.44845" lon="1.66478">
        <ele>331</ele>
        <time>2019-08-08T10:04:03.724Z</time>
      </trkpt>
      <trkpt lat="44.44857" lon="1.66475">
        <ele>335</ele>
        <time>2019-08-08T10:04:08.713Z</time>
      </trkpt>
      <trkpt lat="44.44862" lon="1.66474">
        <ele>335</ele>
        <time>2019-08-08T10:04:13.722Z</time>
      </trkpt>
      <trkpt lat="44.44868" lon="1.66477">
        <ele>335</ele>
        <time>2019-08-08T10:04:18.709Z</time>
      </trkpt>
      <trkpt lat="44.44874" lon="1.66481">
        <ele>335</ele>
        <time>2019-08-08T10:04:23.723Z</time>
      </trkpt>
      <trkpt lat="44.44879" lon="1.66482">
        <ele>338</ele>
        <time>2019-08-08T10:04:28.728Z</time>
      </trkpt>
      <trkpt lat="44.44883" lon="1.66481">
        <ele>338</ele>
        <time>2019-08-08T10:04:33.704Z</time>
      </trkpt>
      <trkpt lat="44.44889" lon="1.66487">
        <ele>338</ele>
        <time>2019-08-08T10:04:38.734Z</time>
      </trkpt>
      <trkpt lat="44.44897" lon="1.66493">
        <ele>338</ele>
        <time>2019-08-08T10:04:43.704Z</time>
      </trkpt>
      <trkpt lat="44.44904" lon="1.66497">
        <ele>338</ele>
        <time>2019-08-08T10:04:48.706Z</time>
      </trkpt>
      <trkpt lat="44.44909" lon="1.66501">
        <ele>338</ele>
        <time>2019-08-08T10:04:53.734Z</time>
      </trkpt>
      <trkpt lat="44.4492" lon="1.66502">
        <ele>338</ele>
        <time>2019-08-08T10:04:58.706Z</time>
      </trkpt>
      <trkpt lat="44.44925" lon="1.66504">
        <ele>338</ele>
        <time>2019-08-08T10:05:02.720Z</time>
      </trkpt>
      <trkpt lat="44.44931" lon="1.66507">
        <ele>336</ele>
        <time>2019-08-08T10:05:07.710Z</time>
      </trkpt>
      <trkpt lat="44.44936" lon="1.6651">
        <ele>336</ele>
        <time>2019-08-08T10:05:12.711Z</time>
      </trkpt>
      <trkpt lat="44.44945" lon="1.66515">
        <ele>334</ele>
        <time>2019-08-08T10:05:17.717Z</time>
      </trkpt>
      <trkpt lat="44.44952" lon="1.66518">
        <ele>334</ele>
        <time>2019-08-08T10:05:22.742Z</time>
      </trkpt>
      <trkpt lat="44.44959" lon="1.66518">
        <ele>332</ele>
        <time>2019-08-08T10:05:26.768Z</time>
      </trkpt>
      <trkpt lat="44.44967" lon="1.66517">
        <ele>332</ele>
        <time>2019-08-08T10:05:31.720Z</time>
      </trkpt>
      <trkpt lat="44.44977" lon="1.66516">
        <ele>332</ele>
        <time>2019-08-08T10:05:36.742Z</time>
      </trkpt>
      <trkpt lat="44.44983" lon="1.66515">
        <ele>332</ele>
        <time>2019-08-08T10:05:41.740Z</time>
      </trkpt>
      <trkpt lat="44.44989" lon="1.6651">
        <ele>334</ele>
        <time>2019-08-08T10:05:46.751Z</time>
      </trkpt>
      <trkpt lat="44.44992" lon="1.66507">
        <ele>334</ele>
        <time>2019-08-08T10:05:51.718Z</time>
      </trkpt>
      <trkpt lat="44.44995" lon="1.66503">
        <ele>334</ele>
        <time>2019-08-08T10:05:55.733Z</time>
      </trkpt>
      <trkpt lat="44.44999" lon="1.665">
        <ele>334</ele>
        <time>2019-08-08T10:05:59.754Z</time>
      </trkpt>
      <trkpt lat="44.45004" lon="1.66497">
        <ele>334</ele>
        <time>2019-08-08T10:06:04.721Z</time>
      </trkpt>
      <trkpt lat="44.45005" lon="1.66496">
        <ele>334</ele>
        <time>2019-08-08T10:06:09.767Z</time>
      </trkpt>
      <trkpt lat="44.4501" lon="1.66494">
        <ele>334</ele>
        <time>2019-08-08T10:06:14.701Z</time>
      </trkpt>
      <trkpt lat="44.4502" lon="1.66493">
        <ele>335</ele>
        <time>2019-08-08T10:06:18.725Z</time>
      </trkpt>
      <trkpt lat="44.45026" lon="1.66491">
        <ele>335</ele>
        <time>2019-08-08T10:06:23.706Z</time>
      </trkpt>
      <trkpt lat="44.45056" lon="1.66483">
        <ele>336</ele>
        <time>2019-08-08T10:06:28.747Z</time>
      </trkpt>
      <trkpt lat="44.45096" lon="1.66491">
        <ele>339</ele>
        <time>2019-08-08T10:06:33.713Z</time>
      </trkpt>
      <trkpt lat="44.45127" lon="1.66496">
        <ele>339</ele>
        <time>2019-08-08T10:06:38.722Z</time>
      </trkpt>
      <trkpt lat="44.45146" lon="1.66503">
        <ele>339</ele>
        <time>2019-08-08T10:06:43.746Z</time>
      </trkpt>
      <trkpt lat="44.45151" lon="1.66508">
        <ele>339</ele>
        <time>2019-08-08T10:06:48.708Z</time>
      </trkpt>
      <trkpt lat="44.45157" lon="1.66512">
        <ele>342</ele>
        <time>2019-08-08T10:06:53.728Z</time>
      </trkpt>
      <trkpt lat="44.45166" lon="1.66515">
        <ele>338</ele>
        <time>2019-08-08T10:06:58.721Z</time>
      </trkpt>
      <trkpt lat="44.45174" lon="1.66518">
        <ele>338</ele>
        <time>2019-08-08T10:07:03.719Z</time>
      </trkpt>
      <trkpt lat="44.45178" lon="1.66519">
        <ele>338</ele>
        <time>2019-08-08T10:07:07.750Z</time>
      </trkpt>
      <trkpt lat="44.45184" lon="1.66516">
        <ele>340</ele>
        <time>2019-08-08T10:07:12.737Z</time>
      </trkpt>
      <trkpt lat="44.452" lon="1.66515">
        <ele>340</ele>
        <time>2019-08-08T10:07:17.734Z</time>
      </trkpt>
      <trkpt lat="44.45209" lon="1.66521">
        <ele>341</ele>
        <time>2019-08-08T10:07:22.737Z</time>
      </trkpt>
      <trkpt lat="44.45215" lon="1.66526">
        <ele>341</ele>
        <time>2019-08-08T10:07:27.715Z</time>
      </trkpt>
      <trkpt lat="44.45221" lon="1.66532">
        <ele>341</ele>
        <time>2019-08-08T10:07:32.712Z</time>
      </trkpt>
      <trkpt lat="44.45228" lon="1.66537">
        <ele>341</ele>
        <time>2019-08-08T10:07:37.706Z</time>
      </trkpt>
      <trkpt lat="44.45238" lon="1.6654">
        <ele>341</ele>
        <time>2019-08-08T10:07:42.726Z</time>
      </trkpt>
      <trkpt lat="44.45241" lon="1.66541">
        <ele>341</ele>
        <time>2019-08-08T10:07:47.721Z</time>
      </trkpt>
      <trkpt lat="44.45245" lon="1.66543">
        <ele>342</ele>
        <time>2019-08-08T10:07:52.705Z</time>
      </trkpt>
      <trkpt lat="44.45249" lon="1.66545">
        <ele>342</ele>
        <time>2019-08-08T10:07:56.734Z</time>
      </trkpt>
      <trkpt lat="44.45255" lon="1.66549">
        <ele>342</ele>
        <time>2019-08-08T10:08:01.696Z</time>
      </trkpt>
      <trkpt lat="44.45262" lon="1.66552">
        <ele>342</ele>
        <time>2019-08-08T10:08:06.707Z</time>
      </trkpt>
      <trkpt lat="44.45271" lon="1.66555">
        <ele>344</ele>
        <time>2019-08-08T10:08:11.695Z</time>
      </trkpt>
      <trkpt lat="44.45274" lon="1.66558">
        <ele>344</ele>
        <time>2019-08-08T10:08:16.720Z</time>
      </trkpt>
      <trkpt lat="44.45279" lon="1.66561">
        <ele>344</ele>
        <time>2019-08-08T10:08:21.719Z</time>
      </trkpt>
      <trkpt lat="44.45285" lon="1.66559">
        <ele>344</ele>
        <time>2019-08-08T10:08:26.720Z</time>
      </trkpt>
      <trkpt lat="44.4529" lon="1.6656">
        <ele>344</ele>
        <time>2019-08-08T10:08:31.706Z</time>
      </trkpt>
      <trkpt lat="44.45293" lon="1.66561">
        <ele>344</ele>
        <time>2019-08-08T10:08:35.723Z</time>
      </trkpt>
      <trkpt lat="44.45298" lon="1.66564">
        <ele>344</ele>
        <time>2019-08-08T10:08:40.714Z</time>
      </trkpt>
      <trkpt lat="44.45304" lon="1.66566">
        <ele>344</ele>
        <time>2019-08-08T10:08:45.726Z</time>
      </trkpt>
      <trkpt lat="44.45309" lon="1.66567">
        <ele>344</ele>
        <time>2019-08-08T10:08:49.737Z</time>
      </trkpt>
      <trkpt lat="44.45316" lon="1.66566">
        <ele>344</ele>
        <time>2019-08-08T10:08:54.742Z</time>
      </trkpt>
      <trkpt lat="44.45323" lon="1.66565">
        <ele>347</ele>
        <time>2019-08-08T10:08:59.743Z</time>
      </trkpt>
      <trkpt lat="44.45327" lon="1.66566">
        <ele>347</ele>
        <time>2019-08-08T10:09:04.712Z</time>
      </trkpt>
      <trkpt lat="44.45334" lon="1.66566">
        <ele>347</ele>
        <time>2019-08-08T10:09:09.746Z</time>
      </trkpt>
      <trkpt lat="44.45337" lon="1.66566">
        <ele>347</ele>
        <time>2019-08-08T10:09:14.698Z</time>
      </trkpt>
      <trkpt lat="44.45343" lon="1.66569">
        <ele>347</ele>
        <time>2019-08-08T10:09:18.707Z</time>
      </trkpt>
      <trkpt lat="44.45353" lon="1.66573">
        <ele>352</ele>
        <time>2019-08-08T10:09:22.732Z</time>
      </trkpt>
      <trkpt lat="44.45357" lon="1.66566">
        <ele>350</ele>
        <time>2019-08-08T10:09:27.726Z</time>
      </trkpt>
      <trkpt lat="44.45366" lon="1.66564">
        <ele>350</ele>
        <time>2019-08-08T10:09:31.717Z</time>
      </trkpt>
      <trkpt lat="44.45373" lon="1.66567">
        <ele>350</ele>
        <time>2019-08-08T10:09:36.723Z</time>
      </trkpt>
      <trkpt lat="44.45377" lon="1.66564">
        <ele>354</ele>
        <time>2019-08-08T10:09:41.718Z</time>
      </trkpt>
      <trkpt lat="44.4538" lon="1.66562">
        <ele>354</ele>
        <time>2019-08-08T10:09:45.732Z</time>
      </trkpt>
      <trkpt lat="44.45384" lon="1.66562">
        <ele>354</ele>
        <time>2019-08-08T10:09:49.752Z</time>
      </trkpt>
      <trkpt lat="44.45392" lon="1.66561">
        <ele>354</ele>
        <time>2019-08-08T10:09:54.724Z</time>
      </trkpt>
      <trkpt lat="44.4541" lon="1.66559">
        <ele>355</ele>
        <time>2019-08-08T10:09:59.706Z</time>
      </trkpt>
      <trkpt lat="44.45429" lon="1.66562">
        <ele>355</ele>
        <time>2019-08-08T10:10:04.739Z</time>
      </trkpt>
      <trkpt lat="44.45437" lon="1.66565">
        <ele>356</ele>
        <time>2019-08-08T10:10:09.709Z</time>
      </trkpt>
      <trkpt lat="44.45443" lon="1.66569">
        <ele>356</ele>
        <time>2019-08-08T10:10:14.724Z</time>
      </trkpt>
      <trkpt lat="44.45451" lon="1.66572">
        <ele>358</ele>
        <time>2019-08-08T10:10:18.743Z</time>
      </trkpt>
      <trkpt lat="44.45455" lon="1.66573">
        <ele>358</ele>
        <time>2019-08-08T10:10:23.719Z</time>
      </trkpt>
      <trkpt lat="44.45462" lon="1.66575">
        <ele>360</ele>
        <time>2019-08-08T10:10:28.734Z</time>
      </trkpt>
      <trkpt lat="44.45467" lon="1.66575">
        <ele>360</ele>
        <time>2019-08-08T10:10:33.713Z</time>
      </trkpt>
      <trkpt lat="44.45469" lon="1.66576">
        <ele>360</ele>
        <time>2019-08-08T10:10:38.724Z</time>
      </trkpt>
      <trkpt lat="44.45474" lon="1.66576">
        <ele>360</ele>
        <time>2019-08-08T10:10:43.715Z</time>
      </trkpt>
      <trkpt lat="44.45483" lon="1.66579">
        <ele>360</ele>
        <time>2019-08-08T10:10:48.720Z</time>
      </trkpt>
      <trkpt lat="44.45489" lon="1.66581">
        <ele>360</ele>
        <time>2019-08-08T10:10:53.737Z</time>
      </trkpt>
      <trkpt lat="44.45499" lon="1.66583">
        <ele>360</ele>
        <time>2019-08-08T10:10:58.700Z</time>
      </trkpt>
      <trkpt lat="44.45504" lon="1.66583">
        <ele>360</ele>
        <time>2019-08-08T10:11:02.730Z</time>
      </trkpt>
      <trkpt lat="44.45513" lon="1.66582">
        <ele>360</ele>
        <time>2019-08-08T10:11:07.702Z</time>
      </trkpt>
      <trkpt lat="44.45517" lon="1.66584">
        <ele>361</ele>
        <time>2019-08-08T10:11:12.721Z</time>
      </trkpt>
      <trkpt lat="44.45523" lon="1.66584">
        <ele>361</ele>
        <time>2019-08-08T10:11:17.712Z</time>
      </trkpt>
      <trkpt lat="44.45528" lon="1.66584">
        <ele>361</ele>
        <time>2019-08-08T10:11:22.709Z</time>
      </trkpt>
      <trkpt lat="44.45529" lon="1.66583">
        <ele>361</ele>
        <time>2019-08-08T10:11:27.743Z</time>
      </trkpt>
      <trkpt lat="44.45534" lon="1.66583">
        <ele>361</ele>
        <time>2019-08-08T10:11:32.710Z</time>
      </trkpt>
      <trkpt lat="44.45538" lon="1.66583">
        <ele>361</ele>
        <time>2019-08-08T10:11:46.724Z</time>
      </trkpt>
      <trkpt lat="44.45538" lon="1.66583">
        <ele>361</ele>
        <time>2019-08-08T10:11:51.751Z</time>
      </trkpt>
      <trkpt lat="44.45538" lon="1.66583">
        <ele>361</ele>
        <time>2019-08-08T10:11:56.709Z</time>
      </trkpt>
      <trkpt lat="44.45542" lon="1.66583">
        <ele>363</ele>
        <time>2019-08-08T10:12:01.728Z</time>
      </trkpt>
      <trkpt lat="44.45547" lon="1.66583">
        <ele>363</ele>
        <time>2019-08-08T10:12:06.704Z</time>
      </trkpt>
      <trkpt lat="44.45552" lon="1.66581">
        <ele>363</ele>
        <time>2019-08-08T10:12:10.720Z</time>
      </trkpt>
      <trkpt lat="44.45556" lon="1.66579">
        <ele>363</ele>
        <time>2019-08-08T10:12:15.704Z</time>
      </trkpt>
      <trkpt lat="44.45559" lon="1.66579">
        <ele>363</ele>
        <time>2019-08-08T10:12:19.731Z</time>
      </trkpt>
      <trkpt lat="44.45563" lon="1.66578">
        <ele>363</ele>
        <time>2019-08-08T10:12:24.731Z</time>
      </trkpt>
      <trkpt lat="44.45566" lon="1.66575">
        <ele>363</ele>
        <time>2019-08-08T10:12:29.699Z</time>
      </trkpt>
      <trkpt lat="44.45569" lon="1.66581">
        <ele>363</ele>
        <time>2019-08-08T10:12:34.737Z</time>
      </trkpt>
      <trkpt lat="44.45571" lon="1.66589">
        <ele>366</ele>
        <time>2019-08-08T10:12:39.711Z</time>
      </trkpt>
      <trkpt lat="44.45572" lon="1.66593">
        <ele>366</ele>
        <time>2019-08-08T10:12:44.743Z</time>
      </trkpt>
      <trkpt lat="44.45574" lon="1.66598">
        <ele>366</ele>
        <time>2019-08-08T10:12:49.719Z</time>
      </trkpt>
      <trkpt lat="44.45578" lon="1.66607">
        <ele>366</ele>
        <time>2019-08-08T10:12:54.734Z</time>
      </trkpt>
      <trkpt lat="44.45584" lon="1.66623">
        <ele>366</ele>
        <time>2019-08-08T10:12:59.721Z</time>
      </trkpt>
      <trkpt lat="44.45587" lon="1.66632">
        <ele>366</ele>
        <time>2019-08-08T10:13:04.717Z</time>
      </trkpt>
      <trkpt lat="44.45589" lon="1.66639">
        <ele>366</ele>
        <time>2019-08-08T10:13:09.722Z</time>
      </trkpt>
      <trkpt lat="44.45591" lon="1.66647">
        <ele>366</ele>
        <time>2019-08-08T10:13:14.709Z</time>
      </trkpt>
      <trkpt lat="44.45594" lon="1.66652">
        <ele>366</ele>
        <time>2019-08-08T10:13:18.730Z</time>
      </trkpt>
      <trkpt lat="44.45598" lon="1.66662">
        <ele>368</ele>
        <time>2019-08-08T10:13:23.712Z</time>
      </trkpt>
      <trkpt lat="44.456" lon="1.6667">
        <ele>368</ele>
        <time>2019-08-08T10:13:27.737Z</time>
      </trkpt>
      <trkpt lat="44.45604" lon="1.66679">
        <ele>368</ele>
        <time>2019-08-08T10:13:32.710Z</time>
      </trkpt>
      <trkpt lat="44.45607" lon="1.66688">
        <ele>366</ele>
        <time>2019-08-08T10:13:37.711Z</time>
      </trkpt>
      <trkpt lat="44.45613" lon="1.66693">
        <ele>366</ele>
        <time>2019-08-08T10:13:41.753Z</time>
      </trkpt>
      <trkpt lat="44.45616" lon="1.66716">
        <ele>363</ele>
        <time>2019-08-08T10:13:46.721Z</time>
      </trkpt>
      <trkpt lat="44.4562" lon="1.66726">
        <ele>363</ele>
        <time>2019-08-08T10:13:51.705Z</time>
      </trkpt>
      <trkpt lat="44.45624" lon="1.66734">
        <ele>363</ele>
        <time>2019-08-08T10:13:56.717Z</time>
      </trkpt>
      <trkpt lat="44.45626" lon="1.66738">
        <ele>369</ele>
        <time>2019-08-08T10:14:00.724Z</time>
      </trkpt>
      <trkpt lat="44.4563" lon="1.66746">
        <ele>369</ele>
        <time>2019-08-08T10:15:25.700Z</time>
      </trkpt>
      <trkpt lat="44.45631" lon="1.66752">
        <ele>369</ele>
        <time>2019-08-08T10:15:30.691Z</time>
      </trkpt>
      <trkpt lat="44.45633" lon="1.66754">
        <ele>369</ele>
        <time>2019-08-08T10:15:34.705Z</time>
      </trkpt>
      <trkpt lat="44.45634" lon="1.66768">
        <ele>366</ele>
        <time>2019-08-08T10:15:39.711Z</time>
      </trkpt>
      <trkpt lat="44.45636" lon="1.66774">
        <ele>366</ele>
        <time>2019-08-08T10:15:43.732Z</time>
      </trkpt>
      <trkpt lat="44.45639" lon="1.6678">
        <ele>366</ele>
        <time>2019-08-08T10:15:48.712Z</time>
      </trkpt>
      <trkpt lat="44.45645" lon="1.66789">
        <ele>366</ele>
        <time>2019-08-08T10:15:53.726Z</time>
      </trkpt>
      <trkpt lat="44.45649" lon="1.66797">
        <ele>362</ele>
        <time>2019-08-08T10:15:58.709Z</time>
      </trkpt>
      <trkpt lat="44.45651" lon="1.66803">
        <ele>362</ele>
        <time>2019-08-08T10:16:02.727Z</time>
      </trkpt>
      <trkpt lat="44.45653" lon="1.66812">
        <ele>362</ele>
        <time>2019-08-08T10:16:07.713Z</time>
      </trkpt>
      <trkpt lat="44.45654" lon="1.66818">
        <ele>362</ele>
        <time>2019-08-08T10:16:11.747Z</time>
      </trkpt>
      <trkpt lat="44.45657" lon="1.66831">
        <ele>359</ele>
        <time>2019-08-08T10:16:16.719Z</time>
      </trkpt>
      <trkpt lat="44.45658" lon="1.6684">
        <ele>359</ele>
        <time>2019-08-08T10:16:21.706Z</time>
      </trkpt>
      <trkpt lat="44.45665" lon="1.66845">
        <ele>359</ele>
        <time>2019-08-08T10:16:26.684Z</time>
      </trkpt>
      <trkpt lat="44.45672" lon="1.66847">
        <ele>359</ele>
        <time>2019-08-08T10:16:30.705Z</time>
      </trkpt>
      <trkpt lat="44.45677" lon="1.66844">
        <ele>359</ele>
        <time>2019-08-08T10:16:34.719Z</time>
      </trkpt>
      <trkpt lat="44.45681" lon="1.66843">
        <ele>359</ele>
        <time>2019-08-08T10:16:39.723Z</time>
      </trkpt>
      <trkpt lat="44.45682" lon="1.66838">
        <ele>359</ele>
        <time>2019-08-08T10:16:43.725Z</time>
      </trkpt>
      <trkpt lat="44.45684" lon="1.6683">
        <ele>359</ele>
        <time>2019-08-08T10:16:48.729Z</time>
      </trkpt>
      <trkpt lat="44.45686" lon="1.66826">
        <ele>359</ele>
        <time>2019-08-08T10:16:53.720Z</time>
      </trkpt>
      <trkpt lat="44.45689" lon="1.66825">
        <ele>359</ele>
        <time>2019-08-08T10:16:57.762Z</time>
      </trkpt>
      <trkpt lat="44.45693" lon="1.66823">
        <ele>359</ele>
        <time>2019-08-08T10:17:01.762Z</time>
      </trkpt>
      <trkpt lat="44.45698" lon="1.66824">
        <ele>359</ele>
        <time>2019-08-08T10:17:06.719Z</time>
      </trkpt>
      <trkpt lat="44.45707" lon="1.66824">
        <ele>359</ele>
        <time>2019-08-08T10:17:11.765Z</time>
      </trkpt>
      <trkpt lat="44.45717" lon="1.66826">
        <ele>360</ele>
        <time>2019-08-08T10:17:16.701Z</time>
      </trkpt>
      <trkpt lat="44.45717" lon="1.66831">
        <ele>360</ele>
        <time>2019-08-08T10:17:25.710Z</time>
      </trkpt>
      <trkpt lat="44.45718" lon="1.66833">
        <ele>360</ele>
        <time>2019-08-08T10:17:30.708Z</time>
      </trkpt>
      <trkpt lat="44.45719" lon="1.66836">
        <ele>360</ele>
        <time>2019-08-08T10:17:35.727Z</time>
      </trkpt>
      <trkpt lat="44.45723" lon="1.6684">
        <ele>360</ele>
        <time>2019-08-08T10:17:39.744Z</time>
      </trkpt>
      <trkpt lat="44.45727" lon="1.66845">
        <ele>360</ele>
        <time>2019-08-08T10:17:44.743Z</time>
      </trkpt>
      <trkpt lat="44.45732" lon="1.66854">
        <ele>355</ele>
        <time>2019-08-08T10:17:49.716Z</time>
      </trkpt>
      <trkpt lat="44.45735" lon="1.66861">
        <ele>355</ele>
        <time>2019-08-08T10:17:54.726Z</time>
      </trkpt>
      <trkpt lat="44.45739" lon="1.66869">
        <ele>356</ele>
        <time>2019-08-08T10:17:59.725Z</time>
      </trkpt>
      <trkpt lat="44.45757" lon="1.66884">
        <ele>351</ele>
        <time>2019-08-08T10:18:04.718Z</time>
      </trkpt>
      <trkpt lat="44.45765" lon="1.66894">
        <ele>352</ele>
        <time>2019-08-08T10:18:09.749Z</time>
      </trkpt>
      <trkpt lat="44.45769" lon="1.669">
        <ele>352</ele>
        <time>2019-08-08T10:18:14.717Z</time>
      </trkpt>
      <trkpt lat="44.45772" lon="1.66906">
        <ele>348</ele>
        <time>2019-08-08T10:18:19.737Z</time>
      </trkpt>
      <trkpt lat="44.45774" lon="1.66915">
        <ele>348</ele>
        <time>2019-08-08T10:18:24.731Z</time>
      </trkpt>
      <trkpt lat="44.45776" lon="1.66924">
        <ele>348</ele>
        <time>2019-08-08T10:18:29.720Z</time>
      </trkpt>
      <trkpt lat="44.45779" lon="1.66932">
        <ele>344</ele>
        <time>2019-08-08T10:18:33.747Z</time>
      </trkpt>
      <trkpt lat="44.45782" lon="1.66941">
        <ele>344</ele>
        <time>2019-08-08T10:18:38.712Z</time>
      </trkpt>
      <trkpt lat="44.45786" lon="1.66952">
        <ele>344</ele>
        <time>2019-08-08T10:18:42.736Z</time>
      </trkpt>
      <trkpt lat="44.45791" lon="1.66962">
        <ele>341</ele>
        <time>2019-08-08T10:18:47.746Z</time>
      </trkpt>
      <trkpt lat="44.45792" lon="1.6697">
        <ele>341</ele>
        <time>2019-08-08T10:18:52.725Z</time>
      </trkpt>
      <trkpt lat="44.45794" lon="1.66978">
        <ele>341</ele>
        <time>2019-08-08T10:18:57.721Z</time>
      </trkpt>
      <trkpt lat="44.45799" lon="1.66992">
        <ele>339</ele>
        <time>2019-08-08T10:19:02.721Z</time>
      </trkpt>
      <trkpt lat="44.45799" lon="1.66995">
        <ele>339</ele>
        <time>2019-08-08T10:19:07.754Z</time>
      </trkpt>
      <trkpt lat="44.45801" lon="1.67004">
        <ele>339</ele>
        <time>2019-08-08T10:19:12.727Z</time>
      </trkpt>
      <trkpt lat="44.45801" lon="1.6701">
        <ele>339</ele>
        <time>2019-08-08T10:19:17.750Z</time>
      </trkpt>
      <trkpt lat="44.45808" lon="1.67019">
        <ele>335</ele>
        <time>2019-08-08T10:19:22.702Z</time>
      </trkpt>
      <trkpt lat="44.45812" lon="1.67026">
        <ele>335</ele>
        <time>2019-08-08T10:19:27.723Z</time>
      </trkpt>
      <trkpt lat="44.45815" lon="1.67035">
        <ele>335</ele>
        <time>2019-08-08T10:19:32.710Z</time>
      </trkpt>
      <trkpt lat="44.45821" lon="1.67044">
        <ele>331</ele>
        <time>2019-08-08T10:19:37.715Z</time>
      </trkpt>
      <trkpt lat="44.45824" lon="1.67049">
        <ele>331</ele>
        <time>2019-08-08T10:19:41.736Z</time>
      </trkpt>
      <trkpt lat="44.45826" lon="1.67049">
        <ele>331</ele>
        <time>2019-08-08T10:19:46.720Z</time>
      </trkpt>
      <trkpt lat="44.45835" lon="1.67051">
        <ele>331</ele>
        <time>2019-08-08T10:19:51.740Z</time>
      </trkpt>
      <trkpt lat="44.45845" lon="1.67055">
        <ele>331</ele>
        <time>2019-08-08T10:19:56.719Z</time>
      </trkpt>
      <trkpt lat="44.4585" lon="1.67058">
        <ele>333</ele>
        <time>2019-08-08T10:20:01.730Z</time>
      </trkpt>
      <trkpt lat="44.45855" lon="1.6706">
        <ele>333</ele>
        <time>2019-08-08T10:20:16.713Z</time>
      </trkpt>
      <trkpt lat="44.45849" lon="1.67051">
        <ele>333</ele>
        <time>2019-08-08T10:20:21.724Z</time>
      </trkpt>
      <trkpt lat="44.45847" lon="1.6705">
        <ele>331</ele>
        <time>2019-08-08T10:20:26.700Z</time>
      </trkpt>
      <trkpt lat="44.45847" lon="1.67049">
        <ele>331</ele>
        <time>2019-08-08T10:20:30.743Z</time>
      </trkpt>
      <trkpt lat="44.45845" lon="1.67046">
        <ele>331</ele>
        <time>2019-08-08T10:20:35.703Z</time>
      </trkpt>
      <trkpt lat="44.45841" lon="1.67046">
        <ele>331</ele>
        <time>2019-08-08T10:21:31.738Z</time>
      </trkpt>
      <trkpt lat="44.45842" lon="1.67053">
        <ele>331</ele>
        <time>2019-08-08T10:21:36.685Z</time>
      </trkpt>
      <trkpt lat="44.45842" lon="1.67065">
        <ele>331</ele>
        <time>2019-08-08T10:21:40.720Z</time>
      </trkpt>
      <trkpt lat="44.45839" lon="1.67071">
        <ele>330</ele>
        <time>2019-08-08T10:21:44.751Z</time>
      </trkpt>
      <trkpt lat="44.45835" lon="1.67075">
        <ele>330</ele>
        <time>2019-08-08T10:21:49.753Z</time>
      </trkpt>
      <trkpt lat="44.45833" lon="1.67077">
        <ele>330</ele>
        <time>2019-08-08T10:21:54.712Z</time>
      </trkpt>
      <trkpt lat="44.45828" lon="1.67082">
        <ele>330</ele>
        <time>2019-08-08T10:21:59.719Z</time>
      </trkpt>
      <trkpt lat="44.45827" lon="1.67085">
        <ele>330</ele>
        <time>2019-08-08T10:22:04.714Z</time>
      </trkpt>
      <trkpt lat="44.45826" lon="1.67089">
        <ele>330</ele>
        <time>2019-08-08T10:22:09.731Z</time>
      </trkpt>
      <trkpt lat="44.45822" lon="1.67104">
        <ele>328</ele>
        <time>2019-08-08T10:22:14.710Z</time>
      </trkpt>
      <trkpt lat="44.45819" lon="1.67116">
        <ele>325</ele>
        <time>2019-08-08T10:22:19.737Z</time>
      </trkpt>
      <trkpt lat="44.45816" lon="1.67127">
        <ele>321</ele>
        <time>2019-08-08T10:22:24.706Z</time>
      </trkpt>
      <trkpt lat="44.45812" lon="1.67133">
        <ele>321</ele>
        <time>2019-08-08T10:22:29.703Z</time>
      </trkpt>
      <trkpt lat="44.45809" lon="1.67135">
        <ele>321</ele>
        <time>2019-08-08T10:22:33.737Z</time>
      </trkpt>
      <trkpt lat="44.45804" lon="1.67144">
        <ele>321</ele>
        <time>2019-08-08T10:22:38.712Z</time>
      </trkpt>
      <trkpt lat="44.45801" lon="1.67152">
        <ele>321</ele>
        <time>2019-08-08T10:22:42.747Z</time>
      </trkpt>
      <trkpt lat="44.45798" lon="1.6716">
        <ele>317</ele>
        <time>2019-08-08T10:22:47.736Z</time>
      </trkpt>
      <trkpt lat="44.45804" lon="1.67179">
        <ele>317</ele>
        <time>2019-08-08T10:23:02.719Z</time>
      </trkpt>
      <trkpt lat="44.45804" lon="1.67181">
        <ele>317</ele>
        <time>2019-08-08T10:23:06.744Z</time>
      </trkpt>
      <trkpt lat="44.45805" lon="1.6719">
        <ele>315</ele>
        <time>2019-08-08T10:23:11.755Z</time>
      </trkpt>
      <trkpt lat="44.45808" lon="1.67198">
        <ele>315</ele>
        <time>2019-08-08T10:23:16.720Z</time>
      </trkpt>
      <trkpt lat="44.45811" lon="1.67206">
        <ele>315</ele>
        <time>2019-08-08T10:23:21.716Z</time>
      </trkpt>
      <trkpt lat="44.45814" lon="1.67214">
        <ele>315</ele>
        <time>2019-08-08T10:23:26.703Z</time>
      </trkpt>
      <trkpt lat="44.45813" lon="1.67216">
        <ele>315</ele>
        <time>2019-08-08T10:23:31.737Z</time>
      </trkpt>
      <trkpt lat="44.45816" lon="1.67224">
        <ele>315</ele>
        <time>2019-08-08T10:23:36.751Z</time>
      </trkpt>
      <trkpt lat="44.45826" lon="1.67237">
        <ele>314</ele>
        <time>2019-08-08T10:23:41.734Z</time>
      </trkpt>
      <trkpt lat="44.45836" lon="1.67245">
        <ele>314</ele>
        <time>2019-08-08T10:23:54.727Z</time>
      </trkpt>
      <trkpt lat="44.45839" lon="1.6725">
        <ele>314</ele>
        <time>2019-08-08T10:23:58.744Z</time>
      </trkpt>
      <trkpt lat="44.45843" lon="1.67255">
        <ele>314</ele>
        <time>2019-08-08T10:24:03.746Z</time>
      </trkpt>
      <trkpt lat="44.45848" lon="1.67263">
        <ele>315</ele>
        <time>2019-08-08T10:24:08.711Z</time>
      </trkpt>
      <trkpt lat="44.45852" lon="1.67269">
        <ele>312</ele>
        <time>2019-08-08T10:24:12.738Z</time>
      </trkpt>
      <trkpt lat="44.4585" lon="1.67269">
        <ele>312</ele>
        <time>2019-08-08T10:24:17.737Z</time>
      </trkpt>
      <trkpt lat="44.45855" lon="1.67274">
        <ele>312</ele>
        <time>2019-08-08T10:24:22.711Z</time>
      </trkpt>
      <trkpt lat="44.45857" lon="1.67278">
        <ele>312</ele>
        <time>2019-08-08T10:24:26.726Z</time>
      </trkpt>
      <trkpt lat="44.45864" lon="1.67283">
        <ele>312</ele>
        <time>2019-08-08T10:24:31.743Z</time>
      </trkpt>
      <trkpt lat="44.45868" lon="1.67289">
        <ele>312</ele>
        <time>2019-08-08T10:24:36.706Z</time>
      </trkpt>
      <trkpt lat="44.4587" lon="1.67293">
        <ele>312</ele>
        <time>2019-08-08T10:24:40.726Z</time>
      </trkpt>
      <trkpt lat="44.45873" lon="1.67307">
        <ele>312</ele>
        <time>2019-08-08T10:24:45.724Z</time>
      </trkpt>
      <trkpt lat="44.45872" lon="1.67315">
        <ele>312</ele>
        <time>2019-08-08T10:24:50.741Z</time>
      </trkpt>
      <trkpt lat="44.45873" lon="1.67323">
        <ele>312</ele>
        <time>2019-08-08T10:24:55.715Z</time>
      </trkpt>
      <trkpt lat="44.45875" lon="1.67326">
        <ele>312</ele>
        <time>2019-08-08T10:24:59.740Z</time>
      </trkpt>
      <trkpt lat="44.45878" lon="1.67331">
        <ele>308</ele>
        <time>2019-08-08T10:25:04.730Z</time>
      </trkpt>
      <trkpt lat="44.45881" lon="1.67336">
        <ele>308</ele>
        <time>2019-08-08T10:25:09.746Z</time>
      </trkpt>
      <trkpt lat="44.45884" lon="1.67335">
        <ele>308</ele>
        <time>2019-08-08T10:25:14.707Z</time>
      </trkpt>
      <trkpt lat="44.45887" lon="1.6734">
        <ele>308</ele>
        <time>2019-08-08T10:25:18.718Z</time>
      </trkpt>
      <trkpt lat="44.45892" lon="1.67348">
        <ele>306</ele>
        <time>2019-08-08T10:25:22.747Z</time>
      </trkpt>
      <trkpt lat="44.45896" lon="1.67353">
        <ele>306</ele>
        <time>2019-08-08T10:25:27.741Z</time>
      </trkpt>
      <trkpt lat="44.45901" lon="1.67359">
        <ele>306</ele>
        <time>2019-08-08T10:25:32.722Z</time>
      </trkpt>
      <trkpt lat="44.45903" lon="1.67365">
        <ele>306</ele>
        <time>2019-08-08T10:25:36.736Z</time>
      </trkpt>
      <trkpt lat="44.45909" lon="1.67372">
        <ele>306</ele>
        <time>2019-08-08T10:25:41.752Z</time>
      </trkpt>
      <trkpt lat="44.45914" lon="1.67376">
        <ele>303</ele>
        <time>2019-08-08T10:25:46.710Z</time>
      </trkpt>
      <trkpt lat="44.45917" lon="1.6738">
        <ele>303</ele>
        <time>2019-08-08T10:25:51.749Z</time>
      </trkpt>
      <trkpt lat="44.45919" lon="1.6738">
        <ele>303</ele>
        <time>2019-08-08T10:25:56.751Z</time>
      </trkpt>
      <trkpt lat="44.45924" lon="1.67392">
        <ele>303</ele>
        <time>2019-08-08T10:26:01.735Z</time>
      </trkpt>
      <trkpt lat="44.45933" lon="1.67407">
        <ele>303</ele>
        <time>2019-08-08T10:26:06.715Z</time>
      </trkpt>
      <trkpt lat="44.45947" lon="1.67431">
        <ele>302</ele>
        <time>2019-08-08T10:26:26.709Z</time>
      </trkpt>
      <trkpt lat="44.4595" lon="1.67437">
        <ele>302</ele>
        <time>2019-08-08T10:26:31.746Z</time>
      </trkpt>
      <trkpt lat="44.45949" lon="1.67442">
        <ele>302</ele>
        <time>2019-08-08T10:26:36.744Z</time>
      </trkpt>
      <trkpt lat="44.45946" lon="1.67446">
        <ele>302</ele>
        <time>2019-08-08T10:26:41.737Z</time>
      </trkpt>
      <trkpt lat="44.45945" lon="1.67454">
        <ele>302</ele>
        <time>2019-08-08T10:26:46.742Z</time>
      </trkpt>
      <trkpt lat="44.45946" lon="1.67468">
        <ele>300</ele>
        <time>2019-08-08T10:26:51.711Z</time>
      </trkpt>
      <trkpt lat="44.45944" lon="1.67468">
        <ele>300</ele>
        <time>2019-08-08T10:26:56.729Z</time>
      </trkpt>
      <trkpt lat="44.45942" lon="1.67476">
        <ele>300</ele>
        <time>2019-08-08T10:27:01.708Z</time>
      </trkpt>
      <trkpt lat="44.45941" lon="1.67483">
        <ele>300</ele>
        <time>2019-08-08T10:27:06.715Z</time>
      </trkpt>
      <trkpt lat="44.45941" lon="1.67492">
        <ele>298</ele>
        <time>2019-08-08T10:27:11.720Z</time>
      </trkpt>
      <trkpt lat="44.45941" lon="1.67502">
        <ele>298</ele>
        <time>2019-08-08T10:27:16.727Z</time>
      </trkpt>
      <trkpt lat="44.4594" lon="1.67509">
        <ele>298</ele>
        <time>2019-08-08T10:27:21.719Z</time>
      </trkpt>
      <trkpt lat="44.45938" lon="1.67517">
        <ele>295</ele>
        <time>2019-08-08T10:27:26.699Z</time>
      </trkpt>
      <trkpt lat="44.45938" lon="1.67523">
        <ele>295</ele>
        <time>2019-08-08T10:27:30.720Z</time>
      </trkpt>
      <trkpt lat="44.45937" lon="1.67526">
        <ele>295</ele>
        <time>2019-08-08T10:27:35.716Z</time>
      </trkpt>
      <trkpt lat="44.45937" lon="1.67538">
        <ele>295</ele>
        <time>2019-08-08T10:27:40.711Z</time>
      </trkpt>
      <trkpt lat="44.45936" lon="1.67544">
        <ele>292</ele>
        <time>2019-08-08T10:27:44.745Z</time>
      </trkpt>
      <trkpt lat="44.45935" lon="1.67554">
        <ele>292</ele>
        <time>2019-08-08T10:27:49.742Z</time>
      </trkpt>
      <trkpt lat="44.45934" lon="1.67566">
        <ele>292</ele>
        <time>2019-08-08T10:27:54.749Z</time>
      </trkpt>
      <trkpt lat="44.45932" lon="1.67573">
        <ele>290</ele>
        <time>2019-08-08T10:27:59.765Z</time>
      </trkpt>
      <trkpt lat="44.45931" lon="1.67576">
        <ele>290</ele>
        <time>2019-08-08T10:28:04.716Z</time>
      </trkpt>
      <trkpt lat="44.45931" lon="1.67578">
        <ele>290</ele>
        <time>2019-08-08T10:28:09.716Z</time>
      </trkpt>
      <trkpt lat="44.4593" lon="1.67585">
        <ele>285</ele>
        <time>2019-08-08T10:28:14.743Z</time>
      </trkpt>
      <trkpt lat="44.45928" lon="1.67592">
        <ele>285</ele>
        <time>2019-08-08T10:28:19.707Z</time>
      </trkpt>
      <trkpt lat="44.45927" lon="1.67599">
        <ele>282</ele>
        <time>2019-08-08T10:28:23.722Z</time>
      </trkpt>
      <trkpt lat="44.45925" lon="1.67605">
        <ele>282</ele>
        <time>2019-08-08T10:28:28.727Z</time>
      </trkpt>
      <trkpt lat="44.45924" lon="1.67608">
        <ele>282</ele>
        <time>2019-08-08T10:28:32.748Z</time>
      </trkpt>
      <trkpt lat="44.4592" lon="1.67617">
        <ele>282</ele>
        <time>2019-08-08T10:28:37.780Z</time>
      </trkpt>
      <trkpt lat="44.45916" lon="1.67624">
        <ele>282</ele>
        <time>2019-08-08T10:28:42.713Z</time>
      </trkpt>
      <trkpt lat="44.45913" lon="1.67629">
        <ele>281</ele>
        <time>2019-08-08T10:28:47.733Z</time>
      </trkpt>
      <trkpt lat="44.45911" lon="1.67634">
        <ele>281</ele>
        <time>2019-08-08T10:28:52.710Z</time>
      </trkpt>
      <trkpt lat="44.45907" lon="1.67638">
        <ele>281</ele>
        <time>2019-08-08T10:28:57.741Z</time>
      </trkpt>
      <trkpt lat="44.459" lon="1.67639">
        <ele>283</ele>
        <time>2019-08-08T10:29:02.736Z</time>
      </trkpt>
      <trkpt lat="44.45897" lon="1.6764">
        <ele>283</ele>
        <time>2019-08-08T10:29:07.753Z</time>
      </trkpt>
      <trkpt lat="44.45895" lon="1.67648">
        <ele>283</ele>
        <time>2019-08-08T10:29:12.723Z</time>
      </trkpt>
      <trkpt lat="44.45893" lon="1.67658">
        <ele>281</ele>
        <time>2019-08-08T10:29:16.737Z</time>
      </trkpt>
      <trkpt lat="44.45891" lon="1.67668">
        <ele>281</ele>
        <time>2019-08-08T10:29:21.748Z</time>
      </trkpt>
      <trkpt lat="44.45892" lon="1.67676">
        <ele>281</ele>
        <time>2019-08-08T10:29:26.718Z</time>
      </trkpt>
      <trkpt lat="44.45893" lon="1.67683">
        <ele>277</ele>
        <time>2019-08-08T10:29:31.701Z</time>
      </trkpt>
      <trkpt lat="44.45894" lon="1.6769">
        <ele>277</ele>
        <time>2019-08-08T10:29:35.730Z</time>
      </trkpt>
      <trkpt lat="44.45894" lon="1.67696">
        <ele>277</ele>
        <time>2019-08-08T10:29:40.707Z</time>
      </trkpt>
      <trkpt lat="44.45895" lon="1.67704">
        <ele>277</ele>
        <time>2019-08-08T10:29:45.732Z</time>
      </trkpt>
      <trkpt lat="44.45896" lon="1.67712">
        <ele>274</ele>
        <time>2019-08-08T10:29:50.720Z</time>
      </trkpt>
      <trkpt lat="44.45898" lon="1.67721">
        <ele>274</ele>
        <time>2019-08-08T10:29:55.746Z</time>
      </trkpt>
      <trkpt lat="44.45899" lon="1.6773">
        <ele>274</ele>
        <time>2019-08-08T10:30:00.732Z</time>
      </trkpt>
      <trkpt lat="44.459" lon="1.67738">
        <ele>270</ele>
        <time>2019-08-08T10:30:05.727Z</time>
      </trkpt>
      <trkpt lat="44.459" lon="1.67745">
        <ele>270</ele>
        <time>2019-08-08T10:30:09.747Z</time>
      </trkpt>
      <trkpt lat="44.45903" lon="1.67753">
        <ele>268</ele>
        <time>2019-08-08T10:30:14.706Z</time>
      </trkpt>
      <trkpt lat="44.45905" lon="1.67758">
        <ele>268</ele>
        <time>2019-08-08T10:30:18.723Z</time>
      </trkpt>
      <trkpt lat="44.45908" lon="1.67764">
        <ele>266</ele>
        <time>2019-08-08T10:30:23.721Z</time>
      </trkpt>
      <trkpt lat="44.45911" lon="1.67771">
        <ele>266</ele>
        <time>2019-08-08T10:30:28.718Z</time>
      </trkpt>
      <trkpt lat="44.45915" lon="1.6778">
        <ele>266</ele>
        <time>2019-08-08T10:30:33.718Z</time>
      </trkpt>
      <trkpt lat="44.45918" lon="1.67787">
        <ele>266</ele>
        <time>2019-08-08T10:30:38.727Z</time>
      </trkpt>
      <trkpt lat="44.45922" lon="1.67796">
        <ele>266</ele>
        <time>2019-08-08T10:30:43.718Z</time>
      </trkpt>
      <trkpt lat="44.45925" lon="1.67803">
        <ele>266</ele>
        <time>2019-08-08T10:30:48.718Z</time>
      </trkpt>
      <trkpt lat="44.45929" lon="1.6781">
        <ele>266</ele>
        <time>2019-08-08T10:30:53.716Z</time>
      </trkpt>
      <trkpt lat="44.45933" lon="1.67815">
        <ele>266</ele>
        <time>2019-08-08T10:30:58.719Z</time>
      </trkpt>
      <trkpt lat="44.45936" lon="1.67822">
        <ele>264</ele>
        <time>2019-08-08T10:31:03.740Z</time>
      </trkpt>
      <trkpt lat="44.4594" lon="1.67829">
        <ele>264</ele>
        <time>2019-08-08T10:31:08.709Z</time>
      </trkpt>
      <trkpt lat="44.45943" lon="1.67833">
        <ele>264</ele>
        <time>2019-08-08T10:31:12.731Z</time>
      </trkpt>
      <trkpt lat="44.45948" lon="1.67839">
        <ele>264</ele>
        <time>2019-08-08T10:31:17.713Z</time>
      </trkpt>
      <trkpt lat="44.45953" lon="1.67846">
        <ele>264</ele>
        <time>2019-08-08T10:31:22.721Z</time>
      </trkpt>
      <trkpt lat="44.45956" lon="1.6785">
        <ele>264</ele>
        <time>2019-08-08T10:31:26.724Z</time>
      </trkpt>
      <trkpt lat="44.4596" lon="1.67855">
        <ele>261</ele>
        <time>2019-08-08T10:31:31.723Z</time>
      </trkpt>
      <trkpt lat="44.45963" lon="1.6786">
        <ele>261</ele>
        <time>2019-08-08T10:31:36.728Z</time>
      </trkpt>
      <trkpt lat="44.45968" lon="1.67866">
        <ele>261</ele>
        <time>2019-08-08T10:31:41.729Z</time>
      </trkpt>
      <trkpt lat="44.45972" lon="1.6787">
        <ele>261</ele>
        <time>2019-08-08T10:31:46.724Z</time>
      </trkpt>
      <trkpt lat="44.45977" lon="1.67874">
        <ele>261</ele>
        <time>2019-08-08T10:31:51.739Z</time>
      </trkpt>
      <trkpt lat="44.4598" lon="1.6788">
        <ele>260</ele>
        <time>2019-08-08T10:31:56.759Z</time>
      </trkpt>
      <trkpt lat="44.45982" lon="1.67884">
        <ele>260</ele>
        <time>2019-08-08T10:32:01.718Z</time>
      </trkpt>
      <trkpt lat="44.45984" lon="1.67889">
        <ele>260</ele>
        <time>2019-08-08T10:32:06.707Z</time>
      </trkpt>
      <trkpt lat="44.45986" lon="1.67893">
        <ele>260</ele>
        <time>2019-08-08T10:32:11.713Z</time>
      </trkpt>
      <trkpt lat="44.45989" lon="1.67898">
        <ele>258</ele>
        <time>2019-08-08T10:32:16.718Z</time>
      </trkpt>
      <trkpt lat="44.45992" lon="1.67903">
        <ele>258</ele>
        <time>2019-08-08T10:32:21.731Z</time>
      </trkpt>
      <trkpt lat="44.45996" lon="1.67908">
        <ele>256</ele>
        <time>2019-08-08T10:32:26.744Z</time>
      </trkpt>
      <trkpt lat="44.45999" lon="1.67912">
        <ele>256</ele>
        <time>2019-08-08T10:32:31.699Z</time>
      </trkpt>
      <trkpt lat="44.46001" lon="1.67916">
        <ele>256</ele>
        <time>2019-08-08T10:32:35.727Z</time>
      </trkpt>
      <trkpt lat="44.46006" lon="1.67918">
        <ele>256</ele>
        <time>2019-08-08T10:32:39.750Z</time>
      </trkpt>
      <trkpt lat="44.4601" lon="1.67918">
        <ele>256</ele>
        <time>2019-08-08T10:32:44.726Z</time>
      </trkpt>
      <trkpt lat="44.46012" lon="1.67913">
        <ele>256</ele>
        <time>2019-08-08T10:32:49.726Z</time>
      </trkpt>
      <trkpt lat="44.46016" lon="1.67905">
        <ele>254</ele>
        <time>2019-08-08T10:32:54.748Z</time>
      </trkpt>
      <trkpt lat="44.4602" lon="1.67899">
        <ele>256</ele>
        <time>2019-08-08T10:32:59.710Z</time>
      </trkpt>
      <trkpt lat="44.46021" lon="1.67895">
        <ele>256</ele>
        <time>2019-08-08T10:33:04.734Z</time>
      </trkpt>
      <trkpt lat="44.46025" lon="1.67889">
        <ele>256</ele>
        <time>2019-08-08T10:33:09.751Z</time>
      </trkpt>
      <trkpt lat="44.46036" lon="1.67887">
        <ele>256</ele>
        <time>2019-08-08T10:33:14.730Z</time>
      </trkpt>
      <trkpt lat="44.46046" lon="1.67886">
        <ele>255</ele>
        <time>2019-08-08T10:33:19.713Z</time>
      </trkpt>
      <trkpt lat="44.46054" lon="1.67884">
        <ele>255</ele>
        <time>2019-08-08T10:33:23.736Z</time>
      </trkpt>
      <trkpt lat="44.4606" lon="1.67889">
        <ele>255</ele>
        <time>2019-08-08T10:33:28.720Z</time>
      </trkpt>
      <trkpt lat="44.46062" lon="1.67895">
        <ele>255</ele>
        <time>2019-08-08T10:33:33.713Z</time>
      </trkpt>
      <trkpt lat="44.46067" lon="1.67899">
        <ele>255</ele>
        <time>2019-08-08T10:33:38.721Z</time>
      </trkpt>
      <trkpt lat="44.46072" lon="1.679">
        <ele>256</ele>
        <time>2019-08-08T10:33:43.718Z</time>
      </trkpt>
      <trkpt lat="44.46075" lon="1.67901">
        <ele>256</ele>
        <time>2019-08-08T10:33:47.736Z</time>
      </trkpt>
      <trkpt lat="44.4608" lon="1.67902">
        <ele>256</ele>
        <time>2019-08-08T10:33:52.707Z</time>
      </trkpt>
      <trkpt lat="44.46084" lon="1.67902">
        <ele>256</ele>
        <time>2019-08-08T10:33:56.735Z</time>
      </trkpt>
      <trkpt lat="44.46092" lon="1.67904">
        <ele>252</ele>
        <time>2019-08-08T10:34:01.745Z</time>
      </trkpt>
      <trkpt lat="44.46097" lon="1.67905">
        <ele>252</ele>
        <time>2019-08-08T10:34:06.715Z</time>
      </trkpt>
      <trkpt lat="44.46104" lon="1.67907">
        <ele>253</ele>
        <time>2019-08-08T10:34:11.763Z</time>
      </trkpt>
      <trkpt lat="44.4611" lon="1.67909">
        <ele>253</ele>
        <time>2019-08-08T10:34:16.719Z</time>
      </trkpt>
      <trkpt lat="44.46115" lon="1.67912">
        <ele>253</ele>
        <time>2019-08-08T10:34:21.710Z</time>
      </trkpt>
      <trkpt lat="44.46121" lon="1.67914">
        <ele>253</ele>
        <time>2019-08-08T10:34:26.753Z</time>
      </trkpt>
      <trkpt lat="44.46127" lon="1.67921">
        <ele>253</ele>
        <time>2019-08-08T10:34:31.710Z</time>
      </trkpt>
      <trkpt lat="44.46132" lon="1.67925">
        <ele>253</ele>
        <time>2019-08-08T10:34:35.727Z</time>
      </trkpt>
      <trkpt lat="44.4614" lon="1.67929">
        <ele>253</ele>
        <time>2019-08-08T10:34:40.706Z</time>
      </trkpt>
      <trkpt lat="44.46145" lon="1.67933">
        <ele>252</ele>
        <time>2019-08-08T10:34:45.726Z</time>
      </trkpt>
      <trkpt lat="44.46151" lon="1.67939">
        <ele>252</ele>
        <time>2019-08-08T10:34:50.748Z</time>
      </trkpt>
      <trkpt lat="44.46158" lon="1.67947">
        <ele>250</ele>
        <time>2019-08-08T10:34:55.696Z</time>
      </trkpt>
      <trkpt lat="44.46165" lon="1.67946">
        <ele>250</ele>
        <time>2019-08-08T10:34:59.712Z</time>
      </trkpt>
      <trkpt lat="44.46168" lon="1.67956">
        <ele>250</ele>
        <time>2019-08-08T10:35:04.693Z</time>
      </trkpt>
      <trkpt lat="44.46172" lon="1.6796">
        <ele>247</ele>
        <time>2019-08-08T10:35:09.744Z</time>
      </trkpt>
      <trkpt lat="44.46176" lon="1.67967">
        <ele>247</ele>
        <time>2019-08-08T10:35:14.708Z</time>
      </trkpt>
      <trkpt lat="44.4618" lon="1.67973">
        <ele>247</ele>
        <time>2019-08-08T10:35:19.712Z</time>
      </trkpt>
      <trkpt lat="44.46186" lon="1.67979">
        <ele>248</ele>
        <time>2019-08-08T10:35:24.720Z</time>
      </trkpt>
      <trkpt lat="44.46189" lon="1.67987">
        <ele>245</ele>
        <time>2019-08-08T10:35:29.726Z</time>
      </trkpt>
      <trkpt lat="44.46195" lon="1.67992">
        <ele>245</ele>
        <time>2019-08-08T10:35:34.700Z</time>
      </trkpt>
      <trkpt lat="44.46201" lon="1.67996">
        <ele>245</ele>
        <time>2019-08-08T10:35:39.711Z</time>
      </trkpt>
      <trkpt lat="44.46204" lon="1.68002">
        <ele>245</ele>
        <time>2019-08-08T10:35:43.753Z</time>
      </trkpt>
      <trkpt lat="44.46208" lon="1.68008">
        <ele>245</ele>
        <time>2019-08-08T10:35:48.708Z</time>
      </trkpt>
      <trkpt lat="44.46215" lon="1.6801">
        <ele>247</ele>
        <time>2019-08-08T10:35:53.702Z</time>
      </trkpt>
      <trkpt lat="44.46221" lon="1.68015">
        <ele>236</ele>
        <time>2019-08-08T10:35:58.716Z</time>
      </trkpt>
      <trkpt lat="44.46227" lon="1.68019">
        <ele>236</ele>
        <time>2019-08-08T10:36:03.712Z</time>
      </trkpt>
      <trkpt lat="44.46232" lon="1.68023">
        <ele>236</ele>
        <time>2019-08-08T10:36:08.713Z</time>
      </trkpt>
      <trkpt lat="44.46237" lon="1.68027">
        <ele>239</ele>
        <time>2019-08-08T10:36:12.728Z</time>
      </trkpt>
      <trkpt lat="44.46242" lon="1.68032">
        <ele>239</ele>
        <time>2019-08-08T10:36:17.715Z</time>
      </trkpt>
      <trkpt lat="44.46246" lon="1.68036">
        <ele>239</ele>
        <time>2019-08-08T10:36:21.730Z</time>
      </trkpt>
      <trkpt lat="44.46251" lon="1.68041">
        <ele>239</ele>
        <time>2019-08-08T10:36:26.713Z</time>
      </trkpt>
      <trkpt lat="44.46258" lon="1.68048">
        <ele>221</ele>
        <time>2019-08-08T10:36:31.704Z</time>
      </trkpt>
      <trkpt lat="44.46262" lon="1.68052">
        <ele>221</ele>
        <time>2019-08-08T10:36:35.734Z</time>
      </trkpt>
      <trkpt lat="44.46268" lon="1.68058">
        <ele>230</ele>
        <time>2019-08-08T10:36:40.735Z</time>
      </trkpt>
      <trkpt lat="44.46273" lon="1.68064">
        <ele>230</ele>
        <time>2019-08-08T10:36:45.722Z</time>
      </trkpt>
      <trkpt lat="44.46278" lon="1.68067">
        <ele>230</ele>
        <time>2019-08-08T10:36:49.737Z</time>
      </trkpt>
      <trkpt lat="44.46282" lon="1.68071">
        <ele>214</ele>
        <time>2019-08-08T10:36:53.754Z</time>
      </trkpt>
      <trkpt lat="44.46288" lon="1.68074">
        <ele>214</ele>
        <time>2019-08-08T10:36:58.726Z</time>
      </trkpt>
      <trkpt lat="44.46295" lon="1.68075">
        <ele>226</ele>
        <time>2019-08-08T10:37:03.718Z</time>
      </trkpt>
      <trkpt lat="44.463" lon="1.68076">
        <ele>226</ele>
        <time>2019-08-08T10:37:07.738Z</time>
      </trkpt>
      <trkpt lat="44.46305" lon="1.68074">
        <ele>226</ele>
        <time>2019-08-08T10:37:12.705Z</time>
      </trkpt>
      <trkpt lat="44.46311" lon="1.68071">
        <ele>226</ele>
        <time>2019-08-08T10:37:16.719Z</time>
      </trkpt>
      <trkpt lat="44.46318" lon="1.68061">
        <ele>235</ele>
        <time>2019-08-08T10:37:21.704Z</time>
      </trkpt>
      <trkpt lat="44.46323" lon="1.68054">
        <ele>236</ele>
        <time>2019-08-08T10:37:25.761Z</time>
      </trkpt>
      <trkpt lat="44.46325" lon="1.68042">
        <ele>237</ele>
        <time>2019-08-08T10:37:30.727Z</time>
      </trkpt>
      <trkpt lat="44.46333" lon="1.68031">
        <ele>237</ele>
        <time>2019-08-08T10:37:34.744Z</time>
      </trkpt>
      <trkpt lat="44.46337" lon="1.6802">
        <ele>237</ele>
        <time>2019-08-08T10:37:39.709Z</time>
      </trkpt>
      <trkpt lat="44.46339" lon="1.68011">
        <ele>238</ele>
        <time>2019-08-08T10:37:44.724Z</time>
      </trkpt>
      <trkpt lat="44.46342" lon="1.68002">
        <ele>238</ele>
        <time>2019-08-08T10:37:49.731Z</time>
      </trkpt>
      <trkpt lat="44.46345" lon="1.67991">
        <ele>238</ele>
        <time>2019-08-08T10:37:54.731Z</time>
      </trkpt>
      <trkpt lat="44.46347" lon="1.6798">
        <ele>240</ele>
        <time>2019-08-08T10:37:59.756Z</time>
      </trkpt>
      <trkpt lat="44.46349" lon="1.67969">
        <ele>231</ele>
        <time>2019-08-08T10:38:04.749Z</time>
      </trkpt>
      <trkpt lat="44.46349" lon="1.67959">
        <ele>231</ele>
        <time>2019-08-08T10:38:09.718Z</time>
      </trkpt>
      <trkpt lat="44.4635" lon="1.67949">
        <ele>232</ele>
        <time>2019-08-08T10:38:14.731Z</time>
      </trkpt>
      <trkpt lat="44.46351" lon="1.6794">
        <ele>232</ele>
        <time>2019-08-08T10:38:19.724Z</time>
      </trkpt>
      <trkpt lat="44.46352" lon="1.67931">
        <ele>231</ele>
        <time>2019-08-08T10:38:24.711Z</time>
      </trkpt>
      <trkpt lat="44.46352" lon="1.67921">
        <ele>231</ele>
        <time>2019-08-08T10:38:29.725Z</time>
      </trkpt>
      <trkpt lat="44.46353" lon="1.67911">
        <ele>231</ele>
        <time>2019-08-08T10:38:34.704Z</time>
      </trkpt>
      <trkpt lat="44.46354" lon="1.67903">
        <ele>231</ele>
        <time>2019-08-08T10:38:39.725Z</time>
      </trkpt>
      <trkpt lat="44.46355" lon="1.67893">
        <ele>230</ele>
        <time>2019-08-08T10:38:44.725Z</time>
      </trkpt>
      <trkpt lat="44.46357" lon="1.67885">
        <ele>230</ele>
        <time>2019-08-08T10:38:49.723Z</time>
      </trkpt>
      <trkpt lat="44.46359" lon="1.67876">
        <ele>230</ele>
        <time>2019-08-08T10:38:54.713Z</time>
      </trkpt>
      <trkpt lat="44.46362" lon="1.67868">
        <ele>230</ele>
        <time>2019-08-08T10:38:59.713Z</time>
      </trkpt>
      <trkpt lat="44.46365" lon="1.67858">
        <ele>230</ele>
        <time>2019-08-08T10:39:04.704Z</time>
      </trkpt>
      <trkpt lat="44.46368" lon="1.6785">
        <ele>230</ele>
        <time>2019-08-08T10:39:08.725Z</time>
      </trkpt>
      <trkpt lat="44.46369" lon="1.6784">
        <ele>232</ele>
        <time>2019-08-08T10:39:13.721Z</time>
      </trkpt>
      <trkpt lat="44.46371" lon="1.67832">
        <ele>232</ele>
        <time>2019-08-08T10:39:17.739Z</time>
      </trkpt>
      <trkpt lat="44.46373" lon="1.67824">
        <ele>232</ele>
        <time>2019-08-08T10:39:22.712Z</time>
      </trkpt>
      <trkpt lat="44.46374" lon="1.67818">
        <ele>235</ele>
        <time>2019-08-08T10:39:26.731Z</time>
      </trkpt>
      <trkpt lat="44.46377" lon="1.6781">
        <ele>224</ele>
        <time>2019-08-08T10:39:31.705Z</time>
      </trkpt>
      <trkpt lat="44.46378" lon="1.67802">
        <ele>224</ele>
        <time>2019-08-08T10:39:36.704Z</time>
      </trkpt>
      <trkpt lat="44.46378" lon="1.67792">
        <ele>224</ele>
        <time>2019-08-08T10:39:41.731Z</time>
      </trkpt>
      <trkpt lat="44.46379" lon="1.67782">
        <ele>226</ele>
        <time>2019-08-08T10:39:46.715Z</time>
      </trkpt>
      <trkpt lat="44.46381" lon="1.67773">
        <ele>226</ele>
        <time>2019-08-08T10:39:51.721Z</time>
      </trkpt>
      <trkpt lat="44.46382" lon="1.67764">
        <ele>226</ele>
        <time>2019-08-08T10:39:56.716Z</time>
      </trkpt>
      <trkpt lat="44.46385" lon="1.67754">
        <ele>229</ele>
        <time>2019-08-08T10:40:01.747Z</time>
      </trkpt>
      <trkpt lat="44.46387" lon="1.67747">
        <ele>229</ele>
        <time>2019-08-08T10:40:06.742Z</time>
      </trkpt>
      <trkpt lat="44.4639" lon="1.67743">
        <ele>229</ele>
        <time>2019-08-08T10:40:11.729Z</time>
      </trkpt>
      <trkpt lat="44.46394" lon="1.67738">
        <ele>229</ele>
        <time>2019-08-08T10:40:16.714Z</time>
      </trkpt>
      <trkpt lat="44.464" lon="1.67731">
        <ele>228</ele>
        <time>2019-08-08T10:40:21.711Z</time>
      </trkpt>
      <trkpt lat="44.46403" lon="1.67724">
        <ele>216</ele>
        <time>2019-08-08T10:40:26.729Z</time>
      </trkpt>
      <trkpt lat="44.46409" lon="1.67717">
        <ele>216</ele>
        <time>2019-08-08T10:40:31.721Z</time>
      </trkpt>
      <trkpt lat="44.46413" lon="1.67707">
        <ele>218</ele>
        <time>2019-08-08T10:40:36.724Z</time>
      </trkpt>
      <trkpt lat="44.46419" lon="1.67699">
        <ele>218</ele>
        <time>2019-08-08T10:40:41.716Z</time>
      </trkpt>
      <trkpt lat="44.46426" lon="1.67692">
        <ele>218</ele>
        <time>2019-08-08T10:40:46.709Z</time>
      </trkpt>
      <trkpt lat="44.4643" lon="1.67684">
        <ele>218</ele>
        <time>2019-08-08T10:40:51.720Z</time>
      </trkpt>
      <trkpt lat="44.46434" lon="1.67675">
        <ele>213</ele>
        <time>2019-08-08T10:40:56.727Z</time>
      </trkpt>
      <trkpt lat="44.46438" lon="1.67666">
        <ele>213</ele>
        <time>2019-08-08T10:41:01.739Z</time>
      </trkpt>
      <trkpt lat="44.46439" lon="1.67656">
        <ele>213</ele>
        <time>2019-08-08T10:41:05.767Z</time>
      </trkpt>
      <trkpt lat="44.46439" lon="1.67647">
        <ele>215</ele>
        <time>2019-08-08T10:41:10.716Z</time>
      </trkpt>
      <trkpt lat="44.46438" lon="1.67639">
        <ele>215</ele>
        <time>2019-08-08T10:41:14.726Z</time>
      </trkpt>
      <trkpt lat="44.46436" lon="1.67634">
        <ele>215</ele>
        <time>2019-08-08T10:41:18.752Z</time>
      </trkpt>
      <trkpt lat="44.46436" lon="1.67625">
        <ele>215</ele>
        <time>2019-08-08T10:41:23.749Z</time>
      </trkpt>
      <trkpt lat="44.46436" lon="1.67616">
        <ele>216</ele>
        <time>2019-08-08T10:41:28.739Z</time>
      </trkpt>
      <trkpt lat="44.46438" lon="1.67606">
        <ele>216</ele>
        <time>2019-08-08T10:41:33.711Z</time>
      </trkpt>
      <trkpt lat="44.46441" lon="1.67598">
        <ele>216</ele>
        <time>2019-08-08T10:41:38.701Z</time>
      </trkpt>
      <trkpt lat="44.46445" lon="1.67592">
        <ele>214</ele>
        <time>2019-08-08T10:41:42.720Z</time>
      </trkpt>
      <trkpt lat="44.46444" lon="1.67586">
        <ele>214</ele>
        <time>2019-08-08T10:41:46.733Z</time>
      </trkpt>
      <trkpt lat="44.46447" lon="1.6757">
        <ele>214</ele>
        <time>2019-08-08T10:41:51.746Z</time>
      </trkpt>
      <trkpt lat="44.46449" lon="1.67564">
        <ele>212</ele>
        <time>2019-08-08T10:41:56.732Z</time>
      </trkpt>
      <trkpt lat="44.46447" lon="1.67554">
        <ele>212</ele>
        <time>2019-08-08T10:42:01.709Z</time>
      </trkpt>
      <trkpt lat="44.46446" lon="1.67545">
        <ele>212</ele>
        <time>2019-08-08T10:42:05.738Z</time>
      </trkpt>
      <trkpt lat="44.46445" lon="1.67535">
        <ele>212</ele>
        <time>2019-08-08T10:42:10.720Z</time>
      </trkpt>
      <trkpt lat="44.46444" lon="1.67529">
        <ele>212</ele>
        <time>2019-08-08T10:42:14.749Z</time>
      </trkpt>
      <trkpt lat="44.46443" lon="1.67525">
        <ele>212</ele>
        <time>2019-08-08T10:42:19.721Z</time>
      </trkpt>
      <trkpt lat="44.46442" lon="1.67521">
        <ele>212</ele>
        <time>2019-08-08T10:42:24.721Z</time>
      </trkpt>
      <trkpt lat="44.46445" lon="1.6751">
        <ele>212</ele>
        <time>2019-08-08T10:42:29.709Z</time>
      </trkpt>
      <trkpt lat="44.46446" lon="1.67501">
        <ele>212</ele>
        <time>2019-08-08T10:42:33.749Z</time>
      </trkpt>
      <trkpt lat="44.4645" lon="1.67494">
        <ele>212</ele>
        <time>2019-08-08T10:42:38.715Z</time>
      </trkpt>
      <trkpt lat="44.46455" lon="1.67486">
        <ele>212</ele>
        <time>2019-08-08T10:42:43.709Z</time>
      </trkpt>
      <trkpt lat="44.4646" lon="1.67477">
        <ele>201</ele>
        <time>2019-08-08T10:42:48.729Z</time>
      </trkpt>
      <trkpt lat="44.46462" lon="1.67465">
        <ele>201</ele>
        <time>2019-08-08T10:42:53.723Z</time>
      </trkpt>
      <trkpt lat="44.46464" lon="1.67456">
        <ele>200</ele>
        <time>2019-08-08T10:42:58.746Z</time>
      </trkpt>
      <trkpt lat="44.46467" lon="1.67447">
        <ele>200</ele>
        <time>2019-08-08T10:43:03.729Z</time>
      </trkpt>
      <trkpt lat="44.4647" lon="1.67435">
        <ele>200</ele>
        <time>2019-08-08T10:43:08.737Z</time>
      </trkpt>
      <trkpt lat="44.46471" lon="1.67424">
        <ele>198</ele>
        <time>2019-08-08T10:43:13.728Z</time>
      </trkpt>
      <trkpt lat="44.46472" lon="1.67417">
        <ele>198</ele>
        <time>2019-08-08T10:43:18.722Z</time>
      </trkpt>
      <trkpt lat="44.46473" lon="1.67414">
        <ele>198</ele>
        <time>2019-08-08T10:43:23.714Z</time>
      </trkpt>
      <trkpt lat="44.46473" lon="1.67403">
        <ele>196</ele>
        <time>2019-08-08T10:43:28.710Z</time>
      </trkpt>
      <trkpt lat="44.46473" lon="1.67392">
        <ele>196</ele>
        <time>2019-08-08T10:43:32.737Z</time>
      </trkpt>
      <trkpt lat="44.46475" lon="1.67383">
        <ele>196</ele>
        <time>2019-08-08T10:43:37.717Z</time>
      </trkpt>
      <trkpt lat="44.46475" lon="1.67374">
        <ele>194</ele>
        <time>2019-08-08T10:43:42.715Z</time>
      </trkpt>
      <trkpt lat="44.46476" lon="1.67362">
        <ele>194</ele>
        <time>2019-08-08T10:43:47.707Z</time>
      </trkpt>
      <trkpt lat="44.46476" lon="1.67356">
        <ele>194</ele>
        <time>2019-08-08T10:43:51.738Z</time>
      </trkpt>
      <trkpt lat="44.46477" lon="1.67346">
        <ele>192</ele>
        <time>2019-08-08T10:43:56.739Z</time>
      </trkpt>
      <trkpt lat="44.46476" lon="1.67343">
        <ele>192</ele>
        <time>2019-08-08T10:44:01.740Z</time>
      </trkpt>
      <trkpt lat="44.46474" lon="1.6734">
        <ele>192</ele>
        <time>2019-08-08T10:44:06.737Z</time>
      </trkpt>
      <trkpt lat="44.46471" lon="1.67333">
        <ele>192</ele>
        <time>2019-08-08T10:44:11.712Z</time>
      </trkpt>
      <trkpt lat="44.46471" lon="1.67333">
        <ele>192</ele>
        <time>2019-08-08T10:44:15.736Z</time>
      </trkpt>
      <trkpt lat="44.46473" lon="1.67342">
        <ele>192</ele>
        <time>2019-08-08T10:44:20.731Z</time>
      </trkpt>
      <trkpt lat="44.46476" lon="1.67352">
        <ele>194</ele>
        <time>2019-08-08T10:44:25.735Z</time>
      </trkpt>
      <trkpt lat="44.46478" lon="1.67366">
        <ele>194</ele>
        <time>2019-08-08T10:45:13.719Z</time>
      </trkpt>
      <trkpt lat="44.46478" lon="1.67366">
        <ele>194</ele>
        <time>2019-08-08T10:45:18.705Z</time>
      </trkpt>
      <trkpt lat="44.46478" lon="1.67367">
        <ele>194</ele>
        <time>2019-08-08T10:45:22.728Z</time>
      </trkpt>
      <trkpt lat="44.46479" lon="1.67371">
        <ele>194</ele>
        <time>2019-08-08T10:45:27.714Z</time>
      </trkpt>
      <trkpt lat="44.46482" lon="1.67378">
        <ele>196</ele>
        <time>2019-08-08T10:45:32.713Z</time>
      </trkpt>
      <trkpt lat="44.46481" lon="1.67384">
        <ele>196</ele>
        <time>2019-08-08T10:45:37.721Z</time>
      </trkpt>
      <trkpt lat="44.46481" lon="1.67391">
        <ele>196</ele>
        <time>2019-08-08T10:45:42.743Z</time>
      </trkpt>
      <trkpt lat="44.46482" lon="1.67402">
        <ele>196</ele>
        <time>2019-08-08T10:45:47.719Z</time>
      </trkpt>
      <trkpt lat="44.46483" lon="1.67413">
        <ele>198</ele>
        <time>2019-08-08T10:45:51.747Z</time>
      </trkpt>
      <trkpt lat="44.46485" lon="1.67423">
        <ele>198</ele>
        <time>2019-08-08T10:45:56.708Z</time>
      </trkpt>
      <trkpt lat="44.46486" lon="1.67429">
        <ele>198</ele>
        <time>2019-08-08T10:46:00.730Z</time>
      </trkpt>
      <trkpt lat="44.46487" lon="1.67438">
        <ele>191</ele>
        <time>2019-08-08T10:46:05.728Z</time>
      </trkpt>
      <trkpt lat="44.46488" lon="1.67447">
        <ele>191</ele>
        <time>2019-08-08T10:46:10.724Z</time>
      </trkpt>
      <trkpt lat="44.46489" lon="1.67455">
        <ele>191</ele>
        <time>2019-08-08T10:46:15.716Z</time>
      </trkpt>
      <trkpt lat="44.46491" lon="1.67465">
        <ele>191</ele>
        <time>2019-08-08T10:46:20.744Z</time>
      </trkpt>
      <trkpt lat="44.46492" lon="1.67471">
        <ele>191</ele>
        <time>2019-08-08T10:46:25.729Z</time>
      </trkpt>
      <trkpt lat="44.46492" lon="1.6748">
        <ele>191</ele>
        <time>2019-08-08T10:46:30.742Z</time>
      </trkpt>
      <trkpt lat="44.46493" lon="1.67488">
        <ele>192</ele>
        <time>2019-08-08T10:46:35.719Z</time>
      </trkpt>
      <trkpt lat="44.46494" lon="1.67498">
        <ele>192</ele>
        <time>2019-08-08T10:46:40.737Z</time>
      </trkpt>
      <trkpt lat="44.46495" lon="1.67508">
        <ele>192</ele>
        <time>2019-08-08T10:46:45.736Z</time>
      </trkpt>
      <trkpt lat="44.46496" lon="1.6752">
        <ele>191</ele>
        <time>2019-08-08T10:46:50.711Z</time>
      </trkpt>
      <trkpt lat="44.46499" lon="1.67529">
        <ele>191</ele>
        <time>2019-08-08T10:46:55.711Z</time>
      </trkpt>
      <trkpt lat="44.46501" lon="1.67539">
        <ele>191</ele>
        <time>2019-08-08T10:47:00.743Z</time>
      </trkpt>
      <trkpt lat="44.46504" lon="1.67547">
        <ele>194</ele>
        <time>2019-08-08T10:47:05.748Z</time>
      </trkpt>
      <trkpt lat="44.46506" lon="1.67554">
        <ele>194</ele>
        <time>2019-08-08T10:47:10.718Z</time>
      </trkpt>
      <trkpt lat="44.46508" lon="1.67562">
        <ele>194</ele>
        <time>2019-08-08T10:47:15.707Z</time>
      </trkpt>
      <trkpt lat="44.46511" lon="1.67567">
        <ele>194</ele>
        <time>2019-08-08T10:47:20.714Z</time>
      </trkpt>
      <trkpt lat="44.46516" lon="1.67574">
        <ele>187</ele>
        <time>2019-08-08T10:47:25.711Z</time>
      </trkpt>
      <trkpt lat="44.46519" lon="1.67581">
        <ele>187</ele>
        <time>2019-08-08T10:47:29.741Z</time>
      </trkpt>
      <trkpt lat="44.46523" lon="1.6759">
        <ele>187</ele>
        <time>2019-08-08T10:47:34.720Z</time>
      </trkpt>
      <trkpt lat="44.46526" lon="1.676">
        <ele>186</ele>
        <time>2019-08-08T10:47:39.702Z</time>
      </trkpt>
      <trkpt lat="44.46528" lon="1.6761">
        <ele>186</ele>
        <time>2019-08-08T10:47:43.721Z</time>
      </trkpt>
      <trkpt lat="44.4653" lon="1.6762">
        <ele>186</ele>
        <time>2019-08-08T10:47:48.706Z</time>
      </trkpt>
      <trkpt lat="44.46531" lon="1.67628">
        <ele>184</ele>
        <time>2019-08-08T10:47:52.726Z</time>
      </trkpt>
      <trkpt lat="44.46532" lon="1.67636">
        <ele>184</ele>
        <time>2019-08-08T10:47:57.724Z</time>
      </trkpt>
      <trkpt lat="44.46533" lon="1.67644">
        <ele>184</ele>
        <time>2019-08-08T10:48:02.700Z</time>
      </trkpt>
      <trkpt lat="44.46534" lon="1.6765">
        <ele>184</ele>
        <time>2019-08-08T10:48:06.719Z</time>
      </trkpt>
      <trkpt lat="44.46537" lon="1.67657">
        <ele>185</ele>
        <time>2019-08-08T10:48:10.746Z</time>
      </trkpt>
      <trkpt lat="44.4654" lon="1.67666">
        <ele>185</ele>
        <time>2019-08-08T10:48:15.701Z</time>
      </trkpt>
      <trkpt lat="44.46542" lon="1.67675">
        <ele>178</ele>
        <time>2019-08-08T10:48:20.682Z</time>
      </trkpt>
      <trkpt lat="44.46545" lon="1.67681">
        <ele>180</ele>
        <time>2019-08-08T10:48:24.724Z</time>
      </trkpt>
      <trkpt lat="44.46548" lon="1.67689">
        <ele>180</ele>
        <time>2019-08-08T10:48:29.712Z</time>
      </trkpt>
      <trkpt lat="44.4655" lon="1.67696">
        <ele>180</ele>
        <time>2019-08-08T10:48:33.744Z</time>
      </trkpt>
      <trkpt lat="44.46551" lon="1.67705">
        <ele>180</ele>
        <time>2019-08-08T10:48:38.737Z</time>
      </trkpt>
      <trkpt lat="44.46554" lon="1.67712">
        <ele>179</ele>
        <time>2019-08-08T10:48:43.705Z</time>
      </trkpt>
      <trkpt lat="44.46557" lon="1.6772">
        <ele>179</ele>
        <time>2019-08-08T10:48:48.712Z</time>
      </trkpt>
      <trkpt lat="44.4656" lon="1.67727">
        <ele>179</ele>
        <time>2019-08-08T10:48:53.713Z</time>
      </trkpt>
      <trkpt lat="44.46562" lon="1.67734">
        <ele>179</ele>
        <time>2019-08-08T10:48:58.716Z</time>
      </trkpt>
      <trkpt lat="44.46566" lon="1.67741">
        <ele>176</ele>
        <time>2019-08-08T10:49:03.720Z</time>
      </trkpt>
      <trkpt lat="44.46568" lon="1.67745">
        <ele>176</ele>
        <time>2019-08-08T10:49:07.749Z</time>
      </trkpt>
      <trkpt lat="44.46568" lon="1.67747">
        <ele>176</ele>
        <time>2019-08-08T10:49:12.711Z</time>
      </trkpt>
      <trkpt lat="44.4657" lon="1.67747">
        <ele>171</ele>
        <time>2019-08-08T10:49:17.729Z</time>
      </trkpt>
      <trkpt lat="44.46573" lon="1.67745">
        <ele>171</ele>
        <time>2019-08-08T10:49:22.743Z</time>
      </trkpt>
      <trkpt lat="44.46583" lon="1.6774">
        <ele>171</ele>
        <time>2019-08-08T10:49:27.716Z</time>
      </trkpt>
      <trkpt lat="44.46594" lon="1.6773">
        <ele>173</ele>
        <time>2019-08-08T10:49:32.706Z</time>
      </trkpt>
      <trkpt lat="44.46601" lon="1.67725">
        <ele>168</ele>
        <time>2019-08-08T10:49:36.730Z</time>
      </trkpt>
      <trkpt lat="44.46608" lon="1.67714">
        <ele>168</ele>
        <time>2019-08-08T10:49:41.756Z</time>
      </trkpt>
      <trkpt lat="44.46613" lon="1.6771">
        <ele>168</ele>
        <time>2019-08-08T10:49:46.734Z</time>
      </trkpt>
      <trkpt lat="44.4662" lon="1.67702">
        <ele>169</ele>
        <time>2019-08-08T10:49:51.709Z</time>
      </trkpt>
      <trkpt lat="44.46624" lon="1.67694">
        <ele>169</ele>
        <time>2019-08-08T10:49:55.743Z</time>
      </trkpt>
      <trkpt lat="44.46629" lon="1.67684">
        <ele>164</ele>
        <time>2019-08-08T10:50:00.707Z</time>
      </trkpt>
      <trkpt lat="44.46631" lon="1.67678">
        <ele>164</ele>
        <time>2019-08-08T10:50:04.738Z</time>
      </trkpt>
      <trkpt lat="44.46636" lon="1.67678">
        <ele>164</ele>
        <time>2019-08-08T10:50:09.705Z</time>
      </trkpt>
      <trkpt lat="44.46643" lon="1.67684">
        <ele>164</ele>
        <time>2019-08-08T10:50:14.714Z</time>
      </trkpt>
      <trkpt lat="44.46647" lon="1.67689">
        <ele>164</ele>
        <time>2019-08-08T10:50:18.739Z</time>
      </trkpt>
      <trkpt lat="44.46653" lon="1.67696">
        <ele>160</ele>
        <time>2019-08-08T10:50:23.714Z</time>
      </trkpt>
      <trkpt lat="44.46657" lon="1.67705">
        <ele>160</ele>
        <time>2019-08-08T10:50:27.749Z</time>
      </trkpt>
      <trkpt lat="44.46661" lon="1.67713">
        <ele>160</ele>
        <time>2019-08-08T10:50:32.706Z</time>
      </trkpt>
      <trkpt lat="44.46665" lon="1.6772">
        <ele>160</ele>
        <time>2019-08-08T10:50:36.730Z</time>
      </trkpt>
      <trkpt lat="44.46668" lon="1.67725">
        <ele>160</ele>
        <time>2019-08-08T10:50:41.716Z</time>
      </trkpt>
      <trkpt lat="44.4667" lon="1.6773">
        <ele>160</ele>
        <time>2019-08-08T10:50:46.700Z</time>
      </trkpt>
      <trkpt lat="44.46671" lon="1.67734">
        <ele>160</ele>
        <time>2019-08-08T10:50:50.731Z</time>
      </trkpt>
      <trkpt lat="44.46674" lon="1.6774">
        <ele>160</ele>
        <time>2019-08-08T10:50:55.716Z</time>
      </trkpt>
      <trkpt lat="44.46675" lon="1.67744">
        <ele>160</ele>
        <time>2019-08-08T10:51:00.735Z</time>
      </trkpt>
      <trkpt lat="44.46678" lon="1.67752">
        <ele>160</ele>
        <time>2019-08-08T10:53:02.709Z</time>
      </trkpt>
      <trkpt lat="44.46678" lon="1.67752">
        <ele>160</ele>
        <time>2019-08-08T10:53:06.748Z</time>
      </trkpt>
      <trkpt lat="44.46678" lon="1.67752">
        <ele>160</ele>
        <time>2019-08-08T10:53:11.712Z</time>
      </trkpt>
      <trkpt lat="44.46678" lon="1.67753">
        <ele>160</ele>
        <time>2019-08-08T10:53:15.744Z</time>
      </trkpt>
      <trkpt lat="44.4668" lon="1.67755">
        <ele>160</ele>
        <time>2019-08-08T10:53:20.712Z</time>
      </trkpt>
      <trkpt lat="44.46681" lon="1.67756">
        <ele>153</ele>
        <time>2019-08-08T10:53:25.708Z</time>
      </trkpt>
      <trkpt lat="44.46681" lon="1.67756">
        <ele>153</ele>
        <time>2019-08-08T10:53:30.723Z</time>
      </trkpt>
      <trkpt lat="44.46686" lon="1.67747">
        <ele>153</ele>
        <time>2019-08-08T10:53:35.725Z</time>
      </trkpt>
      <trkpt lat="44.46687" lon="1.67747">
        <ele>153</ele>
        <time>2019-08-08T10:53:40.720Z</time>
      </trkpt>
      <trkpt lat="44.46687" lon="1.67747">
        <ele>153</ele>
        <time>2019-08-08T10:53:45.700Z</time>
      </trkpt>
      <trkpt lat="44.46689" lon="1.67746">
        <ele>153</ele>
        <time>2019-08-08T10:56:50.706Z</time>
      </trkpt>
      <trkpt lat="44.4669" lon="1.67746">
        <ele>153</ele>
        <time>2019-08-08T10:56:55.740Z</time>
      </trkpt>
      <trkpt lat="44.4669" lon="1.6775">
        <ele>153</ele>
        <time>2019-08-08T10:57:00.721Z</time>
      </trkpt>
      <trkpt lat="44.4669" lon="1.67758">
        <ele>153</ele>
        <time>2019-08-08T10:57:05.758Z</time>
      </trkpt>
      <trkpt lat="44.46692" lon="1.67764">
        <ele>155</ele>
        <time>2019-08-08T10:57:10.720Z</time>
      </trkpt>
      <trkpt lat="44.46693" lon="1.67769">
        <ele>155</ele>
        <time>2019-08-08T10:57:15.739Z</time>
      </trkpt>
      <trkpt lat="44.46695" lon="1.67775">
        <ele>155</ele>
        <time>2019-08-08T10:57:20.764Z</time>
      </trkpt>
      <trkpt lat="44.46696" lon="1.67783">
        <ele>155</ele>
        <time>2019-08-08T10:57:25.726Z</time>
      </trkpt>
      <trkpt lat="44.46699" lon="1.67791">
        <ele>155</ele>
        <time>2019-08-08T10:57:30.719Z</time>
      </trkpt>
      <trkpt lat="44.46699" lon="1.67797">
        <ele>155</ele>
        <time>2019-08-08T10:57:39.736Z</time>
      </trkpt>
      <trkpt lat="44.467" lon="1.67797">
        <ele>155</ele>
        <time>2019-08-08T10:57:44.729Z</time>
      </trkpt>
      <trkpt lat="44.467" lon="1.67798">
        <ele>155</ele>
        <time>2019-08-08T10:57:48.745Z</time>
      </trkpt>
      <trkpt lat="44.46702" lon="1.67806">
        <ele>155</ele>
        <time>2019-08-08T10:57:53.716Z</time>
      </trkpt>
      <trkpt lat="44.46703" lon="1.67811">
        <ele>155</ele>
        <time>2019-08-08T10:57:57.755Z</time>
      </trkpt>
      <trkpt lat="44.46706" lon="1.67817">
        <ele>155</ele>
        <time>2019-08-08T10:58:07.710Z</time>
      </trkpt>
      <trkpt lat="44.46708" lon="1.67819">
        <ele>155</ele>
        <time>2019-08-08T10:58:12.730Z</time>
      </trkpt>
      <trkpt lat="44.46709" lon="1.67817">
        <ele>147</ele>
        <time>2019-08-08T10:58:17.701Z</time>
      </trkpt>
      <trkpt lat="44.46709" lon="1.67817">
        <ele>147</ele>
        <time>2019-08-08T10:58:21.726Z</time>
      </trkpt>
      <trkpt lat="44.46711" lon="1.67819">
        <ele>147</ele>
        <time>2019-08-08T10:58:26.717Z</time>
      </trkpt>
      <trkpt lat="44.46712" lon="1.67818">
        <ele>147</ele>
        <time>2019-08-08T10:58:36.715Z</time>
      </trkpt>
      <trkpt lat="44.46713" lon="1.67816">
        <ele>147</ele>
        <time>2019-08-08T10:58:41.703Z</time>
      </trkpt>
      <trkpt lat="44.46714" lon="1.67815">
        <ele>147</ele>
        <time>2019-08-08T10:58:45.727Z</time>
      </trkpt>
      <trkpt lat="44.46717" lon="1.6781">
        <ele>147</ele>
        <time>2019-08-08T10:58:50.710Z</time>
      </trkpt>
      <trkpt lat="44.46718" lon="1.67807">
        <ele>147</ele>
        <time>2019-08-08T10:58:55.732Z</time>
      </trkpt>
      <trkpt lat="44.46719" lon="1.67806">
        <ele>147</ele>
        <time>2019-08-08T10:59:00.723Z</time>
      </trkpt>
      <trkpt lat="44.46721" lon="1.67804">
        <ele>147</ele>
        <time>2019-08-08T10:59:05.711Z</time>
      </trkpt>
      <trkpt lat="44.46723" lon="1.67798">
        <ele>147</ele>
        <time>2019-08-08T10:59:10.707Z</time>
      </trkpt>
      <trkpt lat="44.46723" lon="1.67795">
        <ele>147</ele>
        <time>2019-08-08T10:59:14.731Z</time>
      </trkpt>
      <trkpt lat="44.46723" lon="1.67791">
        <ele>145</ele>
        <time>2019-08-08T10:59:18.747Z</time>
      </trkpt>
      <trkpt lat="44.46722" lon="1.67784">
        <ele>145</ele>
        <time>2019-08-08T10:59:23.716Z</time>
      </trkpt>
      <trkpt lat="44.46721" lon="1.67773">
        <ele>145</ele>
        <time>2019-08-08T10:59:28.727Z</time>
      </trkpt>
      <trkpt lat="44.46721" lon="1.67769">
        <ele>145</ele>
        <time>2019-08-08T10:59:33.707Z</time>
      </trkpt>
      <trkpt lat="44.46719" lon="1.67764">
        <ele>144</ele>
        <time>2019-08-08T10:59:38.723Z</time>
      </trkpt>
      <trkpt lat="44.46718" lon="1.67757">
        <ele>144</ele>
        <time>2019-08-08T10:59:43.718Z</time>
      </trkpt>
      <trkpt lat="44.46715" lon="1.67746">
        <ele>144</ele>
        <time>2019-08-08T10:59:48.709Z</time>
      </trkpt>
      <trkpt lat="44.46713" lon="1.67738">
        <ele>144</ele>
        <time>2019-08-08T10:59:52.738Z</time>
      </trkpt>
      <trkpt lat="44.4671" lon="1.67728">
        <ele>144</ele>
        <time>2019-08-08T10:59:57.703Z</time>
      </trkpt>
      <trkpt lat="44.46708" lon="1.6772">
        <ele>154</ele>
        <time>2019-08-08T11:00:02.703Z</time>
      </trkpt>
      <trkpt lat="44.46705" lon="1.67712">
        <ele>154</ele>
        <time>2019-08-08T11:00:07.713Z</time>
      </trkpt>
      <trkpt lat="44.46702" lon="1.67702">
        <ele>154</ele>
        <time>2019-08-08T11:00:12.704Z</time>
      </trkpt>
      <trkpt lat="44.46702" lon="1.67697">
        <ele>154</ele>
        <time>2019-08-08T11:00:16.746Z</time>
      </trkpt>
      <trkpt lat="44.467" lon="1.67688">
        <ele>154</ele>
        <time>2019-08-08T11:00:21.700Z</time>
      </trkpt>
      <trkpt lat="44.46699" lon="1.67683">
        <ele>154</ele>
        <time>2019-08-08T11:00:25.712Z</time>
      </trkpt>
      <trkpt lat="44.46699" lon="1.67675">
        <ele>153</ele>
        <time>2019-08-08T11:00:30.743Z</time>
      </trkpt>
      <trkpt lat="44.46699" lon="1.67667">
        <ele>153</ele>
        <time>2019-08-08T11:00:35.742Z</time>
      </trkpt>
      <trkpt lat="44.46699" lon="1.67654">
        <ele>153</ele>
        <time>2019-08-08T11:00:40.715Z</time>
      </trkpt>
      <trkpt lat="44.46698" lon="1.67645">
        <ele>150</ele>
        <time>2019-08-08T11:00:44.748Z</time>
      </trkpt>
      <trkpt lat="44.46696" lon="1.67639">
        <ele>150</ele>
        <time>2019-08-08T11:00:49.710Z</time>
      </trkpt>
      <trkpt lat="44.46695" lon="1.67635">
        <ele>150</ele>
        <time>2019-08-08T11:00:53.728Z</time>
      </trkpt>
      <trkpt lat="44.46694" lon="1.67629">
        <ele>150</ele>
        <time>2019-08-08T11:00:58.698Z</time>
      </trkpt>
      <trkpt lat="44.46693" lon="1.6762">
        <ele>149</ele>
        <time>2019-08-08T11:01:03.699Z</time>
      </trkpt>
      <trkpt lat="44.46692" lon="1.67613">
        <ele>149</ele>
        <time>2019-08-08T11:01:07.714Z</time>
      </trkpt>
      <trkpt lat="44.46691" lon="1.67601">
        <ele>149</ele>
        <time>2019-08-08T11:01:12.718Z</time>
      </trkpt>
      <trkpt lat="44.46689" lon="1.67597">
        <ele>148</ele>
        <time>2019-08-08T11:01:17.707Z</time>
      </trkpt>
      <trkpt lat="44.46689" lon="1.67596">
        <ele>148</ele>
        <time>2019-08-08T11:01:22.702Z</time>
      </trkpt>
      <trkpt lat="44.46689" lon="1.67595">
        <ele>148</ele>
        <time>2019-08-08T11:01:26.727Z</time>
      </trkpt>
      <trkpt lat="44.46687" lon="1.67589">
        <ele>148</ele>
        <time>2019-08-08T11:01:31.720Z</time>
      </trkpt>
      <trkpt lat="44.46683" lon="1.67581">
        <ele>148</ele>
        <time>2019-08-08T11:01:36.698Z</time>
      </trkpt>
      <trkpt lat="44.4668" lon="1.67574">
        <ele>152</ele>
        <time>2019-08-08T11:01:41.723Z</time>
      </trkpt>
      <trkpt lat="44.46677" lon="1.67566">
        <ele>147</ele>
        <time>2019-08-08T11:01:46.690Z</time>
      </trkpt>
      <trkpt lat="44.46674" lon="1.67552">
        <ele>147</ele>
        <time>2019-08-08T11:01:51.730Z</time>
      </trkpt>
      <trkpt lat="44.4667" lon="1.67544">
        <ele>147</ele>
        <time>2019-08-08T11:01:56.705Z</time>
      </trkpt>
      <trkpt lat="44.46666" lon="1.67537">
        <ele>142</ele>
        <time>2019-08-08T11:02:01.702Z</time>
      </trkpt>
      <trkpt lat="44.46662" lon="1.67533">
        <ele>142</ele>
        <time>2019-08-08T11:02:06.712Z</time>
      </trkpt>
      <trkpt lat="44.46659" lon="1.67529">
        <ele>142</ele>
        <time>2019-08-08T11:02:11.713Z</time>
      </trkpt>
      <trkpt lat="44.46658" lon="1.67525">
        <ele>142</ele>
        <time>2019-08-08T11:02:16.703Z</time>
      </trkpt>
      <trkpt lat="44.46655" lon="1.67521">
        <ele>142</ele>
        <time>2019-08-08T11:02:21.724Z</time>
      </trkpt>
      <trkpt lat="44.46653" lon="1.67514">
        <ele>149</ele>
        <time>2019-08-08T11:02:26.684Z</time>
      </trkpt>
      <trkpt lat="44.4665" lon="1.67502">
        <ele>147</ele>
        <time>2019-08-08T11:02:31.714Z</time>
      </trkpt>
      <trkpt lat="44.46645" lon="1.67489">
        <ele>147</ele>
        <time>2019-08-08T11:02:36.712Z</time>
      </trkpt>
      <trkpt lat="44.46644" lon="1.67476">
        <ele>142</ele>
        <time>2019-08-08T11:02:41.706Z</time>
      </trkpt>
      <trkpt lat="44.46644" lon="1.67466">
        <ele>142</ele>
        <time>2019-08-08T11:02:46.707Z</time>
      </trkpt>
      <trkpt lat="44.46644" lon="1.6746">
        <ele>142</ele>
        <time>2019-08-08T11:02:51.741Z</time>
      </trkpt>
      <trkpt lat="44.46642" lon="1.67451">
        <ele>139</ele>
        <time>2019-08-08T11:02:56.730Z</time>
      </trkpt>
      <trkpt lat="44.46639" lon="1.67432">
        <ele>139</ele>
        <time>2019-08-08T11:03:01.701Z</time>
      </trkpt>
      <trkpt lat="44.46637" lon="1.67428">
        <ele>136</ele>
        <time>2019-08-08T11:03:05.718Z</time>
      </trkpt>
      <trkpt lat="44.46634" lon="1.67421">
        <ele>136</ele>
        <time>2019-08-08T11:03:10.710Z</time>
      </trkpt>
      <trkpt lat="44.4663" lon="1.67416">
        <ele>136</ele>
        <time>2019-08-08T11:03:15.706Z</time>
      </trkpt>
      <trkpt lat="44.46627" lon="1.67409">
        <ele>136</ele>
        <time>2019-08-08T11:03:20.713Z</time>
      </trkpt>
      <trkpt lat="44.46626" lon="1.67401">
        <ele>133</ele>
        <time>2019-08-08T11:03:25.729Z</time>
      </trkpt>
      <trkpt lat="44.46624" lon="1.67392">
        <ele>140</ele>
        <time>2019-08-08T11:03:30.700Z</time>
      </trkpt>
      <trkpt lat="44.4662" lon="1.67384">
        <ele>140</ele>
        <time>2019-08-08T11:03:35.732Z</time>
      </trkpt>
      <trkpt lat="44.46616" lon="1.67376">
        <ele>140</ele>
        <time>2019-08-08T11:03:40.746Z</time>
      </trkpt>
      <trkpt lat="44.4661" lon="1.67368">
        <ele>136</ele>
        <time>2019-08-08T11:03:45.710Z</time>
      </trkpt>
      <trkpt lat="44.46608" lon="1.6737">
        <ele>136</ele>
        <time>2019-08-08T11:03:50.704Z</time>
      </trkpt>
      <trkpt lat="44.46609" lon="1.67371">
        <ele>136</ele>
        <time>2019-08-08T11:03:54.731Z</time>
      </trkpt>
      <trkpt lat="44.46609" lon="1.67366">
        <ele>136</ele>
        <time>2019-08-08T11:03:59.730Z</time>
      </trkpt>
      <trkpt lat="44.46606" lon="1.67355">
        <ele>136</ele>
        <time>2019-08-08T11:04:04.700Z</time>
      </trkpt>
      <trkpt lat="44.46604" lon="1.67348">
        <ele>136</ele>
        <time>2019-08-08T11:04:09.704Z</time>
      </trkpt>
      <trkpt lat="44.466" lon="1.67337">
        <ele>133</ele>
        <time>2019-08-08T11:04:14.721Z</time>
      </trkpt>
      <trkpt lat="44.46598" lon="1.67326">
        <ele>133</ele>
        <time>2019-08-08T11:04:19.705Z</time>
      </trkpt>
      <trkpt lat="44.46596" lon="1.67318">
        <ele>144</ele>
        <time>2019-08-08T11:04:24.710Z</time>
      </trkpt>
      <trkpt lat="44.46593" lon="1.67311">
        <ele>144</ele>
        <time>2019-08-08T11:04:29.699Z</time>
      </trkpt>
      <trkpt lat="44.4659" lon="1.67307">
        <ele>144</ele>
        <time>2019-08-08T11:04:34.702Z</time>
      </trkpt>
      <trkpt lat="44.46586" lon="1.67302">
        <ele>144</ele>
        <time>2019-08-08T11:04:39.702Z</time>
      </trkpt>
      <trkpt lat="44.4658" lon="1.67294">
        <ele>144</ele>
        <time>2019-08-08T11:04:44.702Z</time>
      </trkpt>
      <trkpt lat="44.46575" lon="1.67288">
        <ele>139</ele>
        <time>2019-08-08T11:04:49.703Z</time>
      </trkpt>
      <trkpt lat="44.46572" lon="1.67282">
        <ele>139</ele>
        <time>2019-08-08T11:04:54.719Z</time>
      </trkpt>
      <trkpt lat="44.46568" lon="1.67272">
        <ele>150</ele>
        <time>2019-08-08T11:04:59.712Z</time>
      </trkpt>
      <trkpt lat="44.46567" lon="1.67265">
        <ele>150</ele>
        <time>2019-08-08T11:05:04.720Z</time>
      </trkpt>
      <trkpt lat="44.46563" lon="1.67257">
        <ele>145</ele>
        <time>2019-08-08T11:05:09.720Z</time>
      </trkpt>
      <trkpt lat="44.46559" lon="1.67248">
        <ele>145</ele>
        <time>2019-08-08T11:05:14.706Z</time>
      </trkpt>
      <trkpt lat="44.46554" lon="1.67238">
        <ele>145</ele>
        <time>2019-08-08T11:05:19.722Z</time>
      </trkpt>
      <trkpt lat="44.4655" lon="1.67229">
        <ele>141</ele>
        <time>2019-08-08T11:05:24.697Z</time>
      </trkpt>
      <trkpt lat="44.46547" lon="1.67223">
        <ele>141</ele>
        <time>2019-08-08T11:05:28.705Z</time>
      </trkpt>
      <trkpt lat="44.46544" lon="1.67215">
        <ele>141</ele>
        <time>2019-08-08T11:05:33.718Z</time>
      </trkpt>
      <trkpt lat="44.46542" lon="1.67207">
        <ele>150</ele>
        <time>2019-08-08T11:05:38.722Z</time>
      </trkpt>
      <trkpt lat="44.46538" lon="1.67197">
        <ele>150</ele>
        <time>2019-08-08T11:05:43.708Z</time>
      </trkpt>
      <trkpt lat="44.46535" lon="1.67187">
        <ele>150</ele>
        <time>2019-08-08T11:05:48.721Z</time>
      </trkpt>
      <trkpt lat="44.46535" lon="1.67176">
        <ele>148</ele>
        <time>2019-08-08T11:05:53.719Z</time>
      </trkpt>
      <trkpt lat="44.46536" lon="1.67167">
        <ele>148</ele>
        <time>2019-08-08T11:05:58.701Z</time>
      </trkpt>
      <trkpt lat="44.46534" lon="1.67159">
        <ele>148</ele>
        <time>2019-08-08T11:06:03.705Z</time>
      </trkpt>
      <trkpt lat="44.46532" lon="1.67149">
        <ele>148</ele>
        <time>2019-08-08T11:06:08.707Z</time>
      </trkpt>
      <trkpt lat="44.46528" lon="1.67138">
        <ele>148</ele>
        <time>2019-08-08T11:06:12.719Z</time>
      </trkpt>
      <trkpt lat="44.46529" lon="1.67128">
        <ele>148</ele>
        <time>2019-08-08T11:06:17.737Z</time>
      </trkpt>
      <trkpt lat="44.46528" lon="1.67118">
        <ele>153</ele>
        <time>2019-08-08T11:06:22.713Z</time>
      </trkpt>
      <trkpt lat="44.46528" lon="1.67106">
        <ele>153</ele>
        <time>2019-08-08T11:06:26.740Z</time>
      </trkpt>
      <trkpt lat="44.46526" lon="1.67097">
        <ele>153</ele>
        <time>2019-08-08T11:06:31.720Z</time>
      </trkpt>
      <trkpt lat="44.46516" lon="1.6708">
        <ele>167</ele>
        <time>2019-08-08T11:06:36.705Z</time>
      </trkpt>
      <trkpt lat="44.46516" lon="1.67073">
        <ele>167</ele>
        <time>2019-08-08T11:06:40.726Z</time>
      </trkpt>
      <trkpt lat="44.46518" lon="1.67071">
        <ele>167</ele>
        <time>2019-08-08T11:06:44.734Z</time>
      </trkpt>
      <trkpt lat="44.46523" lon="1.67072">
        <ele>167</ele>
        <time>2019-08-08T11:06:49.722Z</time>
      </trkpt>
      <trkpt lat="44.4653" lon="1.67061">
        <ele>186</ele>
        <time>2019-08-08T11:06:54.736Z</time>
      </trkpt>
      <trkpt lat="44.46531" lon="1.67054">
        <ele>186</ele>
        <time>2019-08-08T11:06:59.720Z</time>
      </trkpt>
      <trkpt lat="44.46536" lon="1.67047">
        <ele>186</ele>
        <time>2019-08-08T11:07:04.721Z</time>
      </trkpt>
      <trkpt lat="44.46537" lon="1.67041">
        <ele>197</ele>
        <time>2019-08-08T11:07:08.741Z</time>
      </trkpt>
      <trkpt lat="44.4654" lon="1.67033">
        <ele>197</ele>
        <time>2019-08-08T11:07:13.716Z</time>
      </trkpt>
      <trkpt lat="44.46543" lon="1.67027">
        <ele>163</ele>
        <time>2019-08-08T11:07:18.738Z</time>
      </trkpt>
      <trkpt lat="44.4655" lon="1.67019">
        <ele>163</ele>
        <time>2019-08-08T11:07:23.698Z</time>
      </trkpt>
      <trkpt lat="44.46555" lon="1.67014">
        <ele>163</ele>
        <time>2019-08-08T11:07:27.719Z</time>
      </trkpt>
      <trkpt lat="44.46562" lon="1.67003">
        <ele>166</ele>
        <time>2019-08-08T11:07:32.717Z</time>
      </trkpt>
      <trkpt lat="44.46566" lon="1.66992">
        <ele>166</ele>
        <time>2019-08-08T11:07:37.712Z</time>
      </trkpt>
      <trkpt lat="44.46572" lon="1.66983">
        <ele>137</ele>
        <time>2019-08-08T11:07:41.729Z</time>
      </trkpt>
      <trkpt lat="44.46583" lon="1.66975">
        <ele>137</ele>
        <time>2019-08-08T11:07:46.728Z</time>
      </trkpt>
      <trkpt lat="44.46585" lon="1.6696">
        <ele>137</ele>
        <time>2019-08-08T11:07:51.722Z</time>
      </trkpt>
      <trkpt lat="44.46588" lon="1.66952">
        <ele>135</ele>
        <time>2019-08-08T11:07:56.726Z</time>
      </trkpt>
      <trkpt lat="44.46593" lon="1.66941">
        <ele>135</ele>
        <time>2019-08-08T11:08:01.700Z</time>
      </trkpt>
      <trkpt lat="44.46596" lon="1.66937">
        <ele>135</ele>
        <time>2019-08-08T11:08:05.722Z</time>
      </trkpt>
      <trkpt lat="44.46598" lon="1.6693">
        <ele>133</ele>
        <time>2019-08-08T11:08:10.706Z</time>
      </trkpt>
      <trkpt lat="44.46599" lon="1.6692">
        <ele>133</ele>
        <time>2019-08-08T11:08:14.718Z</time>
      </trkpt>
      <trkpt lat="44.46602" lon="1.66911">
        <ele>133</ele>
        <time>2019-08-08T11:08:19.721Z</time>
      </trkpt>
      <trkpt lat="44.46605" lon="1.66905">
        <ele>133</ele>
        <time>2019-08-08T11:08:24.719Z</time>
      </trkpt>
      <trkpt lat="44.46606" lon="1.66895">
        <ele>139</ele>
        <time>2019-08-08T11:08:28.738Z</time>
      </trkpt>
      <trkpt lat="44.46605" lon="1.66884">
        <ele>139</ele>
        <time>2019-08-08T11:08:33.710Z</time>
      </trkpt>
      <trkpt lat="44.46605" lon="1.66874">
        <ele>145</ele>
        <time>2019-08-08T11:08:38.715Z</time>
      </trkpt>
      <trkpt lat="44.46605" lon="1.66867">
        <ele>145</ele>
        <time>2019-08-08T11:08:43.725Z</time>
      </trkpt>
      <trkpt lat="44.46604" lon="1.66862">
        <ele>145</ele>
        <time>2019-08-08T11:08:48.722Z</time>
      </trkpt>
      <trkpt lat="44.466" lon="1.66854">
        <ele>145</ele>
        <time>2019-08-08T11:08:53.732Z</time>
      </trkpt>
      <trkpt lat="44.46602" lon="1.66847">
        <ele>148</ele>
        <time>2019-08-08T11:08:58.725Z</time>
      </trkpt>
      <trkpt lat="44.46605" lon="1.66842">
        <ele>148</ele>
        <time>2019-08-08T11:09:02.737Z</time>
      </trkpt>
      <trkpt lat="44.46608" lon="1.66833">
        <ele>148</ele>
        <time>2019-08-08T11:09:07.723Z</time>
      </trkpt>
      <trkpt lat="44.46612" lon="1.66821">
        <ele>148</ele>
        <time>2019-08-08T11:09:12.710Z</time>
      </trkpt>
      <trkpt lat="44.46614" lon="1.66813">
        <ele>156</ele>
        <time>2019-08-08T11:09:17.706Z</time>
      </trkpt>
      <trkpt lat="44.46616" lon="1.66807">
        <ele>156</ele>
        <time>2019-08-08T11:09:22.740Z</time>
      </trkpt>
      <trkpt lat="44.46618" lon="1.66796">
        <ele>156</ele>
        <time>2019-08-08T11:09:27.736Z</time>
      </trkpt>
      <trkpt lat="44.46619" lon="1.66785">
        <ele>161</ele>
        <time>2019-08-08T11:09:32.711Z</time>
      </trkpt>
      <trkpt lat="44.46619" lon="1.66778">
        <ele>161</ele>
        <time>2019-08-08T11:09:36.743Z</time>
      </trkpt>
      <trkpt lat="44.46621" lon="1.66771">
        <ele>161</ele>
        <time>2019-08-08T11:09:41.734Z</time>
      </trkpt>
      <trkpt lat="44.46622" lon="1.66767">
        <ele>161</ele>
        <time>2019-08-08T11:09:46.718Z</time>
      </trkpt>
      <trkpt lat="44.46624" lon="1.66764">
        <ele>166</ele>
        <time>2019-08-08T11:09:50.730Z</time>
      </trkpt>
      <trkpt lat="44.4663" lon="1.66755">
        <ele>151</ele>
        <time>2019-08-08T11:09:55.710Z</time>
      </trkpt>
      <trkpt lat="44.46632" lon="1.66751">
        <ele>151</ele>
        <time>2019-08-08T11:09:59.731Z</time>
      </trkpt>
      <trkpt lat="44.4664" lon="1.66743">
        <ele>151</ele>
        <time>2019-08-08T11:10:04.729Z</time>
      </trkpt>
      <trkpt lat="44.46644" lon="1.66738">
        <ele>151</ele>
        <time>2019-08-08T11:10:09.735Z</time>
      </trkpt>
      <trkpt lat="44.46649" lon="1.66733">
        <ele>162</ele>
        <time>2019-08-08T11:10:14.747Z</time>
      </trkpt>
      <trkpt lat="44.46655" lon="1.66722">
        <ele>152</ele>
        <time>2019-08-08T11:10:19.711Z</time>
      </trkpt>
      <trkpt lat="44.46657" lon="1.66715">
        <ele>152</ele>
        <time>2019-08-08T11:10:24.732Z</time>
      </trkpt>
      <trkpt lat="44.46661" lon="1.66708">
        <ele>152</ele>
        <time>2019-08-08T11:10:29.704Z</time>
      </trkpt>
      <trkpt lat="44.46662" lon="1.66704">
        <ele>171</ele>
        <time>2019-08-08T11:10:34.718Z</time>
      </trkpt>
      <trkpt lat="44.46663" lon="1.66698">
        <ele>171</ele>
        <time>2019-08-08T11:10:39.729Z</time>
      </trkpt>
      <trkpt lat="44.46669" lon="1.66691">
        <ele>171</ele>
        <time>2019-08-08T11:10:44.728Z</time>
      </trkpt>
      <trkpt lat="44.46685" lon="1.66675">
        <ele>178</ele>
        <time>2019-08-08T11:10:49.734Z</time>
      </trkpt>
      <trkpt lat="44.46701" lon="1.66668">
        <ele>178</ele>
        <time>2019-08-08T11:10:54.725Z</time>
      </trkpt>
      <trkpt lat="44.46706" lon="1.66663">
        <ele>178</ele>
        <time>2019-08-08T11:10:59.709Z</time>
      </trkpt>
      <trkpt lat="44.46712" lon="1.66656">
        <ele>162</ele>
        <time>2019-08-08T11:11:04.731Z</time>
      </trkpt>
      <trkpt lat="44.46716" lon="1.66651">
        <ele>181</ele>
        <time>2019-08-08T11:11:09.712Z</time>
      </trkpt>
      <trkpt lat="44.4672" lon="1.66645">
        <ele>181</ele>
        <time>2019-08-08T11:11:14.726Z</time>
      </trkpt>
      <trkpt lat="44.46723" lon="1.66635">
        <ele>181</ele>
        <time>2019-08-08T11:11:19.719Z</time>
      </trkpt>
      <trkpt lat="44.46727" lon="1.66625">
        <ele>181</ele>
        <time>2019-08-08T11:11:23.745Z</time>
      </trkpt>
      <trkpt lat="44.46733" lon="1.66614">
        <ele>200</ele>
        <time>2019-08-08T11:11:28.729Z</time>
      </trkpt>
      <trkpt lat="44.46735" lon="1.66608">
        <ele>200</ele>
        <time>2019-08-08T11:11:32.761Z</time>
      </trkpt>
      <trkpt lat="44.46741" lon="1.66606">
        <ele>184</ele>
        <time>2019-08-08T11:11:37.703Z</time>
      </trkpt>
      <trkpt lat="44.46746" lon="1.66601">
        <ele>184</ele>
        <time>2019-08-08T11:11:41.721Z</time>
      </trkpt>
      <trkpt lat="44.46748" lon="1.66601">
        <ele>184</ele>
        <time>2019-08-08T11:11:46.750Z</time>
      </trkpt>
      <trkpt lat="44.46752" lon="1.66596">
        <ele>196</ele>
        <time>2019-08-08T11:11:51.704Z</time>
      </trkpt>
      <trkpt lat="44.46755" lon="1.66595">
        <ele>196</ele>
        <time>2019-08-08T11:11:55.725Z</time>
      </trkpt>
      <trkpt lat="44.4676" lon="1.66591">
        <ele>196</ele>
        <time>2019-08-08T11:12:00.732Z</time>
      </trkpt>
      <trkpt lat="44.46766" lon="1.66588">
        <ele>172</ele>
        <time>2019-08-08T11:12:05.725Z</time>
      </trkpt>
      <trkpt lat="44.46773" lon="1.66582">
        <ele>172</ele>
        <time>2019-08-08T11:12:10.738Z</time>
      </trkpt>
      <trkpt lat="44.46777" lon="1.66577">
        <ele>172</ele>
        <time>2019-08-08T11:12:15.699Z</time>
      </trkpt>
      <trkpt lat="44.46783" lon="1.66575">
        <ele>172</ele>
        <time>2019-08-08T11:12:19.712Z</time>
      </trkpt>
      <trkpt lat="44.46789" lon="1.66569">
        <ele>182</ele>
        <time>2019-08-08T11:12:23.736Z</time>
      </trkpt>
      <trkpt lat="44.46797" lon="1.66559">
        <ele>164</ele>
        <time>2019-08-08T11:12:28.730Z</time>
      </trkpt>
      <trkpt lat="44.46802" lon="1.66552">
        <ele>164</ele>
        <time>2019-08-08T11:12:33.722Z</time>
      </trkpt>
      <trkpt lat="44.46805" lon="1.66546">
        <ele>164</ele>
        <time>2019-08-08T11:12:38.720Z</time>
      </trkpt>
      <trkpt lat="44.46807" lon="1.66542">
        <ele>164</ele>
        <time>2019-08-08T11:12:42.754Z</time>
      </trkpt>
      <trkpt lat="44.46809" lon="1.66537">
        <ele>171</ele>
        <time>2019-08-08T11:12:47.730Z</time>
      </trkpt>
      <trkpt lat="44.46813" lon="1.6653">
        <ele>171</ele>
        <time>2019-08-08T11:12:52.729Z</time>
      </trkpt>
      <trkpt lat="44.46817" lon="1.66518">
        <ele>171</ele>
        <time>2019-08-08T11:12:57.733Z</time>
      </trkpt>
      <trkpt lat="44.46823" lon="1.66509">
        <ele>159</ele>
        <time>2019-08-08T11:13:02.730Z</time>
      </trkpt>
      <trkpt lat="44.46833" lon="1.66501">
        <ele>159</ele>
        <time>2019-08-08T11:13:06.754Z</time>
      </trkpt>
      <trkpt lat="44.46839" lon="1.66488">
        <ele>159</ele>
        <time>2019-08-08T11:13:11.754Z</time>
      </trkpt>
      <trkpt lat="44.46841" lon="1.6648">
        <ele>174</ele>
        <time>2019-08-08T11:13:16.752Z</time>
      </trkpt>
      <trkpt lat="44.46851" lon="1.66467">
        <ele>158</ele>
        <time>2019-08-08T11:13:21.708Z</time>
      </trkpt>
      <trkpt lat="44.46857" lon="1.66459">
        <ele>158</ele>
        <time>2019-08-08T11:13:25.725Z</time>
      </trkpt>
      <trkpt lat="44.46859" lon="1.66456">
        <ele>171</ele>
        <time>2019-08-08T11:13:30.743Z</time>
      </trkpt>
      <trkpt lat="44.4686" lon="1.66456">
        <ele>171</ele>
        <time>2019-08-08T11:13:35.721Z</time>
      </trkpt>
      <trkpt lat="44.46863" lon="1.66452">
        <ele>171</ele>
        <time>2019-08-08T11:13:39.746Z</time>
      </trkpt>
      <trkpt lat="44.46869" lon="1.66447">
        <ele>171</ele>
        <time>2019-08-08T11:13:44.752Z</time>
      </trkpt>
      <trkpt lat="44.46876" lon="1.66443">
        <ele>157</ele>
        <time>2019-08-08T11:13:49.729Z</time>
      </trkpt>
      <trkpt lat="44.46882" lon="1.6644">
        <ele>157</ele>
        <time>2019-08-08T11:13:54.732Z</time>
      </trkpt>
      <trkpt lat="44.46888" lon="1.66433">
        <ele>157</ele>
        <time>2019-08-08T11:13:59.721Z</time>
      </trkpt>
      <trkpt lat="44.46891" lon="1.6642">
        <ele>165</ele>
        <time>2019-08-08T11:14:04.740Z</time>
      </trkpt>
      <trkpt lat="44.46891" lon="1.6641">
        <ele>165</ele>
        <time>2019-08-08T11:14:09.717Z</time>
      </trkpt>
      <trkpt lat="44.469" lon="1.66399">
        <ele>170</ele>
        <time>2019-08-08T11:14:14.750Z</time>
      </trkpt>
      <trkpt lat="44.46899" lon="1.66391">
        <ele>170</ele>
        <time>2019-08-08T11:14:19.741Z</time>
      </trkpt>
      <trkpt lat="44.46901" lon="1.66387">
        <ele>170</ele>
        <time>2019-08-08T11:14:24.755Z</time>
      </trkpt>
      <trkpt lat="44.46906" lon="1.66383">
        <ele>161</ele>
        <time>2019-08-08T11:14:29.718Z</time>
      </trkpt>
      <trkpt lat="44.46909" lon="1.66375">
        <ele>161</ele>
        <time>2019-08-08T11:14:34.749Z</time>
      </trkpt>
      <trkpt lat="44.4691" lon="1.66362">
        <ele>164</ele>
        <time>2019-08-08T11:14:39.741Z</time>
      </trkpt>
      <trkpt lat="44.46914" lon="1.66349">
        <ele>164</ele>
        <time>2019-08-08T11:14:44.719Z</time>
      </trkpt>
      <trkpt lat="44.4692" lon="1.6634">
        <ele>165</ele>
        <time>2019-08-08T11:14:48.734Z</time>
      </trkpt>
      <trkpt lat="44.46925" lon="1.66327">
        <ele>165</ele>
        <time>2019-08-08T11:14:53.719Z</time>
      </trkpt>
      <trkpt lat="44.46932" lon="1.66318">
        <ele>161</ele>
        <time>2019-08-08T11:14:57.752Z</time>
      </trkpt>
      <trkpt lat="44.46942" lon="1.66305">
        <ele>161</ele>
        <time>2019-08-08T11:15:02.710Z</time>
      </trkpt>
      <trkpt lat="44.4695" lon="1.66309">
        <ele>161</ele>
        <time>2019-08-08T11:15:06.725Z</time>
      </trkpt>
      <trkpt lat="44.46958" lon="1.66317">
        <ele>150</ele>
        <time>2019-08-08T11:15:11.703Z</time>
      </trkpt>
      <trkpt lat="44.46965" lon="1.66326">
        <ele>147</ele>
        <time>2019-08-08T11:15:15.751Z</time>
      </trkpt>
      <trkpt lat="44.46969" lon="1.66333">
        <ele>147</ele>
        <time>2019-08-08T11:15:20.730Z</time>
      </trkpt>
      <trkpt lat="44.46978" lon="1.66341">
        <ele>147</ele>
        <time>2019-08-08T11:15:40.712Z</time>
      </trkpt>
      <trkpt lat="44.46978" lon="1.66341">
        <ele>147</ele>
        <time>2019-08-08T11:15:44.748Z</time>
      </trkpt>
      <trkpt lat="44.46979" lon="1.66341">
        <ele>147</ele>
        <time>2019-08-08T11:15:49.725Z</time>
      </trkpt>
      <trkpt lat="44.46979" lon="1.66341">
        <ele>147</ele>
        <time>2019-08-08T11:15:54.735Z</time>
      </trkpt>
      <trkpt lat="44.46981" lon="1.66343">
        <ele>147</ele>
        <time>2019-08-08T11:15:59.724Z</time>
      </trkpt>
      <trkpt lat="44.46993" lon="1.6635">
        <ele>133</ele>
        <time>2019-08-08T11:19:25.711Z</time>
      </trkpt>
      <trkpt lat="44.46993" lon="1.6635">
        <ele>133</ele>
        <time>2019-08-08T11:19:30.716Z</time>
      </trkpt>
      <trkpt lat="44.46993" lon="1.66351">
        <ele>133</ele>
        <time>2019-08-08T11:19:35.701Z</time>
      </trkpt>
      <trkpt lat="44.46993" lon="1.66351">
        <ele>133</ele>
        <time>2019-08-08T11:19:39.736Z</time>
      </trkpt>
      <trkpt lat="44.46993" lon="1.66351">
        <ele>133</ele>
        <time>2019-08-08T11:19:44.727Z</time>
      </trkpt>
      <trkpt lat="44.47" lon="1.6635">
        <ele>133</ele>
        <time>2019-08-08T11:23:15.691Z</time>
      </trkpt>
      <trkpt lat="44.47001" lon="1.6635">
        <ele>133</ele>
        <time>2019-08-08T11:23:19.701Z</time>
      </trkpt>
      <trkpt lat="44.47001" lon="1.6635">
        <ele>133</ele>
        <time>2019-08-08T11:23:24.726Z</time>
      </trkpt>
      <trkpt lat="44.47001" lon="1.6635">
        <ele>133</ele>
        <time>2019-08-08T11:23:29.690Z</time>
      </trkpt>
      <trkpt lat="44.47002" lon="1.6635">
        <ele>133</ele>
        <time>2019-08-08T11:23:33.716Z</time>
      </trkpt>
      <trkpt lat="44.47" lon="1.66341">
        <ele>134</ele>
        <time>2019-08-08T11:49:44.681Z</time>
      </trkpt>
      <trkpt lat="44.47" lon="1.66341">
        <ele>134</ele>
        <time>2019-08-08T11:49:48.700Z</time>
      </trkpt>
      <trkpt lat="44.47001" lon="1.66339">
        <ele>134</ele>
        <time>2019-08-08T11:49:53.692Z</time>
      </trkpt>
      <trkpt lat="44.47001" lon="1.66338">
        <ele>134</ele>
        <time>2019-08-08T11:49:58.698Z</time>
      </trkpt>
      <trkpt lat="44.47001" lon="1.66336">
        <ele>134</ele>
        <time>2019-08-08T11:50:03.686Z</time>
      </trkpt>
      <trkpt lat="44.47001" lon="1.66344">
        <ele>134</ele>
        <time>2019-08-08T11:54:17.685Z</time>
      </trkpt>
      <trkpt lat="44.47002" lon="1.66345">
        <ele>134</ele>
        <time>2019-08-08T11:54:22.688Z</time>
      </trkpt>
      <trkpt lat="44.47002" lon="1.66346">
        <ele>134</ele>
        <time>2019-08-08T11:54:27.683Z</time>
      </trkpt>
      <trkpt lat="44.47002" lon="1.66347">
        <ele>134</ele>
        <time>2019-08-08T11:54:31.695Z</time>
      </trkpt>
      <trkpt lat="44.47003" lon="1.66348">
        <ele>133</ele>
        <time>2019-08-08T11:54:36.698Z</time>
      </trkpt>
      <trkpt lat="44.46997" lon="1.66345">
        <ele>134</ele>
        <time>2019-08-08T11:57:06.700Z</time>
      </trkpt>
      <trkpt lat="44.46996" lon="1.66347">
        <ele>134</ele>
        <time>2019-08-08T11:57:11.690Z</time>
      </trkpt>
      <trkpt lat="44.46996" lon="1.66345">
        <ele>134</ele>
        <time>2019-08-08T11:57:16.678Z</time>
      </trkpt>
      <trkpt lat="44.46997" lon="1.66342">
        <ele>134</ele>
        <time>2019-08-08T11:57:21.695Z</time>
      </trkpt>
      <trkpt lat="44.46996" lon="1.66339">
        <ele>134</ele>
        <time>2019-08-08T11:57:26.676Z</time>
      </trkpt>
      <trkpt lat="44.46996" lon="1.66343">
        <ele>134</ele>
        <time>2019-08-08T12:00:21.716Z</time>
      </trkpt>
      <trkpt lat="44.46999" lon="1.66348">
        <ele>133</ele>
        <time>2019-08-08T12:00:26.691Z</time>
      </trkpt>
      <trkpt lat="44.46999" lon="1.66349">
        <ele>133</ele>
        <time>2019-08-08T12:00:30.716Z</time>
      </trkpt>
      <trkpt lat="44.47" lon="1.6635">
        <ele>133</ele>
        <time>2019-08-08T12:00:35.686Z</time>
      </trkpt>
      <trkpt lat="44.47" lon="1.66351">
        <ele>133</ele>
        <time>2019-08-08T12:00:40.703Z</time>
      </trkpt>
      <trkpt lat="44.47006" lon="1.66349">
        <ele>133</ele>
        <time>2019-08-08T12:02:17.718Z</time>
      </trkpt>
      <trkpt lat="44.47007" lon="1.6635">
        <ele>133</ele>
        <time>2019-08-08T12:02:22.711Z</time>
      </trkpt>
      <trkpt lat="44.47009" lon="1.6635">
        <ele>133</ele>
        <time>2019-08-08T12:02:27.690Z</time>
      </trkpt>
      <trkpt lat="44.4701" lon="1.66352">
        <ele>133</ele>
        <time>2019-08-08T12:02:31.712Z</time>
      </trkpt>
      <trkpt lat="44.47012" lon="1.66354">
        <ele>133</ele>
        <time>2019-08-08T12:02:36.709Z</time>
      </trkpt>
      <trkpt lat="44.47008" lon="1.66355">
        <ele>133</ele>
        <time>2019-08-08T12:04:40.689Z</time>
      </trkpt>
      <trkpt lat="44.47007" lon="1.66357">
        <ele>133</ele>
        <time>2019-08-08T12:04:44.708Z</time>
      </trkpt>
      <trkpt lat="44.47006" lon="1.66357">
        <ele>133</ele>
        <time>2019-08-08T12:04:49.695Z</time>
      </trkpt>
      <trkpt lat="44.47005" lon="1.66358">
        <ele>133</ele>
        <time>2019-08-08T12:04:54.685Z</time>
      </trkpt>
      <trkpt lat="44.47004" lon="1.66358">
        <ele>133</ele>
        <time>2019-08-08T12:04:58.707Z</time>
      </trkpt>
      <trkpt lat="44.46999" lon="1.66355">
        <ele>133</ele>
        <time>2019-08-08T12:08:13.683Z</time>
      </trkpt>
      <trkpt lat="44.46998" lon="1.66354">
        <ele>133</ele>
        <time>2019-08-08T12:08:18.699Z</time>
      </trkpt>
      <trkpt lat="44.46997" lon="1.66353">
        <ele>133</ele>
        <time>2019-08-08T12:08:23.706Z</time>
      </trkpt>
      <trkpt lat="44.46996" lon="1.66353">
        <ele>133</ele>
        <time>2019-08-08T12:08:28.700Z</time>
      </trkpt>
      <trkpt lat="44.46995" lon="1.66352">
        <ele>133</ele>
        <time>2019-08-08T12:08:33.680Z</time>
      </trkpt>
      <trkpt lat="44.47003" lon="1.66348">
        <ele>133</ele>
        <time>2019-08-08T12:14:58.697Z</time>
      </trkpt>
      <trkpt lat="44.47004" lon="1.66346">
        <ele>134</ele>
        <time>2019-08-08T12:15:03.681Z</time>
      </trkpt>
      <trkpt lat="44.47004" lon="1.66346">
        <ele>134</ele>
        <time>2019-08-08T12:15:08.716Z</time>
      </trkpt>
      <trkpt lat="44.47005" lon="1.66346">
        <ele>134</ele>
        <time>2019-08-08T12:15:13.704Z</time>
      </trkpt>
      <trkpt lat="44.47008" lon="1.66346">
        <ele>134</ele>
        <time>2019-08-08T12:15:18.708Z</time>
      </trkpt>
      <trkpt lat="44.46998" lon="1.6634">
        <ele>134</ele>
        <time>2019-08-08T12:20:32.743Z</time>
      </trkpt>
      <trkpt lat="44.46998" lon="1.66339">
        <ele>134</ele>
        <time>2019-08-08T12:20:37.696Z</time>
      </trkpt>
      <trkpt lat="44.46998" lon="1.66338">
        <ele>134</ele>
        <time>2019-08-08T12:20:42.717Z</time>
      </trkpt>
      <trkpt lat="44.46998" lon="1.66338">
        <ele>134</ele>
        <time>2019-08-08T12:20:47.705Z</time>
      </trkpt>
      <trkpt lat="44.46998" lon="1.66338">
        <ele>134</ele>
        <time>2019-08-08T12:20:52.732Z</time>
      </trkpt>
      <trkpt lat="44.47" lon="1.66337">
        <ele>134</ele>
        <time>2019-08-08T12:25:00.731Z</time>
      </trkpt>
      <trkpt lat="44.47" lon="1.66336">
        <ele>134</ele>
        <time>2019-08-08T12:25:05.697Z</time>
      </trkpt>
      <trkpt lat="44.46999" lon="1.6633">
        <ele>134</ele>
        <time>2019-08-08T12:25:10.711Z</time>
      </trkpt>
      <trkpt lat="44.47" lon="1.66328">
        <ele>134</ele>
        <time>2019-08-08T12:25:15.694Z</time>
      </trkpt>
      <trkpt lat="44.46999" lon="1.66325">
        <ele>134</ele>
        <time>2019-08-08T12:25:20.732Z</time>
      </trkpt>
      <trkpt lat="44.46996" lon="1.66319">
        <ele>134</ele>
        <time>2019-08-08T12:25:25.695Z</time>
      </trkpt>
      <trkpt lat="44.46996" lon="1.66307">
        <ele>137</ele>
        <time>2019-08-08T12:25:30.713Z</time>
      </trkpt>
      <trkpt lat="44.46996" lon="1.663">
        <ele>137</ele>
        <time>2019-08-08T12:25:35.700Z</time>
      </trkpt>
      <trkpt lat="44.46998" lon="1.66295">
        <ele>137</ele>
        <time>2019-08-08T12:25:40.699Z</time>
      </trkpt>
      <trkpt lat="44.47" lon="1.66293">
        <ele>137</ele>
        <time>2019-08-08T12:25:44.736Z</time>
      </trkpt>
      <trkpt lat="44.47002" lon="1.66288">
        <ele>140</ele>
        <time>2019-08-08T12:25:49.698Z</time>
      </trkpt>
      <trkpt lat="44.47008" lon="1.66282">
        <ele>140</ele>
        <time>2019-08-08T12:25:54.699Z</time>
      </trkpt>
      <trkpt lat="44.4701" lon="1.66275">
        <ele>140</ele>
        <time>2019-08-08T12:25:58.750Z</time>
      </trkpt>
      <trkpt lat="44.47011" lon="1.66268">
        <ele>140</ele>
        <time>2019-08-08T12:26:03.698Z</time>
      </trkpt>
      <trkpt lat="44.47012" lon="1.6626">
        <ele>142</ele>
        <time>2019-08-08T12:26:08.716Z</time>
      </trkpt>
      <trkpt lat="44.47015" lon="1.66253">
        <ele>138</ele>
        <time>2019-08-08T12:26:13.711Z</time>
      </trkpt>
      <trkpt lat="44.47017" lon="1.66247">
        <ele>138</ele>
        <time>2019-08-08T12:26:18.716Z</time>
      </trkpt>
      <trkpt lat="44.47018" lon="1.66239">
        <ele>138</ele>
        <time>2019-08-08T12:26:23.692Z</time>
      </trkpt>
      <trkpt lat="44.47021" lon="1.66232">
        <ele>142</ele>
        <time>2019-08-08T12:26:28.723Z</time>
      </trkpt>
      <trkpt lat="44.47024" lon="1.66226">
        <ele>142</ele>
        <time>2019-08-08T12:26:33.712Z</time>
      </trkpt>
      <trkpt lat="44.47028" lon="1.6622">
        <ele>142</ele>
        <time>2019-08-08T12:26:38.709Z</time>
      </trkpt>
      <trkpt lat="44.47036" lon="1.66213">
        <ele>142</ele>
        <time>2019-08-08T12:26:43.703Z</time>
      </trkpt>
      <trkpt lat="44.47039" lon="1.66204">
        <ele>145</ele>
        <time>2019-08-08T12:26:48.740Z</time>
      </trkpt>
      <trkpt lat="44.47042" lon="1.66193">
        <ele>137</ele>
        <time>2019-08-08T12:26:53.723Z</time>
      </trkpt>
      <trkpt lat="44.47046" lon="1.66187">
        <ele>137</ele>
        <time>2019-08-08T12:26:58.728Z</time>
      </trkpt>
      <trkpt lat="44.47047" lon="1.66175">
        <ele>139</ele>
        <time>2019-08-08T12:27:18.717Z</time>
      </trkpt>
      <trkpt lat="44.47046" lon="1.66175">
        <ele>139</ele>
        <time>2019-08-08T12:27:23.718Z</time>
      </trkpt>
      <trkpt lat="44.47048" lon="1.66174">
        <ele>139</ele>
        <time>2019-08-08T12:27:28.741Z</time>
      </trkpt>
      <trkpt lat="44.47051" lon="1.66167">
        <ele>139</ele>
        <time>2019-08-08T12:27:33.703Z</time>
      </trkpt>
      <trkpt lat="44.47052" lon="1.66164">
        <ele>139</ele>
        <time>2019-08-08T12:27:37.724Z</time>
      </trkpt>
      <trkpt lat="44.47058" lon="1.66162">
        <ele>139</ele>
        <time>2019-08-08T12:27:42.715Z</time>
      </trkpt>
      <trkpt lat="44.47064" lon="1.66161">
        <ele>139</ele>
        <time>2019-08-08T12:27:47.700Z</time>
      </trkpt>
      <trkpt lat="44.47067" lon="1.66162">
        <ele>139</ele>
        <time>2019-08-08T12:27:51.728Z</time>
      </trkpt>
      <trkpt lat="44.47074" lon="1.66163">
        <ele>136</ele>
        <time>2019-08-08T12:27:56.707Z</time>
      </trkpt>
      <trkpt lat="44.4708" lon="1.66165">
        <ele>136</ele>
        <time>2019-08-08T12:28:16.717Z</time>
      </trkpt>
      <trkpt lat="44.4708" lon="1.66164">
        <ele>136</ele>
        <time>2019-08-08T12:28:21.705Z</time>
      </trkpt>
      <trkpt lat="44.4708" lon="1.66166">
        <ele>136</ele>
        <time>2019-08-08T12:28:25.728Z</time>
      </trkpt>
      <trkpt lat="44.47084" lon="1.6617">
        <ele>136</ele>
        <time>2019-08-08T12:28:30.705Z</time>
      </trkpt>
      <trkpt lat="44.47086" lon="1.66174">
        <ele>136</ele>
        <time>2019-08-08T12:28:34.725Z</time>
      </trkpt>
      <trkpt lat="44.4709" lon="1.6618">
        <ele>136</ele>
        <time>2019-08-08T12:28:39.714Z</time>
      </trkpt>
      <trkpt lat="44.47093" lon="1.66185">
        <ele>134</ele>
        <time>2019-08-08T12:28:44.742Z</time>
      </trkpt>
      <trkpt lat="44.471" lon="1.66195">
        <ele>133</ele>
        <time>2019-08-08T12:28:49.717Z</time>
      </trkpt>
      <trkpt lat="44.47104" lon="1.66202">
        <ele>133</ele>
        <time>2019-08-08T12:28:53.733Z</time>
      </trkpt>
      <trkpt lat="44.47109" lon="1.66208">
        <ele>133</ele>
        <time>2019-08-08T12:28:58.731Z</time>
      </trkpt>
      <trkpt lat="44.47115" lon="1.66215">
        <ele>133</ele>
        <time>2019-08-08T12:29:03.736Z</time>
      </trkpt>
      <trkpt lat="44.47122" lon="1.66223">
        <ele>133</ele>
        <time>2019-08-08T12:29:08.719Z</time>
      </trkpt>
      <trkpt lat="44.47127" lon="1.66227">
        <ele>132</ele>
        <time>2019-08-08T12:29:13.721Z</time>
      </trkpt>
      <trkpt lat="44.47131" lon="1.66225">
        <ele>132</ele>
        <time>2019-08-08T12:29:17.741Z</time>
      </trkpt>
      <trkpt lat="44.47137" lon="1.66224">
        <ele>132</ele>
        <time>2019-08-08T12:29:22.729Z</time>
      </trkpt>
      <trkpt lat="44.47145" lon="1.66218">
        <ele>132</ele>
        <time>2019-08-08T12:29:27.708Z</time>
      </trkpt>
      <trkpt lat="44.47149" lon="1.66212">
        <ele>132</ele>
        <time>2019-08-08T12:29:31.727Z</time>
      </trkpt>
      <trkpt lat="44.47157" lon="1.66205">
        <ele>134</ele>
        <time>2019-08-08T12:29:36.705Z</time>
      </trkpt>
      <trkpt lat="44.47159" lon="1.66202">
        <ele>134</ele>
        <time>2019-08-08T12:29:41.729Z</time>
      </trkpt>
      <trkpt lat="44.47162" lon="1.66194">
        <ele>134</ele>
        <time>2019-08-08T12:29:45.758Z</time>
      </trkpt>
      <trkpt lat="44.47167" lon="1.66188">
        <ele>134</ele>
        <time>2019-08-08T12:29:50.732Z</time>
      </trkpt>
      <trkpt lat="44.47172" lon="1.66177">
        <ele>134</ele>
        <time>2019-08-08T12:29:55.728Z</time>
      </trkpt>
      <trkpt lat="44.47174" lon="1.66174">
        <ele>134</ele>
        <time>2019-08-08T12:30:00.708Z</time>
      </trkpt>
      <trkpt lat="44.47177" lon="1.6617">
        <ele>134</ele>
        <time>2019-08-08T12:30:05.744Z</time>
      </trkpt>
      <trkpt lat="44.47179" lon="1.66168">
        <ele>134</ele>
        <time>2019-08-08T12:30:10.749Z</time>
      </trkpt>
      <trkpt lat="44.47181" lon="1.66162">
        <ele>135</ele>
        <time>2019-08-08T12:30:15.721Z</time>
      </trkpt>
      <trkpt lat="44.47189" lon="1.66147">
        <ele>136</ele>
        <time>2019-08-08T12:30:20.727Z</time>
      </trkpt>
      <trkpt lat="44.47202" lon="1.66145">
        <ele>136</ele>
        <time>2019-08-08T12:30:25.722Z</time>
      </trkpt>
      <trkpt lat="44.47211" lon="1.66139">
        <ele>138</ele>
        <time>2019-08-08T12:30:29.738Z</time>
      </trkpt>
      <trkpt lat="44.47215" lon="1.66134">
        <ele>138</ele>
        <time>2019-08-08T12:30:34.714Z</time>
      </trkpt>
      <trkpt lat="44.47221" lon="1.66118">
        <ele>138</ele>
        <time>2019-08-08T12:30:38.736Z</time>
      </trkpt>
      <trkpt lat="44.47218" lon="1.6611">
        <ele>138</ele>
        <time>2019-08-08T12:30:43.741Z</time>
      </trkpt>
      <trkpt lat="44.47227" lon="1.66115">
        <ele>138</ele>
        <time>2019-08-08T12:30:48.726Z</time>
      </trkpt>
      <trkpt lat="44.47233" lon="1.66112">
        <ele>138</ele>
        <time>2019-08-08T12:30:53.756Z</time>
      </trkpt>
      <trkpt lat="44.47236" lon="1.66105">
        <ele>138</ele>
        <time>2019-08-08T12:30:58.733Z</time>
      </trkpt>
      <trkpt lat="44.47239" lon="1.661">
        <ele>142</ele>
        <time>2019-08-08T12:31:03.724Z</time>
      </trkpt>
      <trkpt lat="44.47245" lon="1.66091">
        <ele>141</ele>
        <time>2019-08-08T12:31:08.715Z</time>
      </trkpt>
      <trkpt lat="44.47248" lon="1.66085">
        <ele>141</ele>
        <time>2019-08-08T12:31:13.742Z</time>
      </trkpt>
      <trkpt lat="44.47251" lon="1.66078">
        <ele>141</ele>
        <time>2019-08-08T12:31:18.712Z</time>
      </trkpt>
      <trkpt lat="44.47254" lon="1.66074">
        <ele>141</ele>
        <time>2019-08-08T12:31:22.723Z</time>
      </trkpt>
      <trkpt lat="44.47258" lon="1.66066">
        <ele>138</ele>
        <time>2019-08-08T12:31:26.740Z</time>
      </trkpt>
      <trkpt lat="44.47265" lon="1.66058">
        <ele>142</ele>
        <time>2019-08-08T12:31:31.749Z</time>
      </trkpt>
      <trkpt lat="44.47271" lon="1.66051">
        <ele>142</ele>
        <time>2019-08-08T12:31:36.713Z</time>
      </trkpt>
      <trkpt lat="44.47274" lon="1.66045">
        <ele>142</ele>
        <time>2019-08-08T12:31:40.728Z</time>
      </trkpt>
      <trkpt lat="44.47278" lon="1.66038">
        <ele>141</ele>
        <time>2019-08-08T12:31:45.743Z</time>
      </trkpt>
      <trkpt lat="44.47277" lon="1.66026">
        <ele>141</ele>
        <time>2019-08-08T12:31:50.713Z</time>
      </trkpt>
      <trkpt lat="44.47278" lon="1.66011">
        <ele>140</ele>
        <time>2019-08-08T12:31:54.743Z</time>
      </trkpt>
      <trkpt lat="44.47278" lon="1.65995">
        <ele>140</ele>
        <time>2019-08-08T12:31:59.740Z</time>
      </trkpt>
      <trkpt lat="44.47279" lon="1.65987">
        <ele>140</ele>
        <time>2019-08-08T12:32:04.734Z</time>
      </trkpt>
      <trkpt lat="44.47281" lon="1.6598">
        <ele>138</ele>
        <time>2019-08-08T12:32:09.742Z</time>
      </trkpt>
      <trkpt lat="44.47285" lon="1.65972">
        <ele>138</ele>
        <time>2019-08-08T12:32:14.719Z</time>
      </trkpt>
      <trkpt lat="44.47283" lon="1.65959">
        <ele>138</ele>
        <time>2019-08-08T12:32:19.742Z</time>
      </trkpt>
      <trkpt lat="44.47283" lon="1.65946">
        <ele>136</ele>
        <time>2019-08-08T12:32:24.707Z</time>
      </trkpt>
      <trkpt lat="44.47284" lon="1.65926">
        <ele>135</ele>
        <time>2019-08-08T12:32:29.704Z</time>
      </trkpt>
      <trkpt lat="44.47287" lon="1.65903">
        <ele>135</ele>
        <time>2019-08-08T12:32:33.746Z</time>
      </trkpt>
      <trkpt lat="44.47287" lon="1.65874">
        <ele>138</ele>
        <time>2019-08-08T12:32:38.712Z</time>
      </trkpt>
      <trkpt lat="44.47287" lon="1.65846">
        <ele>139</ele>
        <time>2019-08-08T12:32:43.728Z</time>
      </trkpt>
      <trkpt lat="44.47286" lon="1.65835">
        <ele>139</ele>
        <time>2019-08-08T12:32:48.724Z</time>
      </trkpt>
      <trkpt lat="44.47287" lon="1.65825">
        <ele>139</ele>
        <time>2019-08-08T12:32:53.741Z</time>
      </trkpt>
      <trkpt lat="44.47288" lon="1.65816">
        <ele>139</ele>
        <time>2019-08-08T12:32:58.740Z</time>
      </trkpt>
      <trkpt lat="44.47289" lon="1.65807">
        <ele>139</ele>
        <time>2019-08-08T12:33:03.737Z</time>
      </trkpt>
      <trkpt lat="44.4729" lon="1.658">
        <ele>139</ele>
        <time>2019-08-08T12:33:07.758Z</time>
      </trkpt>
      <trkpt lat="44.4729" lon="1.65789">
        <ele>135</ele>
        <time>2019-08-08T12:33:12.727Z</time>
      </trkpt>
      <trkpt lat="44.47289" lon="1.6578">
        <ele>135</ele>
        <time>2019-08-08T12:33:17.726Z</time>
      </trkpt>
      <trkpt lat="44.47291" lon="1.65771">
        <ele>135</ele>
        <time>2019-08-08T12:33:22.727Z</time>
      </trkpt>
      <trkpt lat="44.47293" lon="1.65761">
        <ele>135</ele>
        <time>2019-08-08T12:33:27.716Z</time>
      </trkpt>
      <trkpt lat="44.47291" lon="1.65748">
        <ele>135</ele>
        <time>2019-08-08T12:33:32.736Z</time>
      </trkpt>
      <trkpt lat="44.47291" lon="1.65739">
        <ele>135</ele>
        <time>2019-08-08T12:33:37.737Z</time>
      </trkpt>
      <trkpt lat="44.47291" lon="1.65727">
        <ele>134</ele>
        <time>2019-08-08T12:33:42.718Z</time>
      </trkpt>
      <trkpt lat="44.47291" lon="1.65721">
        <ele>134</ele>
        <time>2019-08-08T12:33:46.733Z</time>
      </trkpt>
      <trkpt lat="44.47294" lon="1.65708">
        <ele>134</ele>
        <time>2019-08-08T12:33:51.709Z</time>
      </trkpt>
      <trkpt lat="44.47295" lon="1.657">
        <ele>134</ele>
        <time>2019-08-08T12:33:55.726Z</time>
      </trkpt>
      <trkpt lat="44.47295" lon="1.6569">
        <ele>134</ele>
        <time>2019-08-08T12:34:00.695Z</time>
      </trkpt>
      <trkpt lat="44.47294" lon="1.65682">
        <ele>134</ele>
        <time>2019-08-08T12:34:04.721Z</time>
      </trkpt>
      <trkpt lat="44.47293" lon="1.65674">
        <ele>136</ele>
        <time>2019-08-08T12:34:09.735Z</time>
      </trkpt>
      <trkpt lat="44.47293" lon="1.6566">
        <ele>136</ele>
        <time>2019-08-08T12:34:14.711Z</time>
      </trkpt>
      <trkpt lat="44.47292" lon="1.65653">
        <ele>136</ele>
        <time>2019-08-08T12:34:18.734Z</time>
      </trkpt>
      <trkpt lat="44.47292" lon="1.65645">
        <ele>136</ele>
        <time>2019-08-08T12:34:23.775Z</time>
      </trkpt>
      <trkpt lat="44.47295" lon="1.65634">
        <ele>136</ele>
        <time>2019-08-08T12:34:28.708Z</time>
      </trkpt>
      <trkpt lat="44.47295" lon="1.65629">
        <ele>136</ele>
        <time>2019-08-08T12:34:32.718Z</time>
      </trkpt>
      <trkpt lat="44.47296" lon="1.65619">
        <ele>136</ele>
        <time>2019-08-08T12:34:37.716Z</time>
      </trkpt>
      <trkpt lat="44.47299" lon="1.65607">
        <ele>136</ele>
        <time>2019-08-08T12:34:42.699Z</time>
      </trkpt>
      <trkpt lat="44.47301" lon="1.65598">
        <ele>136</ele>
        <time>2019-08-08T12:34:46.734Z</time>
      </trkpt>
      <trkpt lat="44.47304" lon="1.65589">
        <ele>135</ele>
        <time>2019-08-08T12:34:51.740Z</time>
      </trkpt>
      <trkpt lat="44.47302" lon="1.65578">
        <ele>135</ele>
        <time>2019-08-08T12:34:56.702Z</time>
      </trkpt>
      <trkpt lat="44.47301" lon="1.65566">
        <ele>135</ele>
        <time>2019-08-08T12:35:01.739Z</time>
      </trkpt>
      <trkpt lat="44.473" lon="1.65558">
        <ele>135</ele>
        <time>2019-08-08T12:35:06.710Z</time>
      </trkpt>
      <trkpt lat="44.47302" lon="1.65551">
        <ele>135</ele>
        <time>2019-08-08T12:35:11.697Z</time>
      </trkpt>
      <trkpt lat="44.47302" lon="1.65544">
        <ele>135</ele>
        <time>2019-08-08T12:35:15.723Z</time>
      </trkpt>
      <trkpt lat="44.47302" lon="1.65532">
        <ele>135</ele>
        <time>2019-08-08T12:35:20.708Z</time>
      </trkpt>
      <trkpt lat="44.47302" lon="1.65517">
        <ele>135</ele>
        <time>2019-08-08T12:35:25.707Z</time>
      </trkpt>
      <trkpt lat="44.47302" lon="1.65507">
        <ele>133</ele>
        <time>2019-08-08T12:35:30.701Z</time>
      </trkpt>
      <trkpt lat="44.47302" lon="1.65496">
        <ele>133</ele>
        <time>2019-08-08T12:35:35.701Z</time>
      </trkpt>
      <trkpt lat="44.47301" lon="1.65486">
        <ele>133</ele>
        <time>2019-08-08T12:35:40.696Z</time>
      </trkpt>
      <trkpt lat="44.47301" lon="1.65479">
        <ele>132</ele>
        <time>2019-08-08T12:35:44.742Z</time>
      </trkpt>
      <trkpt lat="44.47301" lon="1.65469">
        <ele>132</ele>
        <time>2019-08-08T12:35:49.727Z</time>
      </trkpt>
      <trkpt lat="44.47301" lon="1.6546">
        <ele>132</ele>
        <time>2019-08-08T12:35:54.701Z</time>
      </trkpt>
      <trkpt lat="44.47301" lon="1.6545">
        <ele>133</ele>
        <time>2019-08-08T12:35:59.716Z</time>
      </trkpt>
      <trkpt lat="44.473" lon="1.6544">
        <ele>133</ele>
        <time>2019-08-08T12:36:04.700Z</time>
      </trkpt>
      <trkpt lat="44.473" lon="1.6543">
        <ele>133</ele>
        <time>2019-08-08T12:36:09.710Z</time>
      </trkpt>
      <trkpt lat="44.47299" lon="1.65423">
        <ele>133</ele>
        <time>2019-08-08T12:36:13.717Z</time>
      </trkpt>
      <trkpt lat="44.47298" lon="1.65412">
        <ele>133</ele>
        <time>2019-08-08T12:36:18.728Z</time>
      </trkpt>
      <trkpt lat="44.47297" lon="1.65403">
        <ele>134</ele>
        <time>2019-08-08T12:36:23.710Z</time>
      </trkpt>
      <trkpt lat="44.47297" lon="1.65392">
        <ele>134</ele>
        <time>2019-08-08T12:36:28.724Z</time>
      </trkpt>
      <trkpt lat="44.47296" lon="1.65381">
        <ele>134</ele>
        <time>2019-08-08T12:36:33.731Z</time>
      </trkpt>
      <trkpt lat="44.47294" lon="1.65372">
        <ele>134</ele>
        <time>2019-08-08T12:36:38.708Z</time>
      </trkpt>
      <trkpt lat="44.47293" lon="1.65361">
        <ele>134</ele>
        <time>2019-08-08T12:36:43.697Z</time>
      </trkpt>
      <trkpt lat="44.47292" lon="1.65352">
        <ele>134</ele>
        <time>2019-08-08T12:36:47.757Z</time>
      </trkpt>
      <trkpt lat="44.47292" lon="1.65342">
        <ele>133</ele>
        <time>2019-08-08T12:36:52.708Z</time>
      </trkpt>
      <trkpt lat="44.47292" lon="1.65331">
        <ele>133</ele>
        <time>2019-08-08T12:36:56.743Z</time>
      </trkpt>
      <trkpt lat="44.47288" lon="1.65319">
        <ele>132</ele>
        <time>2019-08-08T12:37:01.704Z</time>
      </trkpt>
      <trkpt lat="44.47285" lon="1.6531">
        <ele>132</ele>
        <time>2019-08-08T12:37:05.722Z</time>
      </trkpt>
      <trkpt lat="44.47285" lon="1.65299">
        <ele>132</ele>
        <time>2019-08-08T12:37:10.723Z</time>
      </trkpt>
      <trkpt lat="44.47285" lon="1.65287">
        <ele>132</ele>
        <time>2019-08-08T12:37:15.691Z</time>
      </trkpt>
      <trkpt lat="44.47286" lon="1.65275">
        <ele>132</ele>
        <time>2019-08-08T12:37:20.720Z</time>
      </trkpt>
      <trkpt lat="44.47285" lon="1.65266">
        <ele>132</ele>
        <time>2019-08-08T12:37:25.719Z</time>
      </trkpt>
      <trkpt lat="44.47284" lon="1.65258">
        <ele>132</ele>
        <time>2019-08-08T12:37:29.718Z</time>
      </trkpt>
      <trkpt lat="44.47284" lon="1.65249">
        <ele>132</ele>
        <time>2019-08-08T12:37:34.690Z</time>
      </trkpt>
      <trkpt lat="44.47284" lon="1.65239">
        <ele>132</ele>
        <time>2019-08-08T12:37:38.716Z</time>
      </trkpt>
      <trkpt lat="44.47285" lon="1.65229">
        <ele>133</ele>
        <time>2019-08-08T12:37:43.699Z</time>
      </trkpt>
      <trkpt lat="44.47285" lon="1.65222">
        <ele>133</ele>
        <time>2019-08-08T12:37:47.733Z</time>
      </trkpt>
      <trkpt lat="44.47284" lon="1.65208">
        <ele>134</ele>
        <time>2019-08-08T12:37:52.725Z</time>
      </trkpt>
      <trkpt lat="44.47283" lon="1.65198">
        <ele>134</ele>
        <time>2019-08-08T12:37:57.712Z</time>
      </trkpt>
      <trkpt lat="44.47283" lon="1.6519">
        <ele>134</ele>
        <time>2019-08-08T12:38:02.710Z</time>
      </trkpt>
      <trkpt lat="44.47282" lon="1.65177">
        <ele>134</ele>
        <time>2019-08-08T12:38:07.700Z</time>
      </trkpt>
      <trkpt lat="44.47283" lon="1.65166">
        <ele>134</ele>
        <time>2019-08-08T12:38:12.716Z</time>
      </trkpt>
      <trkpt lat="44.47285" lon="1.65158">
        <ele>134</ele>
        <time>2019-08-08T12:38:17.709Z</time>
      </trkpt>
      <trkpt lat="44.47283" lon="1.65149">
        <ele>134</ele>
        <time>2019-08-08T12:38:22.691Z</time>
      </trkpt>
      <trkpt lat="44.47284" lon="1.6514">
        <ele>134</ele>
        <time>2019-08-08T12:38:27.728Z</time>
      </trkpt>
      <trkpt lat="44.47288" lon="1.65126">
        <ele>134</ele>
        <time>2019-08-08T12:38:32.710Z</time>
      </trkpt>
      <trkpt lat="44.47287" lon="1.65117">
        <ele>135</ele>
        <time>2019-08-08T12:38:36.731Z</time>
      </trkpt>
      <trkpt lat="44.47288" lon="1.65106">
        <ele>135</ele>
        <time>2019-08-08T12:38:41.708Z</time>
      </trkpt>
      <trkpt lat="44.47288" lon="1.65101">
        <ele>135</ele>
        <time>2019-08-08T12:38:46.713Z</time>
      </trkpt>
      <trkpt lat="44.47292" lon="1.65091">
        <ele>133</ele>
        <time>2019-08-08T12:38:51.703Z</time>
      </trkpt>
      <trkpt lat="44.47293" lon="1.65084">
        <ele>133</ele>
        <time>2019-08-08T12:38:55.720Z</time>
      </trkpt>
      <trkpt lat="44.47297" lon="1.65074">
        <ele>133</ele>
        <time>2019-08-08T12:39:00.722Z</time>
      </trkpt>
      <trkpt lat="44.47302" lon="1.65068">
        <ele>133</ele>
        <time>2019-08-08T12:39:05.710Z</time>
      </trkpt>
      <trkpt lat="44.47307" lon="1.65058">
        <ele>133</ele>
        <time>2019-08-08T12:39:10.712Z</time>
      </trkpt>
      <trkpt lat="44.47302" lon="1.65051">
        <ele>133</ele>
        <time>2019-08-08T12:39:14.743Z</time>
      </trkpt>
      <trkpt lat="44.47304" lon="1.65036">
        <ele>133</ele>
        <time>2019-08-08T12:39:19.723Z</time>
      </trkpt>
      <trkpt lat="44.47307" lon="1.65026">
        <ele>133</ele>
        <time>2019-08-08T12:39:24.702Z</time>
      </trkpt>
      <trkpt lat="44.47308" lon="1.65022">
        <ele>133</ele>
        <time>2019-08-08T12:39:28.719Z</time>
      </trkpt>
      <trkpt lat="44.47309" lon="1.65011">
        <ele>134</ele>
        <time>2019-08-08T12:39:33.712Z</time>
      </trkpt>
      <trkpt lat="44.47312" lon="1.65001">
        <ele>134</ele>
        <time>2019-08-08T12:39:38.716Z</time>
      </trkpt>
      <trkpt lat="44.47314" lon="1.64991">
        <ele>134</ele>
        <time>2019-08-08T12:39:43.711Z</time>
      </trkpt>
      <trkpt lat="44.47316" lon="1.64982">
        <ele>135</ele>
        <time>2019-08-08T12:39:48.724Z</time>
      </trkpt>
      <trkpt lat="44.47318" lon="1.64968">
        <ele>135</ele>
        <time>2019-08-08T12:39:53.700Z</time>
      </trkpt>
      <trkpt lat="44.47318" lon="1.64958">
        <ele>136</ele>
        <time>2019-08-08T12:39:57.729Z</time>
      </trkpt>
      <trkpt lat="44.47322" lon="1.64949">
        <ele>132</ele>
        <time>2019-08-08T12:40:02.735Z</time>
      </trkpt>
      <trkpt lat="44.47323" lon="1.6494">
        <ele>132</ele>
        <time>2019-08-08T12:40:07.715Z</time>
      </trkpt>
      <trkpt lat="44.47325" lon="1.64929">
        <ele>133</ele>
        <time>2019-08-08T12:40:12.712Z</time>
      </trkpt>
      <trkpt lat="44.47326" lon="1.64921">
        <ele>133</ele>
        <time>2019-08-08T12:40:17.716Z</time>
      </trkpt>
      <trkpt lat="44.47327" lon="1.64912">
        <ele>133</ele>
        <time>2019-08-08T12:40:21.745Z</time>
      </trkpt>
      <trkpt lat="44.47327" lon="1.64895">
        <ele>135</ele>
        <time>2019-08-08T12:40:26.708Z</time>
      </trkpt>
      <trkpt lat="44.47329" lon="1.64887">
        <ele>135</ele>
        <time>2019-08-08T12:40:31.710Z</time>
      </trkpt>
      <trkpt lat="44.47332" lon="1.64876">
        <ele>135</ele>
        <time>2019-08-08T12:40:36.735Z</time>
      </trkpt>
      <trkpt lat="44.47335" lon="1.64866">
        <ele>139</ele>
        <time>2019-08-08T12:40:41.712Z</time>
      </trkpt>
      <trkpt lat="44.47336" lon="1.6486">
        <ele>139</ele>
        <time>2019-08-08T12:40:46.712Z</time>
      </trkpt>
      <trkpt lat="44.47338" lon="1.64853">
        <ele>139</ele>
        <time>2019-08-08T12:40:51.712Z</time>
      </trkpt>
      <trkpt lat="44.4734" lon="1.64844">
        <ele>146</ele>
        <time>2019-08-08T12:40:56.701Z</time>
      </trkpt>
      <trkpt lat="44.47341" lon="1.64839">
        <ele>146</ele>
        <time>2019-08-08T12:41:00.726Z</time>
      </trkpt>
      <trkpt lat="44.47343" lon="1.64832">
        <ele>146</ele>
        <time>2019-08-08T12:41:05.709Z</time>
      </trkpt>
      <trkpt lat="44.47347" lon="1.64825">
        <ele>146</ele>
        <time>2019-08-08T12:41:09.743Z</time>
      </trkpt>
      <trkpt lat="44.4735" lon="1.64815">
        <ele>148</ele>
        <time>2019-08-08T12:41:14.719Z</time>
      </trkpt>
      <trkpt lat="44.47353" lon="1.64808">
        <ele>148</ele>
        <time>2019-08-08T12:41:18.741Z</time>
      </trkpt>
      <trkpt lat="44.47358" lon="1.64799">
        <ele>148</ele>
        <time>2019-08-08T12:41:23.709Z</time>
      </trkpt>
      <trkpt lat="44.47362" lon="1.64786">
        <ele>172</ele>
        <time>2019-08-08T12:41:28.729Z</time>
      </trkpt>
      <trkpt lat="44.47364" lon="1.64776">
        <ele>172</ele>
        <time>2019-08-08T12:41:33.704Z</time>
      </trkpt>
      <trkpt lat="44.47363" lon="1.64765">
        <ele>172</ele>
        <time>2019-08-08T12:41:37.734Z</time>
      </trkpt>
      <trkpt lat="44.47367" lon="1.64754">
        <ele>205</ele>
        <time>2019-08-08T12:41:42.710Z</time>
      </trkpt>
      <trkpt lat="44.4737" lon="1.6475">
        <ele>205</ele>
        <time>2019-08-08T12:41:47.732Z</time>
      </trkpt>
      <trkpt lat="44.47374" lon="1.64745">
        <ele>205</ele>
        <time>2019-08-08T12:41:52.713Z</time>
      </trkpt>
      <trkpt lat="44.47376" lon="1.64744">
        <ele>184</ele>
        <time>2019-08-08T12:41:56.748Z</time>
      </trkpt>
      <trkpt lat="44.4738" lon="1.64739">
        <ele>184</ele>
        <time>2019-08-08T12:42:01.742Z</time>
      </trkpt>
      <trkpt lat="44.47386" lon="1.64731">
        <ele>197</ele>
        <time>2019-08-08T12:42:06.738Z</time>
      </trkpt>
      <trkpt lat="44.47393" lon="1.64726">
        <ele>197</ele>
        <time>2019-08-08T12:42:11.709Z</time>
      </trkpt>
      <trkpt lat="44.47398" lon="1.6472">
        <ele>197</ele>
        <time>2019-08-08T12:42:15.723Z</time>
      </trkpt>
      <trkpt lat="44.47403" lon="1.64713">
        <ele>185</ele>
        <time>2019-08-08T12:42:20.704Z</time>
      </trkpt>
      <trkpt lat="44.47407" lon="1.64708">
        <ele>185</ele>
        <time>2019-08-08T12:42:24.717Z</time>
      </trkpt>
      <trkpt lat="44.47412" lon="1.64702">
        <ele>197</ele>
        <time>2019-08-08T12:42:29.710Z</time>
      </trkpt>
      <trkpt lat="44.47419" lon="1.64694">
        <ele>197</ele>
        <time>2019-08-08T12:42:34.701Z</time>
      </trkpt>
      <trkpt lat="44.47428" lon="1.64687">
        <ele>197</ele>
        <time>2019-08-08T12:42:44.718Z</time>
      </trkpt>
      <trkpt lat="44.47431" lon="1.64688">
        <ele>186</ele>
        <time>2019-08-08T12:42:49.716Z</time>
      </trkpt>
      <trkpt lat="44.47432" lon="1.64689">
        <ele>186</ele>
        <time>2019-08-08T12:42:54.712Z</time>
      </trkpt>
      <trkpt lat="44.47434" lon="1.64688">
        <ele>186</ele>
        <time>2019-08-08T12:42:59.709Z</time>
      </trkpt>
      <trkpt lat="44.47436" lon="1.64688">
        <ele>186</ele>
        <time>2019-08-08T12:43:03.733Z</time>
      </trkpt>
      <trkpt lat="44.4744" lon="1.64686">
        <ele>186</ele>
        <time>2019-08-08T12:43:08.733Z</time>
      </trkpt>
      <trkpt lat="44.47442" lon="1.64683">
        <ele>186</ele>
        <time>2019-08-08T12:43:13.714Z</time>
      </trkpt>
      <trkpt lat="44.47446" lon="1.64677">
        <ele>200</ele>
        <time>2019-08-08T12:43:18.730Z</time>
      </trkpt>
      <trkpt lat="44.4745" lon="1.64673">
        <ele>200</ele>
        <time>2019-08-08T12:43:23.710Z</time>
      </trkpt>
      <trkpt lat="44.47453" lon="1.64672">
        <ele>200</ele>
        <time>2019-08-08T12:43:28.717Z</time>
      </trkpt>
      <trkpt lat="44.47456" lon="1.64675">
        <ele>200</ele>
        <time>2019-08-08T12:43:33.708Z</time>
      </trkpt>
      <trkpt lat="44.47457" lon="1.64676">
        <ele>200</ele>
        <time>2019-08-08T12:43:38.710Z</time>
      </trkpt>
      <trkpt lat="44.47459" lon="1.6467">
        <ele>192</ele>
        <time>2019-08-08T12:43:42.721Z</time>
      </trkpt>
      <trkpt lat="44.47462" lon="1.64667">
        <ele>192</ele>
        <time>2019-08-08T12:43:47.714Z</time>
      </trkpt>
      <trkpt lat="44.47467" lon="1.64664">
        <ele>192</ele>
        <time>2019-08-08T12:43:52.726Z</time>
      </trkpt>
      <trkpt lat="44.47472" lon="1.64659">
        <ele>192</ele>
        <time>2019-08-08T12:43:57.706Z</time>
      </trkpt>
      <trkpt lat="44.47477" lon="1.64661">
        <ele>192</ele>
        <time>2019-08-08T12:44:02.721Z</time>
      </trkpt>
      <trkpt lat="44.47482" lon="1.64662">
        <ele>192</ele>
        <time>2019-08-08T12:44:07.720Z</time>
      </trkpt>
      <trkpt lat="44.47489" lon="1.6466">
        <ele>163</ele>
        <time>2019-08-08T12:44:11.742Z</time>
      </trkpt>
      <trkpt lat="44.47496" lon="1.64658">
        <ele>163</ele>
        <time>2019-08-08T12:44:16.717Z</time>
      </trkpt>
      <trkpt lat="44.47505" lon="1.64657">
        <ele>163</ele>
        <time>2019-08-08T12:44:21.724Z</time>
      </trkpt>
      <trkpt lat="44.4751" lon="1.64653">
        <ele>163</ele>
        <time>2019-08-08T12:44:26.704Z</time>
      </trkpt>
      <trkpt lat="44.47518" lon="1.64655">
        <ele>142</ele>
        <time>2019-08-08T12:44:31.701Z</time>
      </trkpt>
      <trkpt lat="44.47522" lon="1.64657">
        <ele>142</ele>
        <time>2019-08-08T12:44:35.715Z</time>
      </trkpt>
      <trkpt lat="44.47528" lon="1.6466">
        <ele>142</ele>
        <time>2019-08-08T12:44:40.708Z</time>
      </trkpt>
      <trkpt lat="44.47534" lon="1.6466">
        <ele>142</ele>
        <time>2019-08-08T12:44:44.716Z</time>
      </trkpt>
      <trkpt lat="44.47544" lon="1.64656">
        <ele>137</ele>
        <time>2019-08-08T12:44:59.738Z</time>
      </trkpt>
      <trkpt lat="44.47545" lon="1.64655">
        <ele>137</ele>
        <time>2019-08-08T12:45:04.731Z</time>
      </trkpt>
      <trkpt lat="44.47549" lon="1.64651">
        <ele>158</ele>
        <time>2019-08-08T12:45:09.714Z</time>
      </trkpt>
      <trkpt lat="44.47556" lon="1.6464">
        <ele>158</ele>
        <time>2019-08-08T12:45:14.739Z</time>
      </trkpt>
      <trkpt lat="44.47558" lon="1.64636">
        <ele>158</ele>
        <time>2019-08-08T12:45:19.737Z</time>
      </trkpt>
      <trkpt lat="44.47561" lon="1.64633">
        <ele>158</ele>
        <time>2019-08-08T12:45:24.728Z</time>
      </trkpt>
      <trkpt lat="44.47563" lon="1.64634">
        <ele>158</ele>
        <time>2019-08-08T12:45:28.744Z</time>
      </trkpt>
      <trkpt lat="44.47566" lon="1.64627">
        <ele>158</ele>
        <time>2019-08-08T12:45:33.708Z</time>
      </trkpt>
      <trkpt lat="44.47569" lon="1.64623">
        <ele>183</ele>
        <time>2019-08-08T12:45:37.724Z</time>
      </trkpt>
      <trkpt lat="44.47574" lon="1.6462">
        <ele>180</ele>
        <time>2019-08-08T12:45:42.715Z</time>
      </trkpt>
      <trkpt lat="44.47578" lon="1.64618">
        <ele>180</ele>
        <time>2019-08-08T12:45:46.736Z</time>
      </trkpt>
      <trkpt lat="44.47582" lon="1.64615">
        <ele>180</ele>
        <time>2019-08-08T12:45:51.704Z</time>
      </trkpt>
      <trkpt lat="44.47581" lon="1.64613">
        <ele>180</ele>
        <time>2019-08-08T12:45:55.738Z</time>
      </trkpt>
      <trkpt lat="44.47576" lon="1.64609">
        <ele>180</ele>
        <time>2019-08-08T12:46:00.753Z</time>
      </trkpt>
      <trkpt lat="44.47572" lon="1.64609">
        <ele>180</ele>
        <time>2019-08-08T12:46:05.730Z</time>
      </trkpt>
      <trkpt lat="44.47565" lon="1.64612">
        <ele>183</ele>
        <time>2019-08-08T12:46:10.706Z</time>
      </trkpt>
      <trkpt lat="44.47561" lon="1.64613">
        <ele>183</ele>
        <time>2019-08-08T12:46:14.722Z</time>
      </trkpt>
      <trkpt lat="44.47556" lon="1.64615">
        <ele>183</ele>
        <time>2019-08-08T12:46:18.731Z</time>
      </trkpt>
      <trkpt lat="44.47555" lon="1.6462">
        <ele>183</ele>
        <time>2019-08-08T12:46:22.765Z</time>
      </trkpt>
      <trkpt lat="44.47551" lon="1.64627">
        <ele>158</ele>
        <time>2019-08-08T12:46:27.728Z</time>
      </trkpt>
      <trkpt lat="44.47545" lon="1.64634">
        <ele>158</ele>
        <time>2019-08-08T12:46:32.717Z</time>
      </trkpt>
      <trkpt lat="44.47538" lon="1.64639">
        <ele>159</ele>
        <time>2019-08-08T12:46:37.750Z</time>
      </trkpt>
      <trkpt lat="44.47532" lon="1.64642">
        <ele>159</ele>
        <time>2019-08-08T12:46:42.735Z</time>
      </trkpt>
      <trkpt lat="44.47527" lon="1.64647">
        <ele>159</ele>
        <time>2019-08-08T12:46:47.718Z</time>
      </trkpt>
      <trkpt lat="44.47522" lon="1.64651">
        <ele>159</ele>
        <time>2019-08-08T12:46:52.745Z</time>
      </trkpt>
      <trkpt lat="44.47517" lon="1.64658">
        <ele>142</ele>
        <time>2019-08-08T12:46:57.713Z</time>
      </trkpt>
      <trkpt lat="44.47512" lon="1.64657">
        <ele>163</ele>
        <time>2019-08-08T12:47:01.738Z</time>
      </trkpt>
      <trkpt lat="44.47508" lon="1.64657">
        <ele>163</ele>
        <time>2019-08-08T12:47:06.705Z</time>
      </trkpt>
      <trkpt lat="44.47505" lon="1.64658">
        <ele>163</ele>
        <time>2019-08-08T12:47:11.726Z</time>
      </trkpt>
      <trkpt lat="44.475" lon="1.64656">
        <ele>163</ele>
        <time>2019-08-08T12:48:37.759Z</time>
      </trkpt>
      <trkpt lat="44.475" lon="1.64655">
        <ele>163</ele>
        <time>2019-08-08T12:48:42.741Z</time>
      </trkpt>
      <trkpt lat="44.47498" lon="1.64655">
        <ele>163</ele>
        <time>2019-08-08T12:48:47.716Z</time>
      </trkpt>
      <trkpt lat="44.47496" lon="1.64659">
        <ele>163</ele>
        <time>2019-08-08T12:48:51.735Z</time>
      </trkpt>
      <trkpt lat="44.47491" lon="1.64663">
        <ele>163</ele>
        <time>2019-08-08T12:48:56.718Z</time>
      </trkpt>
      <trkpt lat="44.47486" lon="1.64667">
        <ele>192</ele>
        <time>2019-08-08T12:49:01.749Z</time>
      </trkpt>
      <trkpt lat="44.47482" lon="1.64673">
        <ele>192</ele>
        <time>2019-08-08T12:49:06.718Z</time>
      </trkpt>
      <trkpt lat="44.47477" lon="1.64684">
        <ele>176</ele>
        <time>2019-08-08T12:49:10.745Z</time>
      </trkpt>
      <trkpt lat="44.47471" lon="1.64689">
        <ele>176</ele>
        <time>2019-08-08T12:49:15.718Z</time>
      </trkpt>
      <trkpt lat="44.47463" lon="1.64702">
        <ele>176</ele>
        <time>2019-08-08T12:49:57.689Z</time>
      </trkpt>
      <trkpt lat="44.47462" lon="1.64703">
        <ele>176</ele>
        <time>2019-08-08T12:50:02.718Z</time>
      </trkpt>
      <trkpt lat="44.47461" lon="1.64705">
        <ele>176</ele>
        <time>2019-08-08T12:50:07.744Z</time>
      </trkpt>
      <trkpt lat="44.47461" lon="1.64707">
        <ele>176</ele>
        <time>2019-08-08T12:50:12.721Z</time>
      </trkpt>
      <trkpt lat="44.47461" lon="1.6471">
        <ele>148</ele>
        <time>2019-08-08T12:50:17.727Z</time>
      </trkpt>
      <trkpt lat="44.47455" lon="1.64715">
        <ele>176</ele>
        <time>2019-08-08T12:50:22.705Z</time>
      </trkpt>
      <trkpt lat="44.47449" lon="1.64721">
        <ele>176</ele>
        <time>2019-08-08T12:50:27.720Z</time>
      </trkpt>
      <trkpt lat="44.47445" lon="1.64722">
        <ele>176</ele>
        <time>2019-08-08T12:50:31.733Z</time>
      </trkpt>
      <trkpt lat="44.4744" lon="1.64723">
        <ele>176</ele>
        <time>2019-08-08T12:50:36.703Z</time>
      </trkpt>
      <trkpt lat="44.47434" lon="1.64727">
        <ele>176</ele>
        <time>2019-08-08T12:50:41.729Z</time>
      </trkpt>
      <trkpt lat="44.4743" lon="1.64733">
        <ele>185</ele>
        <time>2019-08-08T12:50:46.729Z</time>
      </trkpt>
      <trkpt lat="44.47426" lon="1.64739">
        <ele>176</ele>
        <time>2019-08-08T12:50:51.707Z</time>
      </trkpt>
      <trkpt lat="44.47421" lon="1.64741">
        <ele>176</ele>
        <time>2019-08-08T12:50:56.707Z</time>
      </trkpt>
      <trkpt lat="44.47419" lon="1.64743">
        <ele>176</ele>
        <time>2019-08-08T12:51:00.733Z</time>
      </trkpt>
      <trkpt lat="44.47415" lon="1.64749">
        <ele>176</ele>
        <time>2019-08-08T12:51:05.718Z</time>
      </trkpt>
      <trkpt lat="44.47408" lon="1.64757">
        <ele>176</ele>
        <time>2019-08-08T12:51:10.713Z</time>
      </trkpt>
      <trkpt lat="44.47403" lon="1.64764">
        <ele>176</ele>
        <time>2019-08-08T12:51:15.710Z</time>
      </trkpt>
      <trkpt lat="44.47399" lon="1.64769">
        <ele>165</ele>
        <time>2019-08-08T12:51:20.703Z</time>
      </trkpt>
      <trkpt lat="44.47396" lon="1.64774">
        <ele>165</ele>
        <time>2019-08-08T12:51:24.729Z</time>
      </trkpt>
      <trkpt lat="44.47391" lon="1.64782">
        <ele>165</ele>
        <time>2019-08-08T12:51:29.724Z</time>
      </trkpt>
      <trkpt lat="44.47386" lon="1.64789">
        <ele>165</ele>
        <time>2019-08-08T12:51:34.725Z</time>
      </trkpt>
      <trkpt lat="44.47381" lon="1.64796">
        <ele>148</ele>
        <time>2019-08-08T12:51:39.733Z</time>
      </trkpt>
      <trkpt lat="44.47375" lon="1.64803">
        <ele>148</ele>
        <time>2019-08-08T12:51:44.730Z</time>
      </trkpt>
      <trkpt lat="44.4737" lon="1.64813">
        <ele>148</ele>
        <time>2019-08-08T12:51:49.733Z</time>
      </trkpt>
      <trkpt lat="44.47365" lon="1.64822">
        <ele>141</ele>
        <time>2019-08-08T12:51:54.711Z</time>
      </trkpt>
      <trkpt lat="44.47358" lon="1.64828">
        <ele>141</ele>
        <time>2019-08-08T12:51:59.719Z</time>
      </trkpt>
      <trkpt lat="44.47353" lon="1.6484">
        <ele>141</ele>
        <time>2019-08-08T12:52:03.731Z</time>
      </trkpt>
      <trkpt lat="44.4735" lon="1.64849">
        <ele>134</ele>
        <time>2019-08-08T12:52:08.712Z</time>
      </trkpt>
      <trkpt lat="44.47346" lon="1.64855">
        <ele>139</ele>
        <time>2019-08-08T12:52:13.716Z</time>
      </trkpt>
      <trkpt lat="44.47342" lon="1.64862">
        <ele>139</ele>
        <time>2019-08-08T12:52:17.731Z</time>
      </trkpt>
      <trkpt lat="44.47338" lon="1.6487">
        <ele>139</ele>
        <time>2019-08-08T12:52:22.721Z</time>
      </trkpt>
      <trkpt lat="44.47331" lon="1.64877">
        <ele>135</ele>
        <time>2019-08-08T12:52:27.716Z</time>
      </trkpt>
      <trkpt lat="44.47325" lon="1.64881">
        <ele>135</ele>
        <time>2019-08-08T12:52:32.716Z</time>
      </trkpt>
      <trkpt lat="44.47319" lon="1.64886">
        <ele>142</ele>
        <time>2019-08-08T12:52:37.726Z</time>
      </trkpt>
      <trkpt lat="44.47314" lon="1.6489">
        <ele>142</ele>
        <time>2019-08-08T12:52:42.714Z</time>
      </trkpt>
      <trkpt lat="44.47308" lon="1.64894">
        <ele>142</ele>
        <time>2019-08-08T12:52:47.740Z</time>
      </trkpt>
      <trkpt lat="44.47303" lon="1.64899">
        <ele>142</ele>
        <time>2019-08-08T12:52:52.708Z</time>
      </trkpt>
      <trkpt lat="44.47299" lon="1.64905">
        <ele>137</ele>
        <time>2019-08-08T12:52:57.707Z</time>
      </trkpt>
      <trkpt lat="44.47294" lon="1.64914">
        <ele>137</ele>
        <time>2019-08-08T12:53:02.716Z</time>
      </trkpt>
      <trkpt lat="44.47291" lon="1.6492">
        <ele>148</ele>
        <time>2019-08-08T12:53:06.737Z</time>
      </trkpt>
      <trkpt lat="44.47288" lon="1.64926">
        <ele>148</ele>
        <time>2019-08-08T12:53:11.707Z</time>
      </trkpt>
      <trkpt lat="44.47285" lon="1.64933">
        <ele>141</ele>
        <time>2019-08-08T12:53:15.721Z</time>
      </trkpt>
      <trkpt lat="44.47281" lon="1.64943">
        <ele>141</ele>
        <time>2019-08-08T12:53:20.712Z</time>
      </trkpt>
      <trkpt lat="44.47275" lon="1.64953">
        <ele>141</ele>
        <time>2019-08-08T12:53:25.719Z</time>
      </trkpt>
      <trkpt lat="44.47272" lon="1.64961">
        <ele>138</ele>
        <time>2019-08-08T12:53:30.715Z</time>
      </trkpt>
      <trkpt lat="44.47269" lon="1.64967">
        <ele>138</ele>
        <time>2019-08-08T12:53:35.730Z</time>
      </trkpt>
      <trkpt lat="44.47265" lon="1.64973">
        <ele>138</ele>
        <time>2019-08-08T12:53:40.707Z</time>
      </trkpt>
      <trkpt lat="44.47262" lon="1.64981">
        <ele>146</ele>
        <time>2019-08-08T12:53:45.697Z</time>
      </trkpt>
      <trkpt lat="44.4726" lon="1.64987">
        <ele>138</ele>
        <time>2019-08-08T12:53:50.709Z</time>
      </trkpt>
      <trkpt lat="44.47256" lon="1.64991">
        <ele>138</ele>
        <time>2019-08-08T12:53:55.706Z</time>
      </trkpt>
      <trkpt lat="44.47252" lon="1.64995">
        <ele>138</ele>
        <time>2019-08-08T12:53:59.721Z</time>
      </trkpt>
      <trkpt lat="44.47248" lon="1.65006">
        <ele>138</ele>
        <time>2019-08-08T12:54:04.710Z</time>
      </trkpt>
      <trkpt lat="44.47245" lon="1.65014">
        <ele>135</ele>
        <time>2019-08-08T12:54:08.728Z</time>
      </trkpt>
      <trkpt lat="44.47241" lon="1.65021">
        <ele>135</ele>
        <time>2019-08-08T12:54:13.705Z</time>
      </trkpt>
      <trkpt lat="44.47236" lon="1.65027">
        <ele>135</ele>
        <time>2019-08-08T12:54:18.723Z</time>
      </trkpt>
      <trkpt lat="44.47233" lon="1.65033">
        <ele>146</ele>
        <time>2019-08-08T12:54:23.730Z</time>
      </trkpt>
      <trkpt lat="44.47227" lon="1.65042">
        <ele>145</ele>
        <time>2019-08-08T12:54:28.716Z</time>
      </trkpt>
      <trkpt lat="44.4722" lon="1.65052">
        <ele>145</ele>
        <time>2019-08-08T12:54:33.714Z</time>
      </trkpt>
      <trkpt lat="44.47216" lon="1.65058">
        <ele>145</ele>
        <time>2019-08-08T12:54:38.711Z</time>
      </trkpt>
      <trkpt lat="44.47211" lon="1.65068">
        <ele>145</ele>
        <time>2019-08-08T12:54:43.699Z</time>
      </trkpt>
      <trkpt lat="44.47208" lon="1.65072">
        <ele>150</ele>
        <time>2019-08-08T12:54:47.729Z</time>
      </trkpt>
      <trkpt lat="44.47203" lon="1.65079">
        <ele>150</ele>
        <time>2019-08-08T12:54:52.705Z</time>
      </trkpt>
      <trkpt lat="44.47199" lon="1.65085">
        <ele>150</ele>
        <time>2019-08-08T12:54:56.746Z</time>
      </trkpt>
      <trkpt lat="44.47194" lon="1.65098">
        <ele>145</ele>
        <time>2019-08-08T12:55:01.716Z</time>
      </trkpt>
      <trkpt lat="44.47192" lon="1.65108">
        <ele>145</ele>
        <time>2019-08-08T12:55:06.731Z</time>
      </trkpt>
      <trkpt lat="44.47189" lon="1.65115">
        <ele>145</ele>
        <time>2019-08-08T12:55:11.701Z</time>
      </trkpt>
      <trkpt lat="44.47182" lon="1.65121">
        <ele>145</ele>
        <time>2019-08-08T12:55:16.709Z</time>
      </trkpt>
      <trkpt lat="44.47176" lon="1.65124">
        <ele>158</ele>
        <time>2019-08-08T12:55:21.709Z</time>
      </trkpt>
      <trkpt lat="44.47171" lon="1.65126">
        <ele>154</ele>
        <time>2019-08-08T12:55:26.705Z</time>
      </trkpt>
      <trkpt lat="44.47166" lon="1.65129">
        <ele>154</ele>
        <time>2019-08-08T12:55:30.754Z</time>
      </trkpt>
      <trkpt lat="44.47163" lon="1.65136">
        <ele>154</ele>
        <time>2019-08-08T12:55:35.708Z</time>
      </trkpt>
      <trkpt lat="44.47159" lon="1.65143">
        <ele>154</ele>
        <time>2019-08-08T12:55:40.718Z</time>
      </trkpt>
      <trkpt lat="44.47156" lon="1.65153">
        <ele>152</ele>
        <time>2019-08-08T12:55:45.712Z</time>
      </trkpt>
      <trkpt lat="44.47147" lon="1.65162">
        <ele>164</ele>
        <time>2019-08-08T12:56:09.733Z</time>
      </trkpt>
      <trkpt lat="44.47146" lon="1.65152">
        <ele>167</ele>
        <time>2019-08-08T12:56:14.711Z</time>
      </trkpt>
      <trkpt lat="44.47144" lon="1.65142">
        <ele>167</ele>
        <time>2019-08-08T12:56:19.724Z</time>
      </trkpt>
      <trkpt lat="44.47142" lon="1.65132">
        <ele>167</ele>
        <time>2019-08-08T12:56:24.753Z</time>
      </trkpt>
      <trkpt lat="44.47143" lon="1.65123">
        <ele>169</ele>
        <time>2019-08-08T12:56:29.731Z</time>
      </trkpt>
      <trkpt lat="44.47142" lon="1.65115">
        <ele>169</ele>
        <time>2019-08-08T12:56:34.743Z</time>
      </trkpt>
      <trkpt lat="44.47138" lon="1.65113">
        <ele>169</ele>
        <time>2019-08-08T12:56:39.738Z</time>
      </trkpt>
      <trkpt lat="44.47133" lon="1.65114">
        <ele>169</ele>
        <time>2019-08-08T12:56:44.708Z</time>
      </trkpt>
      <trkpt lat="44.47129" lon="1.65117">
        <ele>169</ele>
        <time>2019-08-08T12:56:49.720Z</time>
      </trkpt>
      <trkpt lat="44.47126" lon="1.65121">
        <ele>169</ele>
        <time>2019-08-08T12:56:53.742Z</time>
      </trkpt>
      <trkpt lat="44.47123" lon="1.65129">
        <ele>177</ele>
        <time>2019-08-08T12:56:58.748Z</time>
      </trkpt>
      <trkpt lat="44.47118" lon="1.65136">
        <ele>177</ele>
        <time>2019-08-08T12:57:03.734Z</time>
      </trkpt>
      <trkpt lat="44.47115" lon="1.65143">
        <ele>177</ele>
        <time>2019-08-08T12:57:08.736Z</time>
      </trkpt>
      <trkpt lat="44.47111" lon="1.6515">
        <ele>177</ele>
        <time>2019-08-08T12:57:13.740Z</time>
      </trkpt>
      <trkpt lat="44.47106" lon="1.65156">
        <ele>173</ele>
        <time>2019-08-08T12:57:18.741Z</time>
      </trkpt>
      <trkpt lat="44.47103" lon="1.6516">
        <ele>173</ele>
        <time>2019-08-08T12:57:23.717Z</time>
      </trkpt>
      <trkpt lat="44.47099" lon="1.65164">
        <ele>173</ele>
        <time>2019-08-08T12:57:27.732Z</time>
      </trkpt>
      <trkpt lat="44.47096" lon="1.65169">
        <ele>179</ele>
        <time>2019-08-08T12:57:32.735Z</time>
      </trkpt>
      <trkpt lat="44.47091" lon="1.65172">
        <ele>179</ele>
        <time>2019-08-08T12:57:37.710Z</time>
      </trkpt>
      <trkpt lat="44.47087" lon="1.65175">
        <ele>179</ele>
        <time>2019-08-08T12:57:42.715Z</time>
      </trkpt>
      <trkpt lat="44.47084" lon="1.65174">
        <ele>179</ele>
        <time>2019-08-08T12:57:47.740Z</time>
      </trkpt>
      <trkpt lat="44.4708" lon="1.65172">
        <ele>179</ele>
        <time>2019-08-08T12:57:52.718Z</time>
      </trkpt>
      <trkpt lat="44.47075" lon="1.65172">
        <ele>179</ele>
        <time>2019-08-08T12:57:57.737Z</time>
      </trkpt>
      <trkpt lat="44.47067" lon="1.6517">
        <ele>180</ele>
        <time>2019-08-08T12:58:01.754Z</time>
      </trkpt>
      <trkpt lat="44.47062" lon="1.65168">
        <ele>180</ele>
        <time>2019-08-08T12:58:06.747Z</time>
      </trkpt>
      <trkpt lat="44.47058" lon="1.65165">
        <ele>180</ele>
        <time>2019-08-08T12:58:11.740Z</time>
      </trkpt>
      <trkpt lat="44.47054" lon="1.65162">
        <ele>180</ele>
        <time>2019-08-08T12:58:16.727Z</time>
      </trkpt>
      <trkpt lat="44.47049" lon="1.65159">
        <ele>180</ele>
        <time>2019-08-08T12:58:21.717Z</time>
      </trkpt>
      <trkpt lat="44.47044" lon="1.65156">
        <ele>180</ele>
        <time>2019-08-08T12:58:26.719Z</time>
      </trkpt>
      <trkpt lat="44.47038" lon="1.65153">
        <ele>189</ele>
        <time>2019-08-08T12:58:31.732Z</time>
      </trkpt>
      <trkpt lat="44.47033" lon="1.6515">
        <ele>189</ele>
        <time>2019-08-08T12:58:35.753Z</time>
      </trkpt>
      <trkpt lat="44.47028" lon="1.6515">
        <ele>189</ele>
        <time>2019-08-08T12:58:40.743Z</time>
      </trkpt>
      <trkpt lat="44.4702" lon="1.65147">
        <ele>189</ele>
        <time>2019-08-08T12:58:45.735Z</time>
      </trkpt>
      <trkpt lat="44.47015" lon="1.65145">
        <ele>189</ele>
        <time>2019-08-08T12:58:50.709Z</time>
      </trkpt>
      <trkpt lat="44.47008" lon="1.65143">
        <ele>188</ele>
        <time>2019-08-08T12:58:55.724Z</time>
      </trkpt>
      <trkpt lat="44.47001" lon="1.65141">
        <ele>188</ele>
        <time>2019-08-08T12:59:00.737Z</time>
      </trkpt>
      <trkpt lat="44.46996" lon="1.65139">
        <ele>188</ele>
        <time>2019-08-08T12:59:05.723Z</time>
      </trkpt>
      <trkpt lat="44.46991" lon="1.65137">
        <ele>188</ele>
        <time>2019-08-08T12:59:10.708Z</time>
      </trkpt>
      <trkpt lat="44.46986" lon="1.65136">
        <ele>187</ele>
        <time>2019-08-08T12:59:14.735Z</time>
      </trkpt>
      <trkpt lat="44.46979" lon="1.65133">
        <ele>187</ele>
        <time>2019-08-08T12:59:19.724Z</time>
      </trkpt>
      <trkpt lat="44.46973" lon="1.65127">
        <ele>187</ele>
        <time>2019-08-08T12:59:24.733Z</time>
      </trkpt>
      <trkpt lat="44.46972" lon="1.6512">
        <ele>192</ele>
        <time>2019-08-08T13:00:16.747Z</time>
      </trkpt>
      <trkpt lat="44.46974" lon="1.65118">
        <ele>192</ele>
        <time>2019-08-08T13:00:21.728Z</time>
      </trkpt>
      <trkpt lat="44.46979" lon="1.65114">
        <ele>192</ele>
        <time>2019-08-08T13:00:26.727Z</time>
      </trkpt>
      <trkpt lat="44.46987" lon="1.65111">
        <ele>193</ele>
        <time>2019-08-08T13:00:31.750Z</time>
      </trkpt>
      <trkpt lat="44.46992" lon="1.6511">
        <ele>193</ele>
        <time>2019-08-08T13:00:36.716Z</time>
      </trkpt>
      <trkpt lat="44.46996" lon="1.65108">
        <ele>193</ele>
        <time>2019-08-08T13:00:41.750Z</time>
      </trkpt>
      <trkpt lat="44.46999" lon="1.65108">
        <ele>193</ele>
        <time>2019-08-08T13:00:46.711Z</time>
      </trkpt>
      <trkpt lat="44.47007" lon="1.65106">
        <ele>193</ele>
        <time>2019-08-08T13:00:50.733Z</time>
      </trkpt>
      <trkpt lat="44.4701" lon="1.65102">
        <ele>193</ele>
        <time>2019-08-08T13:00:55.707Z</time>
      </trkpt>
      <trkpt lat="44.47012" lon="1.65102">
        <ele>193</ele>
        <time>2019-08-08T13:00:59.728Z</time>
      </trkpt>
      <trkpt lat="44.47015" lon="1.65096">
        <ele>201</ele>
        <time>2019-08-08T13:01:04.710Z</time>
      </trkpt>
      <trkpt lat="44.47025" lon="1.65094">
        <ele>201</ele>
        <time>2019-08-08T13:01:09.706Z</time>
      </trkpt>
      <trkpt lat="44.47033" lon="1.65091">
        <ele>201</ele>
        <time>2019-08-08T13:01:14.708Z</time>
      </trkpt>
      <trkpt lat="44.47037" lon="1.65087">
        <ele>201</ele>
        <time>2019-08-08T13:01:18.736Z</time>
      </trkpt>
      <trkpt lat="44.47041" lon="1.65083">
        <ele>201</ele>
        <time>2019-08-08T13:01:23.713Z</time>
      </trkpt>
      <trkpt lat="44.47045" lon="1.65074">
        <ele>199</ele>
        <time>2019-08-08T13:01:28.719Z</time>
      </trkpt>
      <trkpt lat="44.4705" lon="1.65066">
        <ele>203</ele>
        <time>2019-08-08T13:01:32.747Z</time>
      </trkpt>
      <trkpt lat="44.47054" lon="1.6506">
        <ele>203</ele>
        <time>2019-08-08T13:01:37.747Z</time>
      </trkpt>
      <trkpt lat="44.47058" lon="1.65052">
        <ele>203</ele>
        <time>2019-08-08T13:01:42.737Z</time>
      </trkpt>
      <trkpt lat="44.47061" lon="1.65047">
        <ele>203</ele>
        <time>2019-08-08T13:01:47.758Z</time>
      </trkpt>
      <trkpt lat="44.47064" lon="1.6504">
        <ele>206</ele>
        <time>2019-08-08T13:01:52.721Z</time>
      </trkpt>
      <trkpt lat="44.47069" lon="1.65033">
        <ele>199</ele>
        <time>2019-08-08T13:01:57.718Z</time>
      </trkpt>
      <trkpt lat="44.47072" lon="1.65026">
        <ele>199</ele>
        <time>2019-08-08T13:02:02.742Z</time>
      </trkpt>
      <trkpt lat="44.47074" lon="1.65017">
        <ele>199</ele>
        <time>2019-08-08T13:02:07.734Z</time>
      </trkpt>
      <trkpt lat="44.47077" lon="1.65005">
        <ele>203</ele>
        <time>2019-08-08T13:02:12.713Z</time>
      </trkpt>
      <trkpt lat="44.47078" lon="1.64997">
        <ele>203</ele>
        <time>2019-08-08T13:02:16.731Z</time>
      </trkpt>
      <trkpt lat="44.4708" lon="1.6499">
        <ele>203</ele>
        <time>2019-08-08T13:02:21.734Z</time>
      </trkpt>
      <trkpt lat="44.47081" lon="1.64981">
        <ele>209</ele>
        <time>2019-08-08T13:02:26.716Z</time>
      </trkpt>
      <trkpt lat="44.47083" lon="1.64973">
        <ele>209</ele>
        <time>2019-08-08T13:02:31.708Z</time>
      </trkpt>
      <trkpt lat="44.47086" lon="1.64964">
        <ele>209</ele>
        <time>2019-08-08T13:02:36.746Z</time>
      </trkpt>
      <trkpt lat="44.47087" lon="1.64959">
        <ele>209</ele>
        <time>2019-08-08T13:02:41.716Z</time>
      </trkpt>
      <trkpt lat="44.47089" lon="1.64954">
        <ele>214</ele>
        <time>2019-08-08T13:02:46.709Z</time>
      </trkpt>
      <trkpt lat="44.47091" lon="1.64951">
        <ele>214</ele>
        <time>2019-08-08T13:02:51.702Z</time>
      </trkpt>
      <trkpt lat="44.47094" lon="1.64943">
        <ele>214</ele>
        <time>2019-08-08T13:02:56.723Z</time>
      </trkpt>
      <trkpt lat="44.47095" lon="1.64936">
        <ele>214</ele>
        <time>2019-08-08T13:03:01.719Z</time>
      </trkpt>
      <trkpt lat="44.47095" lon="1.64925">
        <ele>219</ele>
        <time>2019-08-08T13:03:06.735Z</time>
      </trkpt>
      <trkpt lat="44.47091" lon="1.64917">
        <ele>219</ele>
        <time>2019-08-08T13:03:11.737Z</time>
      </trkpt>
      <trkpt lat="44.47094" lon="1.64916">
        <ele>219</ele>
        <time>2019-08-08T13:03:35.736Z</time>
      </trkpt>
      <trkpt lat="44.47096" lon="1.64917">
        <ele>219</ele>
        <time>2019-08-08T13:03:40.729Z</time>
      </trkpt>
      <trkpt lat="44.47097" lon="1.64916">
        <ele>219</ele>
        <time>2019-08-08T13:03:45.704Z</time>
      </trkpt>
      <trkpt lat="44.47099" lon="1.64916">
        <ele>211</ele>
        <time>2019-08-08T13:03:49.730Z</time>
      </trkpt>
      <trkpt lat="44.47106" lon="1.64912">
        <ele>211</ele>
        <time>2019-08-08T13:03:54.734Z</time>
      </trkpt>
      <trkpt lat="44.47111" lon="1.6491">
        <ele>211</ele>
        <time>2019-08-08T13:03:59.753Z</time>
      </trkpt>
      <trkpt lat="44.47116" lon="1.64909">
        <ele>211</ele>
        <time>2019-08-08T13:04:04.737Z</time>
      </trkpt>
      <trkpt lat="44.47124" lon="1.6491">
        <ele>211</ele>
        <time>2019-08-08T13:04:09.713Z</time>
      </trkpt>
      <trkpt lat="44.47128" lon="1.64909">
        <ele>205</ele>
        <time>2019-08-08T13:04:13.761Z</time>
      </trkpt>
      <trkpt lat="44.47134" lon="1.6491">
        <ele>205</ele>
        <time>2019-08-08T13:04:18.758Z</time>
      </trkpt>
      <trkpt lat="44.47138" lon="1.64911">
        <ele>205</ele>
        <time>2019-08-08T13:04:23.725Z</time>
      </trkpt>
      <trkpt lat="44.47142" lon="1.64911">
        <ele>205</ele>
        <time>2019-08-08T13:04:28.718Z</time>
      </trkpt>
      <trkpt lat="44.47146" lon="1.64911">
        <ele>205</ele>
        <time>2019-08-08T13:04:33.706Z</time>
      </trkpt>
      <trkpt lat="44.47156" lon="1.64911">
        <ele>202</ele>
        <time>2019-08-08T13:04:38.715Z</time>
      </trkpt>
      <trkpt lat="44.47168" lon="1.64911">
        <ele>202</ele>
        <time>2019-08-08T13:04:43.744Z</time>
      </trkpt>
      <trkpt lat="44.47176" lon="1.64912">
        <ele>202</ele>
        <time>2019-08-08T13:04:48.698Z</time>
      </trkpt>
      <trkpt lat="44.47182" lon="1.64912">
        <ele>197</ele>
        <time>2019-08-08T13:04:52.720Z</time>
      </trkpt>
      <trkpt lat="44.47187" lon="1.64911">
        <ele>197</ele>
        <time>2019-08-08T13:04:57.748Z</time>
      </trkpt>
      <trkpt lat="44.47193" lon="1.64908">
        <ele>197</ele>
        <time>2019-08-08T13:05:02.705Z</time>
      </trkpt>
      <trkpt lat="44.47196" lon="1.64904">
        <ele>197</ele>
        <time>2019-08-08T13:05:07.756Z</time>
      </trkpt>
      <trkpt lat="44.47199" lon="1.64901">
        <ele>208</ele>
        <time>2019-08-08T13:05:12.729Z</time>
      </trkpt>
      <trkpt lat="44.47205" lon="1.64897">
        <ele>208</ele>
        <time>2019-08-08T13:05:17.719Z</time>
      </trkpt>
      <trkpt lat="44.47211" lon="1.64891">
        <ele>200</ele>
        <time>2019-08-08T13:05:21.745Z</time>
      </trkpt>
      <trkpt lat="44.47218" lon="1.64887">
        <ele>200</ele>
        <time>2019-08-08T13:05:26.707Z</time>
      </trkpt>
      <trkpt lat="44.47223" lon="1.64885">
        <ele>200</ele>
        <time>2019-08-08T13:05:30.750Z</time>
      </trkpt>
      <trkpt lat="44.4723" lon="1.64884">
        <ele>200</ele>
        <time>2019-08-08T13:05:35.736Z</time>
      </trkpt>
      <trkpt lat="44.47236" lon="1.64882">
        <ele>187</ele>
        <time>2019-08-08T13:05:40.721Z</time>
      </trkpt>
      <trkpt lat="44.47242" lon="1.64879">
        <ele>187</ele>
        <time>2019-08-08T13:05:44.740Z</time>
      </trkpt>
      <trkpt lat="44.47247" lon="1.64875">
        <ele>187</ele>
        <time>2019-08-08T13:05:49.724Z</time>
      </trkpt>
      <trkpt lat="44.47252" lon="1.64867">
        <ele>201</ele>
        <time>2019-08-08T13:05:54.736Z</time>
      </trkpt>
      <trkpt lat="44.47252" lon="1.64859">
        <ele>201</ele>
        <time>2019-08-08T13:05:59.721Z</time>
      </trkpt>
      <trkpt lat="44.47253" lon="1.64849">
        <ele>201</ele>
        <time>2019-08-08T13:06:04.722Z</time>
      </trkpt>
      <trkpt lat="44.47261" lon="1.64841">
        <ele>213</ele>
        <time>2019-08-08T13:06:09.729Z</time>
      </trkpt>
      <trkpt lat="44.47267" lon="1.64839">
        <ele>193</ele>
        <time>2019-08-08T13:06:14.702Z</time>
      </trkpt>
      <trkpt lat="44.47274" lon="1.64835">
        <ele>193</ele>
        <time>2019-08-08T13:06:19.740Z</time>
      </trkpt>
      <trkpt lat="44.4728" lon="1.64833">
        <ele>193</ele>
        <time>2019-08-08T13:06:24.748Z</time>
      </trkpt>
      <trkpt lat="44.47284" lon="1.6483">
        <ele>193</ele>
        <time>2019-08-08T13:06:29.734Z</time>
      </trkpt>
      <trkpt lat="44.47289" lon="1.64829">
        <ele>193</ele>
        <time>2019-08-08T13:06:34.714Z</time>
      </trkpt>
      <trkpt lat="44.47295" lon="1.64824">
        <ele>170</ele>
        <time>2019-08-08T13:06:39.725Z</time>
      </trkpt>
      <trkpt lat="44.47297" lon="1.64818">
        <ele>202</ele>
        <time>2019-08-08T13:06:44.729Z</time>
      </trkpt>
      <trkpt lat="44.473" lon="1.64814">
        <ele>202</ele>
        <time>2019-08-08T13:06:49.699Z</time>
      </trkpt>
      <trkpt lat="44.47307" lon="1.64813">
        <ele>202</ele>
        <time>2019-08-08T13:06:53.748Z</time>
      </trkpt>
      <trkpt lat="44.47314" lon="1.64809">
        <ele>202</ele>
        <time>2019-08-08T13:06:58.729Z</time>
      </trkpt>
      <trkpt lat="44.47317" lon="1.64807">
        <ele>202</ele>
        <time>2019-08-08T13:07:02.748Z</time>
      </trkpt>
      <trkpt lat="44.4732" lon="1.64803">
        <ele>173</ele>
        <time>2019-08-08T13:07:07.704Z</time>
      </trkpt>
      <trkpt lat="44.47325" lon="1.64798">
        <ele>173</ele>
        <time>2019-08-08T13:07:12.716Z</time>
      </trkpt>
      <trkpt lat="44.4733" lon="1.64794">
        <ele>173</ele>
        <time>2019-08-08T13:07:17.725Z</time>
      </trkpt>
      <trkpt lat="44.47339" lon="1.64787">
        <ele>208</ele>
        <time>2019-08-08T13:07:22.721Z</time>
      </trkpt>
      <trkpt lat="44.47347" lon="1.64777">
        <ele>208</ele>
        <time>2019-08-08T13:07:27.746Z</time>
      </trkpt>
      <trkpt lat="44.47352" lon="1.64774">
        <ele>172</ele>
        <time>2019-08-08T13:07:32.721Z</time>
      </trkpt>
      <trkpt lat="44.47357" lon="1.64769">
        <ele>172</ele>
        <time>2019-08-08T13:07:37.712Z</time>
      </trkpt>
      <trkpt lat="44.47359" lon="1.64766">
        <ele>172</ele>
        <time>2019-08-08T13:07:41.735Z</time>
      </trkpt>
      <trkpt lat="44.47364" lon="1.64763">
        <ele>205</ele>
        <time>2019-08-08T13:07:46.717Z</time>
      </trkpt>
      <trkpt lat="44.47367" lon="1.64758">
        <ele>205</ele>
        <time>2019-08-08T13:07:50.742Z</time>
      </trkpt>
      <trkpt lat="44.47374" lon="1.64754">
        <ele>205</ele>
        <time>2019-08-08T13:07:55.720Z</time>
      </trkpt>
      <trkpt lat="44.47378" lon="1.64749">
        <ele>184</ele>
        <time>2019-08-08T13:08:00.689Z</time>
      </trkpt>
      <trkpt lat="44.47382" lon="1.64743">
        <ele>184</ele>
        <time>2019-08-08T13:08:05.700Z</time>
      </trkpt>
      <trkpt lat="44.47387" lon="1.6474">
        <ele>184</ele>
        <time>2019-08-08T13:08:09.715Z</time>
      </trkpt>
      <trkpt lat="44.47392" lon="1.64735">
        <ele>197</ele>
        <time>2019-08-08T13:08:14.690Z</time>
      </trkpt>
      <trkpt lat="44.47397" lon="1.64731">
        <ele>197</ele>
        <time>2019-08-08T13:08:18.729Z</time>
      </trkpt>
      <trkpt lat="44.47405" lon="1.64728">
        <ele>185</ele>
        <time>2019-08-08T13:08:23.708Z</time>
      </trkpt>
      <trkpt lat="44.47408" lon="1.64721">
        <ele>185</ele>
        <time>2019-08-08T13:09:38.719Z</time>
      </trkpt>
      <trkpt lat="44.47408" lon="1.64718">
        <ele>185</ele>
        <time>2019-08-08T13:09:43.683Z</time>
      </trkpt>
      <trkpt lat="44.47408" lon="1.64716">
        <ele>185</ele>
        <time>2019-08-08T13:09:48.682Z</time>
      </trkpt>
      <trkpt lat="44.4741" lon="1.64711">
        <ele>185</ele>
        <time>2019-08-08T13:09:52.708Z</time>
      </trkpt>
      <trkpt lat="44.47415" lon="1.64704">
        <ele>197</ele>
        <time>2019-08-08T13:09:57.705Z</time>
      </trkpt>
      <trkpt lat="44.47417" lon="1.64702">
        <ele>197</ele>
        <time>2019-08-08T13:10:02.711Z</time>
      </trkpt>
      <trkpt lat="44.4742" lon="1.64695">
        <ele>197</ele>
        <time>2019-08-08T13:10:07.704Z</time>
      </trkpt>
      <trkpt lat="44.47422" lon="1.64688">
        <ele>197</ele>
        <time>2019-08-08T13:10:11.719Z</time>
      </trkpt>
      <trkpt lat="44.47421" lon="1.64681">
        <ele>197</ele>
        <time>2019-08-08T13:10:16.723Z</time>
      </trkpt>
      <trkpt lat="44.47424" lon="1.64678">
        <ele>207</ele>
        <time>2019-08-08T13:12:10.723Z</time>
      </trkpt>
      <trkpt lat="44.47427" lon="1.64677">
        <ele>207</ele>
        <time>2019-08-08T13:12:15.720Z</time>
      </trkpt>
      <trkpt lat="44.47429" lon="1.64677">
        <ele>207</ele>
        <time>2019-08-08T13:12:20.719Z</time>
      </trkpt>
      <trkpt lat="44.47433" lon="1.64677">
        <ele>200</ele>
        <time>2019-08-08T13:12:25.723Z</time>
      </trkpt>
      <trkpt lat="44.47436" lon="1.64676">
        <ele>200</ele>
        <time>2019-08-08T13:12:30.735Z</time>
      </trkpt>
      <trkpt lat="44.47441" lon="1.64673">
        <ele>200</ele>
        <time>2019-08-08T13:12:35.748Z</time>
      </trkpt>
      <trkpt lat="44.47449" lon="1.64672">
        <ele>200</ele>
        <time>2019-08-08T13:12:40.724Z</time>
      </trkpt>
      <trkpt lat="44.47456" lon="1.64667">
        <ele>200</ele>
        <time>2019-08-08T13:12:45.736Z</time>
      </trkpt>
      <trkpt lat="44.47461" lon="1.64663">
        <ele>192</ele>
        <time>2019-08-08T13:12:50.721Z</time>
      </trkpt>
      <trkpt lat="44.47466" lon="1.64658">
        <ele>192</ele>
        <time>2019-08-08T13:12:55.707Z</time>
      </trkpt>
      <trkpt lat="44.47474" lon="1.6465">
        <ele>197</ele>
        <time>2019-08-08T13:13:00.716Z</time>
      </trkpt>
      <trkpt lat="44.47476" lon="1.6465">
        <ele>197</ele>
        <time>2019-08-08T13:13:05.707Z</time>
      </trkpt>
      <trkpt lat="44.47482" lon="1.64645">
        <ele>197</ele>
        <time>2019-08-08T13:13:09.732Z</time>
      </trkpt>
      <trkpt lat="44.47487" lon="1.64639">
        <ele>174</ele>
        <time>2019-08-08T13:13:14.722Z</time>
      </trkpt>
      <trkpt lat="44.47492" lon="1.64635">
        <ele>174</ele>
        <time>2019-08-08T13:13:19.713Z</time>
      </trkpt>
      <trkpt lat="44.47497" lon="1.6463">
        <ele>174</ele>
        <time>2019-08-08T13:13:23.742Z</time>
      </trkpt>
      <trkpt lat="44.475" lon="1.64626">
        <ele>174</ele>
        <time>2019-08-08T13:13:28.721Z</time>
      </trkpt>
      <trkpt lat="44.47503" lon="1.64622">
        <ele>191</ele>
        <time>2019-08-08T13:13:32.747Z</time>
      </trkpt>
      <trkpt lat="44.47508" lon="1.64619">
        <ele>191</ele>
        <time>2019-08-08T13:13:37.721Z</time>
      </trkpt>
      <trkpt lat="44.47514" lon="1.64616">
        <ele>191</ele>
        <time>2019-08-08T13:13:42.722Z</time>
      </trkpt>
      <trkpt lat="44.47519" lon="1.64613">
        <ele>177</ele>
        <time>2019-08-08T13:13:47.733Z</time>
      </trkpt>
      <trkpt lat="44.47526" lon="1.64611">
        <ele>177</ele>
        <time>2019-08-08T13:13:52.707Z</time>
      </trkpt>
      <trkpt lat="44.47533" lon="1.6461">
        <ele>177</ele>
        <time>2019-08-08T13:13:56.722Z</time>
      </trkpt>
      <trkpt lat="44.4754" lon="1.64608">
        <ele>177</ele>
        <time>2019-08-08T13:14:01.731Z</time>
      </trkpt>
      <trkpt lat="44.47546" lon="1.64607">
        <ele>183</ele>
        <time>2019-08-08T13:14:06.718Z</time>
      </trkpt>
      <trkpt lat="44.47551" lon="1.64605">
        <ele>183</ele>
        <time>2019-08-08T13:14:11.707Z</time>
      </trkpt>
      <trkpt lat="44.47557" lon="1.64601">
        <ele>183</ele>
        <time>2019-08-08T13:14:16.707Z</time>
      </trkpt>
      <trkpt lat="44.47563" lon="1.64596">
        <ele>199</ele>
        <time>2019-08-08T13:14:21.724Z</time>
      </trkpt>
      <trkpt lat="44.47569" lon="1.64591">
        <ele>199</ele>
        <time>2019-08-08T13:14:26.728Z</time>
      </trkpt>
      <trkpt lat="44.47576" lon="1.6459">
        <ele>203</ele>
        <time>2019-08-08T13:14:31.720Z</time>
      </trkpt>
      <trkpt lat="44.47579" lon="1.64586">
        <ele>203</ele>
        <time>2019-08-08T13:14:36.707Z</time>
      </trkpt>
      <trkpt lat="44.47583" lon="1.64584">
        <ele>203</ele>
        <time>2019-08-08T13:14:40.730Z</time>
      </trkpt>
      <trkpt lat="44.47589" lon="1.6458">
        <ele>203</ele>
        <time>2019-08-08T13:14:45.710Z</time>
      </trkpt>
      <trkpt lat="44.47597" lon="1.64574">
        <ele>189</ele>
        <time>2019-08-08T13:15:09.729Z</time>
      </trkpt>
      <trkpt lat="44.476" lon="1.64575">
        <ele>189</ele>
        <time>2019-08-08T13:15:14.726Z</time>
      </trkpt>
      <trkpt lat="44.4761" lon="1.64577">
        <ele>189</ele>
        <time>2019-08-08T13:15:19.701Z</time>
      </trkpt>
      <trkpt lat="44.47623" lon="1.64572">
        <ele>189</ele>
        <time>2019-08-08T13:15:24.731Z</time>
      </trkpt>
      <trkpt lat="44.47625" lon="1.64568">
        <ele>195</ele>
        <time>2019-08-08T13:15:28.747Z</time>
      </trkpt>
      <trkpt lat="44.4763" lon="1.6456">
        <ele>195</ele>
        <time>2019-08-08T13:15:33.715Z</time>
      </trkpt>
      <trkpt lat="44.47635" lon="1.64554">
        <ele>195</ele>
        <time>2019-08-08T13:15:38.711Z</time>
      </trkpt>
      <trkpt lat="44.47639" lon="1.64549">
        <ele>195</ele>
        <time>2019-08-08T13:15:42.721Z</time>
      </trkpt>
      <trkpt lat="44.47646" lon="1.64546">
        <ele>195</ele>
        <time>2019-08-08T13:15:47.709Z</time>
      </trkpt>
      <trkpt lat="44.47653" lon="1.64541">
        <ele>206</ele>
        <time>2019-08-08T13:15:52.729Z</time>
      </trkpt>
      <trkpt lat="44.47661" lon="1.6454">
        <ele>206</ele>
        <time>2019-08-08T13:15:57.711Z</time>
      </trkpt>
      <trkpt lat="44.47667" lon="1.64538">
        <ele>206</ele>
        <time>2019-08-08T13:16:01.740Z</time>
      </trkpt>
      <trkpt lat="44.47674" lon="1.64538">
        <ele>206</ele>
        <time>2019-08-08T13:16:06.725Z</time>
      </trkpt>
      <trkpt lat="44.47681" lon="1.64538">
        <ele>202</ele>
        <time>2019-08-08T13:16:10.741Z</time>
      </trkpt>
      <trkpt lat="44.47688" lon="1.6454">
        <ele>202</ele>
        <time>2019-08-08T13:16:15.715Z</time>
      </trkpt>
      <trkpt lat="44.47695" lon="1.64542">
        <ele>180</ele>
        <time>2019-08-08T13:16:20.701Z</time>
      </trkpt>
      <trkpt lat="44.47702" lon="1.64543">
        <ele>180</ele>
        <time>2019-08-08T13:16:24.727Z</time>
      </trkpt>
      <trkpt lat="44.47711" lon="1.64542">
        <ele>186</ele>
        <time>2019-08-08T13:16:29.721Z</time>
      </trkpt>
      <trkpt lat="44.47718" lon="1.64544">
        <ele>186</ele>
        <time>2019-08-08T13:16:34.717Z</time>
      </trkpt>
      <trkpt lat="44.47722" lon="1.64544">
        <ele>186</ele>
        <time>2019-08-08T13:16:38.737Z</time>
      </trkpt>
      <trkpt lat="44.47729" lon="1.64544">
        <ele>186</ele>
        <time>2019-08-08T13:16:43.721Z</time>
      </trkpt>
      <trkpt lat="44.47735" lon="1.64543">
        <ele>186</ele>
        <time>2019-08-08T13:16:47.768Z</time>
      </trkpt>
      <trkpt lat="44.47742" lon="1.64544">
        <ele>187</ele>
        <time>2019-08-08T13:16:52.709Z</time>
      </trkpt>
      <trkpt lat="44.47748" lon="1.64544">
        <ele>187</ele>
        <time>2019-08-08T13:16:56.736Z</time>
      </trkpt>
      <trkpt lat="44.47755" lon="1.64542">
        <ele>187</ele>
        <time>2019-08-08T13:17:01.711Z</time>
      </trkpt>
      <trkpt lat="44.47758" lon="1.64542">
        <ele>208</ele>
        <time>2019-08-08T13:17:05.740Z</time>
      </trkpt>
      <trkpt lat="44.47764" lon="1.6454">
        <ele>203</ele>
        <time>2019-08-08T13:17:10.709Z</time>
      </trkpt>
      <trkpt lat="44.4777" lon="1.64539">
        <ele>203</ele>
        <time>2019-08-08T13:17:14.747Z</time>
      </trkpt>
      <trkpt lat="44.47777" lon="1.64534">
        <ele>203</ele>
        <time>2019-08-08T13:17:19.728Z</time>
      </trkpt>
      <trkpt lat="44.47782" lon="1.64523">
        <ele>203</ele>
        <time>2019-08-08T13:17:24.708Z</time>
      </trkpt>
      <trkpt lat="44.47788" lon="1.64517">
        <ele>203</ele>
        <time>2019-08-08T13:17:29.718Z</time>
      </trkpt>
      <trkpt lat="44.47797" lon="1.64515">
        <ele>201</ele>
        <time>2019-08-08T13:17:34.715Z</time>
      </trkpt>
      <trkpt lat="44.47804" lon="1.64518">
        <ele>201</ele>
        <time>2019-08-08T13:17:39.713Z</time>
      </trkpt>
      <trkpt lat="44.4781" lon="1.64523">
        <ele>201</ele>
        <time>2019-08-08T13:17:44.719Z</time>
      </trkpt>
      <trkpt lat="44.47816" lon="1.64525">
        <ele>201</ele>
        <time>2019-08-08T13:17:49.712Z</time>
      </trkpt>
      <trkpt lat="44.47821" lon="1.64528">
        <ele>193</ele>
        <time>2019-08-08T13:17:54.723Z</time>
      </trkpt>
      <trkpt lat="44.47826" lon="1.64531">
        <ele>193</ele>
        <time>2019-08-08T13:17:59.710Z</time>
      </trkpt>
      <trkpt lat="44.4783" lon="1.64533">
        <ele>193</ele>
        <time>2019-08-08T13:18:03.724Z</time>
      </trkpt>
      <trkpt lat="44.47836" lon="1.64536">
        <ele>193</ele>
        <time>2019-08-08T13:18:07.748Z</time>
      </trkpt>
      <trkpt lat="44.47843" lon="1.64537">
        <ele>193</ele>
        <time>2019-08-08T13:18:12.743Z</time>
      </trkpt>
      <trkpt lat="44.47851" lon="1.64538">
        <ele>183</ele>
        <time>2019-08-08T13:18:17.721Z</time>
      </trkpt>
      <trkpt lat="44.47857" lon="1.64538">
        <ele>183</ele>
        <time>2019-08-08T13:18:22.701Z</time>
      </trkpt>
      <trkpt lat="44.47862" lon="1.64538">
        <ele>183</ele>
        <time>2019-08-08T13:18:26.740Z</time>
      </trkpt>
      <trkpt lat="44.47868" lon="1.64539">
        <ele>183</ele>
        <time>2019-08-08T13:18:31.707Z</time>
      </trkpt>
      <trkpt lat="44.47875" lon="1.64539">
        <ele>183</ele>
        <time>2019-08-08T13:18:36.715Z</time>
      </trkpt>
      <trkpt lat="44.47882" lon="1.64538">
        <ele>183</ele>
        <time>2019-08-08T13:18:41.729Z</time>
      </trkpt>
      <trkpt lat="44.47891" lon="1.64534">
        <ele>183</ele>
        <time>2019-08-08T13:18:46.709Z</time>
      </trkpt>
      <trkpt lat="44.47896" lon="1.64528">
        <ele>183</ele>
        <time>2019-08-08T13:18:50.723Z</time>
      </trkpt>
      <trkpt lat="44.47903" lon="1.64522">
        <ele>183</ele>
        <time>2019-08-08T13:18:55.735Z</time>
      </trkpt>
      <trkpt lat="44.47906" lon="1.64517">
        <ele>191</ele>
        <time>2019-08-08T13:19:00.723Z</time>
      </trkpt>
      <trkpt lat="44.47913" lon="1.64513">
        <ele>198</ele>
        <time>2019-08-08T13:19:05.710Z</time>
      </trkpt>
      <trkpt lat="44.47919" lon="1.64512">
        <ele>198</ele>
        <time>2019-08-08T13:19:10.712Z</time>
      </trkpt>
      <trkpt lat="44.47925" lon="1.64516">
        <ele>191</ele>
        <time>2019-08-08T13:19:15.724Z</time>
      </trkpt>
      <trkpt lat="44.47934" lon="1.64523">
        <ele>190</ele>
        <time>2019-08-08T13:19:20.715Z</time>
      </trkpt>
      <trkpt lat="44.47942" lon="1.64528">
        <ele>190</ele>
        <time>2019-08-08T13:19:25.731Z</time>
      </trkpt>
      <trkpt lat="44.47949" lon="1.64533">
        <ele>190</ele>
        <time>2019-08-08T13:19:30.715Z</time>
      </trkpt>
      <trkpt lat="44.47956" lon="1.64534">
        <ele>190</ele>
        <time>2019-08-08T13:19:35.706Z</time>
      </trkpt>
      <trkpt lat="44.47961" lon="1.64537">
        <ele>180</ele>
        <time>2019-08-08T13:19:40.733Z</time>
      </trkpt>
      <trkpt lat="44.47966" lon="1.64535">
        <ele>180</ele>
        <time>2019-08-08T13:19:45.715Z</time>
      </trkpt>
      <trkpt lat="44.47972" lon="1.64531">
        <ele>180</ele>
        <time>2019-08-08T13:19:50.714Z</time>
      </trkpt>
      <trkpt lat="44.47978" lon="1.64526">
        <ele>180</ele>
        <time>2019-08-08T13:19:54.753Z</time>
      </trkpt>
      <trkpt lat="44.47982" lon="1.64518">
        <ele>180</ele>
        <time>2019-08-08T13:19:59.725Z</time>
      </trkpt>
      <trkpt lat="44.47985" lon="1.64511">
        <ele>187</ele>
        <time>2019-08-08T13:20:04.713Z</time>
      </trkpt>
      <trkpt lat="44.4799" lon="1.64503">
        <ele>182</ele>
        <time>2019-08-08T13:20:09.724Z</time>
      </trkpt>
      <trkpt lat="44.47995" lon="1.64496">
        <ele>182</ele>
        <time>2019-08-08T13:20:14.717Z</time>
      </trkpt>
      <trkpt lat="44.48" lon="1.64491">
        <ele>182</ele>
        <time>2019-08-08T13:20:19.727Z</time>
      </trkpt>
      <trkpt lat="44.48006" lon="1.64484">
        <ele>189</ele>
        <time>2019-08-08T13:20:24.700Z</time>
      </trkpt>
      <trkpt lat="44.48011" lon="1.64478">
        <ele>189</ele>
        <time>2019-08-08T13:20:28.710Z</time>
      </trkpt>
      <trkpt lat="44.48016" lon="1.64471">
        <ele>183</ele>
        <time>2019-08-08T13:20:32.726Z</time>
      </trkpt>
      <trkpt lat="44.48023" lon="1.64465">
        <ele>183</ele>
        <time>2019-08-08T13:20:37.720Z</time>
      </trkpt>
      <trkpt lat="44.4803" lon="1.64462">
        <ele>183</ele>
        <time>2019-08-08T13:20:42.707Z</time>
      </trkpt>
      <trkpt lat="44.48034" lon="1.64459">
        <ele>183</ele>
        <time>2019-08-08T13:20:46.721Z</time>
      </trkpt>
      <trkpt lat="44.48039" lon="1.64454">
        <ele>187</ele>
        <time>2019-08-08T13:20:51.716Z</time>
      </trkpt>
      <trkpt lat="44.48043" lon="1.64446">
        <ele>182</ele>
        <time>2019-08-08T13:20:56.712Z</time>
      </trkpt>
      <trkpt lat="44.48046" lon="1.64439">
        <ele>182</ele>
        <time>2019-08-08T13:21:01.719Z</time>
      </trkpt>
      <trkpt lat="44.48052" lon="1.64435">
        <ele>182</ele>
        <time>2019-08-08T13:21:06.711Z</time>
      </trkpt>
      <trkpt lat="44.48056" lon="1.64427">
        <ele>184</ele>
        <time>2019-08-08T13:21:11.713Z</time>
      </trkpt>
      <trkpt lat="44.48059" lon="1.64421">
        <ele>184</ele>
        <time>2019-08-08T13:21:15.727Z</time>
      </trkpt>
      <trkpt lat="44.48064" lon="1.64416">
        <ele>184</ele>
        <time>2019-08-08T13:21:19.749Z</time>
      </trkpt>
      <trkpt lat="44.48067" lon="1.64411">
        <ele>184</ele>
        <time>2019-08-08T13:21:24.719Z</time>
      </trkpt>
      <trkpt lat="44.48071" lon="1.64405">
        <ele>178</ele>
        <time>2019-08-08T13:21:29.715Z</time>
      </trkpt>
      <trkpt lat="44.48074" lon="1.64402">
        <ele>179</ele>
        <time>2019-08-08T13:21:34.703Z</time>
      </trkpt>
      <trkpt lat="44.4808" lon="1.64395">
        <ele>179</ele>
        <time>2019-08-08T13:21:38.727Z</time>
      </trkpt>
      <trkpt lat="44.48079" lon="1.64387">
        <ele>179</ele>
        <time>2019-08-08T13:21:43.712Z</time>
      </trkpt>
      <trkpt lat="44.48079" lon="1.64382">
        <ele>179</ele>
        <time>2019-08-08T13:21:48.708Z</time>
      </trkpt>
      <trkpt lat="44.4808" lon="1.64374">
        <ele>180</ele>
        <time>2019-08-08T13:21:53.723Z</time>
      </trkpt>
      <trkpt lat="44.48081" lon="1.64367">
        <ele>180</ele>
        <time>2019-08-08T13:21:58.711Z</time>
      </trkpt>
      <trkpt lat="44.48084" lon="1.64355">
        <ele>180</ele>
        <time>2019-08-08T13:22:03.734Z</time>
      </trkpt>
      <trkpt lat="44.48086" lon="1.64352">
        <ele>180</ele>
        <time>2019-08-08T13:22:08.728Z</time>
      </trkpt>
      <trkpt lat="44.48086" lon="1.64352">
        <ele>180</ele>
        <time>2019-08-08T13:22:13.711Z</time>
      </trkpt>
      <trkpt lat="44.48091" lon="1.64349">
        <ele>180</ele>
        <time>2019-08-08T13:22:18.721Z</time>
      </trkpt>
      <trkpt lat="44.481" lon="1.64345">
        <ele>180</ele>
        <time>2019-08-08T13:22:23.744Z</time>
      </trkpt>
      <trkpt lat="44.48107" lon="1.64341">
        <ele>180</ele>
        <time>2019-08-08T13:22:28.738Z</time>
      </trkpt>
      <trkpt lat="44.48115" lon="1.6434">
        <ele>180</ele>
        <time>2019-08-08T13:22:33.713Z</time>
      </trkpt>
      <trkpt lat="44.48118" lon="1.64339">
        <ele>180</ele>
        <time>2019-08-08T13:22:37.727Z</time>
      </trkpt>
      <trkpt lat="44.48124" lon="1.64336">
        <ele>180</ele>
        <time>2019-08-08T13:22:42.716Z</time>
      </trkpt>
      <trkpt lat="44.4813" lon="1.64336">
        <ele>177</ele>
        <time>2019-08-08T13:22:46.728Z</time>
      </trkpt>
      <trkpt lat="44.48134" lon="1.64338">
        <ele>177</ele>
        <time>2019-08-08T13:22:51.710Z</time>
      </trkpt>
      <trkpt lat="44.48138" lon="1.6434">
        <ele>177</ele>
        <time>2019-08-08T13:22:56.712Z</time>
      </trkpt>
      <trkpt lat="44.48142" lon="1.64341">
        <ele>177</ele>
        <time>2019-08-08T13:23:00.729Z</time>
      </trkpt>
      <trkpt lat="44.48147" lon="1.64343">
        <ele>177</ele>
        <time>2019-08-08T13:23:05.729Z</time>
      </trkpt>
      <trkpt lat="44.48152" lon="1.64344">
        <ele>177</ele>
        <time>2019-08-08T13:23:09.760Z</time>
      </trkpt>
      <trkpt lat="44.48164" lon="1.64345">
        <ele>172</ele>
        <time>2019-08-08T13:23:14.741Z</time>
      </trkpt>
      <trkpt lat="44.4817" lon="1.64344">
        <ele>172</ele>
        <time>2019-08-08T13:23:19.729Z</time>
      </trkpt>
      <trkpt lat="44.48176" lon="1.64341">
        <ele>172</ele>
        <time>2019-08-08T13:23:24.714Z</time>
      </trkpt>
      <trkpt lat="44.48182" lon="1.64336">
        <ele>168</ele>
        <time>2019-08-08T13:23:29.700Z</time>
      </trkpt>
      <trkpt lat="44.48187" lon="1.64328">
        <ele>168</ele>
        <time>2019-08-08T13:23:33.730Z</time>
      </trkpt>
      <trkpt lat="44.48191" lon="1.64318">
        <ele>170</ele>
        <time>2019-08-08T13:23:38.753Z</time>
      </trkpt>
      <trkpt lat="44.48193" lon="1.64313">
        <ele>170</ele>
        <time>2019-08-08T13:23:43.733Z</time>
      </trkpt>
      <trkpt lat="44.48194" lon="1.64308">
        <ele>170</ele>
        <time>2019-08-08T13:23:48.723Z</time>
      </trkpt>
      <trkpt lat="44.48194" lon="1.64301">
        <ele>170</ele>
        <time>2019-08-08T13:23:53.707Z</time>
      </trkpt>
      <trkpt lat="44.48197" lon="1.64294">
        <ele>170</ele>
        <time>2019-08-08T13:23:57.733Z</time>
      </trkpt>
      <trkpt lat="44.48198" lon="1.6429">
        <ele>171</ele>
        <time>2019-08-08T13:24:02.733Z</time>
      </trkpt>
      <trkpt lat="44.48198" lon="1.64282">
        <ele>171</ele>
        <time>2019-08-08T13:24:07.729Z</time>
      </trkpt>
      <trkpt lat="44.48194" lon="1.64272">
        <ele>171</ele>
        <time>2019-08-08T13:24:12.727Z</time>
      </trkpt>
      <trkpt lat="44.48193" lon="1.64263">
        <ele>169</ele>
        <time>2019-08-08T13:24:17.713Z</time>
      </trkpt>
      <trkpt lat="44.48191" lon="1.64255">
        <ele>169</ele>
        <time>2019-08-08T13:24:22.739Z</time>
      </trkpt>
      <trkpt lat="44.48189" lon="1.64247">
        <ele>169</ele>
        <time>2019-08-08T13:24:27.715Z</time>
      </trkpt>
      <trkpt lat="44.48186" lon="1.64235">
        <ele>164</ele>
        <time>2019-08-08T13:24:32.739Z</time>
      </trkpt>
      <trkpt lat="44.48185" lon="1.64227">
        <ele>164</ele>
        <time>2019-08-08T13:24:37.716Z</time>
      </trkpt>
      <trkpt lat="44.48187" lon="1.64222">
        <ele>164</ele>
        <time>2019-08-08T13:24:42.711Z</time>
      </trkpt>
      <trkpt lat="44.48188" lon="1.64216">
        <ele>164</ele>
        <time>2019-08-08T13:24:47.711Z</time>
      </trkpt>
      <trkpt lat="44.48188" lon="1.6421">
        <ele>164</ele>
        <time>2019-08-08T13:24:51.751Z</time>
      </trkpt>
      <trkpt lat="44.48185" lon="1.64203">
        <ele>160</ele>
        <time>2019-08-08T13:24:56.711Z</time>
      </trkpt>
      <trkpt lat="44.48178" lon="1.6419">
        <ele>166</ele>
        <time>2019-08-08T13:25:01.744Z</time>
      </trkpt>
      <trkpt lat="44.48174" lon="1.64183">
        <ele>166</ele>
        <time>2019-08-08T13:25:06.728Z</time>
      </trkpt>
      <trkpt lat="44.48173" lon="1.64178">
        <ele>162</ele>
        <time>2019-08-08T13:25:11.710Z</time>
      </trkpt>
      <trkpt lat="44.48171" lon="1.64168">
        <ele>162</ele>
        <time>2019-08-08T13:25:16.721Z</time>
      </trkpt>
      <trkpt lat="44.48168" lon="1.64161">
        <ele>162</ele>
        <time>2019-08-08T13:25:21.724Z</time>
      </trkpt>
      <trkpt lat="44.48165" lon="1.6415">
        <ele>160</ele>
        <time>2019-08-08T13:25:26.727Z</time>
      </trkpt>
      <trkpt lat="44.48164" lon="1.64142">
        <ele>160</ele>
        <time>2019-08-08T13:25:31.722Z</time>
      </trkpt>
      <trkpt lat="44.48161" lon="1.64134">
        <ele>160</ele>
        <time>2019-08-08T13:25:36.730Z</time>
      </trkpt>
      <trkpt lat="44.48157" lon="1.64128">
        <ele>160</ele>
        <time>2019-08-08T13:25:41.710Z</time>
      </trkpt>
      <trkpt lat="44.48155" lon="1.64125">
        <ele>160</ele>
        <time>2019-08-08T13:25:45.728Z</time>
      </trkpt>
      <trkpt lat="44.48149" lon="1.64121">
        <ele>161</ele>
        <time>2019-08-08T13:25:50.710Z</time>
      </trkpt>
      <trkpt lat="44.48146" lon="1.64116">
        <ele>161</ele>
        <time>2019-08-08T13:25:55.718Z</time>
      </trkpt>
      <trkpt lat="44.48144" lon="1.64112">
        <ele>161</ele>
        <time>2019-08-08T13:26:00.708Z</time>
      </trkpt>
      <trkpt lat="44.48137" lon="1.64105">
        <ele>161</ele>
        <time>2019-08-08T13:26:05.718Z</time>
      </trkpt>
      <trkpt lat="44.4813" lon="1.64098">
        <ele>161</ele>
        <time>2019-08-08T13:26:10.719Z</time>
      </trkpt>
      <trkpt lat="44.48124" lon="1.64094">
        <ele>161</ele>
        <time>2019-08-08T13:26:15.723Z</time>
      </trkpt>
      <trkpt lat="44.48121" lon="1.6409">
        <ele>161</ele>
        <time>2019-08-08T13:26:20.738Z</time>
      </trkpt>
      <trkpt lat="44.48116" lon="1.64085">
        <ele>161</ele>
        <time>2019-08-08T13:26:25.702Z</time>
      </trkpt>
      <trkpt lat="44.48111" lon="1.6408">
        <ele>161</ele>
        <time>2019-08-08T13:26:30.703Z</time>
      </trkpt>
      <trkpt lat="44.48105" lon="1.64073">
        <ele>161</ele>
        <time>2019-08-08T13:26:34.747Z</time>
      </trkpt>
      <trkpt lat="44.48102" lon="1.64065">
        <ele>158</ele>
        <time>2019-08-08T13:26:39.724Z</time>
      </trkpt>
      <trkpt lat="44.48106" lon="1.64046">
        <ele>158</ele>
        <time>2019-08-08T13:26:59.721Z</time>
      </trkpt>
      <trkpt lat="44.48112" lon="1.64043">
        <ele>158</ele>
        <time>2019-08-08T13:27:04.715Z</time>
      </trkpt>
      <trkpt lat="44.48118" lon="1.64042">
        <ele>158</ele>
        <time>2019-08-08T13:27:09.714Z</time>
      </trkpt>
      <trkpt lat="44.48126" lon="1.64043">
        <ele>157</ele>
        <time>2019-08-08T13:27:14.708Z</time>
      </trkpt>
      <trkpt lat="44.48132" lon="1.64048">
        <ele>157</ele>
        <time>2019-08-08T13:27:18.746Z</time>
      </trkpt>
      <trkpt lat="44.4814" lon="1.64053">
        <ele>157</ele>
        <time>2019-08-08T13:27:23.715Z</time>
      </trkpt>
      <trkpt lat="44.48146" lon="1.6406">
        <ele>157</ele>
        <time>2019-08-08T13:27:28.722Z</time>
      </trkpt>
      <trkpt lat="44.48153" lon="1.64068">
        <ele>157</ele>
        <time>2019-08-08T13:27:33.723Z</time>
      </trkpt>
      <trkpt lat="44.48157" lon="1.64071">
        <ele>155</ele>
        <time>2019-08-08T13:27:38.747Z</time>
      </trkpt>
      <trkpt lat="44.48162" lon="1.6409">
        <ele>155</ele>
        <time>2019-08-08T13:30:31.746Z</time>
      </trkpt>
      <trkpt lat="44.48167" lon="1.64092">
        <ele>155</ele>
        <time>2019-08-08T13:30:36.715Z</time>
      </trkpt>
      <trkpt lat="44.48172" lon="1.64092">
        <ele>155</ele>
        <time>2019-08-08T13:30:40.736Z</time>
      </trkpt>
      <trkpt lat="44.48175" lon="1.64095">
        <ele>155</ele>
        <time>2019-08-08T13:30:45.708Z</time>
      </trkpt>
      <trkpt lat="44.4818" lon="1.64102">
        <ele>158</ele>
        <time>2019-08-08T13:30:50.709Z</time>
      </trkpt>
      <trkpt lat="44.48184" lon="1.64108">
        <ele>154</ele>
        <time>2019-08-08T13:30:54.742Z</time>
      </trkpt>
      <trkpt lat="44.48189" lon="1.64114">
        <ele>154</ele>
        <time>2019-08-08T13:30:59.719Z</time>
      </trkpt>
      <trkpt lat="44.48196" lon="1.64121">
        <ele>154</ele>
        <time>2019-08-08T13:31:04.720Z</time>
      </trkpt>
      <trkpt lat="44.482" lon="1.6413">
        <ele>157</ele>
        <time>2019-08-08T13:31:09.713Z</time>
      </trkpt>
      <trkpt lat="44.48204" lon="1.64138">
        <ele>157</ele>
        <time>2019-08-08T13:31:14.710Z</time>
      </trkpt>
      <trkpt lat="44.48211" lon="1.64146">
        <ele>154</ele>
        <time>2019-08-08T13:31:19.712Z</time>
      </trkpt>
      <trkpt lat="44.48217" lon="1.6415">
        <ele>154</ele>
        <time>2019-08-08T13:31:24.715Z</time>
      </trkpt>
      <trkpt lat="44.48222" lon="1.64161">
        <ele>154</ele>
        <time>2019-08-08T13:31:29.729Z</time>
      </trkpt>
      <trkpt lat="44.48225" lon="1.64168">
        <ele>154</ele>
        <time>2019-08-08T13:31:34.750Z</time>
      </trkpt>
      <trkpt lat="44.4823" lon="1.64176">
        <ele>154</ele>
        <time>2019-08-08T13:31:39.735Z</time>
      </trkpt>
      <trkpt lat="44.48234" lon="1.64187">
        <ele>153</ele>
        <time>2019-08-08T13:31:44.716Z</time>
      </trkpt>
      <trkpt lat="44.48237" lon="1.64198">
        <ele>151</ele>
        <time>2019-08-08T13:31:48.741Z</time>
      </trkpt>
      <trkpt lat="44.4824" lon="1.6421">
        <ele>149</ele>
        <time>2019-08-08T13:31:53.730Z</time>
      </trkpt>
      <trkpt lat="44.48244" lon="1.64217">
        <ele>149</ele>
        <time>2019-08-08T13:31:58.721Z</time>
      </trkpt>
      <trkpt lat="44.48248" lon="1.64223">
        <ele>149</ele>
        <time>2019-08-08T13:32:02.733Z</time>
      </trkpt>
      <trkpt lat="44.48251" lon="1.6423">
        <ele>149</ele>
        <time>2019-08-08T13:32:07.720Z</time>
      </trkpt>
      <trkpt lat="44.48256" lon="1.6424">
        <ele>154</ele>
        <time>2019-08-08T13:32:12.720Z</time>
      </trkpt>
      <trkpt lat="44.48259" lon="1.64246">
        <ele>154</ele>
        <time>2019-08-08T13:32:17.743Z</time>
      </trkpt>
      <trkpt lat="44.48265" lon="1.64253">
        <ele>149</ele>
        <time>2019-08-08T13:32:22.715Z</time>
      </trkpt>
      <trkpt lat="44.48268" lon="1.64259">
        <ele>149</ele>
        <time>2019-08-08T13:32:27.732Z</time>
      </trkpt>
      <trkpt lat="44.48274" lon="1.64266">
        <ele>151</ele>
        <time>2019-08-08T13:32:32.722Z</time>
      </trkpt>
      <trkpt lat="44.48281" lon="1.64272">
        <ele>151</ele>
        <time>2019-08-08T13:32:37.714Z</time>
      </trkpt>
      <trkpt lat="44.48287" lon="1.6428">
        <ele>151</ele>
        <time>2019-08-08T13:32:42.706Z</time>
      </trkpt>
      <trkpt lat="44.48291" lon="1.64284">
        <ele>151</ele>
        <time>2019-08-08T13:32:46.720Z</time>
      </trkpt>
      <trkpt lat="44.48296" lon="1.64292">
        <ele>143</ele>
        <time>2019-08-08T13:32:51.713Z</time>
      </trkpt>
      <trkpt lat="44.48298" lon="1.64298">
        <ele>143</ele>
        <time>2019-08-08T13:32:56.731Z</time>
      </trkpt>
      <trkpt lat="44.483" lon="1.64302">
        <ele>143</ele>
        <time>2019-08-08T13:33:01.722Z</time>
      </trkpt>
      <trkpt lat="44.48304" lon="1.64312">
        <ele>143</ele>
        <time>2019-08-08T13:33:06.720Z</time>
      </trkpt>
      <trkpt lat="44.48308" lon="1.64323">
        <ele>142</ele>
        <time>2019-08-08T13:33:11.714Z</time>
      </trkpt>
      <trkpt lat="44.48311" lon="1.6433">
        <ele>142</ele>
        <time>2019-08-08T13:33:16.733Z</time>
      </trkpt>
      <trkpt lat="44.48314" lon="1.64337">
        <ele>142</ele>
        <time>2019-08-08T13:33:21.713Z</time>
      </trkpt>
      <trkpt lat="44.48315" lon="1.64341">
        <ele>142</ele>
        <time>2019-08-08T13:33:25.741Z</time>
      </trkpt>
      <trkpt lat="44.48316" lon="1.64349">
        <ele>142</ele>
        <time>2019-08-08T13:33:30.729Z</time>
      </trkpt>
      <trkpt lat="44.48319" lon="1.64357">
        <ele>142</ele>
        <time>2019-08-08T13:33:35.711Z</time>
      </trkpt>
      <trkpt lat="44.48319" lon="1.64362">
        <ele>142</ele>
        <time>2019-08-08T13:33:40.717Z</time>
      </trkpt>
      <trkpt lat="44.48325" lon="1.64368">
        <ele>140</ele>
        <time>2019-08-08T13:33:44.735Z</time>
      </trkpt>
      <trkpt lat="44.48328" lon="1.64375">
        <ele>139</ele>
        <time>2019-08-08T13:33:49.713Z</time>
      </trkpt>
      <trkpt lat="44.48333" lon="1.64381">
        <ele>139</ele>
        <time>2019-08-08T13:33:54.736Z</time>
      </trkpt>
      <trkpt lat="44.4834" lon="1.64385">
        <ele>139</ele>
        <time>2019-08-08T13:33:59.705Z</time>
      </trkpt>
      <trkpt lat="44.48342" lon="1.64385">
        <ele>139</ele>
        <time>2019-08-08T13:34:03.718Z</time>
      </trkpt>
      <trkpt lat="44.48346" lon="1.64384">
        <ele>139</ele>
        <time>2019-08-08T13:34:08.715Z</time>
      </trkpt>
      <trkpt lat="44.48351" lon="1.64383">
        <ele>137</ele>
        <time>2019-08-08T13:34:13.717Z</time>
      </trkpt>
      <trkpt lat="44.48356" lon="1.64383">
        <ele>137</ele>
        <time>2019-08-08T13:34:17.735Z</time>
      </trkpt>
      <trkpt lat="44.48362" lon="1.64384">
        <ele>137</ele>
        <time>2019-08-08T13:34:22.700Z</time>
      </trkpt>
      <trkpt lat="44.48369" lon="1.64385">
        <ele>137</ele>
        <time>2019-08-08T13:34:27.709Z</time>
      </trkpt>
      <trkpt lat="44.48375" lon="1.64387">
        <ele>137</ele>
        <time>2019-08-08T13:34:32.711Z</time>
      </trkpt>
      <trkpt lat="44.4838" lon="1.64389">
        <ele>135</ele>
        <time>2019-08-08T13:34:37.706Z</time>
      </trkpt>
      <trkpt lat="44.48388" lon="1.64389">
        <ele>135</ele>
        <time>2019-08-08T13:34:42.713Z</time>
      </trkpt>
      <trkpt lat="44.48397" lon="1.64386">
        <ele>135</ele>
        <time>2019-08-08T13:34:47.710Z</time>
      </trkpt>
      <trkpt lat="44.48403" lon="1.6438">
        <ele>135</ele>
        <time>2019-08-08T13:34:51.742Z</time>
      </trkpt>
      <trkpt lat="44.48406" lon="1.64374">
        <ele>137</ele>
        <time>2019-08-08T13:34:56.716Z</time>
      </trkpt>
      <trkpt lat="44.4841" lon="1.64365">
        <ele>137</ele>
        <time>2019-08-08T13:35:01.707Z</time>
      </trkpt>
      <trkpt lat="44.48416" lon="1.64356">
        <ele>137</ele>
        <time>2019-08-08T13:35:06.700Z</time>
      </trkpt>
      <trkpt lat="44.48421" lon="1.6435">
        <ele>137</ele>
        <time>2019-08-08T13:35:10.743Z</time>
      </trkpt>
      <trkpt lat="44.48423" lon="1.64343">
        <ele>140</ele>
        <time>2019-08-08T13:35:15.742Z</time>
      </trkpt>
      <trkpt lat="44.48432" lon="1.64338">
        <ele>136</ele>
        <time>2019-08-08T13:35:20.731Z</time>
      </trkpt>
      <trkpt lat="44.48441" lon="1.6433">
        <ele>136</ele>
        <time>2019-08-08T13:35:25.721Z</time>
      </trkpt>
      <trkpt lat="44.48445" lon="1.64319">
        <ele>140</ele>
        <time>2019-08-08T13:35:30.739Z</time>
      </trkpt>
      <trkpt lat="44.48448" lon="1.6431">
        <ele>140</ele>
        <time>2019-08-08T13:35:35.705Z</time>
      </trkpt>
      <trkpt lat="44.48451" lon="1.64303">
        <ele>140</ele>
        <time>2019-08-08T13:35:40.711Z</time>
      </trkpt>
      <trkpt lat="44.48455" lon="1.64296">
        <ele>140</ele>
        <time>2019-08-08T13:35:45.701Z</time>
      </trkpt>
      <trkpt lat="44.48458" lon="1.64287">
        <ele>143</ele>
        <time>2019-08-08T13:35:49.731Z</time>
      </trkpt>
      <trkpt lat="44.48459" lon="1.64279">
        <ele>135</ele>
        <time>2019-08-08T13:35:54.729Z</time>
      </trkpt>
      <trkpt lat="44.48463" lon="1.64273">
        <ele>135</ele>
        <time>2019-08-08T13:35:59.707Z</time>
      </trkpt>
      <trkpt lat="44.4847" lon="1.64275">
        <ele>135</ele>
        <time>2019-08-08T13:36:17.740Z</time>
      </trkpt>
      <trkpt lat="44.48467" lon="1.64276">
        <ele>135</ele>
        <time>2019-08-08T13:36:22.708Z</time>
      </trkpt>
      <trkpt lat="44.48467" lon="1.64276">
        <ele>135</ele>
        <time>2019-08-08T13:36:27.721Z</time>
      </trkpt>
      <trkpt lat="44.48468" lon="1.6428">
        <ele>135</ele>
        <time>2019-08-08T13:36:32.721Z</time>
      </trkpt>
      <trkpt lat="44.48474" lon="1.64288">
        <ele>135</ele>
        <time>2019-08-08T13:36:37.734Z</time>
      </trkpt>
      <trkpt lat="44.48477" lon="1.64287">
        <ele>135</ele>
        <time>2019-08-08T13:37:17.715Z</time>
      </trkpt>
      <trkpt lat="44.48476" lon="1.64287">
        <ele>135</ele>
        <time>2019-08-08T13:37:22.703Z</time>
      </trkpt>
      <trkpt lat="44.48471" lon="1.64284">
        <ele>135</ele>
        <time>2019-08-08T13:37:27.718Z</time>
      </trkpt>
      <trkpt lat="44.48468" lon="1.64283">
        <ele>135</ele>
        <time>2019-08-08T13:37:31.731Z</time>
      </trkpt>
      <trkpt lat="44.48465" lon="1.64286">
        <ele>135</ele>
        <time>2019-08-08T13:37:36.694Z</time>
      </trkpt>
      <trkpt lat="44.48459" lon="1.64283">
        <ele>135</ele>
        <time>2019-08-08T13:39:50.698Z</time>
      </trkpt>
      <trkpt lat="44.48466" lon="1.64279">
        <ele>135</ele>
        <time>2019-08-08T13:39:55.709Z</time>
      </trkpt>
      <trkpt lat="44.48472" lon="1.64278">
        <ele>135</ele>
        <time>2019-08-08T13:40:00.691Z</time>
      </trkpt>
      <trkpt lat="44.48477" lon="1.64279">
        <ele>135</ele>
        <time>2019-08-08T13:40:05.712Z</time>
      </trkpt>
      <trkpt lat="44.48479" lon="1.6428">
        <ele>135</ele>
        <time>2019-08-08T13:40:10.689Z</time>
      </trkpt>
      <trkpt lat="44.48463" lon="1.64289">
        <ele>135</ele>
        <time>2019-08-08T13:40:30.688Z</time>
      </trkpt>
      <trkpt lat="44.48464" lon="1.64292">
        <ele>134</ele>
        <time>2019-08-08T13:40:35.702Z</time>
      </trkpt>
      <trkpt lat="44.48465" lon="1.64294">
        <ele>134</ele>
        <time>2019-08-08T13:40:39.719Z</time>
      </trkpt>
      <trkpt lat="44.48465" lon="1.64294">
        <ele>134</ele>
        <time>2019-08-08T13:40:44.692Z</time>
      </trkpt>
      <trkpt lat="44.48465" lon="1.64295">
        <ele>134</ele>
        <time>2019-08-08T13:40:49.719Z</time>
      </trkpt>
      <trkpt lat="44.48474" lon="1.64285">
        <ele>135</ele>
        <time>2019-08-08T13:45:23.711Z</time>
      </trkpt>
      <trkpt lat="44.48473" lon="1.64283">
        <ele>135</ele>
        <time>2019-08-08T13:45:28.677Z</time>
      </trkpt>
      <trkpt lat="44.48475" lon="1.64283">
        <ele>135</ele>
        <time>2019-08-08T13:45:32.749Z</time>
      </trkpt>
      <trkpt lat="44.48477" lon="1.64285">
        <ele>135</ele>
        <time>2019-08-08T13:45:37.679Z</time>
      </trkpt>
      <trkpt lat="44.48478" lon="1.64285">
        <ele>135</ele>
        <time>2019-08-08T13:45:41.707Z</time>
      </trkpt>
      <trkpt lat="44.48479" lon="1.64284">
        <ele>135</ele>
        <time>2019-08-08T13:49:13.737Z</time>
      </trkpt>
      <trkpt lat="44.48472" lon="1.64281">
        <ele>135</ele>
        <time>2019-08-08T13:49:18.689Z</time>
      </trkpt>
      <trkpt lat="44.4847" lon="1.64281">
        <ele>135</ele>
        <time>2019-08-08T13:49:22.706Z</time>
      </trkpt>
      <trkpt lat="44.48465" lon="1.64281">
        <ele>135</ele>
        <time>2019-08-08T13:49:26.733Z</time>
      </trkpt>
      <trkpt lat="44.48461" lon="1.64286">
        <ele>135</ele>
        <time>2019-08-08T13:49:31.698Z</time>
      </trkpt>
      <trkpt lat="44.48459" lon="1.64293">
        <ele>134</ele>
        <time>2019-08-08T13:49:36.725Z</time>
      </trkpt>
      <trkpt lat="44.48458" lon="1.64292">
        <ele>140</ele>
        <time>2019-08-08T13:49:41.724Z</time>
      </trkpt>
      <trkpt lat="44.4846" lon="1.64286">
        <ele>135</ele>
        <time>2019-08-08T13:49:46.716Z</time>
      </trkpt>
      <trkpt lat="44.48463" lon="1.64276">
        <ele>135</ele>
        <time>2019-08-08T13:49:51.734Z</time>
      </trkpt>
      <trkpt lat="44.4847" lon="1.64279">
        <ele>135</ele>
        <time>2019-08-08T13:51:13.727Z</time>
      </trkpt>
      <trkpt lat="44.48466" lon="1.64276">
        <ele>135</ele>
        <time>2019-08-08T13:51:18.705Z</time>
      </trkpt>
      <trkpt lat="44.48465" lon="1.64272">
        <ele>135</ele>
        <time>2019-08-08T13:51:22.717Z</time>
      </trkpt>
      <trkpt lat="44.48469" lon="1.64265">
        <ele>135</ele>
        <time>2019-08-08T13:51:27.699Z</time>
      </trkpt>
      <trkpt lat="44.48472" lon="1.6426">
        <ele>138</ele>
        <time>2019-08-08T13:51:32.722Z</time>
      </trkpt>
      <trkpt lat="44.48482" lon="1.64249">
        <ele>138</ele>
        <time>2019-08-08T13:51:52.705Z</time>
      </trkpt>
      <trkpt lat="44.48483" lon="1.64246">
        <ele>138</ele>
        <time>2019-08-08T13:51:56.721Z</time>
      </trkpt>
      <trkpt lat="44.48487" lon="1.6424">
        <ele>137</ele>
        <time>2019-08-08T13:52:01.704Z</time>
      </trkpt>
      <trkpt lat="44.48489" lon="1.64233">
        <ele>139</ele>
        <time>2019-08-08T13:52:05.713Z</time>
      </trkpt>
      <trkpt lat="44.48492" lon="1.64228">
        <ele>139</ele>
        <time>2019-08-08T13:52:10.719Z</time>
      </trkpt>
      <trkpt lat="44.48493" lon="1.64221">
        <ele>139</ele>
        <time>2019-08-08T13:52:15.736Z</time>
      </trkpt>
      <trkpt lat="44.48497" lon="1.64219">
        <ele>139</ele>
        <time>2019-08-08T13:52:20.700Z</time>
      </trkpt>
      <trkpt lat="44.48503" lon="1.6422">
        <ele>139</ele>
        <time>2019-08-08T13:52:25.703Z</time>
      </trkpt>
      <trkpt lat="44.48509" lon="1.64223">
        <ele>139</ele>
        <time>2019-08-08T13:52:29.723Z</time>
      </trkpt>
      <trkpt lat="44.48517" lon="1.64237">
        <ele>134</ele>
        <time>2019-08-08T13:52:52.717Z</time>
      </trkpt>
      <trkpt lat="44.48518" lon="1.64238">
        <ele>134</ele>
        <time>2019-08-08T13:52:57.724Z</time>
      </trkpt>
      <trkpt lat="44.48519" lon="1.64238">
        <ele>134</ele>
        <time>2019-08-08T13:53:01.738Z</time>
      </trkpt>
      <trkpt lat="44.48526" lon="1.64245">
        <ele>134</ele>
        <time>2019-08-08T13:53:06.712Z</time>
      </trkpt>
      <trkpt lat="44.48532" lon="1.6425">
        <ele>134</ele>
        <time>2019-08-08T13:53:10.752Z</time>
      </trkpt>
      <trkpt lat="44.48538" lon="1.64255">
        <ele>134</ele>
        <time>2019-08-08T13:53:15.705Z</time>
      </trkpt>
      <trkpt lat="44.48543" lon="1.64258">
        <ele>133</ele>
        <time>2019-08-08T13:53:20.699Z</time>
      </trkpt>
      <trkpt lat="44.48548" lon="1.64262">
        <ele>133</ele>
        <time>2019-08-08T13:53:24.718Z</time>
      </trkpt>
      <trkpt lat="44.4855" lon="1.64265">
        <ele>133</ele>
        <time>2019-08-08T13:53:28.729Z</time>
      </trkpt>
      <trkpt lat="44.48555" lon="1.6427">
        <ele>133</ele>
        <time>2019-08-08T13:53:33.700Z</time>
      </trkpt>
      <trkpt lat="44.48559" lon="1.64273">
        <ele>133</ele>
        <time>2019-08-08T13:53:38.675Z</time>
      </trkpt>
      <trkpt lat="44.48563" lon="1.64276">
        <ele>133</ele>
        <time>2019-08-08T13:53:43.676Z</time>
      </trkpt>
      <trkpt lat="44.48566" lon="1.64279">
        <ele>133</ele>
        <time>2019-08-08T13:53:47.693Z</time>
      </trkpt>
      <trkpt lat="44.48569" lon="1.64283">
        <ele>133</ele>
        <time>2019-08-08T13:53:52.759Z</time>
      </trkpt>
      <trkpt lat="44.48573" lon="1.64289">
        <ele>133</ele>
        <time>2019-08-08T13:53:57.709Z</time>
      </trkpt>
      <trkpt lat="44.48577" lon="1.64294">
        <ele>131</ele>
        <time>2019-08-08T13:54:02.686Z</time>
      </trkpt>
      <trkpt lat="44.48581" lon="1.64297">
        <ele>131</ele>
        <time>2019-08-08T13:54:06.717Z</time>
      </trkpt>
      <trkpt lat="44.48584" lon="1.64301">
        <ele>131</ele>
        <time>2019-08-08T13:54:10.731Z</time>
      </trkpt>
      <trkpt lat="44.48589" lon="1.64306">
        <ele>131</ele>
        <time>2019-08-08T13:54:14.744Z</time>
      </trkpt>
      <trkpt lat="44.48595" lon="1.64312">
        <ele>131</ele>
        <time>2019-08-08T13:54:19.693Z</time>
      </trkpt>
      <trkpt lat="44.48598" lon="1.64317">
        <ele>135</ele>
        <time>2019-08-08T13:54:23.708Z</time>
      </trkpt>
      <trkpt lat="44.48601" lon="1.6432">
        <ele>138</ele>
        <time>2019-08-08T13:54:28.718Z</time>
      </trkpt>
      <trkpt lat="44.48609" lon="1.64328">
        <ele>138</ele>
        <time>2019-08-08T13:54:33.725Z</time>
      </trkpt>
      <trkpt lat="44.48611" lon="1.64331">
        <ele>138</ele>
        <time>2019-08-08T13:54:38.701Z</time>
      </trkpt>
      <trkpt lat="44.48613" lon="1.64332">
        <ele>138</ele>
        <time>2019-08-08T13:54:42.727Z</time>
      </trkpt>
      <trkpt lat="44.48613" lon="1.64338">
        <ele>138</ele>
        <time>2019-08-08T13:54:47.721Z</time>
      </trkpt>
      <trkpt lat="44.48612" lon="1.64348">
        <ele>143</ele>
        <time>2019-08-08T13:54:52.721Z</time>
      </trkpt>
      <trkpt lat="44.48608" lon="1.64359">
        <ele>143</ele>
        <time>2019-08-08T13:54:56.742Z</time>
      </trkpt>
      <trkpt lat="44.48603" lon="1.64365">
        <ele>143</ele>
        <time>2019-08-08T13:55:01.688Z</time>
      </trkpt>
      <trkpt lat="44.48599" lon="1.64371">
        <ele>143</ele>
        <time>2019-08-08T13:55:05.712Z</time>
      </trkpt>
      <trkpt lat="44.48595" lon="1.64379">
        <ele>138</ele>
        <time>2019-08-08T13:55:10.717Z</time>
      </trkpt>
      <trkpt lat="44.48589" lon="1.64383">
        <ele>138</ele>
        <time>2019-08-08T13:55:15.708Z</time>
      </trkpt>
      <trkpt lat="44.48587" lon="1.64398">
        <ele>138</ele>
        <time>2019-08-08T13:55:20.729Z</time>
      </trkpt>
      <trkpt lat="44.48588" lon="1.64408">
        <ele>144</ele>
        <time>2019-08-08T13:55:25.711Z</time>
      </trkpt>
      <trkpt lat="44.48587" lon="1.64415">
        <ele>144</ele>
        <time>2019-08-08T13:55:30.703Z</time>
      </trkpt>
      <trkpt lat="44.48584" lon="1.64423">
        <ele>144</ele>
        <time>2019-08-08T13:55:35.696Z</time>
      </trkpt>
      <trkpt lat="44.48582" lon="1.6443">
        <ele>144</ele>
        <time>2019-08-08T13:55:39.711Z</time>
      </trkpt>
      <trkpt lat="44.48578" lon="1.64439">
        <ele>154</ele>
        <time>2019-08-08T13:55:44.708Z</time>
      </trkpt>
      <trkpt lat="44.48575" lon="1.64447">
        <ele>154</ele>
        <time>2019-08-08T13:55:49.710Z</time>
      </trkpt>
      <trkpt lat="44.48574" lon="1.64453">
        <ele>154</ele>
        <time>2019-08-08T13:55:53.722Z</time>
      </trkpt>
      <trkpt lat="44.4857" lon="1.64462">
        <ele>168</ele>
        <time>2019-08-08T13:55:58.705Z</time>
      </trkpt>
      <trkpt lat="44.48567" lon="1.6447">
        <ele>160</ele>
        <time>2019-08-08T13:56:03.691Z</time>
      </trkpt>
      <trkpt lat="44.48563" lon="1.64477">
        <ele>160</ele>
        <time>2019-08-08T13:56:08.688Z</time>
      </trkpt>
      <trkpt lat="44.48559" lon="1.64485">
        <ele>160</ele>
        <time>2019-08-08T13:56:13.700Z</time>
      </trkpt>
      <trkpt lat="44.48557" lon="1.64491">
        <ele>172</ele>
        <time>2019-08-08T13:56:17.707Z</time>
      </trkpt>
      <trkpt lat="44.48553" lon="1.645">
        <ele>172</ele>
        <time>2019-08-08T13:56:22.692Z</time>
      </trkpt>
      <trkpt lat="44.48549" lon="1.64508">
        <ele>172</ele>
        <time>2019-08-08T13:56:27.693Z</time>
      </trkpt>
      <trkpt lat="44.48544" lon="1.64516">
        <ele>181</ele>
        <time>2019-08-08T13:56:32.705Z</time>
      </trkpt>
      <trkpt lat="44.48541" lon="1.6452">
        <ele>161</ele>
        <time>2019-08-08T13:56:36.739Z</time>
      </trkpt>
      <trkpt lat="44.48535" lon="1.64527">
        <ele>161</ele>
        <time>2019-08-08T13:56:41.710Z</time>
      </trkpt>
      <trkpt lat="44.48532" lon="1.64534">
        <ele>161</ele>
        <time>2019-08-08T13:56:46.685Z</time>
      </trkpt>
      <trkpt lat="44.4853" lon="1.64541">
        <ele>161</ele>
        <time>2019-08-08T13:56:51.696Z</time>
      </trkpt>
      <trkpt lat="44.48527" lon="1.64546">
        <ele>168</ele>
        <time>2019-08-08T13:56:55.733Z</time>
      </trkpt>
      <trkpt lat="44.48525" lon="1.64544">
        <ele>168</ele>
        <time>2019-08-08T13:57:35.714Z</time>
      </trkpt>
      <trkpt lat="44.48525" lon="1.64543">
        <ele>168</ele>
        <time>2019-08-08T13:57:39.733Z</time>
      </trkpt>
      <trkpt lat="44.48525" lon="1.64542">
        <ele>168</ele>
        <time>2019-08-08T13:57:44.689Z</time>
      </trkpt>
      <trkpt lat="44.48524" lon="1.64542">
        <ele>168</ele>
        <time>2019-08-08T13:57:49.722Z</time>
      </trkpt>
      <trkpt lat="44.48522" lon="1.64541">
        <ele>161</ele>
        <time>2019-08-08T13:57:54.704Z</time>
      </trkpt>
      <trkpt lat="44.48519" lon="1.6455">
        <ele>168</ele>
        <time>2019-08-08T13:57:59.704Z</time>
      </trkpt>
      <trkpt lat="44.48514" lon="1.64559">
        <ele>168</ele>
        <time>2019-08-08T13:58:04.728Z</time>
      </trkpt>
      <trkpt lat="44.48509" lon="1.64569">
        <ele>147</ele>
        <time>2019-08-08T13:58:09.703Z</time>
      </trkpt>
      <trkpt lat="44.48501" lon="1.64582">
        <ele>157</ele>
        <time>2019-08-08T13:58:14.702Z</time>
      </trkpt>
      <trkpt lat="44.48495" lon="1.64591">
        <ele>157</ele>
        <time>2019-08-08T13:58:19.714Z</time>
      </trkpt>
      <trkpt lat="44.4849" lon="1.64598">
        <ele>170</ele>
        <time>2019-08-08T13:58:24.702Z</time>
      </trkpt>
      <trkpt lat="44.48485" lon="1.64604">
        <ele>151</ele>
        <time>2019-08-08T13:58:29.705Z</time>
      </trkpt>
      <trkpt lat="44.48481" lon="1.64611">
        <ele>151</ele>
        <time>2019-08-08T13:58:33.717Z</time>
      </trkpt>
      <trkpt lat="44.48477" lon="1.64619">
        <ele>151</ele>
        <time>2019-08-08T13:58:38.690Z</time>
      </trkpt>
      <trkpt lat="44.48471" lon="1.64623">
        <ele>151</ele>
        <time>2019-08-08T13:58:42.717Z</time>
      </trkpt>
      <trkpt lat="44.48466" lon="1.64629">
        <ele>165</ele>
        <time>2019-08-08T13:58:47.743Z</time>
      </trkpt>
      <trkpt lat="44.48459" lon="1.64634">
        <ele>165</ele>
        <time>2019-08-08T13:58:52.703Z</time>
      </trkpt>
      <trkpt lat="44.48453" lon="1.6464">
        <ele>152</ele>
        <time>2019-08-08T13:58:57.742Z</time>
      </trkpt>
      <trkpt lat="44.48446" lon="1.64647">
        <ele>152</ele>
        <time>2019-08-08T13:59:02.705Z</time>
      </trkpt>
      <trkpt lat="44.4844" lon="1.64651">
        <ele>152</ele>
        <time>2019-08-08T13:59:07.700Z</time>
      </trkpt>
      <trkpt lat="44.48434" lon="1.64656">
        <ele>164</ele>
        <time>2019-08-08T13:59:11.714Z</time>
      </trkpt>
      <trkpt lat="44.48428" lon="1.64661">
        <ele>152</ele>
        <time>2019-08-08T13:59:16.703Z</time>
      </trkpt>
      <trkpt lat="44.48423" lon="1.64664">
        <ele>152</ele>
        <time>2019-08-08T13:59:20.723Z</time>
      </trkpt>
      <trkpt lat="44.48418" lon="1.64666">
        <ele>152</ele>
        <time>2019-08-08T13:59:25.727Z</time>
      </trkpt>
      <trkpt lat="44.48418" lon="1.6467">
        <ele>152</ele>
        <time>2019-08-08T13:59:30.715Z</time>
      </trkpt>
      <trkpt lat="44.48406" lon="1.64731">
        <ele>179</ele>
        <time>2019-08-08T13:59:44.720Z</time>
      </trkpt>
      <trkpt lat="44.48384" lon="1.64704">
        <ele>159</ele>
        <time>2019-08-08T13:59:49.695Z</time>
      </trkpt>
      <trkpt lat="44.48376" lon="1.64706">
        <ele>159</ele>
        <time>2019-08-08T13:59:53.723Z</time>
      </trkpt>
      <trkpt lat="44.4837" lon="1.6471">
        <ele>161</ele>
        <time>2019-08-08T13:59:58.689Z</time>
      </trkpt>
      <trkpt lat="44.48365" lon="1.64714">
        <ele>161</ele>
        <time>2019-08-08T14:00:02.712Z</time>
      </trkpt>
      <trkpt lat="44.4836" lon="1.64718">
        <ele>161</ele>
        <time>2019-08-08T14:00:07.700Z</time>
      </trkpt>
      <trkpt lat="44.48355" lon="1.64722">
        <ele>161</ele>
        <time>2019-08-08T14:00:11.739Z</time>
      </trkpt>
      <trkpt lat="44.48349" lon="1.64727">
        <ele>161</ele>
        <time>2019-08-08T14:00:16.698Z</time>
      </trkpt>
      <trkpt lat="44.48343" lon="1.64731">
        <ele>146</ele>
        <time>2019-08-08T14:00:20.731Z</time>
      </trkpt>
      <trkpt lat="44.48335" lon="1.64734">
        <ele>146</ele>
        <time>2019-08-08T14:00:25.694Z</time>
      </trkpt>
      <trkpt lat="44.48329" lon="1.64738">
        <ele>156</ele>
        <time>2019-08-08T14:00:30.700Z</time>
      </trkpt>
      <trkpt lat="44.48321" lon="1.6474">
        <ele>156</ele>
        <time>2019-08-08T14:00:35.698Z</time>
      </trkpt>
      <trkpt lat="44.48315" lon="1.64743">
        <ele>147</ele>
        <time>2019-08-08T14:00:39.716Z</time>
      </trkpt>
      <trkpt lat="44.48306" lon="1.64744">
        <ele>147</ele>
        <time>2019-08-08T14:00:44.722Z</time>
      </trkpt>
      <trkpt lat="44.483" lon="1.64749">
        <ele>147</ele>
        <time>2019-08-08T14:00:49.704Z</time>
      </trkpt>
      <trkpt lat="44.48293" lon="1.64755">
        <ele>147</ele>
        <time>2019-08-08T14:00:54.699Z</time>
      </trkpt>
      <trkpt lat="44.48286" lon="1.64757">
        <ele>141</ele>
        <time>2019-08-08T14:00:59.719Z</time>
      </trkpt>
      <trkpt lat="44.48279" lon="1.6476">
        <ele>141</ele>
        <time>2019-08-08T14:01:04.709Z</time>
      </trkpt>
      <trkpt lat="44.48271" lon="1.64762">
        <ele>141</ele>
        <time>2019-08-08T14:01:09.711Z</time>
      </trkpt>
      <trkpt lat="44.48264" lon="1.64765">
        <ele>146</ele>
        <time>2019-08-08T14:01:14.731Z</time>
      </trkpt>
      <trkpt lat="44.48257" lon="1.64769">
        <ele>142</ele>
        <time>2019-08-08T14:01:19.697Z</time>
      </trkpt>
      <trkpt lat="44.4825" lon="1.64774">
        <ele>142</ele>
        <time>2019-08-08T14:01:24.712Z</time>
      </trkpt>
      <trkpt lat="44.48243" lon="1.64777">
        <ele>142</ele>
        <time>2019-08-08T14:01:29.699Z</time>
      </trkpt>
      <trkpt lat="44.48238" lon="1.6478">
        <ele>142</ele>
        <time>2019-08-08T14:01:33.746Z</time>
      </trkpt>
      <trkpt lat="44.48231" lon="1.64786">
        <ele>141</ele>
        <time>2019-08-08T14:01:38.687Z</time>
      </trkpt>
      <trkpt lat="44.48225" lon="1.64787">
        <ele>141</ele>
        <time>2019-08-08T14:01:43.717Z</time>
      </trkpt>
      <trkpt lat="44.48217" lon="1.6479">
        <ele>141</ele>
        <time>2019-08-08T14:01:48.688Z</time>
      </trkpt>
      <trkpt lat="44.48209" lon="1.64794">
        <ele>150</ele>
        <time>2019-08-08T14:01:53.692Z</time>
      </trkpt>
      <trkpt lat="44.48203" lon="1.64797">
        <ele>144</ele>
        <time>2019-08-08T14:01:57.747Z</time>
      </trkpt>
      <trkpt lat="44.48197" lon="1.64802">
        <ele>144</ele>
        <time>2019-08-08T14:02:02.704Z</time>
      </trkpt>
      <trkpt lat="44.48189" lon="1.64803">
        <ele>144</ele>
        <time>2019-08-08T14:02:07.728Z</time>
      </trkpt>
      <trkpt lat="44.48181" lon="1.64805">
        <ele>144</ele>
        <time>2019-08-08T14:02:12.721Z</time>
      </trkpt>
      <trkpt lat="44.48175" lon="1.64808">
        <ele>139</ele>
        <time>2019-08-08T14:02:16.741Z</time>
      </trkpt>
      <trkpt lat="44.48168" lon="1.64812">
        <ele>139</ele>
        <time>2019-08-08T14:02:21.702Z</time>
      </trkpt>
      <trkpt lat="44.4816" lon="1.64814">
        <ele>139</ele>
        <time>2019-08-08T14:02:26.740Z</time>
      </trkpt>
      <trkpt lat="44.48153" lon="1.64816">
        <ele>139</ele>
        <time>2019-08-08T14:02:31.705Z</time>
      </trkpt>
      <trkpt lat="44.48147" lon="1.64819">
        <ele>134</ele>
        <time>2019-08-08T14:02:36.703Z</time>
      </trkpt>
      <trkpt lat="44.48141" lon="1.64821">
        <ele>140</ele>
        <time>2019-08-08T14:02:40.721Z</time>
      </trkpt>
      <trkpt lat="44.48134" lon="1.64822">
        <ele>140</ele>
        <time>2019-08-08T14:02:45.720Z</time>
      </trkpt>
      <trkpt lat="44.48128" lon="1.64824">
        <ele>140</ele>
        <time>2019-08-08T14:02:50.685Z</time>
      </trkpt>
      <trkpt lat="44.48123" lon="1.64825">
        <ele>135</ele>
        <time>2019-08-08T14:02:54.703Z</time>
      </trkpt>
      <trkpt lat="44.48115" lon="1.64829">
        <ele>135</ele>
        <time>2019-08-08T14:02:59.713Z</time>
      </trkpt>
      <trkpt lat="44.48108" lon="1.64834">
        <ele>135</ele>
        <time>2019-08-08T14:03:04.715Z</time>
      </trkpt>
      <trkpt lat="44.48101" lon="1.6484">
        <ele>135</ele>
        <time>2019-08-08T14:03:09.701Z</time>
      </trkpt>
      <trkpt lat="44.48095" lon="1.64843">
        <ele>134</ele>
        <time>2019-08-08T14:03:13.716Z</time>
      </trkpt>
      <trkpt lat="44.48089" lon="1.64847">
        <ele>134</ele>
        <time>2019-08-08T14:03:18.693Z</time>
      </trkpt>
      <trkpt lat="44.48083" lon="1.64849">
        <ele>141</ele>
        <time>2019-08-08T14:03:22.716Z</time>
      </trkpt>
      <trkpt lat="44.48076" lon="1.64852">
        <ele>141</ele>
        <time>2019-08-08T14:03:27.714Z</time>
      </trkpt>
      <trkpt lat="44.48068" lon="1.64855">
        <ele>140</ele>
        <time>2019-08-08T14:03:32.724Z</time>
      </trkpt>
      <trkpt lat="44.48062" lon="1.64857">
        <ele>140</ele>
        <time>2019-08-08T14:03:37.727Z</time>
      </trkpt>
      <trkpt lat="44.48056" lon="1.64861">
        <ele>140</ele>
        <time>2019-08-08T14:03:42.729Z</time>
      </trkpt>
      <trkpt lat="44.4805" lon="1.64863">
        <ele>140</ele>
        <time>2019-08-08T14:03:46.743Z</time>
      </trkpt>
      <trkpt lat="44.48042" lon="1.64865">
        <ele>140</ele>
        <time>2019-08-08T14:03:51.702Z</time>
      </trkpt>
      <trkpt lat="44.48036" lon="1.64867">
        <ele>137</ele>
        <time>2019-08-08T14:03:55.734Z</time>
      </trkpt>
      <trkpt lat="44.48029" lon="1.6487">
        <ele>137</ele>
        <time>2019-08-08T14:04:00.725Z</time>
      </trkpt>
      <trkpt lat="44.48023" lon="1.64874">
        <ele>137</ele>
        <time>2019-08-08T14:04:05.694Z</time>
      </trkpt>
      <trkpt lat="44.48017" lon="1.64877">
        <ele>143</ele>
        <time>2019-08-08T14:04:09.731Z</time>
      </trkpt>
      <trkpt lat="44.48009" lon="1.6488">
        <ele>140</ele>
        <time>2019-08-08T14:04:14.708Z</time>
      </trkpt>
      <trkpt lat="44.48002" lon="1.64883">
        <ele>140</ele>
        <time>2019-08-08T14:04:19.735Z</time>
      </trkpt>
      <trkpt lat="44.47993" lon="1.64887">
        <ele>140</ele>
        <time>2019-08-08T14:04:24.706Z</time>
      </trkpt>
      <trkpt lat="44.47985" lon="1.64892">
        <ele>139</ele>
        <time>2019-08-08T14:04:29.717Z</time>
      </trkpt>
      <trkpt lat="44.47979" lon="1.64895">
        <ele>139</ele>
        <time>2019-08-08T14:04:34.686Z</time>
      </trkpt>
      <trkpt lat="44.47972" lon="1.64897">
        <ele>139</ele>
        <time>2019-08-08T14:04:39.707Z</time>
      </trkpt>
      <trkpt lat="44.47966" lon="1.64899">
        <ele>139</ele>
        <time>2019-08-08T14:04:44.700Z</time>
      </trkpt>
      <trkpt lat="44.47959" lon="1.64902">
        <ele>139</ele>
        <time>2019-08-08T14:04:49.707Z</time>
      </trkpt>
      <trkpt lat="44.47954" lon="1.64906">
        <ele>140</ele>
        <time>2019-08-08T14:04:54.727Z</time>
      </trkpt>
      <trkpt lat="44.47947" lon="1.6491">
        <ele>140</ele>
        <time>2019-08-08T14:04:59.715Z</time>
      </trkpt>
      <trkpt lat="44.47942" lon="1.64913">
        <ele>140</ele>
        <time>2019-08-08T14:05:04.699Z</time>
      </trkpt>
      <trkpt lat="44.47938" lon="1.64921">
        <ele>140</ele>
        <time>2019-08-08T14:05:09.713Z</time>
      </trkpt>
      <trkpt lat="44.47934" lon="1.64929">
        <ele>140</ele>
        <time>2019-08-08T14:05:14.696Z</time>
      </trkpt>
      <trkpt lat="44.47932" lon="1.64935">
        <ele>145</ele>
        <time>2019-08-08T14:05:19.708Z</time>
      </trkpt>
      <trkpt lat="44.47927" lon="1.64941">
        <ele>140</ele>
        <time>2019-08-08T14:05:24.697Z</time>
      </trkpt>
      <trkpt lat="44.47924" lon="1.64946">
        <ele>140</ele>
        <time>2019-08-08T14:05:29.702Z</time>
      </trkpt>
      <trkpt lat="44.4792" lon="1.64951">
        <ele>140</ele>
        <time>2019-08-08T14:05:34.688Z</time>
      </trkpt>
      <trkpt lat="44.47915" lon="1.64956">
        <ele>140</ele>
        <time>2019-08-08T14:05:39.726Z</time>
      </trkpt>
      <trkpt lat="44.47907" lon="1.64961">
        <ele>143</ele>
        <time>2019-08-08T14:05:44.705Z</time>
      </trkpt>
      <trkpt lat="44.47902" lon="1.64967">
        <ele>139</ele>
        <time>2019-08-08T14:05:49.729Z</time>
      </trkpt>
      <trkpt lat="44.47898" lon="1.64975">
        <ele>139</ele>
        <time>2019-08-08T14:05:54.697Z</time>
      </trkpt>
      <trkpt lat="44.47895" lon="1.64986">
        <ele>139</ele>
        <time>2019-08-08T14:05:59.706Z</time>
      </trkpt>
      <trkpt lat="44.47895" lon="1.64996">
        <ele>141</ele>
        <time>2019-08-08T14:06:03.730Z</time>
      </trkpt>
      <trkpt lat="44.47894" lon="1.65005">
        <ele>141</ele>
        <time>2019-08-08T14:06:08.679Z</time>
      </trkpt>
      <trkpt lat="44.47894" lon="1.65012">
        <ele>141</ele>
        <time>2019-08-08T14:06:12.725Z</time>
      </trkpt>
      <trkpt lat="44.47895" lon="1.65018">
        <ele>143</ele>
        <time>2019-08-08T14:06:17.712Z</time>
      </trkpt>
      <trkpt lat="44.47896" lon="1.65027">
        <ele>143</ele>
        <time>2019-08-08T14:06:22.698Z</time>
      </trkpt>
      <trkpt lat="44.47897" lon="1.65036">
        <ele>143</ele>
        <time>2019-08-08T14:06:27.722Z</time>
      </trkpt>
      <trkpt lat="44.47898" lon="1.65046">
        <ele>144</ele>
        <time>2019-08-08T14:06:32.723Z</time>
      </trkpt>
      <trkpt lat="44.479" lon="1.65055">
        <ele>144</ele>
        <time>2019-08-08T14:06:37.712Z</time>
      </trkpt>
      <trkpt lat="44.47902" lon="1.65063">
        <ele>144</ele>
        <time>2019-08-08T14:06:41.733Z</time>
      </trkpt>
      <trkpt lat="44.47906" lon="1.65072">
        <ele>150</ele>
        <time>2019-08-08T14:06:46.704Z</time>
      </trkpt>
      <trkpt lat="44.4791" lon="1.65078">
        <ele>150</ele>
        <time>2019-08-08T14:06:50.721Z</time>
      </trkpt>
      <trkpt lat="44.47916" lon="1.65082">
        <ele>150</ele>
        <time>2019-08-08T14:06:55.745Z</time>
      </trkpt>
      <trkpt lat="44.4792" lon="1.65083">
        <ele>150</ele>
        <time>2019-08-08T14:07:00.703Z</time>
      </trkpt>
      <trkpt lat="44.47924" lon="1.65084">
        <ele>150</ele>
        <time>2019-08-08T14:07:04.717Z</time>
      </trkpt>
      <trkpt lat="44.4793" lon="1.65081">
        <ele>150</ele>
        <time>2019-08-08T14:07:09.698Z</time>
      </trkpt>
      <trkpt lat="44.47935" lon="1.65077">
        <ele>153</ele>
        <time>2019-08-08T14:07:14.699Z</time>
      </trkpt>
      <trkpt lat="44.47941" lon="1.65075">
        <ele>153</ele>
        <time>2019-08-08T14:07:19.695Z</time>
      </trkpt>
      <trkpt lat="44.47946" lon="1.65071">
        <ele>153</ele>
        <time>2019-08-08T14:07:24.744Z</time>
      </trkpt>
      <trkpt lat="44.47954" lon="1.65066">
        <ele>157</ele>
        <time>2019-08-08T14:07:29.704Z</time>
      </trkpt>
      <trkpt lat="44.4796" lon="1.65065">
        <ele>160</ele>
        <time>2019-08-08T14:07:33.712Z</time>
      </trkpt>
      <trkpt lat="44.47966" lon="1.65062">
        <ele>160</ele>
        <time>2019-08-08T14:07:37.748Z</time>
      </trkpt>
      <trkpt lat="44.47975" lon="1.65059">
        <ele>160</ele>
        <time>2019-08-08T14:07:42.706Z</time>
      </trkpt>
      <trkpt lat="44.47983" lon="1.65055">
        <ele>160</ele>
        <time>2019-08-08T14:07:47.722Z</time>
      </trkpt>
      <trkpt lat="44.47987" lon="1.65049">
        <ele>159</ele>
        <time>2019-08-08T14:07:52.709Z</time>
      </trkpt>
      <trkpt lat="44.47989" lon="1.65041">
        <ele>164</ele>
        <time>2019-08-08T14:07:57.706Z</time>
      </trkpt>
      <trkpt lat="44.47997" lon="1.65037">
        <ele>164</ele>
        <time>2019-08-08T14:08:01.737Z</time>
      </trkpt>
      <trkpt lat="44.48003" lon="1.65037">
        <ele>164</ele>
        <time>2019-08-08T14:08:06.702Z</time>
      </trkpt>
      <trkpt lat="44.48008" lon="1.65038">
        <ele>164</ele>
        <time>2019-08-08T14:08:11.721Z</time>
      </trkpt>
      <trkpt lat="44.48014" lon="1.65037">
        <ele>164</ele>
        <time>2019-08-08T14:08:15.747Z</time>
      </trkpt>
      <trkpt lat="44.48021" lon="1.65034">
        <ele>163</ele>
        <time>2019-08-08T14:08:20.695Z</time>
      </trkpt>
      <trkpt lat="44.48028" lon="1.65029">
        <ele>163</ele>
        <time>2019-08-08T14:08:24.709Z</time>
      </trkpt>
      <trkpt lat="44.48031" lon="1.65024">
        <ele>163</ele>
        <time>2019-08-08T14:08:29.721Z</time>
      </trkpt>
      <trkpt lat="44.48038" lon="1.65021">
        <ele>163</ele>
        <time>2019-08-08T14:08:33.733Z</time>
      </trkpt>
      <trkpt lat="44.48051" lon="1.65015">
        <ele>160</ele>
        <time>2019-08-08T14:08:38.692Z</time>
      </trkpt>
      <trkpt lat="44.48057" lon="1.65016">
        <ele>160</ele>
        <time>2019-08-08T14:08:42.731Z</time>
      </trkpt>
      <trkpt lat="44.48062" lon="1.65017">
        <ele>160</ele>
        <time>2019-08-08T14:08:47.711Z</time>
      </trkpt>
      <trkpt lat="44.48069" lon="1.65015">
        <ele>160</ele>
        <time>2019-08-08T14:08:52.696Z</time>
      </trkpt>
      <trkpt lat="44.48071" lon="1.65014">
        <ele>160</ele>
        <time>2019-08-08T14:08:57.720Z</time>
      </trkpt>
      <trkpt lat="44.48074" lon="1.65011">
        <ele>160</ele>
        <time>2019-08-08T14:09:02.743Z</time>
      </trkpt>
      <trkpt lat="44.48081" lon="1.65007">
        <ele>160</ele>
        <time>2019-08-08T14:09:07.723Z</time>
      </trkpt>
      <trkpt lat="44.48089" lon="1.65006">
        <ele>160</ele>
        <time>2019-08-08T14:09:12.717Z</time>
      </trkpt>
      <trkpt lat="44.48097" lon="1.65002">
        <ele>160</ele>
        <time>2019-08-08T14:09:17.719Z</time>
      </trkpt>
      <trkpt lat="44.48104" lon="1.65">
        <ele>158</ele>
        <time>2019-08-08T14:09:22.727Z</time>
      </trkpt>
      <trkpt lat="44.48109" lon="1.64997">
        <ele>158</ele>
        <time>2019-08-08T14:09:26.735Z</time>
      </trkpt>
      <trkpt lat="44.48113" lon="1.64995">
        <ele>158</ele>
        <time>2019-08-08T14:09:31.712Z</time>
      </trkpt>
      <trkpt lat="44.48116" lon="1.6499">
        <ele>158</ele>
        <time>2019-08-08T14:09:36.706Z</time>
      </trkpt>
      <trkpt lat="44.48122" lon="1.64985">
        <ele>160</ele>
        <time>2019-08-08T14:09:40.722Z</time>
      </trkpt>
      <trkpt lat="44.48133" lon="1.64981">
        <ele>160</ele>
        <time>2019-08-08T14:09:45.718Z</time>
      </trkpt>
      <trkpt lat="44.48138" lon="1.64976">
        <ele>160</ele>
        <time>2019-08-08T14:09:50.725Z</time>
      </trkpt>
      <trkpt lat="44.48144" lon="1.64975">
        <ele>160</ele>
        <time>2019-08-08T14:09:55.701Z</time>
      </trkpt>
      <trkpt lat="44.48152" lon="1.64969">
        <ele>160</ele>
        <time>2019-08-08T14:10:00.719Z</time>
      </trkpt>
      <trkpt lat="44.48155" lon="1.64966">
        <ele>163</ele>
        <time>2019-08-08T14:10:05.711Z</time>
      </trkpt>
      <trkpt lat="44.48158" lon="1.64964">
        <ele>163</ele>
        <time>2019-08-08T14:10:10.704Z</time>
      </trkpt>
      <trkpt lat="44.48163" lon="1.6496">
        <ele>163</ele>
        <time>2019-08-08T14:10:14.736Z</time>
      </trkpt>
      <trkpt lat="44.48167" lon="1.64953">
        <ele>166</ele>
        <time>2019-08-08T14:10:19.721Z</time>
      </trkpt>
      <trkpt lat="44.48177" lon="1.64946">
        <ele>166</ele>
        <time>2019-08-08T14:10:24.711Z</time>
      </trkpt>
      <trkpt lat="44.48185" lon="1.64944">
        <ele>167</ele>
        <time>2019-08-08T14:10:29.707Z</time>
      </trkpt>
      <trkpt lat="44.48189" lon="1.64941">
        <ele>167</ele>
        <time>2019-08-08T14:10:34.711Z</time>
      </trkpt>
      <trkpt lat="44.48195" lon="1.64937">
        <ele>167</ele>
        <time>2019-08-08T14:10:39.726Z</time>
      </trkpt>
      <trkpt lat="44.482" lon="1.64933">
        <ele>167</ele>
        <time>2019-08-08T14:10:44.702Z</time>
      </trkpt>
      <trkpt lat="44.48202" lon="1.6493">
        <ele>169</ele>
        <time>2019-08-08T14:10:49.714Z</time>
      </trkpt>
      <trkpt lat="44.48214" lon="1.64923">
        <ele>177</ele>
        <time>2019-08-08T14:10:54.708Z</time>
      </trkpt>
      <trkpt lat="44.48222" lon="1.64923">
        <ele>177</ele>
        <time>2019-08-08T14:10:59.717Z</time>
      </trkpt>
      <trkpt lat="44.4823" lon="1.6492">
        <ele>177</ele>
        <time>2019-08-08T14:11:04.705Z</time>
      </trkpt>
      <trkpt lat="44.48233" lon="1.64917">
        <ele>177</ele>
        <time>2019-08-08T14:11:09.728Z</time>
      </trkpt>
      <trkpt lat="44.48234" lon="1.64917">
        <ele>177</ele>
        <time>2019-08-08T14:11:14.710Z</time>
      </trkpt>
      <trkpt lat="44.48245" lon="1.6492">
        <ele>181</ele>
        <time>2019-08-08T14:11:19.717Z</time>
      </trkpt>
      <trkpt lat="44.48247" lon="1.6492">
        <ele>181</ele>
        <time>2019-08-08T14:11:24.700Z</time>
      </trkpt>
      <trkpt lat="44.48251" lon="1.64918">
        <ele>181</ele>
        <time>2019-08-08T14:11:29.705Z</time>
      </trkpt>
      <trkpt lat="44.48267" lon="1.64915">
        <ele>184</ele>
        <time>2019-08-08T14:11:34.711Z</time>
      </trkpt>
      <trkpt lat="44.48271" lon="1.64913">
        <ele>184</ele>
        <time>2019-08-08T14:11:39.720Z</time>
      </trkpt>
      <trkpt lat="44.48276" lon="1.64907">
        <ele>184</ele>
        <time>2019-08-08T14:11:44.733Z</time>
      </trkpt>
      <trkpt lat="44.4828" lon="1.64902">
        <ele>182</ele>
        <time>2019-08-08T14:11:49.717Z</time>
      </trkpt>
      <trkpt lat="44.48288" lon="1.64894">
        <ele>182</ele>
        <time>2019-08-08T14:11:54.701Z</time>
      </trkpt>
      <trkpt lat="44.48292" lon="1.64894">
        <ele>183</ele>
        <time>2019-08-08T14:11:59.690Z</time>
      </trkpt>
      <trkpt lat="44.48297" lon="1.64892">
        <ele>183</ele>
        <time>2019-08-08T14:12:04.708Z</time>
      </trkpt>
      <trkpt lat="44.48297" lon="1.64892">
        <ele>183</ele>
        <time>2019-08-08T14:12:09.735Z</time>
      </trkpt>
      <trkpt lat="44.48325" lon="1.64851">
        <ele>184</ele>
        <time>2019-08-08T14:12:49.703Z</time>
      </trkpt>
      <trkpt lat="44.48329" lon="1.64838">
        <ele>180</ele>
        <time>2019-08-08T14:12:54.705Z</time>
      </trkpt>
      <trkpt lat="44.48343" lon="1.64835">
        <ele>180</ele>
        <time>2019-08-08T14:12:59.730Z</time>
      </trkpt>
      <trkpt lat="44.48353" lon="1.64831">
        <ele>191</ele>
        <time>2019-08-08T14:13:04.711Z</time>
      </trkpt>
      <trkpt lat="44.48361" lon="1.6483">
        <ele>191</ele>
        <time>2019-08-08T14:13:09.703Z</time>
      </trkpt>
      <trkpt lat="44.48368" lon="1.64831">
        <ele>191</ele>
        <time>2019-08-08T14:13:14.709Z</time>
      </trkpt>
      <trkpt lat="44.48376" lon="1.64827">
        <ele>200</ele>
        <time>2019-08-08T14:13:19.696Z</time>
      </trkpt>
      <trkpt lat="44.48382" lon="1.64824">
        <ele>200</ele>
        <time>2019-08-08T14:13:23.722Z</time>
      </trkpt>
      <trkpt lat="44.48382" lon="1.64811">
        <ele>194</ele>
        <time>2019-08-08T14:13:28.696Z</time>
      </trkpt>
      <trkpt lat="44.48388" lon="1.64808">
        <ele>194</ele>
        <time>2019-08-08T14:13:32.745Z</time>
      </trkpt>
      <trkpt lat="44.48398" lon="1.64809">
        <ele>194</ele>
        <time>2019-08-08T14:13:37.714Z</time>
      </trkpt>
      <trkpt lat="44.48401" lon="1.64799">
        <ele>194</ele>
        <time>2019-08-08T14:13:42.722Z</time>
      </trkpt>
      <trkpt lat="44.48403" lon="1.64795">
        <ele>194</ele>
        <time>2019-08-08T14:13:47.701Z</time>
      </trkpt>
      <trkpt lat="44.48402" lon="1.64798">
        <ele>194</ele>
        <time>2019-08-08T14:14:01.710Z</time>
      </trkpt>
      <trkpt lat="44.48401" lon="1.64804">
        <ele>194</ele>
        <time>2019-08-08T14:14:05.720Z</time>
      </trkpt>
      <trkpt lat="44.484" lon="1.64817">
        <ele>194</ele>
        <time>2019-08-08T14:14:10.733Z</time>
      </trkpt>
      <trkpt lat="44.48398" lon="1.64825">
        <ele>200</ele>
        <time>2019-08-08T14:14:15.723Z</time>
      </trkpt>
      <trkpt lat="44.48397" lon="1.64833">
        <ele>200</ele>
        <time>2019-08-08T14:14:20.717Z</time>
      </trkpt>
      <trkpt lat="44.48397" lon="1.64848">
        <ele>202</ele>
        <time>2019-08-08T14:14:25.710Z</time>
      </trkpt>
      <trkpt lat="44.48394" lon="1.64848">
        <ele>202</ele>
        <time>2019-08-08T14:14:30.710Z</time>
      </trkpt>
      <trkpt lat="44.48392" lon="1.64859">
        <ele>202</ele>
        <time>2019-08-08T14:14:35.687Z</time>
      </trkpt>
      <trkpt lat="44.4839" lon="1.64867">
        <ele>202</ele>
        <time>2019-08-08T14:14:39.722Z</time>
      </trkpt>
      <trkpt lat="44.48388" lon="1.64875">
        <ele>201</ele>
        <time>2019-08-08T14:14:44.711Z</time>
      </trkpt>
      <trkpt lat="44.48394" lon="1.6489">
        <ele>201</ele>
        <time>2019-08-08T14:14:49.704Z</time>
      </trkpt>
      <trkpt lat="44.48397" lon="1.6489">
        <ele>201</ele>
        <time>2019-08-08T14:14:54.727Z</time>
      </trkpt>
      <trkpt lat="44.48405" lon="1.64889">
        <ele>208</ele>
        <time>2019-08-08T14:14:59.707Z</time>
      </trkpt>
      <trkpt lat="44.48412" lon="1.6489">
        <ele>208</ele>
        <time>2019-08-08T14:15:04.685Z</time>
      </trkpt>
      <trkpt lat="44.48414" lon="1.64885">
        <ele>208</ele>
        <time>2019-08-08T14:15:09.688Z</time>
      </trkpt>
      <trkpt lat="44.48416" lon="1.64879">
        <ele>208</ele>
        <time>2019-08-08T14:15:14.695Z</time>
      </trkpt>
      <trkpt lat="44.48417" lon="1.64875">
        <ele>208</ele>
        <time>2019-08-08T14:15:19.698Z</time>
      </trkpt>
      <trkpt lat="44.48422" lon="1.64871">
        <ele>211</ele>
        <time>2019-08-08T14:15:24.712Z</time>
      </trkpt>
      <trkpt lat="44.48431" lon="1.64866">
        <ele>213</ele>
        <time>2019-08-08T14:15:29.733Z</time>
      </trkpt>
      <trkpt lat="44.48436" lon="1.64862">
        <ele>213</ele>
        <time>2019-08-08T14:15:34.691Z</time>
      </trkpt>
      <trkpt lat="44.48443" lon="1.64862">
        <ele>213</ele>
        <time>2019-08-08T14:15:38.703Z</time>
      </trkpt>
      <trkpt lat="44.48448" lon="1.64864">
        <ele>213</ele>
        <time>2019-08-08T14:15:42.713Z</time>
      </trkpt>
      <trkpt lat="44.48452" lon="1.64864">
        <ele>213</ele>
        <time>2019-08-08T14:15:47.694Z</time>
      </trkpt>
      <trkpt lat="44.48457" lon="1.64862">
        <ele>213</ele>
        <time>2019-08-08T14:15:52.739Z</time>
      </trkpt>
      <trkpt lat="44.48462" lon="1.64859">
        <ele>219</ele>
        <time>2019-08-08T14:15:57.704Z</time>
      </trkpt>
      <trkpt lat="44.48468" lon="1.64854">
        <ele>219</ele>
        <time>2019-08-08T14:16:02.705Z</time>
      </trkpt>
      <trkpt lat="44.48477" lon="1.64851">
        <ele>219</ele>
        <time>2019-08-08T14:16:06.715Z</time>
      </trkpt>
      <trkpt lat="44.48483" lon="1.64851">
        <ele>219</ele>
        <time>2019-08-08T14:16:11.717Z</time>
      </trkpt>
      <trkpt lat="44.48489" lon="1.64847">
        <ele>229</ele>
        <time>2019-08-08T14:16:16.710Z</time>
      </trkpt>
      <trkpt lat="44.48493" lon="1.64846">
        <ele>229</ele>
        <time>2019-08-08T14:16:21.723Z</time>
      </trkpt>
      <trkpt lat="44.48501" lon="1.64845">
        <ele>229</ele>
        <time>2019-08-08T14:16:25.739Z</time>
      </trkpt>
      <trkpt lat="44.4851" lon="1.64846">
        <ele>229</ele>
        <time>2019-08-08T14:16:30.709Z</time>
      </trkpt>
      <trkpt lat="44.48514" lon="1.64837">
        <ele>229</ele>
        <time>2019-08-08T14:16:35.704Z</time>
      </trkpt>
      <trkpt lat="44.48516" lon="1.64829">
        <ele>238</ele>
        <time>2019-08-08T14:16:40.708Z</time>
      </trkpt>
      <trkpt lat="44.4852" lon="1.64825">
        <ele>238</ele>
        <time>2019-08-08T14:16:45.700Z</time>
      </trkpt>
      <trkpt lat="44.48525" lon="1.64821">
        <ele>238</ele>
        <time>2019-08-08T14:16:49.720Z</time>
      </trkpt>
      <trkpt lat="44.48524" lon="1.64815">
        <ele>245</ele>
        <time>2019-08-08T14:16:54.737Z</time>
      </trkpt>
      <trkpt lat="44.48524" lon="1.64816">
        <ele>245</ele>
        <time>2019-08-08T14:16:59.710Z</time>
      </trkpt>
      <trkpt lat="44.48523" lon="1.64824">
        <ele>238</ele>
        <time>2019-08-08T14:17:04.702Z</time>
      </trkpt>
      <trkpt lat="44.48525" lon="1.64826">
        <ele>238</ele>
        <time>2019-08-08T14:17:09.710Z</time>
      </trkpt>
      <trkpt lat="44.48526" lon="1.64832">
        <ele>238</ele>
        <time>2019-08-08T14:17:14.710Z</time>
      </trkpt>
      <trkpt lat="44.48528" lon="1.64839">
        <ele>238</ele>
        <time>2019-08-08T14:17:19.698Z</time>
      </trkpt>
      <trkpt lat="44.48531" lon="1.64837">
        <ele>238</ele>
        <time>2019-08-08T14:17:23.730Z</time>
      </trkpt>
      <trkpt lat="44.48535" lon="1.64836">
        <ele>238</ele>
        <time>2019-08-08T14:17:28.692Z</time>
      </trkpt>
      <trkpt lat="44.48541" lon="1.64833">
        <ele>238</ele>
        <time>2019-08-08T14:17:32.733Z</time>
      </trkpt>
      <trkpt lat="44.48561" lon="1.64849">
        <ele>236</ele>
        <time>2019-08-08T14:17:37.725Z</time>
      </trkpt>
      <trkpt lat="44.48569" lon="1.64847">
        <ele>244</ele>
        <time>2019-08-08T14:17:42.699Z</time>
      </trkpt>
      <trkpt lat="44.48567" lon="1.64837">
        <ele>244</ele>
        <time>2019-08-08T14:17:47.723Z</time>
      </trkpt>
      <trkpt lat="44.48572" lon="1.6483">
        <ele>244</ele>
        <time>2019-08-08T14:17:52.714Z</time>
      </trkpt>
      <trkpt lat="44.48577" lon="1.64826">
        <ele>244</ele>
        <time>2019-08-08T14:17:56.750Z</time>
      </trkpt>
      <trkpt lat="44.4858" lon="1.64817">
        <ele>246</ele>
        <time>2019-08-08T14:18:01.721Z</time>
      </trkpt>
      <trkpt lat="44.48581" lon="1.6481">
        <ele>246</ele>
        <time>2019-08-08T14:18:06.700Z</time>
      </trkpt>
      <trkpt lat="44.48583" lon="1.64801">
        <ele>246</ele>
        <time>2019-08-08T14:18:10.726Z</time>
      </trkpt>
      <trkpt lat="44.48591" lon="1.64799">
        <ele>246</ele>
        <time>2019-08-08T14:18:15.725Z</time>
      </trkpt>
      <trkpt lat="44.48598" lon="1.64796">
        <ele>252</ele>
        <time>2019-08-08T14:18:20.707Z</time>
      </trkpt>
      <trkpt lat="44.48602" lon="1.64791">
        <ele>255</ele>
        <time>2019-08-08T14:18:24.732Z</time>
      </trkpt>
      <trkpt lat="44.48611" lon="1.64791">
        <ele>255</ele>
        <time>2019-08-08T14:18:29.704Z</time>
      </trkpt>
      <trkpt lat="44.48617" lon="1.64788">
        <ele>255</ele>
        <time>2019-08-08T14:18:33.729Z</time>
      </trkpt>
      <trkpt lat="44.48622" lon="1.6479">
        <ele>255</ele>
        <time>2019-08-08T14:18:38.711Z</time>
      </trkpt>
      <trkpt lat="44.48611" lon="1.6477">
        <ele>255</ele>
        <time>2019-08-08T14:18:42.731Z</time>
      </trkpt>
      <trkpt lat="44.48609" lon="1.64771">
        <ele>255</ele>
        <time>2019-08-08T14:18:47.740Z</time>
      </trkpt>
      <trkpt lat="44.48616" lon="1.64774">
        <ele>255</ele>
        <time>2019-08-08T14:18:52.698Z</time>
      </trkpt>
      <trkpt lat="44.48623" lon="1.64776">
        <ele>255</ele>
        <time>2019-08-08T14:18:56.727Z</time>
      </trkpt>
      <trkpt lat="44.48633" lon="1.64773">
        <ele>260</ele>
        <time>2019-08-08T14:19:01.697Z</time>
      </trkpt>
      <trkpt lat="44.48637" lon="1.64774">
        <ele>260</ele>
        <time>2019-08-08T14:19:05.725Z</time>
      </trkpt>
      <trkpt lat="44.4864" lon="1.64782">
        <ele>260</ele>
        <time>2019-08-08T14:19:10.704Z</time>
      </trkpt>
      <trkpt lat="44.48649" lon="1.6478">
        <ele>260</ele>
        <time>2019-08-08T14:19:14.733Z</time>
      </trkpt>
      <trkpt lat="44.4865" lon="1.64782">
        <ele>260</ele>
        <time>2019-08-08T14:19:19.739Z</time>
      </trkpt>
      <trkpt lat="44.48658" lon="1.64783">
        <ele>264</ele>
        <time>2019-08-08T14:19:24.715Z</time>
      </trkpt>
      <trkpt lat="44.48671" lon="1.64787">
        <ele>264</ele>
        <time>2019-08-08T14:19:29.705Z</time>
      </trkpt>
      <trkpt lat="44.48672" lon="1.64787">
        <ele>264</ele>
        <time>2019-08-08T14:19:33.716Z</time>
      </trkpt>
      <trkpt lat="44.48678" lon="1.64789">
        <ele>264</ele>
        <time>2019-08-08T14:19:38.706Z</time>
      </trkpt>
      <trkpt lat="44.48689" lon="1.6479">
        <ele>269</ele>
        <time>2019-08-08T14:19:43.696Z</time>
      </trkpt>
      <trkpt lat="44.48692" lon="1.64789">
        <ele>269</ele>
        <time>2019-08-08T14:19:47.718Z</time>
      </trkpt>
      <trkpt lat="44.48698" lon="1.64788">
        <ele>269</ele>
        <time>2019-08-08T14:19:52.709Z</time>
      </trkpt>
      <trkpt lat="44.48704" lon="1.64785">
        <ele>269</ele>
        <time>2019-08-08T14:19:56.733Z</time>
      </trkpt>
      <trkpt lat="44.48709" lon="1.64784">
        <ele>274</ele>
        <time>2019-08-08T14:20:01.708Z</time>
      </trkpt>
      <trkpt lat="44.48733" lon="1.64789">
        <ele>274</ele>
        <time>2019-08-08T14:20:20.720Z</time>
      </trkpt>
      <trkpt lat="44.48743" lon="1.64789">
        <ele>276</ele>
        <time>2019-08-08T14:20:25.742Z</time>
      </trkpt>
      <trkpt lat="44.48751" lon="1.64792">
        <ele>271</ele>
        <time>2019-08-08T14:20:30.712Z</time>
      </trkpt>
      <trkpt lat="44.48756" lon="1.64794">
        <ele>271</ele>
        <time>2019-08-08T14:20:34.732Z</time>
      </trkpt>
      <trkpt lat="44.48765" lon="1.64795">
        <ele>273</ele>
        <time>2019-08-08T14:20:39.706Z</time>
      </trkpt>
      <trkpt lat="44.48773" lon="1.64799">
        <ele>273</ele>
        <time>2019-08-08T14:20:44.710Z</time>
      </trkpt>
      <trkpt lat="44.4878" lon="1.64803">
        <ele>273</ele>
        <time>2019-08-08T14:20:48.723Z</time>
      </trkpt>
      <trkpt lat="44.48784" lon="1.64806">
        <ele>273</ele>
        <time>2019-08-08T14:20:53.731Z</time>
      </trkpt>
      <trkpt lat="44.48794" lon="1.64811">
        <ele>276</ele>
        <time>2019-08-08T14:20:58.723Z</time>
      </trkpt>
      <trkpt lat="44.48801" lon="1.64817">
        <ele>276</ele>
        <time>2019-08-08T14:21:03.712Z</time>
      </trkpt>
      <trkpt lat="44.48808" lon="1.64823">
        <ele>274</ele>
        <time>2019-08-08T14:21:08.701Z</time>
      </trkpt>
      <trkpt lat="44.48809" lon="1.64827">
        <ele>274</ele>
        <time>2019-08-08T14:21:12.738Z</time>
      </trkpt>
      <trkpt lat="44.48819" lon="1.64833">
        <ele>274</ele>
        <time>2019-08-08T14:21:17.730Z</time>
      </trkpt>
      <trkpt lat="44.48828" lon="1.64837">
        <ele>277</ele>
        <time>2019-08-08T14:21:22.729Z</time>
      </trkpt>
      <trkpt lat="44.48835" lon="1.64842">
        <ele>277</ele>
        <time>2019-08-08T14:21:27.711Z</time>
      </trkpt>
      <trkpt lat="44.48837" lon="1.64845">
        <ele>277</ele>
        <time>2019-08-08T14:21:31.721Z</time>
      </trkpt>
      <trkpt lat="44.48843" lon="1.64848">
        <ele>274</ele>
        <time>2019-08-08T14:21:36.717Z</time>
      </trkpt>
      <trkpt lat="44.48852" lon="1.6485">
        <ele>274</ele>
        <time>2019-08-08T14:21:40.761Z</time>
      </trkpt>
      <trkpt lat="44.48855" lon="1.64852">
        <ele>274</ele>
        <time>2019-08-08T14:21:45.704Z</time>
      </trkpt>
      <trkpt lat="44.48859" lon="1.64853">
        <ele>274</ele>
        <time>2019-08-08T14:21:49.736Z</time>
      </trkpt>
      <trkpt lat="44.48866" lon="1.64853">
        <ele>274</ele>
        <time>2019-08-08T14:21:54.720Z</time>
      </trkpt>
      <trkpt lat="44.4887" lon="1.64856">
        <ele>274</ele>
        <time>2019-08-08T14:21:59.741Z</time>
      </trkpt>
      <trkpt lat="44.48877" lon="1.64858">
        <ele>277</ele>
        <time>2019-08-08T14:22:04.749Z</time>
      </trkpt>
      <trkpt lat="44.48886" lon="1.64863">
        <ele>277</ele>
        <time>2019-08-08T14:22:09.716Z</time>
      </trkpt>
      <trkpt lat="44.48893" lon="1.64862">
        <ele>277</ele>
        <time>2019-08-08T14:22:14.744Z</time>
      </trkpt>
      <trkpt lat="44.48898" lon="1.64866">
        <ele>277</ele>
        <time>2019-08-08T14:22:19.716Z</time>
      </trkpt>
      <trkpt lat="44.48904" lon="1.64869">
        <ele>278</ele>
        <time>2019-08-08T14:22:24.729Z</time>
      </trkpt>
      <trkpt lat="44.48911" lon="1.6487">
        <ele>278</ele>
        <time>2019-08-08T14:22:29.723Z</time>
      </trkpt>
      <trkpt lat="44.4892" lon="1.64869">
        <ele>278</ele>
        <time>2019-08-08T14:22:34.759Z</time>
      </trkpt>
      <trkpt lat="44.48927" lon="1.64868">
        <ele>278</ele>
        <time>2019-08-08T14:22:39.724Z</time>
      </trkpt>
      <trkpt lat="44.48934" lon="1.64867">
        <ele>279</ele>
        <time>2019-08-08T14:22:44.720Z</time>
      </trkpt>
      <trkpt lat="44.48942" lon="1.64866">
        <ele>279</ele>
        <time>2019-08-08T14:22:49.706Z</time>
      </trkpt>
      <trkpt lat="44.48948" lon="1.64866">
        <ele>279</ele>
        <time>2019-08-08T14:22:54.730Z</time>
      </trkpt>
      <trkpt lat="44.48956" lon="1.64864">
        <ele>279</ele>
        <time>2019-08-08T14:22:59.725Z</time>
      </trkpt>
      <trkpt lat="44.48963" lon="1.64861">
        <ele>278</ele>
        <time>2019-08-08T14:23:04.707Z</time>
      </trkpt>
      <trkpt lat="44.48969" lon="1.6486">
        <ele>278</ele>
        <time>2019-08-08T14:23:08.733Z</time>
      </trkpt>
      <trkpt lat="44.48975" lon="1.64861">
        <ele>278</ele>
        <time>2019-08-08T14:23:13.709Z</time>
      </trkpt>
      <trkpt lat="44.48988" lon="1.64859">
        <ele>280</ele>
        <time>2019-08-08T14:23:23.737Z</time>
      </trkpt>
      <trkpt lat="44.48992" lon="1.6486">
        <ele>280</ele>
        <time>2019-08-08T14:23:28.727Z</time>
      </trkpt>
      <trkpt lat="44.48994" lon="1.64861">
        <ele>280</ele>
        <time>2019-08-08T14:23:33.714Z</time>
      </trkpt>
      <trkpt lat="44.48995" lon="1.64862">
        <ele>280</ele>
        <time>2019-08-08T14:23:38.719Z</time>
      </trkpt>
      <trkpt lat="44.48998" lon="1.64861">
        <ele>280</ele>
        <time>2019-08-08T14:23:43.699Z</time>
      </trkpt>
      <trkpt lat="44.49007" lon="1.64861">
        <ele>280</ele>
        <time>2019-08-08T14:26:42.707Z</time>
      </trkpt>
      <trkpt lat="44.49007" lon="1.6486">
        <ele>280</ele>
        <time>2019-08-08T14:26:47.685Z</time>
      </trkpt>
      <trkpt lat="44.49007" lon="1.64859">
        <ele>280</ele>
        <time>2019-08-08T14:26:51.700Z</time>
      </trkpt>
      <trkpt lat="44.49009" lon="1.64859">
        <ele>280</ele>
        <time>2019-08-08T14:26:56.699Z</time>
      </trkpt>
      <trkpt lat="44.49013" lon="1.64856">
        <ele>280</ele>
        <time>2019-08-08T14:27:01.696Z</time>
      </trkpt>
      <trkpt lat="44.49016" lon="1.64858">
        <ele>281</ele>
        <time>2019-08-08T14:27:06.708Z</time>
      </trkpt>
      <trkpt lat="44.49025" lon="1.64861">
        <ele>281</ele>
        <time>2019-08-08T14:27:11.700Z</time>
      </trkpt>
      <trkpt lat="44.4903" lon="1.64859">
        <ele>281</ele>
        <time>2019-08-08T14:27:15.732Z</time>
      </trkpt>
      <trkpt lat="44.49038" lon="1.64858">
        <ele>281</ele>
        <time>2019-08-08T14:27:20.714Z</time>
      </trkpt>
      <trkpt lat="44.49043" lon="1.64856">
        <ele>277</ele>
        <time>2019-08-08T14:27:24.728Z</time>
      </trkpt>
      <trkpt lat="44.49053" lon="1.64852">
        <ele>277</ele>
        <time>2019-08-08T14:27:29.749Z</time>
      </trkpt>
      <trkpt lat="44.49057" lon="1.6485">
        <ele>277</ele>
        <time>2019-08-08T14:27:34.712Z</time>
      </trkpt>
      <trkpt lat="44.4906" lon="1.64849">
        <ele>277</ele>
        <time>2019-08-08T14:27:38.745Z</time>
      </trkpt>
      <trkpt lat="44.49065" lon="1.64848">
        <ele>277</ele>
        <time>2019-08-08T14:27:43.736Z</time>
      </trkpt>
      <trkpt lat="44.49073" lon="1.64845">
        <ele>274</ele>
        <time>2019-08-08T14:27:48.713Z</time>
      </trkpt>
      <trkpt lat="44.49078" lon="1.64843">
        <ele>274</ele>
        <time>2019-08-08T14:27:52.754Z</time>
      </trkpt>
      <trkpt lat="44.49085" lon="1.64841">
        <ele>274</ele>
        <time>2019-08-08T14:27:57.724Z</time>
      </trkpt>
      <trkpt lat="44.4909" lon="1.64839">
        <ele>274</ele>
        <time>2019-08-08T14:28:02.708Z</time>
      </trkpt>
      <trkpt lat="44.49096" lon="1.64837">
        <ele>274</ele>
        <time>2019-08-08T14:28:07.723Z</time>
      </trkpt>
      <trkpt lat="44.49102" lon="1.64835">
        <ele>273</ele>
        <time>2019-08-08T14:28:12.710Z</time>
      </trkpt>
      <trkpt lat="44.49106" lon="1.64834">
        <ele>273</ele>
        <time>2019-08-08T14:28:16.724Z</time>
      </trkpt>
      <trkpt lat="44.49112" lon="1.64834">
        <ele>273</ele>
        <time>2019-08-08T14:28:21.710Z</time>
      </trkpt>
      <trkpt lat="44.49118" lon="1.64831">
        <ele>273</ele>
        <time>2019-08-08T14:28:26.718Z</time>
      </trkpt>
      <trkpt lat="44.49124" lon="1.64828">
        <ele>273</ele>
        <time>2019-08-08T14:28:31.706Z</time>
      </trkpt>
      <trkpt lat="44.4913" lon="1.64826">
        <ele>270</ele>
        <time>2019-08-08T14:28:36.701Z</time>
      </trkpt>
      <trkpt lat="44.49138" lon="1.64824">
        <ele>270</ele>
        <time>2019-08-08T14:28:41.723Z</time>
      </trkpt>
      <trkpt lat="44.49144" lon="1.64821">
        <ele>270</ele>
        <time>2019-08-08T14:28:46.729Z</time>
      </trkpt>
      <trkpt lat="44.49149" lon="1.64819">
        <ele>272</ele>
        <time>2019-08-08T14:28:50.748Z</time>
      </trkpt>
      <trkpt lat="44.49155" lon="1.64815">
        <ele>270</ele>
        <time>2019-08-08T14:28:55.714Z</time>
      </trkpt>
      <trkpt lat="44.49161" lon="1.64812">
        <ele>270</ele>
        <time>2019-08-08T14:28:59.724Z</time>
      </trkpt>
      <trkpt lat="44.49167" lon="1.64808">
        <ele>270</ele>
        <time>2019-08-08T14:29:04.719Z</time>
      </trkpt>
      <trkpt lat="44.49171" lon="1.64807">
        <ele>270</ele>
        <time>2019-08-08T14:29:08.745Z</time>
      </trkpt>
      <trkpt lat="44.49177" lon="1.64804">
        <ele>270</ele>
        <time>2019-08-08T14:29:13.714Z</time>
      </trkpt>
      <trkpt lat="44.49185" lon="1.64799">
        <ele>266</ele>
        <time>2019-08-08T14:29:18.734Z</time>
      </trkpt>
      <trkpt lat="44.49193" lon="1.64797">
        <ele>266</ele>
        <time>2019-08-08T14:29:23.703Z</time>
      </trkpt>
      <trkpt lat="44.49198" lon="1.64795">
        <ele>266</ele>
        <time>2019-08-08T14:29:27.734Z</time>
      </trkpt>
      <trkpt lat="44.49204" lon="1.64794">
        <ele>266</ele>
        <time>2019-08-08T14:29:32.721Z</time>
      </trkpt>
      <trkpt lat="44.49212" lon="1.64794">
        <ele>264</ele>
        <time>2019-08-08T14:29:37.726Z</time>
      </trkpt>
      <trkpt lat="44.4922" lon="1.64795">
        <ele>264</ele>
        <time>2019-08-08T14:29:42.705Z</time>
      </trkpt>
      <trkpt lat="44.49226" lon="1.64795">
        <ele>264</ele>
        <time>2019-08-08T14:29:47.700Z</time>
      </trkpt>
      <trkpt lat="44.4923" lon="1.64796">
        <ele>264</ele>
        <time>2019-08-08T14:29:51.733Z</time>
      </trkpt>
      <trkpt lat="44.49236" lon="1.64796">
        <ele>264</ele>
        <time>2019-08-08T14:29:56.755Z</time>
      </trkpt>
      <trkpt lat="44.49245" lon="1.64799">
        <ele>262</ele>
        <time>2019-08-08T14:30:01.721Z</time>
      </trkpt>
      <trkpt lat="44.49253" lon="1.64798">
        <ele>262</ele>
        <time>2019-08-08T14:30:06.707Z</time>
      </trkpt>
      <trkpt lat="44.49263" lon="1.64798">
        <ele>262</ele>
        <time>2019-08-08T14:30:11.715Z</time>
      </trkpt>
      <trkpt lat="44.49269" lon="1.64802">
        <ele>261</ele>
        <time>2019-08-08T14:30:16.717Z</time>
      </trkpt>
      <trkpt lat="44.49276" lon="1.64803">
        <ele>261</ele>
        <time>2019-08-08T14:30:21.733Z</time>
      </trkpt>
      <trkpt lat="44.49281" lon="1.64803">
        <ele>261</ele>
        <time>2019-08-08T14:30:26.722Z</time>
      </trkpt>
      <trkpt lat="44.49288" lon="1.64803">
        <ele>261</ele>
        <time>2019-08-08T14:30:31.728Z</time>
      </trkpt>
      <trkpt lat="44.49293" lon="1.64804">
        <ele>259</ele>
        <time>2019-08-08T14:30:36.725Z</time>
      </trkpt>
      <trkpt lat="44.493" lon="1.64805">
        <ele>259</ele>
        <time>2019-08-08T14:30:41.703Z</time>
      </trkpt>
      <trkpt lat="44.49306" lon="1.64805">
        <ele>259</ele>
        <time>2019-08-08T14:30:45.729Z</time>
      </trkpt>
      <trkpt lat="44.49311" lon="1.64803">
        <ele>259</ele>
        <time>2019-08-08T14:30:50.735Z</time>
      </trkpt>
      <trkpt lat="44.49316" lon="1.64802">
        <ele>259</ele>
        <time>2019-08-08T14:30:55.716Z</time>
      </trkpt>
      <trkpt lat="44.49322" lon="1.64801">
        <ele>260</ele>
        <time>2019-08-08T14:30:59.730Z</time>
      </trkpt>
      <trkpt lat="44.49329" lon="1.64801">
        <ele>260</ele>
        <time>2019-08-08T14:31:04.726Z</time>
      </trkpt>
      <trkpt lat="44.49335" lon="1.648">
        <ele>260</ele>
        <time>2019-08-08T14:31:09.739Z</time>
      </trkpt>
      <trkpt lat="44.49342" lon="1.648">
        <ele>260</ele>
        <time>2019-08-08T14:31:14.726Z</time>
      </trkpt>
      <trkpt lat="44.49347" lon="1.64799">
        <ele>260</ele>
        <time>2019-08-08T14:31:19.718Z</time>
      </trkpt>
      <trkpt lat="44.49353" lon="1.64797">
        <ele>261</ele>
        <time>2019-08-08T14:31:24.724Z</time>
      </trkpt>
      <trkpt lat="44.49359" lon="1.64795">
        <ele>261</ele>
        <time>2019-08-08T14:31:29.719Z</time>
      </trkpt>
      <trkpt lat="44.49364" lon="1.64793">
        <ele>261</ele>
        <time>2019-08-08T14:31:33.750Z</time>
      </trkpt>
      <trkpt lat="44.49371" lon="1.64791">
        <ele>260</ele>
        <time>2019-08-08T14:31:38.742Z</time>
      </trkpt>
      <trkpt lat="44.49377" lon="1.64788">
        <ele>262</ele>
        <time>2019-08-08T14:31:43.719Z</time>
      </trkpt>
      <trkpt lat="44.49384" lon="1.64785">
        <ele>262</ele>
        <time>2019-08-08T14:31:48.729Z</time>
      </trkpt>
      <trkpt lat="44.49391" lon="1.64784">
        <ele>262</ele>
        <time>2019-08-08T14:31:53.738Z</time>
      </trkpt>
      <trkpt lat="44.49397" lon="1.64782">
        <ele>262</ele>
        <time>2019-08-08T14:31:58.729Z</time>
      </trkpt>
      <trkpt lat="44.49403" lon="1.6478">
        <ele>263</ele>
        <time>2019-08-08T14:32:03.732Z</time>
      </trkpt>
      <trkpt lat="44.49409" lon="1.64776">
        <ele>263</ele>
        <time>2019-08-08T14:32:08.732Z</time>
      </trkpt>
      <trkpt lat="44.49417" lon="1.64775">
        <ele>263</ele>
        <time>2019-08-08T14:32:13.712Z</time>
      </trkpt>
      <trkpt lat="44.49424" lon="1.64773">
        <ele>263</ele>
        <time>2019-08-08T14:32:18.718Z</time>
      </trkpt>
      <trkpt lat="44.49434" lon="1.6477">
        <ele>265</ele>
        <time>2019-08-08T14:32:23.710Z</time>
      </trkpt>
      <trkpt lat="44.49444" lon="1.64763">
        <ele>265</ele>
        <time>2019-08-08T14:32:28.729Z</time>
      </trkpt>
      <trkpt lat="44.49448" lon="1.64756">
        <ele>265</ele>
        <time>2019-08-08T14:32:33.731Z</time>
      </trkpt>
      <trkpt lat="44.4945" lon="1.64746">
        <ele>265</ele>
        <time>2019-08-08T14:32:38.745Z</time>
      </trkpt>
      <trkpt lat="44.49452" lon="1.64738">
        <ele>265</ele>
        <time>2019-08-08T14:32:43.705Z</time>
      </trkpt>
      <trkpt lat="44.49453" lon="1.64733">
        <ele>266</ele>
        <time>2019-08-08T14:32:47.743Z</time>
      </trkpt>
      <trkpt lat="44.49453" lon="1.64733">
        <ele>266</ele>
        <time>2019-08-08T14:33:06.706Z</time>
      </trkpt>
      <trkpt lat="44.49458" lon="1.64733">
        <ele>270</ele>
        <time>2019-08-08T14:33:11.703Z</time>
      </trkpt>
      <trkpt lat="44.49464" lon="1.64731">
        <ele>270</ele>
        <time>2019-08-08T14:33:16.722Z</time>
      </trkpt>
      <trkpt lat="44.49468" lon="1.64729">
        <ele>270</ele>
        <time>2019-08-08T14:33:21.732Z</time>
      </trkpt>
      <trkpt lat="44.49474" lon="1.6472">
        <ele>270</ele>
        <time>2019-08-08T14:33:26.703Z</time>
      </trkpt>
      <trkpt lat="44.49479" lon="1.64716">
        <ele>270</ele>
        <time>2019-08-08T14:33:30.731Z</time>
      </trkpt>
      <trkpt lat="44.49483" lon="1.64712">
        <ele>270</ele>
        <time>2019-08-08T14:33:35.730Z</time>
      </trkpt>
      <trkpt lat="44.49487" lon="1.64706">
        <ele>274</ele>
        <time>2019-08-08T14:33:40.711Z</time>
      </trkpt>
      <trkpt lat="44.49492" lon="1.647">
        <ele>274</ele>
        <time>2019-08-08T14:33:44.751Z</time>
      </trkpt>
      <trkpt lat="44.49498" lon="1.64698">
        <ele>274</ele>
        <time>2019-08-08T14:33:49.713Z</time>
      </trkpt>
      <trkpt lat="44.49503" lon="1.64697">
        <ele>274</ele>
        <time>2019-08-08T14:33:54.740Z</time>
      </trkpt>
      <trkpt lat="44.49507" lon="1.64697">
        <ele>274</ele>
        <time>2019-08-08T14:33:59.703Z</time>
      </trkpt>
      <trkpt lat="44.49512" lon="1.64697">
        <ele>274</ele>
        <time>2019-08-08T14:34:03.736Z</time>
      </trkpt>
      <trkpt lat="44.49518" lon="1.64695">
        <ele>279</ele>
        <time>2019-08-08T14:34:08.738Z</time>
      </trkpt>
      <trkpt lat="44.49522" lon="1.64693">
        <ele>279</ele>
        <time>2019-08-08T14:34:13.698Z</time>
      </trkpt>
      <trkpt lat="44.49527" lon="1.64689">
        <ele>279</ele>
        <time>2019-08-08T14:34:18.723Z</time>
      </trkpt>
      <trkpt lat="44.49535" lon="1.64685">
        <ele>279</ele>
        <time>2019-08-08T14:34:23.708Z</time>
      </trkpt>
      <trkpt lat="44.49539" lon="1.64681">
        <ele>279</ele>
        <time>2019-08-08T14:34:27.722Z</time>
      </trkpt>
      <trkpt lat="44.49541" lon="1.64678">
        <ele>282</ele>
        <time>2019-08-08T14:34:32.715Z</time>
      </trkpt>
      <trkpt lat="44.49545" lon="1.64674">
        <ele>285</ele>
        <time>2019-08-08T14:34:37.704Z</time>
      </trkpt>
      <trkpt lat="44.49552" lon="1.64672">
        <ele>285</ele>
        <time>2019-08-08T14:34:41.731Z</time>
      </trkpt>
      <trkpt lat="44.49556" lon="1.64667">
        <ele>285</ele>
        <time>2019-08-08T14:34:46.711Z</time>
      </trkpt>
      <trkpt lat="44.49558" lon="1.64662">
        <ele>285</ele>
        <time>2019-08-08T14:34:50.725Z</time>
      </trkpt>
      <trkpt lat="44.49561" lon="1.64657">
        <ele>285</ele>
        <time>2019-08-08T14:34:55.740Z</time>
      </trkpt>
      <trkpt lat="44.49566" lon="1.64652">
        <ele>286</ele>
        <time>2019-08-08T14:35:00.730Z</time>
      </trkpt>
      <trkpt lat="44.49569" lon="1.64649">
        <ele>286</ele>
        <time>2019-08-08T14:35:04.751Z</time>
      </trkpt>
      <trkpt lat="44.49574" lon="1.64645">
        <ele>287</ele>
        <time>2019-08-08T14:35:09.693Z</time>
      </trkpt>
      <trkpt lat="44.4958" lon="1.6464">
        <ele>287</ele>
        <time>2019-08-08T14:35:14.713Z</time>
      </trkpt>
      <trkpt lat="44.49584" lon="1.64639">
        <ele>287</ele>
        <time>2019-08-08T14:35:18.738Z</time>
      </trkpt>
      <trkpt lat="44.4959" lon="1.64638">
        <ele>287</ele>
        <time>2019-08-08T14:35:23.704Z</time>
      </trkpt>
      <trkpt lat="44.49592" lon="1.64638">
        <ele>287</ele>
        <time>2019-08-08T14:35:28.750Z</time>
      </trkpt>
      <trkpt lat="44.49597" lon="1.64633">
        <ele>287</ele>
        <time>2019-08-08T14:35:33.710Z</time>
      </trkpt>
      <trkpt lat="44.496" lon="1.64626">
        <ele>291</ele>
        <time>2019-08-08T14:35:37.720Z</time>
      </trkpt>
      <trkpt lat="44.49605" lon="1.64621">
        <ele>292</ele>
        <time>2019-08-08T14:35:42.707Z</time>
      </trkpt>
      <trkpt lat="44.49607" lon="1.64615">
        <ele>292</ele>
        <time>2019-08-08T14:35:46.754Z</time>
      </trkpt>
      <trkpt lat="44.49613" lon="1.64611">
        <ele>292</ele>
        <time>2019-08-08T14:35:51.719Z</time>
      </trkpt>
      <trkpt lat="44.49619" lon="1.6461">
        <ele>292</ele>
        <time>2019-08-08T14:35:55.738Z</time>
      </trkpt>
      <trkpt lat="44.49623" lon="1.64606">
        <ele>292</ele>
        <time>2019-08-08T14:36:00.744Z</time>
      </trkpt>
      <trkpt lat="44.49631" lon="1.64611">
        <ele>296</ele>
        <time>2019-08-08T14:36:05.713Z</time>
      </trkpt>
      <trkpt lat="44.49638" lon="1.64605">
        <ele>296</ele>
        <time>2019-08-08T14:36:10.716Z</time>
      </trkpt>
      <trkpt lat="44.49642" lon="1.64602">
        <ele>296</ele>
        <time>2019-08-08T14:36:15.698Z</time>
      </trkpt>
      <trkpt lat="44.49646" lon="1.64599">
        <ele>296</ele>
        <time>2019-08-08T14:36:19.724Z</time>
      </trkpt>
      <trkpt lat="44.49649" lon="1.64594">
        <ele>297</ele>
        <time>2019-08-08T14:36:24.726Z</time>
      </trkpt>
      <trkpt lat="44.49655" lon="1.64591">
        <ele>300</ele>
        <time>2019-08-08T14:36:28.754Z</time>
      </trkpt>
      <trkpt lat="44.49663" lon="1.64594">
        <ele>300</ele>
        <time>2019-08-08T14:36:33.715Z</time>
      </trkpt>
      <trkpt lat="44.49665" lon="1.64577">
        <ele>300</ele>
        <time>2019-08-08T14:36:38.731Z</time>
      </trkpt>
      <trkpt lat="44.49669" lon="1.6457">
        <ele>300</ele>
        <time>2019-08-08T14:36:43.717Z</time>
      </trkpt>
      <trkpt lat="44.49673" lon="1.64572">
        <ele>300</ele>
        <time>2019-08-08T14:36:47.726Z</time>
      </trkpt>
      <trkpt lat="44.49693" lon="1.64566">
        <ele>303</ele>
        <time>2019-08-08T14:36:52.725Z</time>
      </trkpt>
      <trkpt lat="44.497" lon="1.64559">
        <ele>303</ele>
        <time>2019-08-08T14:36:57.719Z</time>
      </trkpt>
      <trkpt lat="44.49704" lon="1.64556">
        <ele>303</ele>
        <time>2019-08-08T14:37:01.735Z</time>
      </trkpt>
      <trkpt lat="44.49709" lon="1.64554">
        <ele>308</ele>
        <time>2019-08-08T14:37:06.710Z</time>
      </trkpt>
      <trkpt lat="44.4971" lon="1.64546">
        <ele>308</ele>
        <time>2019-08-08T14:37:10.720Z</time>
      </trkpt>
      <trkpt lat="44.49712" lon="1.64544">
        <ele>308</ele>
        <time>2019-08-08T14:37:15.706Z</time>
      </trkpt>
      <trkpt lat="44.49716" lon="1.64539">
        <ele>308</ele>
        <time>2019-08-08T14:37:20.709Z</time>
      </trkpt>
      <trkpt lat="44.49721" lon="1.64534">
        <ele>308</ele>
        <time>2019-08-08T14:37:25.727Z</time>
      </trkpt>
      <trkpt lat="44.49723" lon="1.64528">
        <ele>308</ele>
        <time>2019-08-08T14:37:29.740Z</time>
      </trkpt>
      <trkpt lat="44.49727" lon="1.6452">
        <ele>308</ele>
        <time>2019-08-08T14:37:34.710Z</time>
      </trkpt>
      <trkpt lat="44.49732" lon="1.64519">
        <ele>308</ele>
        <time>2019-08-08T14:37:38.729Z</time>
      </trkpt>
      <trkpt lat="44.49732" lon="1.64517">
        <ele>308</ele>
        <time>2019-08-08T14:37:43.715Z</time>
      </trkpt>
      <trkpt lat="44.49735" lon="1.64511">
        <ele>306</ele>
        <time>2019-08-08T14:37:48.746Z</time>
      </trkpt>
      <trkpt lat="44.49737" lon="1.64506">
        <ele>311</ele>
        <time>2019-08-08T14:37:53.739Z</time>
      </trkpt>
      <trkpt lat="44.49738" lon="1.64502">
        <ele>311</ele>
        <time>2019-08-08T14:37:58.730Z</time>
      </trkpt>
      <trkpt lat="44.49748" lon="1.64497">
        <ele>311</ele>
        <time>2019-08-08T14:38:03.716Z</time>
      </trkpt>
      <trkpt lat="44.49752" lon="1.64491">
        <ele>311</ele>
        <time>2019-08-08T14:38:08.727Z</time>
      </trkpt>
      <trkpt lat="44.49758" lon="1.64486">
        <ele>309</ele>
        <time>2019-08-08T14:38:13.714Z</time>
      </trkpt>
      <trkpt lat="44.49765" lon="1.64484">
        <ele>315</ele>
        <time>2019-08-08T14:38:18.732Z</time>
      </trkpt>
      <trkpt lat="44.4977" lon="1.64478">
        <ele>315</ele>
        <time>2019-08-08T14:38:23.743Z</time>
      </trkpt>
      <trkpt lat="44.49773" lon="1.64473">
        <ele>315</ele>
        <time>2019-08-08T14:38:28.714Z</time>
      </trkpt>
      <trkpt lat="44.49776" lon="1.64468">
        <ele>315</ele>
        <time>2019-08-08T14:38:33.726Z</time>
      </trkpt>
      <trkpt lat="44.49779" lon="1.64463">
        <ele>315</ele>
        <time>2019-08-08T14:38:37.735Z</time>
      </trkpt>
      <trkpt lat="44.49784" lon="1.64456">
        <ele>314</ele>
        <time>2019-08-08T14:38:42.722Z</time>
      </trkpt>
      <trkpt lat="44.49788" lon="1.64453">
        <ele>314</ele>
        <time>2019-08-08T14:38:47.743Z</time>
      </trkpt>
      <trkpt lat="44.49794" lon="1.6445">
        <ele>320</ele>
        <time>2019-08-08T14:38:52.719Z</time>
      </trkpt>
      <trkpt lat="44.49799" lon="1.64445">
        <ele>320</ele>
        <time>2019-08-08T14:38:57.730Z</time>
      </trkpt>
      <trkpt lat="44.498" lon="1.64438">
        <ele>320</ele>
        <time>2019-08-08T14:39:01.749Z</time>
      </trkpt>
      <trkpt lat="44.49804" lon="1.64433">
        <ele>320</ele>
        <time>2019-08-08T14:39:06.727Z</time>
      </trkpt>
      <trkpt lat="44.49807" lon="1.64427">
        <ele>320</ele>
        <time>2019-08-08T14:39:11.737Z</time>
      </trkpt>
      <trkpt lat="44.4981" lon="1.64418">
        <ele>320</ele>
        <time>2019-08-08T14:39:16.698Z</time>
      </trkpt>
      <trkpt lat="44.49811" lon="1.64414">
        <ele>320</ele>
        <time>2019-08-08T14:39:20.713Z</time>
      </trkpt>
      <trkpt lat="44.49813" lon="1.64408">
        <ele>320</ele>
        <time>2019-08-08T14:39:24.732Z</time>
      </trkpt>
      <trkpt lat="44.49816" lon="1.64403">
        <ele>320</ele>
        <time>2019-08-08T14:39:28.750Z</time>
      </trkpt>
      <trkpt lat="44.49821" lon="1.64398">
        <ele>326</ele>
        <time>2019-08-08T14:39:33.718Z</time>
      </trkpt>
      <trkpt lat="44.49828" lon="1.64392">
        <ele>326</ele>
        <time>2019-08-08T14:39:38.719Z</time>
      </trkpt>
      <trkpt lat="44.49831" lon="1.64386">
        <ele>326</ele>
        <time>2019-08-08T14:39:43.726Z</time>
      </trkpt>
      <trkpt lat="44.49835" lon="1.64381">
        <ele>326</ele>
        <time>2019-08-08T14:39:48.758Z</time>
      </trkpt>
      <trkpt lat="44.49838" lon="1.64377">
        <ele>326</ele>
        <time>2019-08-08T14:39:53.749Z</time>
      </trkpt>
      <trkpt lat="44.49844" lon="1.64372">
        <ele>324</ele>
        <time>2019-08-08T14:39:58.733Z</time>
      </trkpt>
      <trkpt lat="44.49849" lon="1.64369">
        <ele>327</ele>
        <time>2019-08-08T14:40:03.719Z</time>
      </trkpt>
      <trkpt lat="44.49856" lon="1.64361">
        <ele>327</ele>
        <time>2019-08-08T14:40:08.721Z</time>
      </trkpt>
      <trkpt lat="44.49864" lon="1.64353">
        <ele>327</ele>
        <time>2019-08-08T14:40:13.737Z</time>
      </trkpt>
      <trkpt lat="44.49867" lon="1.64347">
        <ele>327</ele>
        <time>2019-08-08T14:40:18.731Z</time>
      </trkpt>
      <trkpt lat="44.4987" lon="1.64342">
        <ele>327</ele>
        <time>2019-08-08T14:40:23.722Z</time>
      </trkpt>
      <trkpt lat="44.49873" lon="1.64337">
        <ele>327</ele>
        <time>2019-08-08T14:40:27.736Z</time>
      </trkpt>
      <trkpt lat="44.49882" lon="1.64333">
        <ele>331</ele>
        <time>2019-08-08T14:40:32.729Z</time>
      </trkpt>
      <trkpt lat="44.49883" lon="1.64325">
        <ele>331</ele>
        <time>2019-08-08T14:40:37.719Z</time>
      </trkpt>
      <trkpt lat="44.49886" lon="1.64321">
        <ele>331</ele>
        <time>2019-08-08T14:40:42.708Z</time>
      </trkpt>
      <trkpt lat="44.49891" lon="1.64313">
        <ele>332</ele>
        <time>2019-08-08T14:40:47.727Z</time>
      </trkpt>
      <trkpt lat="44.49899" lon="1.6431">
        <ele>332</ele>
        <time>2019-08-08T14:40:52.730Z</time>
      </trkpt>
      <trkpt lat="44.49899" lon="1.64306">
        <ele>332</ele>
        <time>2019-08-08T14:40:57.724Z</time>
      </trkpt>
      <trkpt lat="44.49907" lon="1.643">
        <ele>337</ele>
        <time>2019-08-08T14:41:02.747Z</time>
      </trkpt>
      <trkpt lat="44.4991" lon="1.64292">
        <ele>337</ele>
        <time>2019-08-08T14:41:07.737Z</time>
      </trkpt>
      <trkpt lat="44.49913" lon="1.64285">
        <ele>338</ele>
        <time>2019-08-08T14:41:12.721Z</time>
      </trkpt>
      <trkpt lat="44.49916" lon="1.64279">
        <ele>338</ele>
        <time>2019-08-08T14:41:17.719Z</time>
      </trkpt>
      <trkpt lat="44.49922" lon="1.64273">
        <ele>338</ele>
        <time>2019-08-08T14:41:21.736Z</time>
      </trkpt>
      <trkpt lat="44.49929" lon="1.64267">
        <ele>338</ele>
        <time>2019-08-08T14:41:26.703Z</time>
      </trkpt>
      <trkpt lat="44.49934" lon="1.64263">
        <ele>340</ele>
        <time>2019-08-08T14:41:31.713Z</time>
      </trkpt>
      <trkpt lat="44.49938" lon="1.64257">
        <ele>340</ele>
        <time>2019-08-08T14:41:36.709Z</time>
      </trkpt>
      <trkpt lat="44.49941" lon="1.64253">
        <ele>340</ele>
        <time>2019-08-08T14:41:40.746Z</time>
      </trkpt>
      <trkpt lat="44.49945" lon="1.64247">
        <ele>340</ele>
        <time>2019-08-08T14:41:45.734Z</time>
      </trkpt>
      <trkpt lat="44.49949" lon="1.64241">
        <ele>340</ele>
        <time>2019-08-08T14:41:50.717Z</time>
      </trkpt>
      <trkpt lat="44.49951" lon="1.64235">
        <ele>340</ele>
        <time>2019-08-08T14:41:54.731Z</time>
      </trkpt>
      <trkpt lat="44.4996" lon="1.64227">
        <ele>343</ele>
        <time>2019-08-08T14:41:59.726Z</time>
      </trkpt>
      <trkpt lat="44.49968" lon="1.64222">
        <ele>343</ele>
        <time>2019-08-08T14:42:03.740Z</time>
      </trkpt>
      <trkpt lat="44.49974" lon="1.64217">
        <ele>343</ele>
        <time>2019-08-08T14:42:08.724Z</time>
      </trkpt>
      <trkpt lat="44.49978" lon="1.64211">
        <ele>343</ele>
        <time>2019-08-08T14:42:13.729Z</time>
      </trkpt>
      <trkpt lat="44.49982" lon="1.64206">
        <ele>343</ele>
        <time>2019-08-08T14:42:18.722Z</time>
      </trkpt>
      <trkpt lat="44.49985" lon="1.64203">
        <ele>343</ele>
        <time>2019-08-08T14:42:22.739Z</time>
      </trkpt>
      <trkpt lat="44.49989" lon="1.64197">
        <ele>344</ele>
        <time>2019-08-08T14:42:27.703Z</time>
      </trkpt>
      <trkpt lat="44.49993" lon="1.64192">
        <ele>344</ele>
        <time>2019-08-08T14:42:31.714Z</time>
      </trkpt>
      <trkpt lat="44.49999" lon="1.64185">
        <ele>344</ele>
        <time>2019-08-08T14:42:35.745Z</time>
      </trkpt>
      <trkpt lat="44.50004" lon="1.64179">
        <ele>345</ele>
        <time>2019-08-08T14:42:40.705Z</time>
      </trkpt>
      <trkpt lat="44.50008" lon="1.64173">
        <ele>345</ele>
        <time>2019-08-08T14:42:45.744Z</time>
      </trkpt>
      <trkpt lat="44.50012" lon="1.64168">
        <ele>345</ele>
        <time>2019-08-08T14:42:50.703Z</time>
      </trkpt>
      <trkpt lat="44.50017" lon="1.64164">
        <ele>346</ele>
        <time>2019-08-08T14:42:55.715Z</time>
      </trkpt>
      <trkpt lat="44.5002" lon="1.64158">
        <ele>346</ele>
        <time>2019-08-08T14:43:00.719Z</time>
      </trkpt>
      <trkpt lat="44.50025" lon="1.64154">
        <ele>346</ele>
        <time>2019-08-08T14:43:04.741Z</time>
      </trkpt>
      <trkpt lat="44.50028" lon="1.6415">
        <ele>345</ele>
        <time>2019-08-08T14:43:08.758Z</time>
      </trkpt>
      <trkpt lat="44.50032" lon="1.64144">
        <ele>345</ele>
        <time>2019-08-08T14:43:13.743Z</time>
      </trkpt>
      <trkpt lat="44.50036" lon="1.64137">
        <ele>345</ele>
        <time>2019-08-08T14:43:18.752Z</time>
      </trkpt>
      <trkpt lat="44.5004" lon="1.64131">
        <ele>345</ele>
        <time>2019-08-08T14:43:23.719Z</time>
      </trkpt>
      <trkpt lat="44.50043" lon="1.64123">
        <ele>344</ele>
        <time>2019-08-08T14:43:28.726Z</time>
      </trkpt>
      <trkpt lat="44.50047" lon="1.64115">
        <ele>344</ele>
        <time>2019-08-08T14:43:33.720Z</time>
      </trkpt>
      <trkpt lat="44.50051" lon="1.6411">
        <ele>344</ele>
        <time>2019-08-08T14:43:38.739Z</time>
      </trkpt>
      <trkpt lat="44.50052" lon="1.64102">
        <ele>344</ele>
        <time>2019-08-08T14:43:43.746Z</time>
      </trkpt>
      <trkpt lat="44.50057" lon="1.64095">
        <ele>343</ele>
        <time>2019-08-08T14:43:48.759Z</time>
      </trkpt>
      <trkpt lat="44.50062" lon="1.64088">
        <ele>343</ele>
        <time>2019-08-08T14:43:53.715Z</time>
      </trkpt>
      <trkpt lat="44.50066" lon="1.64078">
        <ele>343</ele>
        <time>2019-08-08T14:43:58.720Z</time>
      </trkpt>
      <trkpt lat="44.5007" lon="1.64072">
        <ele>347</ele>
        <time>2019-08-08T14:44:03.749Z</time>
      </trkpt>
      <trkpt lat="44.50075" lon="1.64068">
        <ele>345</ele>
        <time>2019-08-08T14:44:08.763Z</time>
      </trkpt>
      <trkpt lat="44.50079" lon="1.64062">
        <ele>345</ele>
        <time>2019-08-08T14:44:13.731Z</time>
      </trkpt>
      <trkpt lat="44.50082" lon="1.64056">
        <ele>345</ele>
        <time>2019-08-08T14:44:18.708Z</time>
      </trkpt>
      <trkpt lat="44.50086" lon="1.64052">
        <ele>345</ele>
        <time>2019-08-08T14:44:23.700Z</time>
      </trkpt>
      <trkpt lat="44.5009" lon="1.64048">
        <ele>345</ele>
        <time>2019-08-08T14:44:28.712Z</time>
      </trkpt>
      <trkpt lat="44.50093" lon="1.64042">
        <ele>345</ele>
        <time>2019-08-08T14:44:33.754Z</time>
      </trkpt>
      <trkpt lat="44.50096" lon="1.64033">
        <ele>344</ele>
        <time>2019-08-08T14:44:38.718Z</time>
      </trkpt>
      <trkpt lat="44.50104" lon="1.64025">
        <ele>347</ele>
        <time>2019-08-08T14:44:43.746Z</time>
      </trkpt>
      <trkpt lat="44.50108" lon="1.64017">
        <ele>347</ele>
        <time>2019-08-08T14:44:48.723Z</time>
      </trkpt>
      <trkpt lat="44.50112" lon="1.64012">
        <ele>347</ele>
        <time>2019-08-08T14:44:53.718Z</time>
      </trkpt>
      <trkpt lat="44.50116" lon="1.64008">
        <ele>347</ele>
        <time>2019-08-08T14:44:58.719Z</time>
      </trkpt>
      <trkpt lat="44.50121" lon="1.64002">
        <ele>347</ele>
        <time>2019-08-08T14:45:03.718Z</time>
      </trkpt>
      <trkpt lat="44.50127" lon="1.63994">
        <ele>349</ele>
        <time>2019-08-08T14:45:08.719Z</time>
      </trkpt>
      <trkpt lat="44.50131" lon="1.63987">
        <ele>349</ele>
        <time>2019-08-08T14:45:13.717Z</time>
      </trkpt>
      <trkpt lat="44.50135" lon="1.63983">
        <ele>348</ele>
        <time>2019-08-08T14:45:17.745Z</time>
      </trkpt>
      <trkpt lat="44.5014" lon="1.63977">
        <ele>348</ele>
        <time>2019-08-08T14:45:22.739Z</time>
      </trkpt>
      <trkpt lat="44.50144" lon="1.63967">
        <ele>348</ele>
        <time>2019-08-08T14:45:27.731Z</time>
      </trkpt>
      <trkpt lat="44.50147" lon="1.6396">
        <ele>348</ele>
        <time>2019-08-08T14:45:32.723Z</time>
      </trkpt>
      <trkpt lat="44.5015" lon="1.63953">
        <ele>345</ele>
        <time>2019-08-08T14:45:36.747Z</time>
      </trkpt>
      <trkpt lat="44.50154" lon="1.63947">
        <ele>347</ele>
        <time>2019-08-08T14:45:41.705Z</time>
      </trkpt>
      <trkpt lat="44.50159" lon="1.63941">
        <ele>347</ele>
        <time>2019-08-08T14:45:46.747Z</time>
      </trkpt>
      <trkpt lat="44.50165" lon="1.63934">
        <ele>347</ele>
        <time>2019-08-08T14:45:51.734Z</time>
      </trkpt>
      <trkpt lat="44.50171" lon="1.63926">
        <ele>344</ele>
        <time>2019-08-08T14:45:56.721Z</time>
      </trkpt>
      <trkpt lat="44.50176" lon="1.63921">
        <ele>344</ele>
        <time>2019-08-08T14:46:01.712Z</time>
      </trkpt>
      <trkpt lat="44.50181" lon="1.63913">
        <ele>348</ele>
        <time>2019-08-08T14:46:06.740Z</time>
      </trkpt>
      <trkpt lat="44.50186" lon="1.63906">
        <ele>348</ele>
        <time>2019-08-08T14:46:11.737Z</time>
      </trkpt>
      <trkpt lat="44.50191" lon="1.639">
        <ele>345</ele>
        <time>2019-08-08T14:46:16.713Z</time>
      </trkpt>
      <trkpt lat="44.50198" lon="1.63898">
        <ele>345</ele>
        <time>2019-08-08T14:46:21.742Z</time>
      </trkpt>
      <trkpt lat="44.50204" lon="1.63895">
        <ele>345</ele>
        <time>2019-08-08T14:46:26.718Z</time>
      </trkpt>
      <trkpt lat="44.50209" lon="1.63893">
        <ele>350</ele>
        <time>2019-08-08T14:46:31.762Z</time>
      </trkpt>
      <trkpt lat="44.50213" lon="1.63887">
        <ele>350</ele>
        <time>2019-08-08T14:46:36.720Z</time>
      </trkpt>
      <trkpt lat="44.50218" lon="1.63883">
        <ele>350</ele>
        <time>2019-08-08T14:46:40.735Z</time>
      </trkpt>
      <trkpt lat="44.50226" lon="1.63875">
        <ele>347</ele>
        <time>2019-08-08T14:46:45.721Z</time>
      </trkpt>
      <trkpt lat="44.50232" lon="1.63868">
        <ele>347</ele>
        <time>2019-08-08T14:46:50.705Z</time>
      </trkpt>
      <trkpt lat="44.50237" lon="1.63864">
        <ele>351</ele>
        <time>2019-08-08T14:46:54.740Z</time>
      </trkpt>
      <trkpt lat="44.50245" lon="1.63859">
        <ele>351</ele>
        <time>2019-08-08T14:46:59.724Z</time>
      </trkpt>
      <trkpt lat="44.5025" lon="1.63853">
        <ele>351</ele>
        <time>2019-08-08T14:47:04.715Z</time>
      </trkpt>
      <trkpt lat="44.50255" lon="1.6385">
        <ele>351</ele>
        <time>2019-08-08T14:47:08.741Z</time>
      </trkpt>
      <trkpt lat="44.5026" lon="1.63846">
        <ele>347</ele>
        <time>2019-08-08T14:47:13.760Z</time>
      </trkpt>
      <trkpt lat="44.50264" lon="1.63842">
        <ele>350</ele>
        <time>2019-08-08T14:47:18.748Z</time>
      </trkpt>
      <trkpt lat="44.50269" lon="1.63838">
        <ele>350</ele>
        <time>2019-08-08T14:47:23.727Z</time>
      </trkpt>
      <trkpt lat="44.50275" lon="1.63833">
        <ele>350</ele>
        <time>2019-08-08T14:47:28.701Z</time>
      </trkpt>
      <trkpt lat="44.5028" lon="1.63826">
        <ele>350</ele>
        <time>2019-08-08T14:47:33.719Z</time>
      </trkpt>
      <trkpt lat="44.50285" lon="1.63822">
        <ele>350</ele>
        <time>2019-08-08T14:47:38.716Z</time>
      </trkpt>
      <trkpt lat="44.5029" lon="1.63817">
        <ele>346</ele>
        <time>2019-08-08T14:47:42.763Z</time>
      </trkpt>
      <trkpt lat="44.50295" lon="1.63807">
        <ele>349</ele>
        <time>2019-08-08T14:47:47.724Z</time>
      </trkpt>
      <trkpt lat="44.50299" lon="1.63802">
        <ele>349</ele>
        <time>2019-08-08T14:47:52.738Z</time>
      </trkpt>
      <trkpt lat="44.50304" lon="1.63797">
        <ele>349</ele>
        <time>2019-08-08T14:47:57.710Z</time>
      </trkpt>
      <trkpt lat="44.5031" lon="1.63797">
        <ele>349</ele>
        <time>2019-08-08T14:48:02.724Z</time>
      </trkpt>
      <trkpt lat="44.50316" lon="1.63793">
        <ele>349</ele>
        <time>2019-08-08T14:48:07.747Z</time>
      </trkpt>
      <trkpt lat="44.50323" lon="1.6379">
        <ele>345</ele>
        <time>2019-08-08T14:48:12.734Z</time>
      </trkpt>
      <trkpt lat="44.50328" lon="1.63785">
        <ele>345</ele>
        <time>2019-08-08T14:48:17.725Z</time>
      </trkpt>
      <trkpt lat="44.50333" lon="1.63782">
        <ele>345</ele>
        <time>2019-08-08T14:48:21.737Z</time>
      </trkpt>
      <trkpt lat="44.50339" lon="1.63776">
        <ele>345</ele>
        <time>2019-08-08T14:48:26.727Z</time>
      </trkpt>
      <trkpt lat="44.50345" lon="1.63773">
        <ele>345</ele>
        <time>2019-08-08T14:48:31.748Z</time>
      </trkpt>
      <trkpt lat="44.50351" lon="1.63771">
        <ele>346</ele>
        <time>2019-08-08T14:48:36.728Z</time>
      </trkpt>
      <trkpt lat="44.50358" lon="1.63766">
        <ele>346</ele>
        <time>2019-08-08T14:48:41.722Z</time>
      </trkpt>
      <trkpt lat="44.50364" lon="1.63761">
        <ele>343</ele>
        <time>2019-08-08T14:48:46.738Z</time>
      </trkpt>
      <trkpt lat="44.5037" lon="1.63755">
        <ele>343</ele>
        <time>2019-08-08T14:48:51.738Z</time>
      </trkpt>
      <trkpt lat="44.50375" lon="1.63751">
        <ele>345</ele>
        <time>2019-08-08T14:48:56.707Z</time>
      </trkpt>
      <trkpt lat="44.50381" lon="1.63748">
        <ele>345</ele>
        <time>2019-08-08T14:49:00.722Z</time>
      </trkpt>
      <trkpt lat="44.50384" lon="1.63744">
        <ele>345</ele>
        <time>2019-08-08T14:49:04.738Z</time>
      </trkpt>
      <trkpt lat="44.50387" lon="1.63741">
        <ele>345</ele>
        <time>2019-08-08T14:49:08.749Z</time>
      </trkpt>
      <trkpt lat="44.50394" lon="1.63737">
        <ele>345</ele>
        <time>2019-08-08T14:49:13.743Z</time>
      </trkpt>
      <trkpt lat="44.504" lon="1.63733">
        <ele>343</ele>
        <time>2019-08-08T14:49:18.710Z</time>
      </trkpt>
      <trkpt lat="44.50407" lon="1.63726">
        <ele>343</ele>
        <time>2019-08-08T14:49:23.712Z</time>
      </trkpt>
      <trkpt lat="44.50412" lon="1.63718">
        <ele>343</ele>
        <time>2019-08-08T14:49:28.722Z</time>
      </trkpt>
      <trkpt lat="44.50417" lon="1.63713">
        <ele>343</ele>
        <time>2019-08-08T14:49:33.719Z</time>
      </trkpt>
      <trkpt lat="44.50424" lon="1.63709">
        <ele>343</ele>
        <time>2019-08-08T14:49:38.711Z</time>
      </trkpt>
      <trkpt lat="44.50429" lon="1.63707">
        <ele>340</ele>
        <time>2019-08-08T14:49:42.745Z</time>
      </trkpt>
      <trkpt lat="44.50434" lon="1.63703">
        <ele>340</ele>
        <time>2019-08-08T14:49:47.757Z</time>
      </trkpt>
      <trkpt lat="44.50438" lon="1.63698">
        <ele>340</ele>
        <time>2019-08-08T14:49:52.715Z</time>
      </trkpt>
      <trkpt lat="44.50443" lon="1.63692">
        <ele>340</ele>
        <time>2019-08-08T14:49:57.709Z</time>
      </trkpt>
      <trkpt lat="44.5045" lon="1.63688">
        <ele>340</ele>
        <time>2019-08-08T14:50:02.747Z</time>
      </trkpt>
      <trkpt lat="44.50456" lon="1.63684">
        <ele>340</ele>
        <time>2019-08-08T14:50:07.731Z</time>
      </trkpt>
      <trkpt lat="44.5046" lon="1.63677">
        <ele>338</ele>
        <time>2019-08-08T14:50:12.724Z</time>
      </trkpt>
      <trkpt lat="44.50463" lon="1.63673">
        <ele>338</ele>
        <time>2019-08-08T14:50:16.747Z</time>
      </trkpt>
      <trkpt lat="44.50467" lon="1.63668">
        <ele>338</ele>
        <time>2019-08-08T14:50:21.730Z</time>
      </trkpt>
      <trkpt lat="44.50472" lon="1.63663">
        <ele>338</ele>
        <time>2019-08-08T14:50:26.721Z</time>
      </trkpt>
      <trkpt lat="44.50476" lon="1.63659">
        <ele>338</ele>
        <time>2019-08-08T14:50:31.702Z</time>
      </trkpt>
      <trkpt lat="44.50481" lon="1.63654">
        <ele>338</ele>
        <time>2019-08-08T14:50:36.716Z</time>
      </trkpt>
      <trkpt lat="44.50488" lon="1.6365">
        <ele>336</ele>
        <time>2019-08-08T14:50:41.710Z</time>
      </trkpt>
      <trkpt lat="44.50492" lon="1.63646">
        <ele>336</ele>
        <time>2019-08-08T14:50:45.725Z</time>
      </trkpt>
      <trkpt lat="44.50498" lon="1.63641">
        <ele>336</ele>
        <time>2019-08-08T14:50:50.715Z</time>
      </trkpt>
      <trkpt lat="44.50504" lon="1.63637">
        <ele>336</ele>
        <time>2019-08-08T14:50:55.710Z</time>
      </trkpt>
      <trkpt lat="44.5051" lon="1.63633">
        <ele>336</ele>
        <time>2019-08-08T14:51:00.711Z</time>
      </trkpt>
      <trkpt lat="44.50516" lon="1.6363">
        <ele>336</ele>
        <time>2019-08-08T14:51:04.724Z</time>
      </trkpt>
      <trkpt lat="44.50522" lon="1.63625">
        <ele>336</ele>
        <time>2019-08-08T14:51:09.716Z</time>
      </trkpt>
      <trkpt lat="44.50527" lon="1.63621">
        <ele>334</ele>
        <time>2019-08-08T14:51:13.736Z</time>
      </trkpt>
      <trkpt lat="44.50534" lon="1.63615">
        <ele>334</ele>
        <time>2019-08-08T14:51:18.713Z</time>
      </trkpt>
      <trkpt lat="44.50539" lon="1.6361">
        <ele>334</ele>
        <time>2019-08-08T14:51:23.719Z</time>
      </trkpt>
      <trkpt lat="44.50543" lon="1.63605">
        <ele>335</ele>
        <time>2019-08-08T14:51:27.759Z</time>
      </trkpt>
      <trkpt lat="44.50547" lon="1.63598">
        <ele>335</ele>
        <time>2019-08-08T14:51:32.738Z</time>
      </trkpt>
      <trkpt lat="44.50552" lon="1.63592">
        <ele>333</ele>
        <time>2019-08-08T14:51:37.726Z</time>
      </trkpt>
      <trkpt lat="44.50557" lon="1.63587">
        <ele>333</ele>
        <time>2019-08-08T14:51:42.729Z</time>
      </trkpt>
      <trkpt lat="44.50563" lon="1.63581">
        <ele>333</ele>
        <time>2019-08-08T14:51:47.728Z</time>
      </trkpt>
      <trkpt lat="44.50569" lon="1.63574">
        <ele>333</ele>
        <time>2019-08-08T14:51:52.708Z</time>
      </trkpt>
      <trkpt lat="44.50572" lon="1.63568">
        <ele>333</ele>
        <time>2019-08-08T14:51:56.745Z</time>
      </trkpt>
      <trkpt lat="44.50575" lon="1.63563">
        <ele>333</ele>
        <time>2019-08-08T14:52:01.719Z</time>
      </trkpt>
      <trkpt lat="44.50579" lon="1.63557">
        <ele>333</ele>
        <time>2019-08-08T14:52:06.747Z</time>
      </trkpt>
      <trkpt lat="44.50586" lon="1.63552">
        <ele>333</ele>
        <time>2019-08-08T14:52:11.746Z</time>
      </trkpt>
      <trkpt lat="44.50593" lon="1.63544">
        <ele>333</ele>
        <time>2019-08-08T14:52:16.718Z</time>
      </trkpt>
      <trkpt lat="44.50598" lon="1.6354">
        <ele>331</ele>
        <time>2019-08-08T14:52:20.750Z</time>
      </trkpt>
      <trkpt lat="44.50603" lon="1.63532">
        <ele>331</ele>
        <time>2019-08-08T14:52:25.727Z</time>
      </trkpt>
      <trkpt lat="44.50608" lon="1.63526">
        <ele>331</ele>
        <time>2019-08-08T14:52:30.720Z</time>
      </trkpt>
      <trkpt lat="44.50612" lon="1.63519">
        <ele>331</ele>
        <time>2019-08-08T14:52:35.758Z</time>
      </trkpt>
      <trkpt lat="44.50615" lon="1.63513">
        <ele>330</ele>
        <time>2019-08-08T14:52:40.736Z</time>
      </trkpt>
      <trkpt lat="44.50619" lon="1.63507">
        <ele>330</ele>
        <time>2019-08-08T14:52:45.708Z</time>
      </trkpt>
      <trkpt lat="44.50621" lon="1.63502">
        <ele>330</ele>
        <time>2019-08-08T14:52:49.731Z</time>
      </trkpt>
      <trkpt lat="44.50627" lon="1.63493">
        <ele>330</ele>
        <time>2019-08-08T14:52:54.730Z</time>
      </trkpt>
      <trkpt lat="44.50632" lon="1.63487">
        <ele>330</ele>
        <time>2019-08-08T14:52:59.721Z</time>
      </trkpt>
      <trkpt lat="44.50636" lon="1.63482">
        <ele>329</ele>
        <time>2019-08-08T14:53:04.710Z</time>
      </trkpt>
      <trkpt lat="44.50639" lon="1.63476">
        <ele>329</ele>
        <time>2019-08-08T14:53:09.706Z</time>
      </trkpt>
      <trkpt lat="44.50642" lon="1.63472">
        <ele>329</ele>
        <time>2019-08-08T14:53:13.733Z</time>
      </trkpt>
      <trkpt lat="44.50652" lon="1.63461">
        <ele>329</ele>
        <time>2019-08-08T14:55:53.680Z</time>
      </trkpt>
      <trkpt lat="44.50652" lon="1.6346">
        <ele>329</ele>
        <time>2019-08-08T14:55:58.693Z</time>
      </trkpt>
      <trkpt lat="44.5065" lon="1.63456">
        <ele>327</ele>
        <time>2019-08-08T14:56:03.676Z</time>
      </trkpt>
      <trkpt lat="44.50649" lon="1.63454">
        <ele>327</ele>
        <time>2019-08-08T14:56:08.698Z</time>
      </trkpt>
      <trkpt lat="44.50651" lon="1.63447">
        <ele>327</ele>
        <time>2019-08-08T14:56:13.707Z</time>
      </trkpt>
      <trkpt lat="44.50654" lon="1.6344">
        <ele>326</ele>
        <time>2019-08-08T14:56:18.730Z</time>
      </trkpt>
      <trkpt lat="44.50659" lon="1.63433">
        <ele>326</ele>
        <time>2019-08-08T14:56:23.711Z</time>
      </trkpt>
      <trkpt lat="44.50662" lon="1.63428">
        <ele>325</ele>
        <time>2019-08-08T14:56:28.712Z</time>
      </trkpt>
      <trkpt lat="44.50667" lon="1.63421">
        <ele>325</ele>
        <time>2019-08-08T14:56:33.703Z</time>
      </trkpt>
      <trkpt lat="44.50671" lon="1.63415">
        <ele>325</ele>
        <time>2019-08-08T14:56:38.724Z</time>
      </trkpt>
      <trkpt lat="44.50673" lon="1.63408">
        <ele>325</ele>
        <time>2019-08-08T14:56:43.704Z</time>
      </trkpt>
      <trkpt lat="44.50673" lon="1.63401">
        <ele>323</ele>
        <time>2019-08-08T14:56:48.740Z</time>
      </trkpt>
      <trkpt lat="44.50674" lon="1.63395">
        <ele>323</ele>
        <time>2019-08-08T14:56:53.699Z</time>
      </trkpt>
      <trkpt lat="44.50675" lon="1.63387">
        <ele>323</ele>
        <time>2019-08-08T14:56:58.738Z</time>
      </trkpt>
      <trkpt lat="44.50677" lon="1.63379">
        <ele>323</ele>
        <time>2019-08-08T14:57:03.707Z</time>
      </trkpt>
      <trkpt lat="44.50683" lon="1.63374">
        <ele>323</ele>
        <time>2019-08-08T14:57:08.735Z</time>
      </trkpt>
      <trkpt lat="44.50687" lon="1.63368">
        <ele>323</ele>
        <time>2019-08-08T14:57:13.708Z</time>
      </trkpt>
      <trkpt lat="44.50689" lon="1.63362">
        <ele>323</ele>
        <time>2019-08-08T14:57:18.712Z</time>
      </trkpt>
      <trkpt lat="44.50692" lon="1.63356">
        <ele>323</ele>
        <time>2019-08-08T14:57:23.701Z</time>
      </trkpt>
      <trkpt lat="44.50697" lon="1.63352">
        <ele>323</ele>
        <time>2019-08-08T14:57:28.708Z</time>
      </trkpt>
      <trkpt lat="44.50704" lon="1.63354">
        <ele>323</ele>
        <time>2019-08-08T14:57:32.714Z</time>
      </trkpt>
      <trkpt lat="44.50718" lon="1.6336">
        <ele>322</ele>
        <time>2019-08-08T14:57:51.684Z</time>
      </trkpt>
      <trkpt lat="44.50719" lon="1.6336">
        <ele>322</ele>
        <time>2019-08-08T14:57:56.690Z</time>
      </trkpt>
      <trkpt lat="44.50719" lon="1.6336">
        <ele>322</ele>
        <time>2019-08-08T14:58:00.688Z</time>
      </trkpt>
      <trkpt lat="44.50719" lon="1.6336">
        <ele>322</ele>
        <time>2019-08-08T14:58:03.699Z</time>
      </trkpt>
      <trkpt lat="44.50742" lon="1.63371">
        <ele>323</ele>
        <time>2019-08-08T16:36:26.346Z</time>
      </trkpt>
    </trkseg>
  </trk>
</gpx>